<?xml version="1.0" encoding="UTF-8" standalone="yes"?>
<gpx
 xmlns="http://www.topografix.com/GPX/1/1"
 creator="OziExplorer Version 3956f - http://www.oziexplorer.com"
 version="1.1"
 xmlns:xsi="http://www.w3.org/2001/XMLSchema-instance"
 xsi:schemaLocation="http://www.topografix.com/GPX/1/1 http://www.topografix.com/GPX/1/1/gpx.xsd">
<metadata>
 <time>2024-12-16T09:50:21Z</time>
 <bounds minlat="31.068090" minlon="35.194560" maxlat="31.248590" maxlon="35.386320"/>
</metadata>
<wpt lat="31.2481400" lon="35.1983500">
 <time>2024-12-16T11:48:59.171Z</time>
 <name>START</name>
 <sym>Bike Trail</sym>
</wpt>
<wpt lat="31.2002800" lon="35.2165900">
 <time>2024-12-16T11:48:59.196Z</time>
 <name>TATPID-YAHEL</name>
 <sym>Flag, Red</sym>
</wpt>
<wpt lat="31.1823100" lon="35.2050200">
 <time>2024-12-16T11:48:59.197Z</time>
 <name>SPUSK-KIPOR</name>
 <sym>Flag, Red</sym>
</wpt>
<wpt lat="31.1164500" lon="35.2514200">
 <time>2024-12-16T11:48:59.198Z</time>
 <name>PODEM1</name>
 <sym>Flag, Red</sym>
</wpt>
<wpt lat="31.1052700" lon="35.2469300">
 <time>2024-12-16T11:48:59.199Z</time>
 <name>PODEM2</name>
 <sym>Flag, Red</sym>
</wpt>
<wpt lat="31.0795900" lon="35.3031300">
 <time>2024-12-16T11:48:59.200Z</time>
 <name>TATSP-AMIAZ</name>
 <sym>Flag, Red</sym>
</wpt>
<wpt lat="31.0774600" lon="35.3241600">
 <time>2024-12-16T11:48:59.201Z</time>
 <name>TATSP2-AZGAD</name>
 <sym>Flag, Red</sym>
</wpt>
<wpt lat="31.0728100" lon="35.3271300">
 <time>2024-12-16T11:48:59.202Z</time>
 <name>MAALE-AZGAD</name>
 <sym>Flag, Red</sym>
</wpt>
<wpt lat="31.0747600" lon="35.3392600">
 <time>2024-12-16T11:48:59.204Z</time>
 <name>PESHERA</name>
 <sym>Flag, Red</sym>
</wpt>
<wpt lat="31.0746340" lon="35.3402950">
 <time>2024-12-16T11:48:59.205Z</time>
 <name>PRIVAL</name>
 <sym>Flag, Red</sym>
</wpt>
<wpt lat="31.0783500" lon="35.3516900">
 <time>2024-12-16T11:48:59.206Z</time>
 <name>RAZV-KEMAH</name>
 <sym>Flag, Red</sym>
</wpt>
<wpt lat="31.0931420" lon="35.3791320">
 <time>2024-12-16T11:48:59.208Z</time>
 <name>PESHEH-SDOM</name>
 <sym>Flag, Red</sym>
</wpt>
<wpt lat="31.0968800" lon="35.3774800">
 <time>2024-12-16T11:48:59.210Z</time>
 <name>NAHAL-SDOM</name>
 <sym>Flag, Red</sym>
</wpt>
<wpt lat="31.1269900" lon="35.3732400">
 <time>2024-12-16T11:48:59.212Z</time>
 <name>EMEK-ZOAR</name>
 <sym>Flag, Red</sym>
</wpt>
<wpt lat="31.0847000" lon="35.3559600">
 <time>2024-12-16T11:48:59.213Z</time>
 <name>MEARAT-KEMAH</name>
 <sym>Flag, Red</sym>
</wpt>
<wpt lat="31.1480700" lon="35.3698400">
 <time>2024-12-16T11:48:59.214Z</time>
 <name>FINISH</name>
 <sym>Flag, Blue</sym>
</wpt>
<wpt lat="31.0762200" lon="35.3863200">
 <time>2024-12-16T11:48:59.215Z</time>
 <name>Tatspit_HarSdom</name>
 <sym>Flag, Red</sym>
</wpt>
<trk>
 <name>AradGmalimAzgadKemahSdom_63km.780m</name>
 <desc>AradGmalimAzgadKemahSdom_63km.780m</desc>
<trkseg>
<trkpt lat="31.2482100" lon="35.2031000">
<ele>570.239990</ele>
<time>2024-12-16T11:48:59.215Z</time>
</trkpt>
<trkpt lat="31.2485900" lon="35.2029000">
<ele>575.219971</ele>
<time>2024-12-16T11:48:59.215Z</time>
</trkpt>
<trkpt lat="31.2484000" lon="35.2024100">
<ele>573.080017</ele>
<time>2024-12-16T11:48:59.215Z</time>
</trkpt>
<trkpt lat="31.2485700" lon="35.2023300">
<ele>572.809998</ele>
<time>2024-12-16T11:48:59.215Z</time>
</trkpt>
<trkpt lat="31.2485500" lon="35.2022900">
<ele>572.599976</ele>
<time>2024-12-16T11:48:59.215Z</time>
</trkpt>
<trkpt lat="31.2484800" lon="35.2021300">
<ele>570.479980</ele>
<time>2024-12-16T11:48:59.215Z</time>
</trkpt>
<trkpt lat="31.2484500" lon="35.2020700">
<ele>569.290039</ele>
<time>2024-12-16T11:48:59.215Z</time>
</trkpt>
<trkpt lat="31.2484300" lon="35.2020300">
<ele>568.500000</ele>
<time>2024-12-16T11:48:59.215Z</time>
</trkpt>
<trkpt lat="31.2483500" lon="35.2019700">
<ele>567.489990</ele>
<time>2024-12-16T11:48:59.215Z</time>
</trkpt>
<trkpt lat="31.2482700" lon="35.2019400">
<ele>566.940002</ele>
<time>2024-12-16T11:48:59.215Z</time>
</trkpt>
<trkpt lat="31.2481800" lon="35.2019500">
<ele>567.090027</ele>
<time>2024-12-16T11:48:59.215Z</time>
</trkpt>
<trkpt lat="31.2480700" lon="35.2019600">
<ele>567.179993</ele>
<time>2024-12-16T11:48:59.215Z</time>
</trkpt>
<trkpt lat="31.2479700" lon="35.2019900">
<ele>566.769958</ele>
<time>2024-12-16T11:48:59.215Z</time>
</trkpt>
<trkpt lat="31.2478500" lon="35.2020300">
<ele>565.989990</ele>
<time>2024-12-16T11:48:59.215Z</time>
</trkpt>
<trkpt lat="31.2477100" lon="35.2020700">
<ele>566.049988</ele>
<time>2024-12-16T11:48:59.215Z</time>
</trkpt>
<trkpt lat="31.2475500" lon="35.2021100">
<ele>567.719971</ele>
<time>2024-12-16T11:48:59.215Z</time>
</trkpt>
<trkpt lat="31.2474900" lon="35.2021200">
<ele>568.309998</ele>
<time>2024-12-16T11:48:59.215Z</time>
</trkpt>
<trkpt lat="31.2473900" lon="35.2013400">
<ele>559.190002</ele>
<time>2024-12-16T11:48:59.215Z</time>
</trkpt>
<trkpt lat="31.2473700" lon="35.2011700">
<ele>558.359985</ele>
<time>2024-12-16T11:48:59.215Z</time>
</trkpt>
<trkpt lat="31.2473000" lon="35.2006400">
<ele>560.279968</ele>
<time>2024-12-16T11:48:59.215Z</time>
</trkpt>
<trkpt lat="31.2471300" lon="35.1993200">
<ele>562.440002</ele>
<time>2024-12-16T11:48:59.215Z</time>
</trkpt>
<trkpt lat="31.2470100" lon="35.1984600">
<ele>554.279968</ele>
<time>2024-12-16T11:48:59.215Z</time>
</trkpt>
<trkpt lat="31.2469700" lon="35.1981400">
<ele>551.100037</ele>
<time>2024-12-16T11:48:59.215Z</time>
</trkpt>
<trkpt lat="31.2469500" lon="35.1980500">
<ele>550.020020</ele>
<time>2024-12-16T11:48:59.215Z</time>
</trkpt>
<trkpt lat="31.2469300" lon="35.1979700">
<ele>549.779968</ele>
<time>2024-12-16T11:48:59.215Z</time>
</trkpt>
<trkpt lat="31.2468900" lon="35.1978600">
<ele>549.770020</ele>
<time>2024-12-16T11:48:59.215Z</time>
</trkpt>
<trkpt lat="31.2468400" lon="35.1978300">
<ele>550.169983</ele>
<time>2024-12-16T11:48:59.215Z</time>
</trkpt>
<trkpt lat="31.2467600" lon="35.1978000">
<ele>550.970032</ele>
<time>2024-12-16T11:48:59.215Z</time>
</trkpt>
<trkpt lat="31.2464000" lon="35.1977000">
<ele>554.200012</ele>
<time>2024-12-16T11:48:59.215Z</time>
</trkpt>
<trkpt lat="31.2460400" lon="35.1975400">
<ele>558.130005</ele>
<time>2024-12-16T11:48:59.215Z</time>
</trkpt>
<trkpt lat="31.2460200" lon="35.1975000">
<ele>558.309998</ele>
<time>2024-12-16T11:48:59.215Z</time>
</trkpt>
<trkpt lat="31.2460400" lon="35.1975400">
<ele>558.130005</ele>
<time>2024-12-16T11:48:59.215Z</time>
</trkpt>
<trkpt lat="31.2458200" lon="35.1974600">
<ele>560.869995</ele>
<time>2024-12-16T11:48:59.215Z</time>
</trkpt>
<trkpt lat="31.2452100" lon="35.1972700">
<ele>567.830017</ele>
<time>2024-12-16T11:48:59.215Z</time>
</trkpt>
<trkpt lat="31.2432700" lon="35.1966900">
<ele>567.339966</ele>
<time>2024-12-16T11:48:59.215Z</time>
</trkpt>
<trkpt lat="31.2418300" lon="35.1962300">
<ele>563.190002</ele>
<time>2024-12-16T11:48:59.215Z</time>
</trkpt>
<trkpt lat="31.2379000" lon="35.1950300">
<ele>564.750000</ele>
<time>2024-12-16T11:48:59.215Z</time>
</trkpt>
<trkpt lat="31.2366600" lon="35.1946500">
<ele>579.529968</ele>
<time>2024-12-16T11:48:59.215Z</time>
</trkpt>
<trkpt lat="31.2365200" lon="35.1946100">
<ele>579.910034</ele>
<time>2024-12-16T11:48:59.215Z</time>
</trkpt>
<trkpt lat="31.2359400" lon="35.1945600">
<ele>576.380005</ele>
<time>2024-12-16T11:48:59.215Z</time>
</trkpt>
<trkpt lat="31.2354400" lon="35.1946200">
<ele>569.179993</ele>
<time>2024-12-16T11:48:59.215Z</time>
</trkpt>
<trkpt lat="31.2350400" lon="35.1947300">
<ele>567.979980</ele>
<time>2024-12-16T11:48:59.215Z</time>
</trkpt>
<trkpt lat="31.2346800" lon="35.1949000">
<ele>567.640015</ele>
<time>2024-12-16T11:48:59.215Z</time>
</trkpt>
<trkpt lat="31.2345000" lon="35.1950100">
<ele>569.609985</ele>
<time>2024-12-16T11:48:59.215Z</time>
</trkpt>
<trkpt lat="31.2342000" lon="35.1952300">
<ele>571.059998</ele>
<time>2024-12-16T11:48:59.215Z</time>
</trkpt>
<trkpt lat="31.2339100" lon="35.1954900">
<ele>571.640015</ele>
<time>2024-12-16T11:48:59.215Z</time>
</trkpt>
<trkpt lat="31.2337600" lon="35.1956600">
<ele>573.440002</ele>
<time>2024-12-16T11:48:59.215Z</time>
</trkpt>
<trkpt lat="31.2336400" lon="35.1957900">
<ele>574.000000</ele>
<time>2024-12-16T11:48:59.215Z</time>
</trkpt>
<trkpt lat="31.2333000" lon="35.1962200">
<ele>576.380005</ele>
<time>2024-12-16T11:48:59.215Z</time>
</trkpt>
<trkpt lat="31.2330500" lon="35.1966200">
<ele>576.419983</ele>
<time>2024-12-16T11:48:59.215Z</time>
</trkpt>
<trkpt lat="31.2328400" lon="35.1971300">
<ele>579.380005</ele>
<time>2024-12-16T11:48:59.215Z</time>
</trkpt>
<trkpt lat="31.2327200" lon="35.1972200">
<ele>579.979980</ele>
<time>2024-12-16T11:48:59.215Z</time>
</trkpt>
<trkpt lat="31.2325800" lon="35.1972200">
<ele>579.979980</ele>
<time>2024-12-16T11:48:59.215Z</time>
</trkpt>
<trkpt lat="31.2324100" lon="35.1971400">
<ele>579.399963</ele>
<time>2024-12-16T11:48:59.215Z</time>
</trkpt>
<trkpt lat="31.2323300" lon="35.1970000">
<ele>579.070007</ele>
<time>2024-12-16T11:48:59.215Z</time>
</trkpt>
<trkpt lat="31.2323400" lon="35.1966800">
<ele>577.369995</ele>
<time>2024-12-16T11:48:59.215Z</time>
</trkpt>
<trkpt lat="31.2323200" lon="35.1965800">
<ele>577.479980</ele>
<time>2024-12-16T11:48:59.215Z</time>
</trkpt>
<trkpt lat="31.2322700" lon="35.1965300">
<ele>578.229980</ele>
<time>2024-12-16T11:48:59.215Z</time>
</trkpt>
<trkpt lat="31.2321700" lon="35.1964900">
<ele>580.109985</ele>
<time>2024-12-16T11:48:59.215Z</time>
</trkpt>
<trkpt lat="31.2319200" lon="35.1965400">
<ele>584.440002</ele>
<time>2024-12-16T11:48:59.215Z</time>
</trkpt>
<trkpt lat="31.2317200" lon="35.1966500">
<ele>582.570007</ele>
<time>2024-12-16T11:48:59.215Z</time>
</trkpt>
<trkpt lat="31.2315600" lon="35.1967700">
<ele>580.720032</ele>
<time>2024-12-16T11:48:59.215Z</time>
</trkpt>
<trkpt lat="31.2312800" lon="35.1970200">
<ele>582.650024</ele>
<time>2024-12-16T11:48:59.215Z</time>
</trkpt>
<trkpt lat="31.2309700" lon="35.1974800">
<ele>592.840027</ele>
<time>2024-12-16T11:48:59.215Z</time>
</trkpt>
<trkpt lat="31.2307500" lon="35.1978000">
<ele>593.739990</ele>
<time>2024-12-16T11:48:59.215Z</time>
</trkpt>
<trkpt lat="31.2305900" lon="35.1979000">
<ele>591.440002</ele>
<time>2024-12-16T11:48:59.215Z</time>
</trkpt>
<trkpt lat="31.2303900" lon="35.1979500">
<ele>591.000000</ele>
<time>2024-12-16T11:48:59.215Z</time>
</trkpt>
<trkpt lat="31.2302700" lon="35.1980800">
<ele>591.109985</ele>
<time>2024-12-16T11:48:59.215Z</time>
</trkpt>
<trkpt lat="31.2301900" lon="35.1982300">
<ele>591.150024</ele>
<time>2024-12-16T11:48:59.215Z</time>
</trkpt>
<trkpt lat="31.2300600" lon="35.1985200">
<ele>589.790039</ele>
<time>2024-12-16T11:48:59.215Z</time>
</trkpt>
<trkpt lat="31.2300100" lon="35.1986400">
<ele>589.339966</ele>
<time>2024-12-16T11:48:59.215Z</time>
</trkpt>
<trkpt lat="31.2299400" lon="35.1987400">
<ele>589.960022</ele>
<time>2024-12-16T11:48:59.215Z</time>
</trkpt>
<trkpt lat="31.2299100" lon="35.1988000">
<ele>590.130005</ele>
<time>2024-12-16T11:48:59.215Z</time>
</trkpt>
<trkpt lat="31.2297500" lon="35.1990600">
<ele>590.429993</ele>
<time>2024-12-16T11:48:59.215Z</time>
</trkpt>
<trkpt lat="31.2296700" lon="35.1993500">
<ele>592.920044</ele>
<time>2024-12-16T11:48:59.215Z</time>
</trkpt>
<trkpt lat="31.2296300" lon="35.1997400">
<ele>595.000000</ele>
<time>2024-12-16T11:48:59.215Z</time>
</trkpt>
<trkpt lat="31.2295600" lon="35.2000100">
<ele>595.049988</ele>
<time>2024-12-16T11:48:59.215Z</time>
</trkpt>
<trkpt lat="31.2294300" lon="35.2004200">
<ele>598.460022</ele>
<time>2024-12-16T11:48:59.215Z</time>
</trkpt>
<trkpt lat="31.2293200" lon="35.2009600">
<ele>596.799988</ele>
<time>2024-12-16T11:48:59.215Z</time>
</trkpt>
<trkpt lat="31.2291900" lon="35.2013900">
<ele>593.809998</ele>
<time>2024-12-16T11:48:59.215Z</time>
</trkpt>
<trkpt lat="31.2290100" lon="35.2017500">
<ele>589.549988</ele>
<time>2024-12-16T11:48:59.215Z</time>
</trkpt>
<trkpt lat="31.2286200" lon="35.2022800">
<ele>585.390015</ele>
<time>2024-12-16T11:48:59.215Z</time>
</trkpt>
<trkpt lat="31.2285400" lon="35.2024300">
<ele>584.640015</ele>
<time>2024-12-16T11:48:59.215Z</time>
</trkpt>
<trkpt lat="31.2284800" lon="35.2026300">
<ele>584.530029</ele>
<time>2024-12-16T11:48:59.215Z</time>
</trkpt>
<trkpt lat="31.2284000" lon="35.2033500">
<ele>589.339966</ele>
<time>2024-12-16T11:48:59.215Z</time>
</trkpt>
<trkpt lat="31.2283000" lon="35.2036600">
<ele>590.429993</ele>
<time>2024-12-16T11:48:59.215Z</time>
</trkpt>
<trkpt lat="31.2277900" lon="35.2046100">
<ele>597.440002</ele>
<time>2024-12-16T11:48:59.215Z</time>
</trkpt>
<trkpt lat="31.2274900" lon="35.2053000">
<ele>601.750000</ele>
<time>2024-12-16T11:48:59.215Z</time>
</trkpt>
<trkpt lat="31.2274600" lon="35.2053600">
<ele>601.070007</ele>
<time>2024-12-16T11:48:59.215Z</time>
</trkpt>
<trkpt lat="31.2274600" lon="35.2053600">
<ele>601.070007</ele>
<time>2024-12-16T11:48:59.215Z</time>
</trkpt>
<trkpt lat="31.2274600" lon="35.2053600">
<ele>601.070007</ele>
<time>2024-12-16T11:48:59.215Z</time>
</trkpt>
<trkpt lat="31.2269000" lon="35.2063500">
<ele>602.219971</ele>
<time>2024-12-16T11:48:59.215Z</time>
</trkpt>
<trkpt lat="31.2266800" lon="35.2068800">
<ele>606.400024</ele>
<time>2024-12-16T11:48:59.215Z</time>
</trkpt>
<trkpt lat="31.2264600" lon="35.2073200">
<ele>603.179993</ele>
<time>2024-12-16T11:48:59.215Z</time>
</trkpt>
<trkpt lat="31.2264100" lon="35.2077100">
<ele>607.139954</ele>
<time>2024-12-16T11:48:59.215Z</time>
</trkpt>
<trkpt lat="31.2263300" lon="35.2078600">
<ele>607.470032</ele>
<time>2024-12-16T11:48:59.215Z</time>
</trkpt>
<trkpt lat="31.2261400" lon="35.2079900">
<ele>604.700012</ele>
<time>2024-12-16T11:48:59.215Z</time>
</trkpt>
<trkpt lat="31.2260500" lon="35.2080900">
<ele>603.739990</ele>
<time>2024-12-16T11:48:59.215Z</time>
</trkpt>
<trkpt lat="31.2257000" lon="35.2085500">
<ele>601.239990</ele>
<time>2024-12-16T11:48:59.215Z</time>
</trkpt>
<trkpt lat="31.2255100" lon="35.2089100">
<ele>601.279968</ele>
<time>2024-12-16T11:48:59.215Z</time>
</trkpt>
<trkpt lat="31.2251100" lon="35.2094200">
<ele>605.010010</ele>
<time>2024-12-16T11:48:59.215Z</time>
</trkpt>
<trkpt lat="31.2249900" lon="35.2097300">
<ele>608.080017</ele>
<time>2024-12-16T11:48:59.215Z</time>
</trkpt>
<trkpt lat="31.2248700" lon="35.2098400">
<ele>609.070007</ele>
<time>2024-12-16T11:48:59.215Z</time>
</trkpt>
<trkpt lat="31.2241700" lon="35.2099800">
<ele>616.750000</ele>
<time>2024-12-16T11:48:59.215Z</time>
</trkpt>
<trkpt lat="31.2240200" lon="35.2099800">
<ele>620.070007</ele>
<time>2024-12-16T11:48:59.215Z</time>
</trkpt>
<trkpt lat="31.2239000" lon="35.2099200">
<ele>622.729980</ele>
<time>2024-12-16T11:48:59.215Z</time>
</trkpt>
<trkpt lat="31.2237700" lon="35.2097000">
<ele>623.489990</ele>
<time>2024-12-16T11:48:59.215Z</time>
</trkpt>
<trkpt lat="31.2237300" lon="35.2095200">
<ele>623.780029</ele>
<time>2024-12-16T11:48:59.215Z</time>
</trkpt>
<trkpt lat="31.2236900" lon="35.2093600">
<ele>623.220032</ele>
<time>2024-12-16T11:48:59.215Z</time>
</trkpt>
<trkpt lat="31.2235700" lon="35.2092600">
<ele>621.429993</ele>
<time>2024-12-16T11:48:59.215Z</time>
</trkpt>
<trkpt lat="31.2233700" lon="35.2091800">
<ele>619.400024</ele>
<time>2024-12-16T11:48:59.215Z</time>
</trkpt>
<trkpt lat="31.2227900" lon="35.2090200">
<ele>611.239990</ele>
<time>2024-12-16T11:48:59.215Z</time>
</trkpt>
<trkpt lat="31.2222400" lon="35.2090300">
<ele>609.539978</ele>
<time>2024-12-16T11:48:59.215Z</time>
</trkpt>
<trkpt lat="31.2219600" lon="35.2088100">
<ele>611.660034</ele>
<time>2024-12-16T11:48:59.215Z</time>
</trkpt>
<trkpt lat="31.2219600" lon="35.2088100">
<ele>611.660034</ele>
<time>2024-12-16T11:48:59.215Z</time>
</trkpt>
<trkpt lat="31.2219600" lon="35.2088100">
<ele>611.660034</ele>
<time>2024-12-16T11:48:59.215Z</time>
</trkpt>
<trkpt lat="31.2217900" lon="35.2086900">
<ele>611.520020</ele>
<time>2024-12-16T11:48:59.215Z</time>
</trkpt>
<trkpt lat="31.2214000" lon="35.2084700">
<ele>609.059998</ele>
<time>2024-12-16T11:48:59.215Z</time>
</trkpt>
<trkpt lat="31.2212400" lon="35.2082000">
<ele>605.619995</ele>
<time>2024-12-16T11:48:59.215Z</time>
</trkpt>
<trkpt lat="31.2209600" lon="35.2074800">
<ele>597.109985</ele>
<time>2024-12-16T11:48:59.215Z</time>
</trkpt>
<trkpt lat="31.2208000" lon="35.2068500">
<ele>596.159973</ele>
<time>2024-12-16T11:48:59.215Z</time>
</trkpt>
<trkpt lat="31.2204100" lon="35.2059200">
<ele>593.739990</ele>
<time>2024-12-16T11:48:59.215Z</time>
</trkpt>
<trkpt lat="31.2203100" lon="35.2058300">
<ele>594.630005</ele>
<time>2024-12-16T11:48:59.215Z</time>
</trkpt>
<trkpt lat="31.2195900" lon="35.2054800">
<ele>602.409973</ele>
<time>2024-12-16T11:48:59.215Z</time>
</trkpt>
<trkpt lat="31.2193900" lon="35.2054300">
<ele>602.970032</ele>
<time>2024-12-16T11:48:59.215Z</time>
</trkpt>
<trkpt lat="31.2190800" lon="35.2054200">
<ele>599.979980</ele>
<time>2024-12-16T11:48:59.215Z</time>
</trkpt>
<trkpt lat="31.2185300" lon="35.2054300">
<ele>595.940002</ele>
<time>2024-12-16T11:48:59.215Z</time>
</trkpt>
<trkpt lat="31.2179700" lon="35.2054300">
<ele>593.399963</ele>
<time>2024-12-16T11:48:59.215Z</time>
</trkpt>
<trkpt lat="31.2176100" lon="35.2054800">
<ele>587.390015</ele>
<time>2024-12-16T11:48:59.215Z</time>
</trkpt>
<trkpt lat="31.2170900" lon="35.2058000">
<ele>592.869995</ele>
<time>2024-12-16T11:48:59.215Z</time>
</trkpt>
<trkpt lat="31.2166200" lon="35.2064100">
<ele>595.179993</ele>
<time>2024-12-16T11:48:59.215Z</time>
</trkpt>
<trkpt lat="31.2162100" lon="35.2069700">
<ele>596.690002</ele>
<time>2024-12-16T11:48:59.215Z</time>
</trkpt>
<trkpt lat="31.2159900" lon="35.2075200">
<ele>601.719971</ele>
<time>2024-12-16T11:48:59.215Z</time>
</trkpt>
<trkpt lat="31.2157700" lon="35.2080600">
<ele>608.080017</ele>
<time>2024-12-16T11:48:59.215Z</time>
</trkpt>
<trkpt lat="31.2153700" lon="35.2086100">
<ele>598.989990</ele>
<time>2024-12-16T11:48:59.215Z</time>
</trkpt>
<trkpt lat="31.2151100" lon="35.2091100">
<ele>593.829956</ele>
<time>2024-12-16T11:48:59.215Z</time>
</trkpt>
<trkpt lat="31.2148500" lon="35.2096000">
<ele>592.130005</ele>
<time>2024-12-16T11:48:59.215Z</time>
</trkpt>
<trkpt lat="31.2145900" lon="35.2101500">
<ele>590.179993</ele>
<time>2024-12-16T11:48:59.215Z</time>
</trkpt>
<trkpt lat="31.2143200" lon="35.2107000">
<ele>591.089966</ele>
<time>2024-12-16T11:48:59.215Z</time>
</trkpt>
<trkpt lat="31.2141800" lon="35.2109800">
<ele>590.239990</ele>
<time>2024-12-16T11:48:59.215Z</time>
</trkpt>
<trkpt lat="31.2138000" lon="35.2116200">
<ele>591.750000</ele>
<time>2024-12-16T11:48:59.215Z</time>
</trkpt>
<trkpt lat="31.2133500" lon="35.2121300">
<ele>593.600037</ele>
<time>2024-12-16T11:48:59.215Z</time>
</trkpt>
<trkpt lat="31.2129000" lon="35.2126400">
<ele>591.830017</ele>
<time>2024-12-16T11:48:59.215Z</time>
</trkpt>
<trkpt lat="31.2124100" lon="35.2131400">
<ele>591.919983</ele>
<time>2024-12-16T11:48:59.215Z</time>
</trkpt>
<trkpt lat="31.2119200" lon="35.2136500">
<ele>593.559998</ele>
<time>2024-12-16T11:48:59.215Z</time>
</trkpt>
<trkpt lat="31.2112700" lon="35.2141600">
<ele>595.530029</ele>
<time>2024-12-16T11:48:59.215Z</time>
</trkpt>
<trkpt lat="31.2107600" lon="35.2144800">
<ele>595.339966</ele>
<time>2024-12-16T11:48:59.215Z</time>
</trkpt>
<trkpt lat="31.2102400" lon="35.2144600">
<ele>587.500000</ele>
<time>2024-12-16T11:48:59.215Z</time>
</trkpt>
<trkpt lat="31.2094100" lon="35.2146800">
<ele>584.039978</ele>
<time>2024-12-16T11:48:59.215Z</time>
</trkpt>
<trkpt lat="31.2090400" lon="35.2146800">
<ele>590.900024</ele>
<time>2024-12-16T11:48:59.215Z</time>
</trkpt>
<trkpt lat="31.2087400" lon="35.2144600">
<ele>596.500000</ele>
<time>2024-12-16T11:48:59.215Z</time>
</trkpt>
<trkpt lat="31.2083100" lon="35.2139900">
<ele>594.450012</ele>
<time>2024-12-16T11:48:59.215Z</time>
</trkpt>
<trkpt lat="31.2078700" lon="35.2135200">
<ele>601.000000</ele>
<time>2024-12-16T11:48:59.215Z</time>
</trkpt>
<trkpt lat="31.2078900" lon="35.2134900">
<ele>600.789978</ele>
<time>2024-12-16T11:48:59.215Z</time>
</trkpt>
<trkpt lat="31.2078600" lon="35.2134500">
<ele>601.109985</ele>
<time>2024-12-16T11:48:59.215Z</time>
</trkpt>
<trkpt lat="31.2078300" lon="35.2134200">
<ele>601.440002</ele>
<time>2024-12-16T11:48:59.215Z</time>
</trkpt>
<trkpt lat="31.2077900" lon="35.2133700">
<ele>601.869995</ele>
<time>2024-12-16T11:48:59.215Z</time>
</trkpt>
<trkpt lat="31.2077600" lon="35.2133400">
<ele>602.000000</ele>
<time>2024-12-16T11:48:59.215Z</time>
</trkpt>
<trkpt lat="31.2077300" lon="35.2133200">
<ele>602.089966</ele>
<time>2024-12-16T11:48:59.215Z</time>
</trkpt>
<trkpt lat="31.2076900" lon="35.2132800">
<ele>602.320007</ele>
<time>2024-12-16T11:48:59.215Z</time>
</trkpt>
<trkpt lat="31.2076500" lon="35.2132500">
<ele>602.460022</ele>
<time>2024-12-16T11:48:59.215Z</time>
</trkpt>
<trkpt lat="31.2076200" lon="35.2132300">
<ele>602.529968</ele>
<time>2024-12-16T11:48:59.215Z</time>
</trkpt>
<trkpt lat="31.2075800" lon="35.2132000">
<ele>602.619995</ele>
<time>2024-12-16T11:48:59.215Z</time>
</trkpt>
<trkpt lat="31.2075300" lon="35.2131800">
<ele>602.609985</ele>
<time>2024-12-16T11:48:59.215Z</time>
</trkpt>
<trkpt lat="31.2074900" lon="35.2131600">
<ele>602.239990</ele>
<time>2024-12-16T11:48:59.215Z</time>
</trkpt>
<trkpt lat="31.2074500" lon="35.2131500">
<ele>600.739990</ele>
<time>2024-12-16T11:48:59.215Z</time>
</trkpt>
<trkpt lat="31.2074100" lon="35.2131400">
<ele>599.229980</ele>
<time>2024-12-16T11:48:59.215Z</time>
</trkpt>
<trkpt lat="31.2073800" lon="35.2131400">
<ele>598.080017</ele>
<time>2024-12-16T11:48:59.215Z</time>
</trkpt>
<trkpt lat="31.2073300" lon="35.2131400">
<ele>596.149963</ele>
<time>2024-12-16T11:48:59.215Z</time>
</trkpt>
<trkpt lat="31.2072800" lon="35.2131400">
<ele>594.219971</ele>
<time>2024-12-16T11:48:59.215Z</time>
</trkpt>
<trkpt lat="31.2072500" lon="35.2131400">
<ele>593.070007</ele>
<time>2024-12-16T11:48:59.215Z</time>
</trkpt>
<trkpt lat="31.2071900" lon="35.2131500">
<ele>591.229980</ele>
<time>2024-12-16T11:48:59.215Z</time>
</trkpt>
<trkpt lat="31.2071400" lon="35.2131700">
<ele>590.049988</ele>
<time>2024-12-16T11:48:59.215Z</time>
</trkpt>
<trkpt lat="31.2070800" lon="35.2132100">
<ele>588.700012</ele>
<time>2024-12-16T11:48:59.215Z</time>
</trkpt>
<trkpt lat="31.2070300" lon="35.2132400">
<ele>587.619995</ele>
<time>2024-12-16T11:48:59.215Z</time>
</trkpt>
<trkpt lat="31.2069500" lon="35.2132900">
<ele>585.969971</ele>
<time>2024-12-16T11:48:59.215Z</time>
</trkpt>
<trkpt lat="31.2068300" lon="35.2133700">
<ele>585.880005</ele>
<time>2024-12-16T11:48:59.215Z</time>
</trkpt>
<trkpt lat="31.2067700" lon="35.2134200">
<ele>585.919983</ele>
<time>2024-12-16T11:48:59.215Z</time>
</trkpt>
<trkpt lat="31.2067100" lon="35.2134600">
<ele>585.750000</ele>
<time>2024-12-16T11:48:59.215Z</time>
</trkpt>
<trkpt lat="31.2066600" lon="35.2135000">
<ele>585.549988</ele>
<time>2024-12-16T11:48:59.215Z</time>
</trkpt>
<trkpt lat="31.2066000" lon="35.2135400">
<ele>585.150024</ele>
<time>2024-12-16T11:48:59.215Z</time>
</trkpt>
<trkpt lat="31.2065500" lon="35.2135800">
<ele>584.719971</ele>
<time>2024-12-16T11:48:59.215Z</time>
</trkpt>
<trkpt lat="31.2065000" lon="35.2136300">
<ele>584.090027</ele>
<time>2024-12-16T11:48:59.215Z</time>
</trkpt>
<trkpt lat="31.2064400" lon="35.2136800">
<ele>583.099976</ele>
<time>2024-12-16T11:48:59.215Z</time>
</trkpt>
<trkpt lat="31.2063800" lon="35.2137200">
<ele>582.059998</ele>
<time>2024-12-16T11:48:59.215Z</time>
</trkpt>
<trkpt lat="31.2063100" lon="35.2137800">
<ele>580.359985</ele>
<time>2024-12-16T11:48:59.215Z</time>
</trkpt>
<trkpt lat="31.2062400" lon="35.2138400">
<ele>578.670044</ele>
<time>2024-12-16T11:48:59.215Z</time>
</trkpt>
<trkpt lat="31.2061700" lon="35.2139000">
<ele>576.979980</ele>
<time>2024-12-16T11:48:59.215Z</time>
</trkpt>
<trkpt lat="31.2060900" lon="35.2139700">
<ele>575.380005</ele>
<time>2024-12-16T11:48:59.215Z</time>
</trkpt>
<trkpt lat="31.2060200" lon="35.2140400">
<ele>574.940002</ele>
<time>2024-12-16T11:48:59.215Z</time>
</trkpt>
<trkpt lat="31.2059400" lon="35.2141100">
<ele>574.770020</ele>
<time>2024-12-16T11:48:59.215Z</time>
</trkpt>
<trkpt lat="31.2058500" lon="35.2141800">
<ele>574.799988</ele>
<time>2024-12-16T11:48:59.215Z</time>
</trkpt>
<trkpt lat="31.2057700" lon="35.2142500">
<ele>574.419983</ele>
<time>2024-12-16T11:48:59.215Z</time>
</trkpt>
<trkpt lat="31.2056900" lon="35.2143200">
<ele>575.109985</ele>
<time>2024-12-16T11:48:59.215Z</time>
</trkpt>
<trkpt lat="31.2056200" lon="35.2143900">
<ele>576.760010</ele>
<time>2024-12-16T11:48:59.215Z</time>
</trkpt>
<trkpt lat="31.2055400" lon="35.2144500">
<ele>579.059998</ele>
<time>2024-12-16T11:48:59.215Z</time>
</trkpt>
<trkpt lat="31.2054700" lon="35.2145000">
<ele>579.390015</ele>
<time>2024-12-16T11:48:59.215Z</time>
</trkpt>
<trkpt lat="31.2054000" lon="35.2145500">
<ele>580.260010</ele>
<time>2024-12-16T11:48:59.215Z</time>
</trkpt>
<trkpt lat="31.2053300" lon="35.2145800">
<ele>581.539978</ele>
<time>2024-12-16T11:48:59.215Z</time>
</trkpt>
<trkpt lat="31.2052600" lon="35.2145900">
<ele>582.600037</ele>
<time>2024-12-16T11:48:59.215Z</time>
</trkpt>
<trkpt lat="31.2052000" lon="35.2146000">
<ele>582.799988</ele>
<time>2024-12-16T11:48:59.215Z</time>
</trkpt>
<trkpt lat="31.2051400" lon="35.2146100">
<ele>582.989990</ele>
<time>2024-12-16T11:48:59.215Z</time>
</trkpt>
<trkpt lat="31.2050900" lon="35.2146100">
<ele>583.059998</ele>
<time>2024-12-16T11:48:59.215Z</time>
</trkpt>
<trkpt lat="31.2050400" lon="35.2146200">
<ele>583.209961</ele>
<time>2024-12-16T11:48:59.215Z</time>
</trkpt>
<trkpt lat="31.2049800" lon="35.2146300">
<ele>583.309998</ele>
<time>2024-12-16T11:48:59.215Z</time>
</trkpt>
<trkpt lat="31.2049400" lon="35.2146300">
<ele>583.260010</ele>
<time>2024-12-16T11:48:59.215Z</time>
</trkpt>
<trkpt lat="31.2048900" lon="35.2146400">
<ele>583.250000</ele>
<time>2024-12-16T11:48:59.215Z</time>
</trkpt>
<trkpt lat="31.2048400" lon="35.2146500">
<ele>583.200012</ele>
<time>2024-12-16T11:48:59.215Z</time>
</trkpt>
<trkpt lat="31.2047900" lon="35.2146500">
<ele>583.119995</ele>
<time>2024-12-16T11:48:59.215Z</time>
</trkpt>
<trkpt lat="31.2047500" lon="35.2146600">
<ele>583.059998</ele>
<time>2024-12-16T11:48:59.215Z</time>
</trkpt>
<trkpt lat="31.2047100" lon="35.2146600">
<ele>583.030029</ele>
<time>2024-12-16T11:48:59.215Z</time>
</trkpt>
<trkpt lat="31.2046700" lon="35.2146600">
<ele>583.150024</ele>
<time>2024-12-16T11:48:59.215Z</time>
</trkpt>
<trkpt lat="31.2046400" lon="35.2146600">
<ele>583.229980</ele>
<time>2024-12-16T11:48:59.215Z</time>
</trkpt>
<trkpt lat="31.2046100" lon="35.2146500">
<ele>583.299988</ele>
<time>2024-12-16T11:48:59.215Z</time>
</trkpt>
<trkpt lat="31.2045800" lon="35.2146500">
<ele>583.380005</ele>
<time>2024-12-16T11:48:59.215Z</time>
</trkpt>
<trkpt lat="31.2045400" lon="35.2146400">
<ele>583.460022</ele>
<time>2024-12-16T11:48:59.215Z</time>
</trkpt>
<trkpt lat="31.2045100" lon="35.2146200">
<ele>583.479980</ele>
<time>2024-12-16T11:48:59.215Z</time>
</trkpt>
<trkpt lat="31.2044700" lon="35.2146000">
<ele>583.510010</ele>
<time>2024-12-16T11:48:59.215Z</time>
</trkpt>
<trkpt lat="31.2044500" lon="35.2145700">
<ele>583.440002</ele>
<time>2024-12-16T11:48:59.215Z</time>
</trkpt>
<trkpt lat="31.2043800" lon="35.2145400">
<ele>584.200012</ele>
<time>2024-12-16T11:48:59.215Z</time>
</trkpt>
<trkpt lat="31.2043300" lon="35.2145200">
<ele>584.729980</ele>
<time>2024-12-16T11:48:59.215Z</time>
</trkpt>
<trkpt lat="31.2042900" lon="35.2145100">
<ele>585.169983</ele>
<time>2024-12-16T11:48:59.215Z</time>
</trkpt>
<trkpt lat="31.2042600" lon="35.2145000">
<ele>585.460022</ele>
<time>2024-12-16T11:48:59.215Z</time>
</trkpt>
<trkpt lat="31.2042200" lon="35.2144900">
<ele>585.850037</ele>
<time>2024-12-16T11:48:59.215Z</time>
</trkpt>
<trkpt lat="31.2041800" lon="35.2144800">
<ele>586.229980</ele>
<time>2024-12-16T11:48:59.215Z</time>
</trkpt>
<trkpt lat="31.2041400" lon="35.2144600">
<ele>586.729980</ele>
<time>2024-12-16T11:48:59.215Z</time>
</trkpt>
<trkpt lat="31.2041100" lon="35.2144500">
<ele>587.279968</ele>
<time>2024-12-16T11:48:59.215Z</time>
</trkpt>
<trkpt lat="31.2040700" lon="35.2144400">
<ele>588.080017</ele>
<time>2024-12-16T11:48:59.215Z</time>
</trkpt>
<trkpt lat="31.2040300" lon="35.2144300">
<ele>588.929993</ele>
<time>2024-12-16T11:48:59.215Z</time>
</trkpt>
<trkpt lat="31.2039700" lon="35.2144200">
<ele>590.190002</ele>
<time>2024-12-16T11:48:59.215Z</time>
</trkpt>
<trkpt lat="31.2039300" lon="35.2144200">
<ele>591.040039</ele>
<time>2024-12-16T11:48:59.215Z</time>
</trkpt>
<trkpt lat="31.2038900" lon="35.2144200">
<ele>591.890015</ele>
<time>2024-12-16T11:48:59.215Z</time>
</trkpt>
<trkpt lat="31.2038400" lon="35.2144400">
<ele>591.460022</ele>
<time>2024-12-16T11:48:59.215Z</time>
</trkpt>
<trkpt lat="31.2037900" lon="35.2144500">
<ele>590.940002</ele>
<time>2024-12-16T11:48:59.215Z</time>
</trkpt>
<trkpt lat="31.2037400" lon="35.2144600">
<ele>590.419983</ele>
<time>2024-12-16T11:48:59.215Z</time>
</trkpt>
<trkpt lat="31.2036900" lon="35.2144800">
<ele>589.890015</ele>
<time>2024-12-16T11:48:59.215Z</time>
</trkpt>
<trkpt lat="31.2036600" lon="35.2144900">
<ele>589.559998</ele>
<time>2024-12-16T11:48:59.215Z</time>
</trkpt>
<trkpt lat="31.2036400" lon="35.2145100">
<ele>589.339966</ele>
<time>2024-12-16T11:48:59.215Z</time>
</trkpt>
<trkpt lat="31.2036000" lon="35.2145400">
<ele>588.880005</ele>
<time>2024-12-16T11:48:59.215Z</time>
</trkpt>
<trkpt lat="31.2035600" lon="35.2145700">
<ele>588.380005</ele>
<time>2024-12-16T11:48:59.215Z</time>
</trkpt>
<trkpt lat="31.2035200" lon="35.2146000">
<ele>587.789978</ele>
<time>2024-12-16T11:48:59.215Z</time>
</trkpt>
<trkpt lat="31.2034800" lon="35.2146200">
<ele>587.159973</ele>
<time>2024-12-16T11:48:59.215Z</time>
</trkpt>
<trkpt lat="31.2034600" lon="35.2146400">
<ele>586.760010</ele>
<time>2024-12-16T11:48:59.215Z</time>
</trkpt>
<trkpt lat="31.2034400" lon="35.2146600">
<ele>586.330017</ele>
<time>2024-12-16T11:48:59.215Z</time>
</trkpt>
<trkpt lat="31.2034100" lon="35.2146800">
<ele>585.710022</ele>
<time>2024-12-16T11:48:59.215Z</time>
</trkpt>
<trkpt lat="31.2033800" lon="35.2147000">
<ele>585.040039</ele>
<time>2024-12-16T11:48:59.215Z</time>
</trkpt>
<trkpt lat="31.2033500" lon="35.2147200">
<ele>584.320007</ele>
<time>2024-12-16T11:48:59.215Z</time>
</trkpt>
<trkpt lat="31.2033100" lon="35.2147300">
<ele>584.080017</ele>
<time>2024-12-16T11:48:59.215Z</time>
</trkpt>
<trkpt lat="31.2032800" lon="35.2147400">
<ele>584.179993</ele>
<time>2024-12-16T11:48:59.215Z</time>
</trkpt>
<trkpt lat="31.2032400" lon="35.2147600">
<ele>584.289978</ele>
<time>2024-12-16T11:48:59.215Z</time>
</trkpt>
<trkpt lat="31.2032000" lon="35.2147700">
<ele>584.400024</ele>
<time>2024-12-16T11:48:59.215Z</time>
</trkpt>
<trkpt lat="31.2031300" lon="35.2147900">
<ele>584.549988</ele>
<time>2024-12-16T11:48:59.215Z</time>
</trkpt>
<trkpt lat="31.2030900" lon="35.2148000">
<ele>584.630005</ele>
<time>2024-12-16T11:48:59.215Z</time>
</trkpt>
<trkpt lat="31.2030600" lon="35.2148000">
<ele>584.709961</ele>
<time>2024-12-16T11:48:59.215Z</time>
</trkpt>
<trkpt lat="31.2030200" lon="35.2148000">
<ele>584.940002</ele>
<time>2024-12-16T11:48:59.215Z</time>
</trkpt>
<trkpt lat="31.2029800" lon="35.2148000">
<ele>585.190002</ele>
<time>2024-12-16T11:48:59.215Z</time>
</trkpt>
<trkpt lat="31.2029400" lon="35.2147900">
<ele>585.489990</ele>
<time>2024-12-16T11:48:59.215Z</time>
</trkpt>
<trkpt lat="31.2029000" lon="35.2147800">
<ele>585.799988</ele>
<time>2024-12-16T11:48:59.215Z</time>
</trkpt>
<trkpt lat="31.2028500" lon="35.2147700">
<ele>586.179993</ele>
<time>2024-12-16T11:48:59.215Z</time>
</trkpt>
<trkpt lat="31.2027900" lon="35.2147500">
<ele>586.719971</ele>
<time>2024-12-16T11:48:59.215Z</time>
</trkpt>
<trkpt lat="31.2027600" lon="35.2147400">
<ele>586.859985</ele>
<time>2024-12-16T11:48:59.215Z</time>
</trkpt>
<trkpt lat="31.2027200" lon="35.2147300">
<ele>586.929993</ele>
<time>2024-12-16T11:48:59.215Z</time>
</trkpt>
<trkpt lat="31.2026900" lon="35.2147100">
<ele>587.119995</ele>
<time>2024-12-16T11:48:59.215Z</time>
</trkpt>
<trkpt lat="31.2026500" lon="35.2147000">
<ele>587.230042</ele>
<time>2024-12-16T11:48:59.215Z</time>
</trkpt>
<trkpt lat="31.2026100" lon="35.2146900">
<ele>587.369995</ele>
<time>2024-12-16T11:48:59.215Z</time>
</trkpt>
<trkpt lat="31.2025800" lon="35.2146800">
<ele>587.520020</ele>
<time>2024-12-16T11:48:59.215Z</time>
</trkpt>
<trkpt lat="31.2025400" lon="35.2146600">
<ele>587.830017</ele>
<time>2024-12-16T11:48:59.215Z</time>
</trkpt>
<trkpt lat="31.2025000" lon="35.2146500">
<ele>588.040039</ele>
<time>2024-12-16T11:48:59.215Z</time>
</trkpt>
<trkpt lat="31.2024500" lon="35.2146400">
<ele>588.429993</ele>
<time>2024-12-16T11:48:59.215Z</time>
</trkpt>
<trkpt lat="31.2024100" lon="35.2146300">
<ele>588.859985</ele>
<time>2024-12-16T11:48:59.215Z</time>
</trkpt>
<trkpt lat="31.2023800" lon="35.2146200">
<ele>589.309998</ele>
<time>2024-12-16T11:48:59.215Z</time>
</trkpt>
<trkpt lat="31.2023400" lon="35.2146100">
<ele>589.899963</ele>
<time>2024-12-16T11:48:59.215Z</time>
</trkpt>
<trkpt lat="31.2023000" lon="35.2146000">
<ele>590.570007</ele>
<time>2024-12-16T11:48:59.215Z</time>
</trkpt>
<trkpt lat="31.2022600" lon="35.2145900">
<ele>591.330017</ele>
<time>2024-12-16T11:48:59.215Z</time>
</trkpt>
<trkpt lat="31.2022300" lon="35.2145800">
<ele>592.059998</ele>
<time>2024-12-16T11:48:59.215Z</time>
</trkpt>
<trkpt lat="31.2021900" lon="35.2145700">
<ele>592.429993</ele>
<time>2024-12-16T11:48:59.215Z</time>
</trkpt>
<trkpt lat="31.2021600" lon="35.2145600">
<ele>592.669983</ele>
<time>2024-12-16T11:48:59.215Z</time>
</trkpt>
<trkpt lat="31.2021200" lon="35.2145400">
<ele>593.159973</ele>
<time>2024-12-16T11:48:59.215Z</time>
</trkpt>
<trkpt lat="31.2020900" lon="35.2145300">
<ele>593.279968</ele>
<time>2024-12-16T11:48:59.215Z</time>
</trkpt>
<trkpt lat="31.2020600" lon="35.2145200">
<ele>593.350037</ele>
<time>2024-12-16T11:48:59.215Z</time>
</trkpt>
<trkpt lat="31.2020300" lon="35.2145000">
<ele>593.659973</ele>
<time>2024-12-16T11:48:59.215Z</time>
</trkpt>
<trkpt lat="31.2019900" lon="35.2144900">
<ele>593.510010</ele>
<time>2024-12-16T11:48:59.215Z</time>
</trkpt>
<trkpt lat="31.2019600" lon="35.2144800">
<ele>593.409973</ele>
<time>2024-12-16T11:48:59.215Z</time>
</trkpt>
<trkpt lat="31.2019300" lon="35.2144600">
<ele>593.720032</ele>
<time>2024-12-16T11:48:59.215Z</time>
</trkpt>
<trkpt lat="31.2018800" lon="35.2144500">
<ele>594.119995</ele>
<time>2024-12-16T11:48:59.215Z</time>
</trkpt>
<trkpt lat="31.2018600" lon="35.2144500">
<ele>594.190002</ele>
<time>2024-12-16T11:48:59.215Z</time>
</trkpt>
<trkpt lat="31.2018600" lon="35.2144500">
<ele>594.190002</ele>
<time>2024-12-16T11:48:59.215Z</time>
</trkpt>
<trkpt lat="31.2017700" lon="35.2144200">
<ele>595.270020</ele>
<time>2024-12-16T11:48:59.215Z</time>
</trkpt>
<trkpt lat="31.2015000" lon="35.2144200">
<ele>597.890015</ele>
<time>2024-12-16T11:48:59.215Z</time>
</trkpt>
<trkpt lat="31.2012400" lon="35.2145400">
<ele>597.890015</ele>
<time>2024-12-16T11:48:59.215Z</time>
</trkpt>
<trkpt lat="31.2007200" lon="35.2152100">
<ele>595.839966</ele>
<time>2024-12-16T11:48:59.215Z</time>
</trkpt>
<trkpt lat="31.2004200" lon="35.2155400">
<ele>600.950012</ele>
<time>2024-12-16T11:48:59.215Z</time>
</trkpt>
<trkpt lat="31.2004000" lon="35.2157800">
<ele>599.479980</ele>
<time>2024-12-16T11:48:59.215Z</time>
</trkpt>
<trkpt lat="31.2005500" lon="35.2160500">
<ele>598.770020</ele>
<time>2024-12-16T11:48:59.215Z</time>
</trkpt>
<trkpt lat="31.2005800" lon="35.2161700">
<ele>598.350037</ele>
<time>2024-12-16T11:48:59.215Z</time>
</trkpt>
<trkpt lat="31.2005100" lon="35.2163200">
<ele>597.089966</ele>
<time>2024-12-16T11:48:59.215Z</time>
</trkpt>
<trkpt lat="31.2002700" lon="35.2165800">
<ele>590.429993</ele>
<time>2024-12-16T11:48:59.215Z</time>
</trkpt>
<trkpt lat="31.2005100" lon="35.2163200">
<ele>597.089966</ele>
<time>2024-12-16T11:48:59.215Z</time>
</trkpt>
<trkpt lat="31.2005800" lon="35.2161700">
<ele>598.350037</ele>
<time>2024-12-16T11:48:59.215Z</time>
</trkpt>
<trkpt lat="31.2005500" lon="35.2160500">
<ele>598.770020</ele>
<time>2024-12-16T11:48:59.215Z</time>
</trkpt>
<trkpt lat="31.2004000" lon="35.2157800">
<ele>599.479980</ele>
<time>2024-12-16T11:48:59.215Z</time>
</trkpt>
<trkpt lat="31.2004200" lon="35.2155400">
<ele>600.950012</ele>
<time>2024-12-16T11:48:59.215Z</time>
</trkpt>
<trkpt lat="31.2001700" lon="35.2154100">
<ele>599.160034</ele>
<time>2024-12-16T11:48:59.215Z</time>
</trkpt>
<trkpt lat="31.2001200" lon="35.2152300">
<ele>596.830017</ele>
<time>2024-12-16T11:48:59.215Z</time>
</trkpt>
<trkpt lat="31.2003500" lon="35.2146900">
<ele>592.830017</ele>
<time>2024-12-16T11:48:59.215Z</time>
</trkpt>
<trkpt lat="31.2004000" lon="35.2143300">
<ele>592.059998</ele>
<time>2024-12-16T11:48:59.215Z</time>
</trkpt>
<trkpt lat="31.2003500" lon="35.2139400">
<ele>591.599976</ele>
<time>2024-12-16T11:48:59.215Z</time>
</trkpt>
<trkpt lat="31.2002500" lon="35.2135500">
<ele>590.770020</ele>
<time>2024-12-16T11:48:59.215Z</time>
</trkpt>
<trkpt lat="31.2001700" lon="35.2134300">
<ele>589.219971</ele>
<time>2024-12-16T11:48:59.215Z</time>
</trkpt>
<trkpt lat="31.2001700" lon="35.2134200">
<ele>589.250000</ele>
<time>2024-12-16T11:48:59.215Z</time>
</trkpt>
<trkpt lat="31.2001700" lon="35.2134300">
<ele>589.219971</ele>
<time>2024-12-16T11:48:59.215Z</time>
</trkpt>
<trkpt lat="31.2000400" lon="35.2132400">
<ele>585.539978</ele>
<time>2024-12-16T11:48:59.215Z</time>
</trkpt>
<trkpt lat="31.1999300" lon="35.2129100">
<ele>582.289978</ele>
<time>2024-12-16T11:48:59.215Z</time>
</trkpt>
<trkpt lat="31.1997900" lon="35.2127300">
<ele>578.989990</ele>
<time>2024-12-16T11:48:59.215Z</time>
</trkpt>
<trkpt lat="31.1996300" lon="35.2126300">
<ele>570.869995</ele>
<time>2024-12-16T11:48:59.215Z</time>
</trkpt>
<trkpt lat="31.1992600" lon="35.2125500">
<ele>555.359985</ele>
<time>2024-12-16T11:48:59.215Z</time>
</trkpt>
<trkpt lat="31.1985300" lon="35.2126100">
<ele>556.250000</ele>
<time>2024-12-16T11:48:59.215Z</time>
</trkpt>
<trkpt lat="31.1981600" lon="35.2124200">
<ele>556.599976</ele>
<time>2024-12-16T11:48:59.215Z</time>
</trkpt>
<trkpt lat="31.1978000" lon="35.2121200">
<ele>553.790039</ele>
<time>2024-12-16T11:48:59.215Z</time>
</trkpt>
<trkpt lat="31.1975000" lon="35.2120500">
<ele>547.099976</ele>
<time>2024-12-16T11:48:59.215Z</time>
</trkpt>
<trkpt lat="31.1966100" lon="35.2120500">
<ele>528.190002</ele>
<time>2024-12-16T11:48:59.215Z</time>
</trkpt>
<trkpt lat="31.1961200" lon="35.2119600">
<ele>526.520020</ele>
<time>2024-12-16T11:48:59.215Z</time>
</trkpt>
<trkpt lat="31.1956300" lon="35.2118800">
<ele>539.049988</ele>
<time>2024-12-16T11:48:59.215Z</time>
</trkpt>
<trkpt lat="31.1951300" lon="35.2117900">
<ele>545.820007</ele>
<time>2024-12-16T11:48:59.215Z</time>
</trkpt>
<trkpt lat="31.1946400" lon="35.2117000">
<ele>555.729980</ele>
<time>2024-12-16T11:48:59.215Z</time>
</trkpt>
<trkpt lat="31.1940200" lon="35.2122200">
<ele>550.640015</ele>
<time>2024-12-16T11:48:59.215Z</time>
</trkpt>
<trkpt lat="31.1935400" lon="35.2123800">
<ele>542.049988</ele>
<time>2024-12-16T11:48:59.215Z</time>
</trkpt>
<trkpt lat="31.1930700" lon="35.2125300">
<ele>539.459961</ele>
<time>2024-12-16T11:48:59.215Z</time>
</trkpt>
<trkpt lat="31.1925900" lon="35.2126900">
<ele>542.510010</ele>
<time>2024-12-16T11:48:59.215Z</time>
</trkpt>
<trkpt lat="31.1922600" lon="35.2122300">
<ele>551.489990</ele>
<time>2024-12-16T11:48:59.215Z</time>
</trkpt>
<trkpt lat="31.1919300" lon="35.2117700">
<ele>555.970032</ele>
<time>2024-12-16T11:48:59.215Z</time>
</trkpt>
<trkpt lat="31.1916000" lon="35.2113100">
<ele>553.479980</ele>
<time>2024-12-16T11:48:59.215Z</time>
</trkpt>
<trkpt lat="31.1914000" lon="35.2107900">
<ele>544.239990</ele>
<time>2024-12-16T11:48:59.215Z</time>
</trkpt>
<trkpt lat="31.1911900" lon="35.2102800">
<ele>536.729980</ele>
<time>2024-12-16T11:48:59.215Z</time>
</trkpt>
<trkpt lat="31.1909900" lon="35.2097600">
<ele>535.109985</ele>
<time>2024-12-16T11:48:59.215Z</time>
</trkpt>
<trkpt lat="31.1907800" lon="35.2092500">
<ele>531.090027</ele>
<time>2024-12-16T11:48:59.215Z</time>
</trkpt>
<trkpt lat="31.1904900" lon="35.2090300">
<ele>526.549988</ele>
<time>2024-12-16T11:48:59.215Z</time>
</trkpt>
<trkpt lat="31.1899800" lon="35.2087600">
<ele>522.750000</ele>
<time>2024-12-16T11:48:59.215Z</time>
</trkpt>
<trkpt lat="31.1894700" lon="35.2084900">
<ele>518.109985</ele>
<time>2024-12-16T11:48:59.215Z</time>
</trkpt>
<trkpt lat="31.1889500" lon="35.2082200">
<ele>517.559998</ele>
<time>2024-12-16T11:48:59.215Z</time>
</trkpt>
<trkpt lat="31.1884400" lon="35.2079500">
<ele>521.789978</ele>
<time>2024-12-16T11:48:59.215Z</time>
</trkpt>
<trkpt lat="31.1881200" lon="35.2075600">
<ele>523.830017</ele>
<time>2024-12-16T11:48:59.215Z</time>
</trkpt>
<trkpt lat="31.1877900" lon="35.2071700">
<ele>516.440002</ele>
<time>2024-12-16T11:48:59.215Z</time>
</trkpt>
<trkpt lat="31.1874700" lon="35.2067700">
<ele>510.489990</ele>
<time>2024-12-16T11:48:59.215Z</time>
</trkpt>
<trkpt lat="31.1871400" lon="35.2063800">
<ele>506.390015</ele>
<time>2024-12-16T11:48:59.215Z</time>
</trkpt>
<trkpt lat="31.1868200" lon="35.2059900">
<ele>506.350006</ele>
<time>2024-12-16T11:48:59.215Z</time>
</trkpt>
<trkpt lat="31.1864900" lon="35.2056000">
<ele>508.059998</ele>
<time>2024-12-16T11:48:59.215Z</time>
</trkpt>
<trkpt lat="31.1858800" lon="35.2048600">
<ele>505.339996</ele>
<time>2024-12-16T11:48:59.215Z</time>
</trkpt>
<trkpt lat="31.1854900" lon="35.2044400">
<ele>496.900024</ele>
<time>2024-12-16T11:48:59.215Z</time>
</trkpt>
<trkpt lat="31.1852600" lon="35.2042700">
<ele>491.290009</ele>
<time>2024-12-16T11:48:59.215Z</time>
</trkpt>
<trkpt lat="31.1849100" lon="35.2042600">
<ele>480.720001</ele>
<time>2024-12-16T11:48:59.215Z</time>
</trkpt>
<trkpt lat="31.1844900" lon="35.2043500">
<ele>472.039978</ele>
<time>2024-12-16T11:48:59.215Z</time>
</trkpt>
<trkpt lat="31.1840000" lon="35.2044900">
<ele>466.540009</ele>
<time>2024-12-16T11:48:59.215Z</time>
</trkpt>
<trkpt lat="31.1835000" lon="35.2046200">
<ele>462.650024</ele>
<time>2024-12-16T11:48:59.215Z</time>
</trkpt>
<trkpt lat="31.1830100" lon="35.2047600">
<ele>459.419983</ele>
<time>2024-12-16T11:48:59.215Z</time>
</trkpt>
<trkpt lat="31.1825100" lon="35.2048900">
<ele>464.199982</ele>
<time>2024-12-16T11:48:59.215Z</time>
</trkpt>
<trkpt lat="31.1821000" lon="35.2052200">
<ele>461.110016</ele>
<time>2024-12-16T11:48:59.215Z</time>
</trkpt>
<trkpt lat="31.1819700" lon="35.2053900">
<ele>455.580017</ele>
<time>2024-12-16T11:48:59.215Z</time>
</trkpt>
<trkpt lat="31.1819000" lon="35.2055700">
<ele>452.540009</ele>
<time>2024-12-16T11:48:59.215Z</time>
</trkpt>
<trkpt lat="31.1819100" lon="35.2057200">
<ele>452.930023</ele>
<time>2024-12-16T11:48:59.215Z</time>
</trkpt>
<trkpt lat="31.1818300" lon="35.2057800">
<ele>451.239990</ele>
<time>2024-12-16T11:48:59.215Z</time>
</trkpt>
<trkpt lat="31.1817900" lon="35.2059000">
<ele>448.959991</ele>
<time>2024-12-16T11:48:59.215Z</time>
</trkpt>
<trkpt lat="31.1817600" lon="35.2063200">
<ele>441.750000</ele>
<time>2024-12-16T11:48:59.215Z</time>
</trkpt>
<trkpt lat="31.1816800" lon="35.2065100">
<ele>437.059998</ele>
<time>2024-12-16T11:48:59.215Z</time>
</trkpt>
<trkpt lat="31.1816000" lon="35.2065700">
<ele>434.140015</ele>
<time>2024-12-16T11:48:59.215Z</time>
</trkpt>
<trkpt lat="31.1811000" lon="35.2065200">
<ele>421.399994</ele>
<time>2024-12-16T11:48:59.215Z</time>
</trkpt>
<trkpt lat="31.1806000" lon="35.2065500">
<ele>418.520020</ele>
<time>2024-12-16T11:48:59.215Z</time>
</trkpt>
<trkpt lat="31.1800900" lon="35.2065700">
<ele>417.270020</ele>
<time>2024-12-16T11:48:59.215Z</time>
</trkpt>
<trkpt lat="31.1795800" lon="35.2065700">
<ele>414.250000</ele>
<time>2024-12-16T11:48:59.215Z</time>
</trkpt>
<trkpt lat="31.1790700" lon="35.2065600">
<ele>409.149994</ele>
<time>2024-12-16T11:48:59.215Z</time>
</trkpt>
<trkpt lat="31.1785600" lon="35.2065600">
<ele>406.000000</ele>
<time>2024-12-16T11:48:59.215Z</time>
</trkpt>
<trkpt lat="31.1780500" lon="35.2065600">
<ele>398.820007</ele>
<time>2024-12-16T11:48:59.215Z</time>
</trkpt>
<trkpt lat="31.1775400" lon="35.2065500">
<ele>385.009979</ele>
<time>2024-12-16T11:48:59.215Z</time>
</trkpt>
<trkpt lat="31.1770300" lon="35.2065500">
<ele>373.750000</ele>
<time>2024-12-16T11:48:59.215Z</time>
</trkpt>
<trkpt lat="31.1767500" lon="35.2066900">
<ele>374.540009</ele>
<time>2024-12-16T11:48:59.215Z</time>
</trkpt>
<trkpt lat="31.1765900" lon="35.2068600">
<ele>374.790009</ele>
<time>2024-12-16T11:48:59.215Z</time>
</trkpt>
<trkpt lat="31.1762200" lon="35.2073300">
<ele>372.719971</ele>
<time>2024-12-16T11:48:59.215Z</time>
</trkpt>
<trkpt lat="31.1758500" lon="35.2077900">
<ele>370.289978</ele>
<time>2024-12-16T11:48:59.215Z</time>
</trkpt>
<trkpt lat="31.1754800" lon="35.2082600">
<ele>356.669983</ele>
<time>2024-12-16T11:48:59.215Z</time>
</trkpt>
<trkpt lat="31.1754800" lon="35.2082600">
<ele>356.669983</ele>
<time>2024-12-16T11:48:59.215Z</time>
</trkpt>
<trkpt lat="31.1754800" lon="35.2082600">
<ele>356.669983</ele>
<time>2024-12-16T11:48:59.215Z</time>
</trkpt>
<trkpt lat="31.1749800" lon="35.2089000">
<ele>341.139984</ele>
<time>2024-12-16T11:48:59.215Z</time>
</trkpt>
<trkpt lat="31.1745900" lon="35.2088600">
<ele>332.239990</ele>
<time>2024-12-16T11:48:59.215Z</time>
</trkpt>
<trkpt lat="31.1738500" lon="35.2086000">
<ele>336.700012</ele>
<time>2024-12-16T11:48:59.215Z</time>
</trkpt>
<trkpt lat="31.1733600" lon="35.2083300">
<ele>330.679993</ele>
<time>2024-12-16T11:48:59.215Z</time>
</trkpt>
<trkpt lat="31.1728600" lon="35.2081900">
<ele>322.220001</ele>
<time>2024-12-16T11:48:59.215Z</time>
</trkpt>
<trkpt lat="31.1723600" lon="35.2080400">
<ele>319.590027</ele>
<time>2024-12-16T11:48:59.215Z</time>
</trkpt>
<trkpt lat="31.1718900" lon="35.2079600">
<ele>310.920013</ele>
<time>2024-12-16T11:48:59.215Z</time>
</trkpt>
<trkpt lat="31.1714200" lon="35.2078700">
<ele>302.640015</ele>
<time>2024-12-16T11:48:59.215Z</time>
</trkpt>
<trkpt lat="31.1709100" lon="35.2078500">
<ele>292.829987</ele>
<time>2024-12-16T11:48:59.215Z</time>
</trkpt>
<trkpt lat="31.1704000" lon="35.2078200">
<ele>284.929993</ele>
<time>2024-12-16T11:48:59.215Z</time>
</trkpt>
<trkpt lat="31.1697500" lon="35.2079100">
<ele>277.739990</ele>
<time>2024-12-16T11:48:59.215Z</time>
</trkpt>
<trkpt lat="31.1690900" lon="35.2080000">
<ele>267.500000</ele>
<time>2024-12-16T11:48:59.215Z</time>
</trkpt>
<trkpt lat="31.1686400" lon="35.2080300">
<ele>260.690002</ele>
<time>2024-12-16T11:48:59.215Z</time>
</trkpt>
<trkpt lat="31.1681800" lon="35.2080600">
<ele>262.109985</ele>
<time>2024-12-16T11:48:59.215Z</time>
</trkpt>
<trkpt lat="31.1680100" lon="35.2080300">
<ele>262.579987</ele>
<time>2024-12-16T11:48:59.215Z</time>
</trkpt>
<trkpt lat="31.1677200" lon="35.2081200">
<ele>259.779999</ele>
<time>2024-12-16T11:48:59.215Z</time>
</trkpt>
<trkpt lat="31.1669300" lon="35.2081900">
<ele>251.009995</ele>
<time>2024-12-16T11:48:59.215Z</time>
</trkpt>
<trkpt lat="31.1663900" lon="35.2083000">
<ele>240.139999</ele>
<time>2024-12-16T11:48:59.215Z</time>
</trkpt>
<trkpt lat="31.1658500" lon="35.2084000">
<ele>230.369995</ele>
<time>2024-12-16T11:48:59.215Z</time>
</trkpt>
<trkpt lat="31.1653100" lon="35.2085100">
<ele>227.329987</ele>
<time>2024-12-16T11:48:59.215Z</time>
</trkpt>
<trkpt lat="31.1647700" lon="35.2086100">
<ele>222.510010</ele>
<time>2024-12-16T11:48:59.215Z</time>
</trkpt>
<trkpt lat="31.1640700" lon="35.2088600">
<ele>227.610001</ele>
<time>2024-12-16T11:48:59.215Z</time>
</trkpt>
<trkpt lat="31.1636600" lon="35.2091100">
<ele>222.120010</ele>
<time>2024-12-16T11:48:59.215Z</time>
</trkpt>
<trkpt lat="31.1632500" lon="35.2093500">
<ele>215.989990</ele>
<time>2024-12-16T11:48:59.215Z</time>
</trkpt>
<trkpt lat="31.1628400" lon="35.2096000">
<ele>212.089996</ele>
<time>2024-12-16T11:48:59.215Z</time>
</trkpt>
<trkpt lat="31.1624200" lon="35.2098500">
<ele>208.460007</ele>
<time>2024-12-16T11:48:59.215Z</time>
</trkpt>
<trkpt lat="31.1620100" lon="35.2100900">
<ele>199.699997</ele>
<time>2024-12-16T11:48:59.215Z</time>
</trkpt>
<trkpt lat="31.1616000" lon="35.2103400">
<ele>200.570007</ele>
<time>2024-12-16T11:48:59.215Z</time>
</trkpt>
<trkpt lat="31.1611000" lon="35.2106700">
<ele>199.900009</ele>
<time>2024-12-16T11:48:59.215Z</time>
</trkpt>
<trkpt lat="31.1606200" lon="35.2110500">
<ele>193.259995</ele>
<time>2024-12-16T11:48:59.215Z</time>
</trkpt>
<trkpt lat="31.1601300" lon="35.2114300">
<ele>191.430008</ele>
<time>2024-12-16T11:48:59.215Z</time>
</trkpt>
<trkpt lat="31.1596500" lon="35.2118100">
<ele>190.380005</ele>
<time>2024-12-16T11:48:59.215Z</time>
</trkpt>
<trkpt lat="31.1591800" lon="35.2115400">
<ele>187.599991</ele>
<time>2024-12-16T11:48:59.215Z</time>
</trkpt>
<trkpt lat="31.1587100" lon="35.2112600">
<ele>196.480011</ele>
<time>2024-12-16T11:48:59.215Z</time>
</trkpt>
<trkpt lat="31.1582500" lon="35.2109900">
<ele>190.669998</ele>
<time>2024-12-16T11:48:59.215Z</time>
</trkpt>
<trkpt lat="31.1577800" lon="35.2107100">
<ele>183.089996</ele>
<time>2024-12-16T11:48:59.215Z</time>
</trkpt>
<trkpt lat="31.1573100" lon="35.2104400">
<ele>183.669998</ele>
<time>2024-12-16T11:48:59.215Z</time>
</trkpt>
<trkpt lat="31.1570500" lon="35.2102400">
<ele>184.410004</ele>
<time>2024-12-16T11:48:59.215Z</time>
</trkpt>
<trkpt lat="31.1565800" lon="35.2093500">
<ele>185.180008</ele>
<time>2024-12-16T11:48:59.215Z</time>
</trkpt>
<trkpt lat="31.1562500" lon="35.2090200">
<ele>183.740005</ele>
<time>2024-12-16T11:48:59.215Z</time>
</trkpt>
<trkpt lat="31.1558600" lon="35.2087400">
<ele>184.600006</ele>
<time>2024-12-16T11:48:59.215Z</time>
</trkpt>
<trkpt lat="31.1554800" lon="35.2084600">
<ele>180.550003</ele>
<time>2024-12-16T11:48:59.215Z</time>
</trkpt>
<trkpt lat="31.1550900" lon="35.2081800">
<ele>174.919998</ele>
<time>2024-12-16T11:48:59.215Z</time>
</trkpt>
<trkpt lat="31.1547000" lon="35.2079100">
<ele>175.410004</ele>
<time>2024-12-16T11:48:59.215Z</time>
</trkpt>
<trkpt lat="31.1543100" lon="35.2076300">
<ele>178.990005</ele>
<time>2024-12-16T11:48:59.215Z</time>
</trkpt>
<trkpt lat="31.1539300" lon="35.2073500">
<ele>170.270004</ele>
<time>2024-12-16T11:48:59.215Z</time>
</trkpt>
<trkpt lat="31.1535400" lon="35.2070700">
<ele>165.029999</ele>
<time>2024-12-16T11:48:59.215Z</time>
</trkpt>
<trkpt lat="31.1532500" lon="35.2070400">
<ele>161.470001</ele>
<time>2024-12-16T11:48:59.215Z</time>
</trkpt>
<trkpt lat="31.1531400" lon="35.2071600">
<ele>159.819992</ele>
<time>2024-12-16T11:48:59.215Z</time>
</trkpt>
<trkpt lat="31.1529600" lon="35.2074100">
<ele>159.790009</ele>
<time>2024-12-16T11:48:59.215Z</time>
</trkpt>
<trkpt lat="31.1525000" lon="35.2081700">
<ele>160.820007</ele>
<time>2024-12-16T11:48:59.215Z</time>
</trkpt>
<trkpt lat="31.1523100" lon="35.2083700">
<ele>159.669998</ele>
<time>2024-12-16T11:48:59.215Z</time>
</trkpt>
<trkpt lat="31.1520200" lon="35.2088200">
<ele>159.089996</ele>
<time>2024-12-16T11:48:59.215Z</time>
</trkpt>
<trkpt lat="31.1516400" lon="35.2092800">
<ele>152.350006</ele>
<time>2024-12-16T11:48:59.215Z</time>
</trkpt>
<trkpt lat="31.1513000" lon="35.2097200">
<ele>150.669998</ele>
<time>2024-12-16T11:48:59.215Z</time>
</trkpt>
<trkpt lat="31.1509500" lon="35.2101700">
<ele>151.290009</ele>
<time>2024-12-16T11:48:59.215Z</time>
</trkpt>
<trkpt lat="31.1506100" lon="35.2106100">
<ele>151.860001</ele>
<time>2024-12-16T11:48:59.215Z</time>
</trkpt>
<trkpt lat="31.1502900" lon="35.2110400">
<ele>153.539993</ele>
<time>2024-12-16T11:48:59.215Z</time>
</trkpt>
<trkpt lat="31.1499700" lon="35.2114700">
<ele>151.679993</ele>
<time>2024-12-16T11:48:59.215Z</time>
</trkpt>
<trkpt lat="31.1496500" lon="35.2118900">
<ele>150.559998</ele>
<time>2024-12-16T11:48:59.215Z</time>
</trkpt>
<trkpt lat="31.1493300" lon="35.2123200">
<ele>148.809998</ele>
<time>2024-12-16T11:48:59.215Z</time>
</trkpt>
<trkpt lat="31.1490100" lon="35.2127500">
<ele>150.330002</ele>
<time>2024-12-16T11:48:59.215Z</time>
</trkpt>
<trkpt lat="31.1490100" lon="35.2127500">
<ele>150.330002</ele>
<time>2024-12-16T11:48:59.215Z</time>
</trkpt>
<trkpt lat="31.1488200" lon="35.2131100">
<ele>151.250000</ele>
<time>2024-12-16T11:48:59.215Z</time>
</trkpt>
<trkpt lat="31.1487200" lon="35.2134700">
<ele>152.070007</ele>
<time>2024-12-16T11:48:59.215Z</time>
</trkpt>
<trkpt lat="31.1484800" lon="35.2150600">
<ele>147.699997</ele>
<time>2024-12-16T11:48:59.215Z</time>
</trkpt>
<trkpt lat="31.1483300" lon="35.2164100">
<ele>147.979996</ele>
<time>2024-12-16T11:48:59.215Z</time>
</trkpt>
<trkpt lat="31.1483200" lon="35.2167400">
<ele>147.889999</ele>
<time>2024-12-16T11:48:59.215Z</time>
</trkpt>
<trkpt lat="31.1483200" lon="35.2172000">
<ele>145.100006</ele>
<time>2024-12-16T11:48:59.215Z</time>
</trkpt>
<trkpt lat="31.1482300" lon="35.2182000">
<ele>143.660004</ele>
<time>2024-12-16T11:48:59.215Z</time>
</trkpt>
<trkpt lat="31.1481900" lon="35.2183300">
<ele>143.410004</ele>
<time>2024-12-16T11:48:59.215Z</time>
</trkpt>
<trkpt lat="31.1481300" lon="35.2184400">
<ele>142.800003</ele>
<time>2024-12-16T11:48:59.215Z</time>
</trkpt>
<trkpt lat="31.1480200" lon="35.2186100">
<ele>142.479996</ele>
<time>2024-12-16T11:48:59.215Z</time>
</trkpt>
<trkpt lat="31.1476100" lon="35.2191000">
<ele>144.279999</ele>
<time>2024-12-16T11:48:59.215Z</time>
</trkpt>
<trkpt lat="31.1473600" lon="35.2194500">
<ele>147.050003</ele>
<time>2024-12-16T11:48:59.215Z</time>
</trkpt>
<trkpt lat="31.1470900" lon="35.2199100">
<ele>147.679993</ele>
<time>2024-12-16T11:48:59.215Z</time>
</trkpt>
<trkpt lat="31.1469200" lon="35.2201100">
<ele>147.240005</ele>
<time>2024-12-16T11:48:59.215Z</time>
</trkpt>
<trkpt lat="31.1466400" lon="35.2202500">
<ele>146.660004</ele>
<time>2024-12-16T11:48:59.215Z</time>
</trkpt>
<trkpt lat="31.1463600" lon="35.2203700">
<ele>144.130005</ele>
<time>2024-12-16T11:48:59.215Z</time>
</trkpt>
<trkpt lat="31.1461900" lon="35.2206500">
<ele>141.029999</ele>
<time>2024-12-16T11:48:59.215Z</time>
</trkpt>
<trkpt lat="31.1458600" lon="35.2216000">
<ele>137.500000</ele>
<time>2024-12-16T11:48:59.215Z</time>
</trkpt>
<trkpt lat="31.1454000" lon="35.2224900">
<ele>141.949997</ele>
<time>2024-12-16T11:48:59.215Z</time>
</trkpt>
<trkpt lat="31.1452200" lon="35.2229100">
<ele>141.570007</ele>
<time>2024-12-16T11:48:59.215Z</time>
</trkpt>
<trkpt lat="31.1451500" lon="35.2234100">
<ele>142.150009</ele>
<time>2024-12-16T11:48:59.215Z</time>
</trkpt>
<trkpt lat="31.1451400" lon="35.2238100">
<ele>142.139999</ele>
<time>2024-12-16T11:48:59.215Z</time>
</trkpt>
<trkpt lat="31.1454600" lon="35.2277400">
<ele>139.029999</ele>
<time>2024-12-16T11:48:59.215Z</time>
</trkpt>
<trkpt lat="31.1454800" lon="35.2281600">
<ele>133.760010</ele>
<time>2024-12-16T11:48:59.215Z</time>
</trkpt>
<trkpt lat="31.1454800" lon="35.2284500">
<ele>131.529999</ele>
<time>2024-12-16T11:48:59.215Z</time>
</trkpt>
<trkpt lat="31.1454400" lon="35.2287900">
<ele>130.959991</ele>
<time>2024-12-16T11:48:59.215Z</time>
</trkpt>
<trkpt lat="31.1453500" lon="35.2291600">
<ele>131.020004</ele>
<time>2024-12-16T11:48:59.215Z</time>
</trkpt>
<trkpt lat="31.1453200" lon="35.2292600">
<ele>131.000000</ele>
<time>2024-12-16T11:48:59.215Z</time>
</trkpt>
<trkpt lat="31.1448100" lon="35.2304100">
<ele>139.819992</ele>
<time>2024-12-16T11:48:59.215Z</time>
</trkpt>
<trkpt lat="31.1447200" lon="35.2307000">
<ele>147.190002</ele>
<time>2024-12-16T11:48:59.215Z</time>
</trkpt>
<trkpt lat="31.1446900" lon="35.2310800">
<ele>154.620010</ele>
<time>2024-12-16T11:48:59.215Z</time>
</trkpt>
<trkpt lat="31.1447300" lon="35.2313800">
<ele>154.080002</ele>
<time>2024-12-16T11:48:59.215Z</time>
</trkpt>
<trkpt lat="31.1447700" lon="35.2315500">
<ele>153.839996</ele>
<time>2024-12-16T11:48:59.215Z</time>
</trkpt>
<trkpt lat="31.1448800" lon="35.2318100">
<ele>152.520004</ele>
<time>2024-12-16T11:48:59.215Z</time>
</trkpt>
<trkpt lat="31.1456100" lon="35.2332100">
<ele>144.880005</ele>
<time>2024-12-16T11:48:59.215Z</time>
</trkpt>
<trkpt lat="31.1459400" lon="35.2339200">
<ele>142.029999</ele>
<time>2024-12-16T11:48:59.215Z</time>
</trkpt>
<trkpt lat="31.1460300" lon="35.2342400">
<ele>140.440002</ele>
<time>2024-12-16T11:48:59.215Z</time>
</trkpt>
<trkpt lat="31.1460800" lon="35.2345800">
<ele>139.400009</ele>
<time>2024-12-16T11:48:59.215Z</time>
</trkpt>
<trkpt lat="31.1460700" lon="35.2347300">
<ele>138.790009</ele>
<time>2024-12-16T11:48:59.215Z</time>
</trkpt>
<trkpt lat="31.1459900" lon="35.2351300">
<ele>134.990005</ele>
<time>2024-12-16T11:48:59.215Z</time>
</trkpt>
<trkpt lat="31.1458100" lon="35.2356100">
<ele>130.220001</ele>
<time>2024-12-16T11:48:59.215Z</time>
</trkpt>
<trkpt lat="31.1457400" lon="35.2357400">
<ele>130.559998</ele>
<time>2024-12-16T11:48:59.215Z</time>
</trkpt>
<trkpt lat="31.1456600" lon="35.2358500">
<ele>130.649994</ele>
<time>2024-12-16T11:48:59.215Z</time>
</trkpt>
<trkpt lat="31.1455400" lon="35.2360100">
<ele>130.789993</ele>
<time>2024-12-16T11:48:59.215Z</time>
</trkpt>
<trkpt lat="31.1454000" lon="35.2361500">
<ele>129.660004</ele>
<time>2024-12-16T11:48:59.215Z</time>
</trkpt>
<trkpt lat="31.1452500" lon="35.2362600">
<ele>129.229996</ele>
<time>2024-12-16T11:48:59.215Z</time>
</trkpt>
<trkpt lat="31.1448900" lon="35.2364200">
<ele>134.300003</ele>
<time>2024-12-16T11:48:59.215Z</time>
</trkpt>
<trkpt lat="31.1446400" lon="35.2364900">
<ele>138.029999</ele>
<time>2024-12-16T11:48:59.215Z</time>
</trkpt>
<trkpt lat="31.1441900" lon="35.2365100">
<ele>144.349991</ele>
<time>2024-12-16T11:48:59.215Z</time>
</trkpt>
<trkpt lat="31.1439000" lon="35.2364800">
<ele>145.949997</ele>
<time>2024-12-16T11:48:59.215Z</time>
</trkpt>
<trkpt lat="31.1437400" lon="35.2364400">
<ele>146.869995</ele>
<time>2024-12-16T11:48:59.215Z</time>
</trkpt>
<trkpt lat="31.1435300" lon="35.2363100">
<ele>148.190002</ele>
<time>2024-12-16T11:48:59.215Z</time>
</trkpt>
<trkpt lat="31.1431700" lon="35.2359200">
<ele>145.240005</ele>
<time>2024-12-16T11:48:59.215Z</time>
</trkpt>
<trkpt lat="31.1430800" lon="35.2357800">
<ele>143.790009</ele>
<time>2024-12-16T11:48:59.215Z</time>
</trkpt>
<trkpt lat="31.1430300" lon="35.2356800">
<ele>143.960007</ele>
<time>2024-12-16T11:48:59.215Z</time>
</trkpt>
<trkpt lat="31.1428800" lon="35.2352100">
<ele>148.240005</ele>
<time>2024-12-16T11:48:59.215Z</time>
</trkpt>
<trkpt lat="31.1426700" lon="35.2349300">
<ele>149.449997</ele>
<time>2024-12-16T11:48:59.215Z</time>
</trkpt>
<trkpt lat="31.1423000" lon="35.2345600">
<ele>151.740005</ele>
<time>2024-12-16T11:48:59.215Z</time>
</trkpt>
<trkpt lat="31.1422300" lon="35.2344900">
<ele>151.209991</ele>
<time>2024-12-16T11:48:59.215Z</time>
</trkpt>
<trkpt lat="31.1417800" lon="35.2340900">
<ele>145.720001</ele>
<time>2024-12-16T11:48:59.215Z</time>
</trkpt>
<trkpt lat="31.1412500" lon="35.2334200">
<ele>143.340012</ele>
<time>2024-12-16T11:48:59.215Z</time>
</trkpt>
<trkpt lat="31.1407700" lon="35.2329700">
<ele>147.300003</ele>
<time>2024-12-16T11:48:59.215Z</time>
</trkpt>
<trkpt lat="31.1404600" lon="35.2325800">
<ele>151.309998</ele>
<time>2024-12-16T11:48:59.215Z</time>
</trkpt>
<trkpt lat="31.1403500" lon="35.2323400">
<ele>151.900009</ele>
<time>2024-12-16T11:48:59.215Z</time>
</trkpt>
<trkpt lat="31.1403200" lon="35.2321800">
<ele>151.309998</ele>
<time>2024-12-16T11:48:59.215Z</time>
</trkpt>
<trkpt lat="31.1402900" lon="35.2314500">
<ele>153.270004</ele>
<time>2024-12-16T11:48:59.215Z</time>
</trkpt>
<trkpt lat="31.1402600" lon="35.2312700">
<ele>154.389999</ele>
<time>2024-12-16T11:48:59.215Z</time>
</trkpt>
<trkpt lat="31.1400700" lon="35.2305700">
<ele>158.180008</ele>
<time>2024-12-16T11:48:59.215Z</time>
</trkpt>
<trkpt lat="31.1399800" lon="35.2302900">
<ele>160.990005</ele>
<time>2024-12-16T11:48:59.215Z</time>
</trkpt>
<trkpt lat="31.1396500" lon="35.2297300">
<ele>162.089996</ele>
<time>2024-12-16T11:48:59.215Z</time>
</trkpt>
<trkpt lat="31.1392900" lon="35.2293500">
<ele>161.160004</ele>
<time>2024-12-16T11:48:59.215Z</time>
</trkpt>
<trkpt lat="31.1389200" lon="35.2288300">
<ele>157.540009</ele>
<time>2024-12-16T11:48:59.215Z</time>
</trkpt>
<trkpt lat="31.1385600" lon="35.2283800">
<ele>166.859985</ele>
<time>2024-12-16T11:48:59.215Z</time>
</trkpt>
<trkpt lat="31.1383600" lon="35.2281600">
<ele>173.980011</ele>
<time>2024-12-16T11:48:59.215Z</time>
</trkpt>
<trkpt lat="31.1382400" lon="35.2280500">
<ele>173.600006</ele>
<time>2024-12-16T11:48:59.215Z</time>
</trkpt>
<trkpt lat="31.1381500" lon="35.2280100">
<ele>171.869995</ele>
<time>2024-12-16T11:48:59.215Z</time>
</trkpt>
<trkpt lat="31.1380100" lon="35.2279900">
<ele>169.020004</ele>
<time>2024-12-16T11:48:59.215Z</time>
</trkpt>
<trkpt lat="31.1379400" lon="35.2280000">
<ele>167.159988</ele>
<time>2024-12-16T11:48:59.215Z</time>
</trkpt>
<trkpt lat="31.1378600" lon="35.2280300">
<ele>165.160004</ele>
<time>2024-12-16T11:48:59.215Z</time>
</trkpt>
<trkpt lat="31.1378500" lon="35.2280000">
<ele>164.630005</ele>
<time>2024-12-16T11:48:59.215Z</time>
</trkpt>
<trkpt lat="31.1378500" lon="35.2280000">
<ele>164.630005</ele>
<time>2024-12-16T11:48:59.215Z</time>
</trkpt>
<trkpt lat="31.1378100" lon="35.2280100">
<ele>163.580002</ele>
<time>2024-12-16T11:48:59.215Z</time>
</trkpt>
<trkpt lat="31.1377800" lon="35.2280200">
<ele>162.810013</ele>
<time>2024-12-16T11:48:59.215Z</time>
</trkpt>
<trkpt lat="31.1377400" lon="35.2280400">
<ele>162.479996</ele>
<time>2024-12-16T11:48:59.215Z</time>
</trkpt>
<trkpt lat="31.1376900" lon="35.2280600">
<ele>162.089996</ele>
<time>2024-12-16T11:48:59.215Z</time>
</trkpt>
<trkpt lat="31.1376200" lon="35.2281000">
<ele>161.820007</ele>
<time>2024-12-16T11:48:59.215Z</time>
</trkpt>
<trkpt lat="31.1375800" lon="35.2281300">
<ele>161.899994</ele>
<time>2024-12-16T11:48:59.215Z</time>
</trkpt>
<trkpt lat="31.1375500" lon="35.2281400">
<ele>161.839996</ele>
<time>2024-12-16T11:48:59.215Z</time>
</trkpt>
<trkpt lat="31.1375200" lon="35.2281600">
<ele>161.990005</ele>
<time>2024-12-16T11:48:59.215Z</time>
</trkpt>
<trkpt lat="31.1374700" lon="35.2281900">
<ele>162.640015</ele>
<time>2024-12-16T11:48:59.215Z</time>
</trkpt>
<trkpt lat="31.1374400" lon="35.2282000">
<ele>163.020004</ele>
<time>2024-12-16T11:48:59.215Z</time>
</trkpt>
<trkpt lat="31.1373900" lon="35.2282100">
<ele>163.529999</ele>
<time>2024-12-16T11:48:59.215Z</time>
</trkpt>
<trkpt lat="31.1373500" lon="35.2282100">
<ele>163.799988</ele>
<time>2024-12-16T11:48:59.215Z</time>
</trkpt>
<trkpt lat="31.1373200" lon="35.2282200">
<ele>164.140015</ele>
<time>2024-12-16T11:48:59.215Z</time>
</trkpt>
<trkpt lat="31.1372800" lon="35.2282300">
<ele>164.520004</ele>
<time>2024-12-16T11:48:59.215Z</time>
</trkpt>
<trkpt lat="31.1372400" lon="35.2282400">
<ele>164.880005</ele>
<time>2024-12-16T11:48:59.215Z</time>
</trkpt>
<trkpt lat="31.1372000" lon="35.2282400">
<ele>165.230011</ele>
<time>2024-12-16T11:48:59.215Z</time>
</trkpt>
<trkpt lat="31.1371600" lon="35.2282500">
<ele>165.750000</ele>
<time>2024-12-16T11:48:59.215Z</time>
</trkpt>
<trkpt lat="31.1371200" lon="35.2282600">
<ele>166.239990</ele>
<time>2024-12-16T11:48:59.215Z</time>
</trkpt>
<trkpt lat="31.1370800" lon="35.2282600">
<ele>166.639999</ele>
<time>2024-12-16T11:48:59.215Z</time>
</trkpt>
<trkpt lat="31.1370400" lon="35.2282800">
<ele>167.110001</ele>
<time>2024-12-16T11:48:59.215Z</time>
</trkpt>
<trkpt lat="31.1370000" lon="35.2282900">
<ele>167.509995</ele>
<time>2024-12-16T11:48:59.215Z</time>
</trkpt>
<trkpt lat="31.1369700" lon="35.2282900">
<ele>167.770004</ele>
<time>2024-12-16T11:48:59.215Z</time>
</trkpt>
<trkpt lat="31.1369200" lon="35.2283000">
<ele>168.189987</ele>
<time>2024-12-16T11:48:59.215Z</time>
</trkpt>
<trkpt lat="31.1368900" lon="35.2283200">
<ele>168.399994</ele>
<time>2024-12-16T11:48:59.215Z</time>
</trkpt>
<trkpt lat="31.1368500" lon="35.2283300">
<ele>168.679993</ele>
<time>2024-12-16T11:48:59.215Z</time>
</trkpt>
<trkpt lat="31.1368200" lon="35.2283500">
<ele>168.899994</ele>
<time>2024-12-16T11:48:59.215Z</time>
</trkpt>
<trkpt lat="31.1367800" lon="35.2283700">
<ele>169.179993</ele>
<time>2024-12-16T11:48:59.215Z</time>
</trkpt>
<trkpt lat="31.1367500" lon="35.2283800">
<ele>169.400009</ele>
<time>2024-12-16T11:48:59.215Z</time>
</trkpt>
<trkpt lat="31.1367200" lon="35.2284000">
<ele>169.619995</ele>
<time>2024-12-16T11:48:59.215Z</time>
</trkpt>
<trkpt lat="31.1366800" lon="35.2284100">
<ele>169.899994</ele>
<time>2024-12-16T11:48:59.215Z</time>
</trkpt>
<trkpt lat="31.1366500" lon="35.2284200">
<ele>170.100006</ele>
<time>2024-12-16T11:48:59.215Z</time>
</trkpt>
<trkpt lat="31.1366100" lon="35.2284300">
<ele>170.339996</ele>
<time>2024-12-16T11:48:59.215Z</time>
</trkpt>
<trkpt lat="31.1365700" lon="35.2284300">
<ele>170.569992</ele>
<time>2024-12-16T11:48:59.215Z</time>
</trkpt>
<trkpt lat="31.1365400" lon="35.2284400">
<ele>170.739990</ele>
<time>2024-12-16T11:48:59.215Z</time>
</trkpt>
<trkpt lat="31.1364900" lon="35.2284500">
<ele>171.000000</ele>
<time>2024-12-16T11:48:59.215Z</time>
</trkpt>
<trkpt lat="31.1364600" lon="35.2284500">
<ele>171.180008</ele>
<time>2024-12-16T11:48:59.215Z</time>
</trkpt>
<trkpt lat="31.1364100" lon="35.2284600">
<ele>171.430008</ele>
<time>2024-12-16T11:48:59.215Z</time>
</trkpt>
<trkpt lat="31.1363600" lon="35.2284600">
<ele>172.319992</ele>
<time>2024-12-16T11:48:59.215Z</time>
</trkpt>
<trkpt lat="31.1363200" lon="35.2284700">
<ele>173.369995</ele>
<time>2024-12-16T11:48:59.215Z</time>
</trkpt>
<trkpt lat="31.1362700" lon="35.2284800">
<ele>174.690002</ele>
<time>2024-12-16T11:48:59.215Z</time>
</trkpt>
<trkpt lat="31.1362400" lon="35.2284800">
<ele>175.509995</ele>
<time>2024-12-16T11:48:59.215Z</time>
</trkpt>
<trkpt lat="31.1362000" lon="35.2284900">
<ele>176.579987</ele>
<time>2024-12-16T11:48:59.215Z</time>
</trkpt>
<trkpt lat="31.1361700" lon="35.2285000">
<ele>177.389984</ele>
<time>2024-12-16T11:48:59.215Z</time>
</trkpt>
<trkpt lat="31.1361400" lon="35.2285000">
<ele>178.209991</ele>
<time>2024-12-16T11:48:59.215Z</time>
</trkpt>
<trkpt lat="31.1361000" lon="35.2285000">
<ele>179.050003</ele>
<time>2024-12-16T11:48:59.215Z</time>
</trkpt>
<trkpt lat="31.1360600" lon="35.2285000">
<ele>179.220001</ele>
<time>2024-12-16T11:48:59.215Z</time>
</trkpt>
<trkpt lat="31.1360100" lon="35.2284900">
<ele>179.410004</ele>
<time>2024-12-16T11:48:59.215Z</time>
</trkpt>
<trkpt lat="31.1359600" lon="35.2284800">
<ele>179.570007</ele>
<time>2024-12-16T11:48:59.215Z</time>
</trkpt>
<trkpt lat="31.1359200" lon="35.2284800">
<ele>179.729996</ele>
<time>2024-12-16T11:48:59.215Z</time>
</trkpt>
<trkpt lat="31.1358700" lon="35.2284700">
<ele>179.850006</ele>
<time>2024-12-16T11:48:59.215Z</time>
</trkpt>
<trkpt lat="31.1358300" lon="35.2284700">
<ele>179.979996</ele>
<time>2024-12-16T11:48:59.215Z</time>
</trkpt>
<trkpt lat="31.1357900" lon="35.2284700">
<ele>179.990005</ele>
<time>2024-12-16T11:48:59.215Z</time>
</trkpt>
<trkpt lat="31.1357500" lon="35.2284700">
<ele>179.990005</ele>
<time>2024-12-16T11:48:59.215Z</time>
</trkpt>
<trkpt lat="31.1357000" lon="35.2284700">
<ele>179.990005</ele>
<time>2024-12-16T11:48:59.215Z</time>
</trkpt>
<trkpt lat="31.1356600" lon="35.2284700">
<ele>179.990005</ele>
<time>2024-12-16T11:48:59.215Z</time>
</trkpt>
<trkpt lat="31.1356300" lon="35.2284700">
<ele>180.000015</ele>
<time>2024-12-16T11:48:59.215Z</time>
</trkpt>
<trkpt lat="31.1356000" lon="35.2284700">
<ele>180.000015</ele>
<time>2024-12-16T11:48:59.215Z</time>
</trkpt>
<trkpt lat="31.1355500" lon="35.2284800">
<ele>180.020004</ele>
<time>2024-12-16T11:48:59.215Z</time>
</trkpt>
<trkpt lat="31.1355000" lon="35.2284900">
<ele>180.230011</ele>
<time>2024-12-16T11:48:59.215Z</time>
</trkpt>
<trkpt lat="31.1354700" lon="35.2285000">
<ele>180.369995</ele>
<time>2024-12-16T11:48:59.215Z</time>
</trkpt>
<trkpt lat="31.1354400" lon="35.2285100">
<ele>180.529999</ele>
<time>2024-12-16T11:48:59.215Z</time>
</trkpt>
<trkpt lat="31.1353800" lon="35.2285300">
<ele>180.889999</ele>
<time>2024-12-16T11:48:59.215Z</time>
</trkpt>
<trkpt lat="31.1353500" lon="35.2285500">
<ele>181.150009</ele>
<time>2024-12-16T11:48:59.215Z</time>
</trkpt>
<trkpt lat="31.1353200" lon="35.2285700">
<ele>181.440002</ele>
<time>2024-12-16T11:48:59.215Z</time>
</trkpt>
<trkpt lat="31.1352900" lon="35.2285900">
<ele>181.770004</ele>
<time>2024-12-16T11:48:59.215Z</time>
</trkpt>
<trkpt lat="31.1352600" lon="35.2286100">
<ele>181.860001</ele>
<time>2024-12-16T11:48:59.215Z</time>
</trkpt>
<trkpt lat="31.1352400" lon="35.2286300">
<ele>181.809998</ele>
<time>2024-12-16T11:48:59.215Z</time>
</trkpt>
<trkpt lat="31.1352100" lon="35.2286500">
<ele>181.720001</ele>
<time>2024-12-16T11:48:59.215Z</time>
</trkpt>
<trkpt lat="31.1351900" lon="35.2286700">
<ele>181.710007</ele>
<time>2024-12-16T11:48:59.215Z</time>
</trkpt>
<trkpt lat="31.1351600" lon="35.2287100">
<ele>181.809998</ele>
<time>2024-12-16T11:48:59.215Z</time>
</trkpt>
<trkpt lat="31.1351300" lon="35.2287400">
<ele>181.889999</ele>
<time>2024-12-16T11:48:59.215Z</time>
</trkpt>
<trkpt lat="31.1351100" lon="35.2287700">
<ele>182.050003</ele>
<time>2024-12-16T11:48:59.215Z</time>
</trkpt>
<trkpt lat="31.1350700" lon="35.2288200">
<ele>182.379990</ele>
<time>2024-12-16T11:48:59.215Z</time>
</trkpt>
<trkpt lat="31.1350400" lon="35.2288600">
<ele>182.719986</ele>
<time>2024-12-16T11:48:59.215Z</time>
</trkpt>
<trkpt lat="31.1350200" lon="35.2288900">
<ele>183.000000</ele>
<time>2024-12-16T11:48:59.215Z</time>
</trkpt>
<trkpt lat="31.1349900" lon="35.2289300">
<ele>183.009995</ele>
<time>2024-12-16T11:48:59.215Z</time>
</trkpt>
<trkpt lat="31.1349700" lon="35.2289500">
<ele>182.809998</ele>
<time>2024-12-16T11:48:59.215Z</time>
</trkpt>
<trkpt lat="31.1349500" lon="35.2289900">
<ele>182.710007</ele>
<time>2024-12-16T11:48:59.215Z</time>
</trkpt>
<trkpt lat="31.1349300" lon="35.2290200">
<ele>182.580002</ele>
<time>2024-12-16T11:48:59.215Z</time>
</trkpt>
<trkpt lat="31.1349100" lon="35.2290600">
<ele>182.520004</ele>
<time>2024-12-16T11:48:59.215Z</time>
</trkpt>
<trkpt lat="31.1348800" lon="35.2291000">
<ele>182.360001</ele>
<time>2024-12-16T11:48:59.215Z</time>
</trkpt>
<trkpt lat="31.1348600" lon="35.2291400">
<ele>182.339996</ele>
<time>2024-12-16T11:48:59.215Z</time>
</trkpt>
<trkpt lat="31.1348300" lon="35.2291800">
<ele>182.220001</ele>
<time>2024-12-16T11:48:59.215Z</time>
</trkpt>
<trkpt lat="31.1348100" lon="35.2292300">
<ele>182.259995</ele>
<time>2024-12-16T11:48:59.215Z</time>
</trkpt>
<trkpt lat="31.1347800" lon="35.2292800">
<ele>182.269989</ele>
<time>2024-12-16T11:48:59.215Z</time>
</trkpt>
<trkpt lat="31.1347500" lon="35.2293200">
<ele>182.290009</ele>
<time>2024-12-16T11:48:59.215Z</time>
</trkpt>
<trkpt lat="31.1347200" lon="35.2293700">
<ele>182.470001</ele>
<time>2024-12-16T11:48:59.215Z</time>
</trkpt>
<trkpt lat="31.1346900" lon="35.2294200">
<ele>182.829987</ele>
<time>2024-12-16T11:48:59.215Z</time>
</trkpt>
<trkpt lat="31.1346700" lon="35.2294600">
<ele>183.179993</ele>
<time>2024-12-16T11:48:59.215Z</time>
</trkpt>
<trkpt lat="31.1346400" lon="35.2295300">
<ele>184.020004</ele>
<time>2024-12-16T11:48:59.215Z</time>
</trkpt>
<trkpt lat="31.1346200" lon="35.2295600">
<ele>184.399994</ele>
<time>2024-12-16T11:48:59.215Z</time>
</trkpt>
<trkpt lat="31.1345800" lon="35.2296300">
<ele>185.350006</ele>
<time>2024-12-16T11:48:59.215Z</time>
</trkpt>
<trkpt lat="31.1345600" lon="35.2296600">
<ele>185.780014</ele>
<time>2024-12-16T11:48:59.215Z</time>
</trkpt>
<trkpt lat="31.1345300" lon="35.2297000">
<ele>186.400009</ele>
<time>2024-12-16T11:48:59.215Z</time>
</trkpt>
<trkpt lat="31.1345100" lon="35.2297400">
<ele>186.880005</ele>
<time>2024-12-16T11:48:59.215Z</time>
</trkpt>
<trkpt lat="31.1344900" lon="35.2297700">
<ele>187.150009</ele>
<time>2024-12-16T11:48:59.215Z</time>
</trkpt>
<trkpt lat="31.1344500" lon="35.2298100">
<ele>187.610001</ele>
<time>2024-12-16T11:48:59.215Z</time>
</trkpt>
<trkpt lat="31.1344300" lon="35.2298300">
<ele>187.709991</ele>
<time>2024-12-16T11:48:59.215Z</time>
</trkpt>
<trkpt lat="31.1343800" lon="35.2298600">
<ele>187.759995</ele>
<time>2024-12-16T11:48:59.215Z</time>
</trkpt>
<trkpt lat="31.1343300" lon="35.2299000">
<ele>187.980011</ele>
<time>2024-12-16T11:48:59.215Z</time>
</trkpt>
<trkpt lat="31.1343100" lon="35.2299400">
<ele>188.360001</ele>
<time>2024-12-16T11:48:59.215Z</time>
</trkpt>
<trkpt lat="31.1342900" lon="35.2299800">
<ele>188.779999</ele>
<time>2024-12-16T11:48:59.215Z</time>
</trkpt>
<trkpt lat="31.1342600" lon="35.2300100">
<ele>189.039993</ele>
<time>2024-12-16T11:48:59.215Z</time>
</trkpt>
<trkpt lat="31.1342300" lon="35.2300400">
<ele>189.140015</ele>
<time>2024-12-16T11:48:59.215Z</time>
</trkpt>
<trkpt lat="31.1342000" lon="35.2300700">
<ele>189.250000</ele>
<time>2024-12-16T11:48:59.215Z</time>
</trkpt>
<trkpt lat="31.1341800" lon="35.2301000">
<ele>189.360001</ele>
<time>2024-12-16T11:48:59.215Z</time>
</trkpt>
<trkpt lat="31.1341600" lon="35.2301300">
<ele>189.429993</ele>
<time>2024-12-16T11:48:59.215Z</time>
</trkpt>
<trkpt lat="31.1341400" lon="35.2301600">
<ele>189.440002</ele>
<time>2024-12-16T11:48:59.215Z</time>
</trkpt>
<trkpt lat="31.1341200" lon="35.2302000">
<ele>189.500000</ele>
<time>2024-12-16T11:48:59.215Z</time>
</trkpt>
<trkpt lat="31.1340900" lon="35.2302500">
<ele>189.600006</ele>
<time>2024-12-16T11:48:59.215Z</time>
</trkpt>
<trkpt lat="31.1340600" lon="35.2302900">
<ele>189.719986</ele>
<time>2024-12-16T11:48:59.215Z</time>
</trkpt>
<trkpt lat="31.1340300" lon="35.2303300">
<ele>189.979996</ele>
<time>2024-12-16T11:48:59.215Z</time>
</trkpt>
<trkpt lat="31.1340100" lon="35.2303600">
<ele>190.189987</ele>
<time>2024-12-16T11:48:59.215Z</time>
</trkpt>
<trkpt lat="31.1340000" lon="35.2303900">
<ele>190.449997</ele>
<time>2024-12-16T11:48:59.215Z</time>
</trkpt>
<trkpt lat="31.1339800" lon="35.2304200">
<ele>190.700012</ele>
<time>2024-12-16T11:48:59.215Z</time>
</trkpt>
<trkpt lat="31.1339400" lon="35.2304700">
<ele>191.130005</ele>
<time>2024-12-16T11:48:59.215Z</time>
</trkpt>
<trkpt lat="31.1339100" lon="35.2305200">
<ele>191.629990</ele>
<time>2024-12-16T11:48:59.215Z</time>
</trkpt>
<trkpt lat="31.1338900" lon="35.2305500">
<ele>191.940002</ele>
<time>2024-12-16T11:48:59.215Z</time>
</trkpt>
<trkpt lat="31.1338600" lon="35.2305900">
<ele>192.650009</ele>
<time>2024-12-16T11:48:59.215Z</time>
</trkpt>
<trkpt lat="31.1338400" lon="35.2306200">
<ele>193.120010</ele>
<time>2024-12-16T11:48:59.215Z</time>
</trkpt>
<trkpt lat="31.1338100" lon="35.2306700">
<ele>193.750000</ele>
<time>2024-12-16T11:48:59.215Z</time>
</trkpt>
<trkpt lat="31.1337800" lon="35.2307100">
<ele>194.139999</ele>
<time>2024-12-16T11:48:59.215Z</time>
</trkpt>
<trkpt lat="31.1337600" lon="35.2307500">
<ele>194.429993</ele>
<time>2024-12-16T11:48:59.215Z</time>
</trkpt>
<trkpt lat="31.1337300" lon="35.2307900">
<ele>194.589996</ele>
<time>2024-12-16T11:48:59.215Z</time>
</trkpt>
<trkpt lat="31.1336900" lon="35.2308400">
<ele>194.620010</ele>
<time>2024-12-16T11:48:59.215Z</time>
</trkpt>
<trkpt lat="31.1336600" lon="35.2308800">
<ele>194.690002</ele>
<time>2024-12-16T11:48:59.215Z</time>
</trkpt>
<trkpt lat="31.1336400" lon="35.2309500">
<ele>195.049988</ele>
<time>2024-12-16T11:48:59.215Z</time>
</trkpt>
<trkpt lat="31.1336200" lon="35.2309900">
<ele>195.190002</ele>
<time>2024-12-16T11:48:59.215Z</time>
</trkpt>
<trkpt lat="31.1336000" lon="35.2310200">
<ele>195.320007</ele>
<time>2024-12-16T11:48:59.215Z</time>
</trkpt>
<trkpt lat="31.1335900" lon="35.2310600">
<ele>195.569992</ele>
<time>2024-12-16T11:48:59.215Z</time>
</trkpt>
<trkpt lat="31.1335600" lon="35.2311000">
<ele>195.739990</ele>
<time>2024-12-16T11:48:59.215Z</time>
</trkpt>
<trkpt lat="31.1335400" lon="35.2311400">
<ele>195.949997</ele>
<time>2024-12-16T11:48:59.215Z</time>
</trkpt>
<trkpt lat="31.1335200" lon="35.2311700">
<ele>196.099991</ele>
<time>2024-12-16T11:48:59.215Z</time>
</trkpt>
<trkpt lat="31.1335000" lon="35.2312000">
<ele>196.240005</ele>
<time>2024-12-16T11:48:59.215Z</time>
</trkpt>
<trkpt lat="31.1334600" lon="35.2312400">
<ele>196.379990</ele>
<time>2024-12-16T11:48:59.215Z</time>
</trkpt>
<trkpt lat="31.1334300" lon="35.2312700">
<ele>196.489990</ele>
<time>2024-12-16T11:48:59.215Z</time>
</trkpt>
<trkpt lat="31.1334100" lon="35.2313100">
<ele>196.710007</ele>
<time>2024-12-16T11:48:59.215Z</time>
</trkpt>
<trkpt lat="31.1333800" lon="35.2313700">
<ele>197.029999</ele>
<time>2024-12-16T11:48:59.215Z</time>
</trkpt>
<trkpt lat="31.1333500" lon="35.2314100">
<ele>197.270004</ele>
<time>2024-12-16T11:48:59.215Z</time>
</trkpt>
<trkpt lat="31.1333200" lon="35.2314500">
<ele>197.709991</ele>
<time>2024-12-16T11:48:59.215Z</time>
</trkpt>
<trkpt lat="31.1333000" lon="35.2314700">
<ele>198.000000</ele>
<time>2024-12-16T11:48:59.215Z</time>
</trkpt>
<trkpt lat="31.1332800" lon="35.2315000">
<ele>198.389999</ele>
<time>2024-12-16T11:48:59.215Z</time>
</trkpt>
<trkpt lat="31.1332600" lon="35.2315200">
<ele>198.680008</ele>
<time>2024-12-16T11:48:59.215Z</time>
</trkpt>
<trkpt lat="31.1332400" lon="35.2315600">
<ele>199.179993</ele>
<time>2024-12-16T11:48:59.215Z</time>
</trkpt>
<trkpt lat="31.1332100" lon="35.2315900">
<ele>199.619995</ele>
<time>2024-12-16T11:48:59.215Z</time>
</trkpt>
<trkpt lat="31.1331900" lon="35.2316300">
<ele>200.120010</ele>
<time>2024-12-16T11:48:59.215Z</time>
</trkpt>
<trkpt lat="31.1331600" lon="35.2316800">
<ele>200.769989</ele>
<time>2024-12-16T11:48:59.215Z</time>
</trkpt>
<trkpt lat="31.1331400" lon="35.2317200">
<ele>201.259995</ele>
<time>2024-12-16T11:48:59.215Z</time>
</trkpt>
<trkpt lat="31.1331200" lon="35.2317600">
<ele>201.669998</ele>
<time>2024-12-16T11:48:59.215Z</time>
</trkpt>
<trkpt lat="31.1331000" lon="35.2317900">
<ele>201.940002</ele>
<time>2024-12-16T11:48:59.215Z</time>
</trkpt>
<trkpt lat="31.1330700" lon="35.2318300">
<ele>202.219986</ele>
<time>2024-12-16T11:48:59.215Z</time>
</trkpt>
<trkpt lat="31.1330400" lon="35.2318900">
<ele>202.629990</ele>
<time>2024-12-16T11:48:59.215Z</time>
</trkpt>
<trkpt lat="31.1330200" lon="35.2319200">
<ele>202.850006</ele>
<time>2024-12-16T11:48:59.215Z</time>
</trkpt>
<trkpt lat="31.1330000" lon="35.2319600">
<ele>203.149994</ele>
<time>2024-12-16T11:48:59.215Z</time>
</trkpt>
<trkpt lat="31.1329800" lon="35.2319900">
<ele>203.399994</ele>
<time>2024-12-16T11:48:59.215Z</time>
</trkpt>
<trkpt lat="31.1329600" lon="35.2320400">
<ele>203.800003</ele>
<time>2024-12-16T11:48:59.215Z</time>
</trkpt>
<trkpt lat="31.1329400" lon="35.2320700">
<ele>203.979996</ele>
<time>2024-12-16T11:48:59.215Z</time>
</trkpt>
<trkpt lat="31.1329200" lon="35.2321000">
<ele>204.129990</ele>
<time>2024-12-16T11:48:59.215Z</time>
</trkpt>
<trkpt lat="31.1329000" lon="35.2321300">
<ele>204.259995</ele>
<time>2024-12-16T11:48:59.215Z</time>
</trkpt>
<trkpt lat="31.1328800" lon="35.2321800">
<ele>204.470001</ele>
<time>2024-12-16T11:48:59.215Z</time>
</trkpt>
<trkpt lat="31.1328600" lon="35.2322200">
<ele>204.580002</ele>
<time>2024-12-16T11:48:59.215Z</time>
</trkpt>
<trkpt lat="31.1328200" lon="35.2322700">
<ele>204.500000</ele>
<time>2024-12-16T11:48:59.215Z</time>
</trkpt>
<trkpt lat="31.1328000" lon="35.2323000">
<ele>204.460007</ele>
<time>2024-12-16T11:48:59.215Z</time>
</trkpt>
<trkpt lat="31.1327800" lon="35.2323300">
<ele>204.410004</ele>
<time>2024-12-16T11:48:59.215Z</time>
</trkpt>
<trkpt lat="31.1327400" lon="35.2323800">
<ele>204.820007</ele>
<time>2024-12-16T11:48:59.215Z</time>
</trkpt>
<trkpt lat="31.1327100" lon="35.2324300">
<ele>205.109985</ele>
<time>2024-12-16T11:48:59.215Z</time>
</trkpt>
<trkpt lat="31.1326800" lon="35.2324800">
<ele>205.330002</ele>
<time>2024-12-16T11:48:59.215Z</time>
</trkpt>
<trkpt lat="31.1326500" lon="35.2325300">
<ele>205.360001</ele>
<time>2024-12-16T11:48:59.215Z</time>
</trkpt>
<trkpt lat="31.1326200" lon="35.2325600">
<ele>205.320007</ele>
<time>2024-12-16T11:48:59.215Z</time>
</trkpt>
<trkpt lat="31.1326000" lon="35.2326000">
<ele>205.179993</ele>
<time>2024-12-16T11:48:59.215Z</time>
</trkpt>
<trkpt lat="31.1325800" lon="35.2326300">
<ele>205.050003</ele>
<time>2024-12-16T11:48:59.215Z</time>
</trkpt>
<trkpt lat="31.1325600" lon="35.2326600">
<ele>204.879990</ele>
<time>2024-12-16T11:48:59.215Z</time>
</trkpt>
<trkpt lat="31.1325400" lon="35.2327000">
<ele>204.619995</ele>
<time>2024-12-16T11:48:59.215Z</time>
</trkpt>
<trkpt lat="31.1325200" lon="35.2327400">
<ele>204.319992</ele>
<time>2024-12-16T11:48:59.215Z</time>
</trkpt>
<trkpt lat="31.1325000" lon="35.2327700">
<ele>204.059998</ele>
<time>2024-12-16T11:48:59.215Z</time>
</trkpt>
<trkpt lat="31.1324700" lon="35.2328100">
<ele>203.880005</ele>
<time>2024-12-16T11:48:59.215Z</time>
</trkpt>
<trkpt lat="31.1324500" lon="35.2328500">
<ele>203.770004</ele>
<time>2024-12-16T11:48:59.215Z</time>
</trkpt>
<trkpt lat="31.1324200" lon="35.2328800">
<ele>203.610016</ele>
<time>2024-12-16T11:48:59.215Z</time>
</trkpt>
<trkpt lat="31.1323800" lon="35.2329400">
<ele>203.319992</ele>
<time>2024-12-16T11:48:59.215Z</time>
</trkpt>
<trkpt lat="31.1323500" lon="35.2329900">
<ele>203.050003</ele>
<time>2024-12-16T11:48:59.215Z</time>
</trkpt>
<trkpt lat="31.1323100" lon="35.2330600">
<ele>202.639999</ele>
<time>2024-12-16T11:48:59.215Z</time>
</trkpt>
<trkpt lat="31.1322700" lon="35.2331200">
<ele>202.380005</ele>
<time>2024-12-16T11:48:59.215Z</time>
</trkpt>
<trkpt lat="31.1321900" lon="35.2332100">
<ele>201.690002</ele>
<time>2024-12-16T11:48:59.215Z</time>
</trkpt>
<trkpt lat="31.1321500" lon="35.2332700">
<ele>201.139999</ele>
<time>2024-12-16T11:48:59.215Z</time>
</trkpt>
<trkpt lat="31.1321000" lon="35.2333400">
<ele>200.229996</ele>
<time>2024-12-16T11:48:59.215Z</time>
</trkpt>
<trkpt lat="31.1320500" lon="35.2334200">
<ele>199.399994</ele>
<time>2024-12-16T11:48:59.215Z</time>
</trkpt>
<trkpt lat="31.1319900" lon="35.2335000">
<ele>198.559998</ele>
<time>2024-12-16T11:48:59.215Z</time>
</trkpt>
<trkpt lat="31.1319400" lon="35.2335800">
<ele>198.020004</ele>
<time>2024-12-16T11:48:59.215Z</time>
</trkpt>
<trkpt lat="31.1318900" lon="35.2336700">
<ele>198.069992</ele>
<time>2024-12-16T11:48:59.215Z</time>
</trkpt>
<trkpt lat="31.1318400" lon="35.2337700">
<ele>197.729996</ele>
<time>2024-12-16T11:48:59.215Z</time>
</trkpt>
<trkpt lat="31.1317800" lon="35.2338700">
<ele>196.940002</ele>
<time>2024-12-16T11:48:59.215Z</time>
</trkpt>
<trkpt lat="31.1317300" lon="35.2339700">
<ele>196.750000</ele>
<time>2024-12-16T11:48:59.215Z</time>
</trkpt>
<trkpt lat="31.1316700" lon="35.2340600">
<ele>196.639999</ele>
<time>2024-12-16T11:48:59.215Z</time>
</trkpt>
<trkpt lat="31.1316100" lon="35.2341500">
<ele>197.410004</ele>
<time>2024-12-16T11:48:59.215Z</time>
</trkpt>
<trkpt lat="31.1315600" lon="35.2342400">
<ele>197.930008</ele>
<time>2024-12-16T11:48:59.215Z</time>
</trkpt>
<trkpt lat="31.1315200" lon="35.2343300">
<ele>198.330002</ele>
<time>2024-12-16T11:48:59.215Z</time>
</trkpt>
<trkpt lat="31.1314800" lon="35.2344200">
<ele>198.639999</ele>
<time>2024-12-16T11:48:59.215Z</time>
</trkpt>
<trkpt lat="31.1314400" lon="35.2345100">
<ele>199.370010</ele>
<time>2024-12-16T11:48:59.215Z</time>
</trkpt>
<trkpt lat="31.1314100" lon="35.2345900">
<ele>200.050003</ele>
<time>2024-12-16T11:48:59.215Z</time>
</trkpt>
<trkpt lat="31.1313700" lon="35.2346700">
<ele>200.470001</ele>
<time>2024-12-16T11:48:59.215Z</time>
</trkpt>
<trkpt lat="31.1313400" lon="35.2347500">
<ele>200.570007</ele>
<time>2024-12-16T11:48:59.215Z</time>
</trkpt>
<trkpt lat="31.1313000" lon="35.2348300">
<ele>200.429993</ele>
<time>2024-12-16T11:48:59.215Z</time>
</trkpt>
<trkpt lat="31.1312600" lon="35.2349100">
<ele>200.279999</ele>
<time>2024-12-16T11:48:59.215Z</time>
</trkpt>
<trkpt lat="31.1312300" lon="35.2349800">
<ele>200.209991</ele>
<time>2024-12-16T11:48:59.215Z</time>
</trkpt>
<trkpt lat="31.1311900" lon="35.2350400">
<ele>200.180008</ele>
<time>2024-12-16T11:48:59.215Z</time>
</trkpt>
<trkpt lat="31.1311600" lon="35.2351000">
<ele>200.310013</ele>
<time>2024-12-16T11:48:59.215Z</time>
</trkpt>
<trkpt lat="31.1311200" lon="35.2351500">
<ele>200.189987</ele>
<time>2024-12-16T11:48:59.215Z</time>
</trkpt>
<trkpt lat="31.1310900" lon="35.2352000">
<ele>200.180008</ele>
<time>2024-12-16T11:48:59.215Z</time>
</trkpt>
<trkpt lat="31.1310600" lon="35.2352400">
<ele>200.039993</ele>
<time>2024-12-16T11:48:59.215Z</time>
</trkpt>
<trkpt lat="31.1309900" lon="35.2353100">
<ele>199.419998</ele>
<time>2024-12-16T11:48:59.215Z</time>
</trkpt>
<trkpt lat="31.1309600" lon="35.2353400">
<ele>199.169998</ele>
<time>2024-12-16T11:48:59.215Z</time>
</trkpt>
<trkpt lat="31.1309100" lon="35.2354000">
<ele>198.859985</ele>
<time>2024-12-16T11:48:59.215Z</time>
</trkpt>
<trkpt lat="31.1308800" lon="35.2354300">
<ele>198.680008</ele>
<time>2024-12-16T11:48:59.215Z</time>
</trkpt>
<trkpt lat="31.1308500" lon="35.2354700">
<ele>198.580002</ele>
<time>2024-12-16T11:48:59.215Z</time>
</trkpt>
<trkpt lat="31.1308200" lon="35.2355100">
<ele>198.649994</ele>
<time>2024-12-16T11:48:59.215Z</time>
</trkpt>
<trkpt lat="31.1308000" lon="35.2355400">
<ele>198.790009</ele>
<time>2024-12-16T11:48:59.215Z</time>
</trkpt>
<trkpt lat="31.1307700" lon="35.2355500">
<ele>198.750015</ele>
<time>2024-12-16T11:48:59.215Z</time>
</trkpt>
<trkpt lat="31.1307400" lon="35.2356000">
<ele>199.090012</ele>
<time>2024-12-16T11:48:59.215Z</time>
</trkpt>
<trkpt lat="31.1307200" lon="35.2356300">
<ele>199.289993</ele>
<time>2024-12-16T11:48:59.215Z</time>
</trkpt>
<trkpt lat="31.1306900" lon="35.2356900">
<ele>199.690002</ele>
<time>2024-12-16T11:48:59.215Z</time>
</trkpt>
<trkpt lat="31.1306700" lon="35.2357200">
<ele>199.840012</ele>
<time>2024-12-16T11:48:59.215Z</time>
</trkpt>
<trkpt lat="31.1306400" lon="35.2357600">
<ele>200.000000</ele>
<time>2024-12-16T11:48:59.215Z</time>
</trkpt>
<trkpt lat="31.1306100" lon="35.2358000">
<ele>200.130005</ele>
<time>2024-12-16T11:48:59.215Z</time>
</trkpt>
<trkpt lat="31.1305800" lon="35.2358400">
<ele>200.220001</ele>
<time>2024-12-16T11:48:59.215Z</time>
</trkpt>
<trkpt lat="31.1305600" lon="35.2358700">
<ele>200.290009</ele>
<time>2024-12-16T11:48:59.215Z</time>
</trkpt>
<trkpt lat="31.1305400" lon="35.2359000">
<ele>200.540009</ele>
<time>2024-12-16T11:48:59.215Z</time>
</trkpt>
<trkpt lat="31.1305200" lon="35.2359300">
<ele>200.820007</ele>
<time>2024-12-16T11:48:59.215Z</time>
</trkpt>
<trkpt lat="31.1305000" lon="35.2359600">
<ele>201.110001</ele>
<time>2024-12-16T11:48:59.215Z</time>
</trkpt>
<trkpt lat="31.1304700" lon="35.2359900">
<ele>201.440002</ele>
<time>2024-12-16T11:48:59.215Z</time>
</trkpt>
<trkpt lat="31.1304500" lon="35.2360200">
<ele>201.720001</ele>
<time>2024-12-16T11:48:59.215Z</time>
</trkpt>
<trkpt lat="31.1304300" lon="35.2360700">
<ele>202.159988</ele>
<time>2024-12-16T11:48:59.215Z</time>
</trkpt>
<trkpt lat="31.1304100" lon="35.2361100">
<ele>202.519989</ele>
<time>2024-12-16T11:48:59.215Z</time>
</trkpt>
<trkpt lat="31.1303900" lon="35.2361500">
<ele>202.649994</ele>
<time>2024-12-16T11:48:59.215Z</time>
</trkpt>
<trkpt lat="31.1303800" lon="35.2361900">
<ele>202.739990</ele>
<time>2024-12-16T11:48:59.215Z</time>
</trkpt>
<trkpt lat="31.1303500" lon="35.2362300">
<ele>202.850006</ele>
<time>2024-12-16T11:48:59.215Z</time>
</trkpt>
<trkpt lat="31.1303300" lon="35.2362600">
<ele>202.909988</ele>
<time>2024-12-16T11:48:59.215Z</time>
</trkpt>
<trkpt lat="31.1303100" lon="35.2362800">
<ele>202.949997</ele>
<time>2024-12-16T11:48:59.215Z</time>
</trkpt>
<trkpt lat="31.1303000" lon="35.2363100">
<ele>202.979996</ele>
<time>2024-12-16T11:48:59.215Z</time>
</trkpt>
<trkpt lat="31.1302800" lon="35.2363500">
<ele>203.000000</ele>
<time>2024-12-16T11:48:59.215Z</time>
</trkpt>
<trkpt lat="31.1302600" lon="35.2363800">
<ele>203.130005</ele>
<time>2024-12-16T11:48:59.215Z</time>
</trkpt>
<trkpt lat="31.1302400" lon="35.2364000">
<ele>203.370010</ele>
<time>2024-12-16T11:48:59.215Z</time>
</trkpt>
<trkpt lat="31.1302200" lon="35.2364300">
<ele>203.840012</ele>
<time>2024-12-16T11:48:59.215Z</time>
</trkpt>
<trkpt lat="31.1302000" lon="35.2364600">
<ele>204.359985</ele>
<time>2024-12-16T11:48:59.215Z</time>
</trkpt>
<trkpt lat="31.1301800" lon="35.2364900">
<ele>204.939987</ele>
<time>2024-12-16T11:48:59.215Z</time>
</trkpt>
<trkpt lat="31.1301500" lon="35.2365200">
<ele>205.729996</ele>
<time>2024-12-16T11:48:59.215Z</time>
</trkpt>
<trkpt lat="31.1301300" lon="35.2365500">
<ele>206.459991</ele>
<time>2024-12-16T11:48:59.215Z</time>
</trkpt>
<trkpt lat="31.1301100" lon="35.2365900">
<ele>207.410004</ele>
<time>2024-12-16T11:48:59.215Z</time>
</trkpt>
<trkpt lat="31.1300900" lon="35.2366100">
<ele>208.100006</ele>
<time>2024-12-16T11:48:59.215Z</time>
</trkpt>
<trkpt lat="31.1300600" lon="35.2366600">
<ele>209.580002</ele>
<time>2024-12-16T11:48:59.215Z</time>
</trkpt>
<trkpt lat="31.1300400" lon="35.2366900">
<ele>210.750000</ele>
<time>2024-12-16T11:48:59.215Z</time>
</trkpt>
<trkpt lat="31.1300300" lon="35.2367200">
<ele>211.779999</ele>
<time>2024-12-16T11:48:59.215Z</time>
</trkpt>
<trkpt lat="31.1300100" lon="35.2367500">
<ele>213.130005</ele>
<time>2024-12-16T11:48:59.215Z</time>
</trkpt>
<trkpt lat="31.1299900" lon="35.2367900">
<ele>214.789993</ele>
<time>2024-12-16T11:48:59.215Z</time>
</trkpt>
<trkpt lat="31.1299800" lon="35.2368200">
<ele>215.870010</ele>
<time>2024-12-16T11:48:59.215Z</time>
</trkpt>
<trkpt lat="31.1299600" lon="35.2368500">
<ele>217.149994</ele>
<time>2024-12-16T11:48:59.215Z</time>
</trkpt>
<trkpt lat="31.1299500" lon="35.2368900">
<ele>218.440002</ele>
<time>2024-12-16T11:48:59.215Z</time>
</trkpt>
<trkpt lat="31.1299400" lon="35.2369300">
<ele>219.699997</ele>
<time>2024-12-16T11:48:59.215Z</time>
</trkpt>
<trkpt lat="31.1299100" lon="35.2369800">
<ele>221.000000</ele>
<time>2024-12-16T11:48:59.215Z</time>
</trkpt>
<trkpt lat="31.1298900" lon="35.2370100">
<ele>221.690002</ele>
<time>2024-12-16T11:48:59.215Z</time>
</trkpt>
<trkpt lat="31.1298600" lon="35.2370300">
<ele>222.440002</ele>
<time>2024-12-16T11:48:59.215Z</time>
</trkpt>
<trkpt lat="31.1298300" lon="35.2370600">
<ele>223.309998</ele>
<time>2024-12-16T11:48:59.215Z</time>
</trkpt>
<trkpt lat="31.1298000" lon="35.2371100">
<ele>224.389999</ele>
<time>2024-12-16T11:48:59.215Z</time>
</trkpt>
<trkpt lat="31.1297800" lon="35.2371400">
<ele>225.070007</ele>
<time>2024-12-16T11:48:59.215Z</time>
</trkpt>
<trkpt lat="31.1297600" lon="35.2371800">
<ele>225.860001</ele>
<time>2024-12-16T11:48:59.215Z</time>
</trkpt>
<trkpt lat="31.1297400" lon="35.2372100">
<ele>226.550003</ele>
<time>2024-12-16T11:48:59.215Z</time>
</trkpt>
<trkpt lat="31.1297100" lon="35.2372500">
<ele>227.119995</ele>
<time>2024-12-16T11:48:59.215Z</time>
</trkpt>
<trkpt lat="31.1296900" lon="35.2372800">
<ele>227.300003</ele>
<time>2024-12-16T11:48:59.215Z</time>
</trkpt>
<trkpt lat="31.1296700" lon="35.2373000">
<ele>227.459991</ele>
<time>2024-12-16T11:48:59.215Z</time>
</trkpt>
<trkpt lat="31.1296500" lon="35.2373300">
<ele>227.580002</ele>
<time>2024-12-16T11:48:59.215Z</time>
</trkpt>
<trkpt lat="31.1296200" lon="35.2373700">
<ele>227.710007</ele>
<time>2024-12-16T11:48:59.215Z</time>
</trkpt>
<trkpt lat="31.1296000" lon="35.2374000">
<ele>227.759995</ele>
<time>2024-12-16T11:48:59.215Z</time>
</trkpt>
<trkpt lat="31.1295800" lon="35.2374300">
<ele>227.770004</ele>
<time>2024-12-16T11:48:59.215Z</time>
</trkpt>
<trkpt lat="31.1295600" lon="35.2374700">
<ele>227.710007</ele>
<time>2024-12-16T11:48:59.215Z</time>
</trkpt>
<trkpt lat="31.1295200" lon="35.2375100">
<ele>227.680008</ele>
<time>2024-12-16T11:48:59.215Z</time>
</trkpt>
<trkpt lat="31.1294800" lon="35.2375400">
<ele>227.710007</ele>
<time>2024-12-16T11:48:59.215Z</time>
</trkpt>
<trkpt lat="31.1294600" lon="35.2375700">
<ele>227.680008</ele>
<time>2024-12-16T11:48:59.215Z</time>
</trkpt>
<trkpt lat="31.1294300" lon="35.2376200">
<ele>227.750000</ele>
<time>2024-12-16T11:48:59.215Z</time>
</trkpt>
<trkpt lat="31.1294100" lon="35.2376500">
<ele>227.889999</ele>
<time>2024-12-16T11:48:59.215Z</time>
</trkpt>
<trkpt lat="31.1293800" lon="35.2377000">
<ele>228.039993</ele>
<time>2024-12-16T11:48:59.215Z</time>
</trkpt>
<trkpt lat="31.1293500" lon="35.2377400">
<ele>228.200012</ele>
<time>2024-12-16T11:48:59.215Z</time>
</trkpt>
<trkpt lat="31.1293300" lon="35.2377700">
<ele>228.279999</ele>
<time>2024-12-16T11:48:59.215Z</time>
</trkpt>
<trkpt lat="31.1293100" lon="35.2377900">
<ele>228.430008</ele>
<time>2024-12-16T11:48:59.215Z</time>
</trkpt>
<trkpt lat="31.1292900" lon="35.2378300">
<ele>228.580002</ele>
<time>2024-12-16T11:48:59.215Z</time>
</trkpt>
<trkpt lat="31.1292600" lon="35.2378700">
<ele>228.880005</ele>
<time>2024-12-16T11:48:59.215Z</time>
</trkpt>
<trkpt lat="31.1292300" lon="35.2379100">
<ele>229.210007</ele>
<time>2024-12-16T11:48:59.215Z</time>
</trkpt>
<trkpt lat="31.1292100" lon="35.2379500">
<ele>229.440002</ele>
<time>2024-12-16T11:48:59.215Z</time>
</trkpt>
<trkpt lat="31.1291800" lon="35.2379800">
<ele>229.820007</ele>
<time>2024-12-16T11:48:59.215Z</time>
</trkpt>
<trkpt lat="31.1291600" lon="35.2380100">
<ele>230.040009</ele>
<time>2024-12-16T11:48:59.215Z</time>
</trkpt>
<trkpt lat="31.1291300" lon="35.2380400">
<ele>230.150009</ele>
<time>2024-12-16T11:48:59.215Z</time>
</trkpt>
<trkpt lat="31.1291100" lon="35.2380700">
<ele>230.119995</ele>
<time>2024-12-16T11:48:59.215Z</time>
</trkpt>
<trkpt lat="31.1290900" lon="35.2381000">
<ele>230.040009</ele>
<time>2024-12-16T11:48:59.215Z</time>
</trkpt>
<trkpt lat="31.1290600" lon="35.2381400">
<ele>230.009995</ele>
<time>2024-12-16T11:48:59.215Z</time>
</trkpt>
<trkpt lat="31.1290400" lon="35.2381700">
<ele>230.009995</ele>
<time>2024-12-16T11:48:59.215Z</time>
</trkpt>
<trkpt lat="31.1290200" lon="35.2382000">
<ele>230.040009</ele>
<time>2024-12-16T11:48:59.215Z</time>
</trkpt>
<trkpt lat="31.1290000" lon="35.2382300">
<ele>230.100006</ele>
<time>2024-12-16T11:48:59.215Z</time>
</trkpt>
<trkpt lat="31.1289800" lon="35.2382600">
<ele>230.190002</ele>
<time>2024-12-16T11:48:59.215Z</time>
</trkpt>
<trkpt lat="31.1289600" lon="35.2382900">
<ele>230.309998</ele>
<time>2024-12-16T11:48:59.215Z</time>
</trkpt>
<trkpt lat="31.1289400" lon="35.2383200">
<ele>230.470001</ele>
<time>2024-12-16T11:48:59.215Z</time>
</trkpt>
<trkpt lat="31.1289200" lon="35.2383600">
<ele>230.649994</ele>
<time>2024-12-16T11:48:59.215Z</time>
</trkpt>
<trkpt lat="31.1288900" lon="35.2384000">
<ele>230.989990</ele>
<time>2024-12-16T11:48:59.215Z</time>
</trkpt>
<trkpt lat="31.1288700" lon="35.2384400">
<ele>231.200012</ele>
<time>2024-12-16T11:48:59.215Z</time>
</trkpt>
<trkpt lat="31.1288500" lon="35.2384800">
<ele>231.419998</ele>
<time>2024-12-16T11:48:59.215Z</time>
</trkpt>
<trkpt lat="31.1288400" lon="35.2385200">
<ele>231.529999</ele>
<time>2024-12-16T11:48:59.215Z</time>
</trkpt>
<trkpt lat="31.1288200" lon="35.2385600">
<ele>231.739990</ele>
<time>2024-12-16T11:48:59.215Z</time>
</trkpt>
<trkpt lat="31.1287900" lon="35.2386000">
<ele>232.070007</ele>
<time>2024-12-16T11:48:59.215Z</time>
</trkpt>
<trkpt lat="31.1287700" lon="35.2386400">
<ele>232.310013</ele>
<time>2024-12-16T11:48:59.215Z</time>
</trkpt>
<trkpt lat="31.1287500" lon="35.2386700">
<ele>232.610001</ele>
<time>2024-12-16T11:48:59.215Z</time>
</trkpt>
<trkpt lat="31.1287300" lon="35.2387000">
<ele>232.949997</ele>
<time>2024-12-16T11:48:59.215Z</time>
</trkpt>
<trkpt lat="31.1287100" lon="35.2387300">
<ele>233.330002</ele>
<time>2024-12-16T11:48:59.215Z</time>
</trkpt>
<trkpt lat="31.1286800" lon="35.2387700">
<ele>233.970001</ele>
<time>2024-12-16T11:48:59.215Z</time>
</trkpt>
<trkpt lat="31.1286500" lon="35.2387900">
<ele>234.600006</ele>
<time>2024-12-16T11:48:59.215Z</time>
</trkpt>
<trkpt lat="31.1286200" lon="35.2388200">
<ele>235.339996</ele>
<time>2024-12-16T11:48:59.215Z</time>
</trkpt>
<trkpt lat="31.1286000" lon="35.2388400">
<ele>235.759995</ele>
<time>2024-12-16T11:48:59.215Z</time>
</trkpt>
<trkpt lat="31.1285600" lon="35.2388700">
<ele>236.279999</ele>
<time>2024-12-16T11:48:59.215Z</time>
</trkpt>
<trkpt lat="31.1285400" lon="35.2388900">
<ele>236.520004</ele>
<time>2024-12-16T11:48:59.215Z</time>
</trkpt>
<trkpt lat="31.1285100" lon="35.2389100">
<ele>236.870010</ele>
<time>2024-12-16T11:48:59.215Z</time>
</trkpt>
<trkpt lat="31.1284800" lon="35.2389300">
<ele>237.179993</ele>
<time>2024-12-16T11:48:59.215Z</time>
</trkpt>
<trkpt lat="31.1284600" lon="35.2389500">
<ele>237.389999</ele>
<time>2024-12-16T11:48:59.215Z</time>
</trkpt>
<trkpt lat="31.1284200" lon="35.2389600">
<ele>237.620010</ele>
<time>2024-12-16T11:48:59.215Z</time>
</trkpt>
<trkpt lat="31.1283900" lon="35.2389700">
<ele>237.770004</ele>
<time>2024-12-16T11:48:59.215Z</time>
</trkpt>
<trkpt lat="31.1283700" lon="35.2389900">
<ele>237.879990</ele>
<time>2024-12-16T11:48:59.215Z</time>
</trkpt>
<trkpt lat="31.1283400" lon="35.2390100">
<ele>237.980011</ele>
<time>2024-12-16T11:48:59.215Z</time>
</trkpt>
<trkpt lat="31.1283100" lon="35.2390300">
<ele>238.419998</ele>
<time>2024-12-16T11:48:59.215Z</time>
</trkpt>
<trkpt lat="31.1282800" lon="35.2390500">
<ele>238.929993</ele>
<time>2024-12-16T11:48:59.215Z</time>
</trkpt>
<trkpt lat="31.1282400" lon="35.2390700">
<ele>239.580002</ele>
<time>2024-12-16T11:48:59.215Z</time>
</trkpt>
<trkpt lat="31.1282100" lon="35.2390800">
<ele>240.050003</ele>
<time>2024-12-16T11:48:59.215Z</time>
</trkpt>
<trkpt lat="31.1281800" lon="35.2390900">
<ele>240.510010</ele>
<time>2024-12-16T11:48:59.215Z</time>
</trkpt>
<trkpt lat="31.1281400" lon="35.2391000">
<ele>241.119995</ele>
<time>2024-12-16T11:48:59.215Z</time>
</trkpt>
<trkpt lat="31.1280900" lon="35.2391300">
<ele>241.740005</ele>
<time>2024-12-16T11:48:59.215Z</time>
</trkpt>
<trkpt lat="31.1280600" lon="35.2391400">
<ele>242.119995</ele>
<time>2024-12-16T11:48:59.215Z</time>
</trkpt>
<trkpt lat="31.1280200" lon="35.2391600">
<ele>242.830002</ele>
<time>2024-12-16T11:48:59.215Z</time>
</trkpt>
<trkpt lat="31.1279800" lon="35.2391800">
<ele>243.400009</ele>
<time>2024-12-16T11:48:59.215Z</time>
</trkpt>
<trkpt lat="31.1279400" lon="35.2392000">
<ele>243.979996</ele>
<time>2024-12-16T11:48:59.215Z</time>
</trkpt>
<trkpt lat="31.1278900" lon="35.2392200">
<ele>244.879990</ele>
<time>2024-12-16T11:48:59.215Z</time>
</trkpt>
<trkpt lat="31.1278600" lon="35.2392400">
<ele>245.380005</ele>
<time>2024-12-16T11:48:59.215Z</time>
</trkpt>
<trkpt lat="31.1278200" lon="35.2392700">
<ele>246.119995</ele>
<time>2024-12-16T11:48:59.215Z</time>
</trkpt>
<trkpt lat="31.1277600" lon="35.2393000">
<ele>247.009995</ele>
<time>2024-12-16T11:48:59.215Z</time>
</trkpt>
<trkpt lat="31.1277100" lon="35.2393300">
<ele>246.719986</ele>
<time>2024-12-16T11:48:59.215Z</time>
</trkpt>
<trkpt lat="31.1276400" lon="35.2393700">
<ele>246.399994</ele>
<time>2024-12-16T11:48:59.215Z</time>
</trkpt>
<trkpt lat="31.1275400" lon="35.2394300">
<ele>246.059998</ele>
<time>2024-12-16T11:48:59.215Z</time>
</trkpt>
<trkpt lat="31.1274600" lon="35.2394700">
<ele>245.900009</ele>
<time>2024-12-16T11:48:59.215Z</time>
</trkpt>
<trkpt lat="31.1273900" lon="35.2395100">
<ele>245.679993</ele>
<time>2024-12-16T11:48:59.215Z</time>
</trkpt>
<trkpt lat="31.1273300" lon="35.2395500">
<ele>245.540009</ele>
<time>2024-12-16T11:48:59.215Z</time>
</trkpt>
<trkpt lat="31.1272700" lon="35.2395800">
<ele>245.320007</ele>
<time>2024-12-16T11:48:59.215Z</time>
</trkpt>
<trkpt lat="31.1272300" lon="35.2396100">
<ele>245.250000</ele>
<time>2024-12-16T11:48:59.215Z</time>
</trkpt>
<trkpt lat="31.1271800" lon="35.2396400">
<ele>245.520004</ele>
<time>2024-12-16T11:48:59.215Z</time>
</trkpt>
<trkpt lat="31.1271400" lon="35.2396600">
<ele>245.779999</ele>
<time>2024-12-16T11:48:59.215Z</time>
</trkpt>
<trkpt lat="31.1271100" lon="35.2396800">
<ele>246.039993</ele>
<time>2024-12-16T11:48:59.215Z</time>
</trkpt>
<trkpt lat="31.1270700" lon="35.2397000">
<ele>246.339996</ele>
<time>2024-12-16T11:48:59.215Z</time>
</trkpt>
<trkpt lat="31.1270400" lon="35.2396900">
<ele>246.350006</ele>
<time>2024-12-16T11:48:59.215Z</time>
</trkpt>
<trkpt lat="31.1270100" lon="35.2397100">
<ele>246.639999</ele>
<time>2024-12-16T11:48:59.215Z</time>
</trkpt>
<trkpt lat="31.1269800" lon="35.2397200">
<ele>246.849991</ele>
<time>2024-12-16T11:48:59.215Z</time>
</trkpt>
<trkpt lat="31.1269400" lon="35.2397400">
<ele>247.330002</ele>
<time>2024-12-16T11:48:59.215Z</time>
</trkpt>
<trkpt lat="31.1269200" lon="35.2397600">
<ele>247.760010</ele>
<time>2024-12-16T11:48:59.215Z</time>
</trkpt>
<trkpt lat="31.1268800" lon="35.2397900">
<ele>248.399994</ele>
<time>2024-12-16T11:48:59.215Z</time>
</trkpt>
<trkpt lat="31.1268400" lon="35.2398200">
<ele>249.000000</ele>
<time>2024-12-16T11:48:59.215Z</time>
</trkpt>
<trkpt lat="31.1268000" lon="35.2398400">
<ele>249.419998</ele>
<time>2024-12-16T11:48:59.215Z</time>
</trkpt>
<trkpt lat="31.1267700" lon="35.2398500">
<ele>249.639999</ele>
<time>2024-12-16T11:48:59.215Z</time>
</trkpt>
<trkpt lat="31.1267400" lon="35.2398700">
<ele>250.000000</ele>
<time>2024-12-16T11:48:59.215Z</time>
</trkpt>
<trkpt lat="31.1267000" lon="35.2399000">
<ele>250.520004</ele>
<time>2024-12-16T11:48:59.215Z</time>
</trkpt>
<trkpt lat="31.1266600" lon="35.2399200">
<ele>250.919998</ele>
<time>2024-12-16T11:48:59.215Z</time>
</trkpt>
<trkpt lat="31.1266300" lon="35.2399300">
<ele>251.360001</ele>
<time>2024-12-16T11:48:59.215Z</time>
</trkpt>
<trkpt lat="31.1265900" lon="35.2399400">
<ele>251.870010</ele>
<time>2024-12-16T11:48:59.215Z</time>
</trkpt>
<trkpt lat="31.1265500" lon="35.2399500">
<ele>252.349991</ele>
<time>2024-12-16T11:48:59.215Z</time>
</trkpt>
<trkpt lat="31.1265100" lon="35.2399700">
<ele>252.880005</ele>
<time>2024-12-16T11:48:59.215Z</time>
</trkpt>
<trkpt lat="31.1264700" lon="35.2399800">
<ele>253.279999</ele>
<time>2024-12-16T11:48:59.215Z</time>
</trkpt>
<trkpt lat="31.1264500" lon="35.2400000">
<ele>253.559998</ele>
<time>2024-12-16T11:48:59.215Z</time>
</trkpt>
<trkpt lat="31.1264200" lon="35.2400100">
<ele>253.809998</ele>
<time>2024-12-16T11:48:59.215Z</time>
</trkpt>
<trkpt lat="31.1263900" lon="35.2400300">
<ele>254.100006</ele>
<time>2024-12-16T11:48:59.215Z</time>
</trkpt>
<trkpt lat="31.1263600" lon="35.2400400">
<ele>254.440002</ele>
<time>2024-12-16T11:48:59.215Z</time>
</trkpt>
<trkpt lat="31.1263400" lon="35.2400600">
<ele>254.709991</ele>
<time>2024-12-16T11:48:59.215Z</time>
</trkpt>
<trkpt lat="31.1263100" lon="35.2400800">
<ele>255.059998</ele>
<time>2024-12-16T11:48:59.215Z</time>
</trkpt>
<trkpt lat="31.1262700" lon="35.2401000">
<ele>255.490005</ele>
<time>2024-12-16T11:48:59.215Z</time>
</trkpt>
<trkpt lat="31.1262300" lon="35.2401200">
<ele>255.900009</ele>
<time>2024-12-16T11:48:59.215Z</time>
</trkpt>
<trkpt lat="31.1262100" lon="35.2401400">
<ele>256.110016</ele>
<time>2024-12-16T11:48:59.215Z</time>
</trkpt>
<trkpt lat="31.1261600" lon="35.2401600">
<ele>256.570007</ele>
<time>2024-12-16T11:48:59.215Z</time>
</trkpt>
<trkpt lat="31.1261400" lon="35.2401700">
<ele>256.750000</ele>
<time>2024-12-16T11:48:59.215Z</time>
</trkpt>
<trkpt lat="31.1261100" lon="35.2401900">
<ele>257.000000</ele>
<time>2024-12-16T11:48:59.215Z</time>
</trkpt>
<trkpt lat="31.1260800" lon="35.2402000">
<ele>257.079987</ele>
<time>2024-12-16T11:48:59.215Z</time>
</trkpt>
<trkpt lat="31.1260500" lon="35.2402100">
<ele>257.169983</ele>
<time>2024-12-16T11:48:59.215Z</time>
</trkpt>
<trkpt lat="31.1260200" lon="35.2402400">
<ele>257.279999</ele>
<time>2024-12-16T11:48:59.215Z</time>
</trkpt>
<trkpt lat="31.1260000" lon="35.2402600">
<ele>257.369995</ele>
<time>2024-12-16T11:48:59.215Z</time>
</trkpt>
<trkpt lat="31.1259800" lon="35.2402900">
<ele>257.540009</ele>
<time>2024-12-16T11:48:59.215Z</time>
</trkpt>
<trkpt lat="31.1259500" lon="35.2403100">
<ele>257.760010</ele>
<time>2024-12-16T11:48:59.215Z</time>
</trkpt>
<trkpt lat="31.1259200" lon="35.2403300">
<ele>258.010010</ele>
<time>2024-12-16T11:48:59.215Z</time>
</trkpt>
<trkpt lat="31.1258800" lon="35.2403300">
<ele>258.179993</ele>
<time>2024-12-16T11:48:59.215Z</time>
</trkpt>
<trkpt lat="31.1258500" lon="35.2403400">
<ele>258.369995</ele>
<time>2024-12-16T11:48:59.215Z</time>
</trkpt>
<trkpt lat="31.1258200" lon="35.2403700">
<ele>258.700012</ele>
<time>2024-12-16T11:48:59.215Z</time>
</trkpt>
<trkpt lat="31.1258000" lon="35.2403900">
<ele>258.880005</ele>
<time>2024-12-16T11:48:59.215Z</time>
</trkpt>
<trkpt lat="31.1257700" lon="35.2404100">
<ele>259.069977</ele>
<time>2024-12-16T11:48:59.215Z</time>
</trkpt>
<trkpt lat="31.1257400" lon="35.2404300">
<ele>259.250000</ele>
<time>2024-12-16T11:48:59.215Z</time>
</trkpt>
<trkpt lat="31.1257200" lon="35.2404500">
<ele>259.399994</ele>
<time>2024-12-16T11:48:59.215Z</time>
</trkpt>
<trkpt lat="31.1256900" lon="35.2404800">
<ele>259.600006</ele>
<time>2024-12-16T11:48:59.215Z</time>
</trkpt>
<trkpt lat="31.1256700" lon="35.2405000">
<ele>259.720001</ele>
<time>2024-12-16T11:48:59.215Z</time>
</trkpt>
<trkpt lat="31.1256400" lon="35.2405200">
<ele>259.829987</ele>
<time>2024-12-16T11:48:59.215Z</time>
</trkpt>
<trkpt lat="31.1256100" lon="35.2405500">
<ele>259.980011</ele>
<time>2024-12-16T11:48:59.215Z</time>
</trkpt>
<trkpt lat="31.1255900" lon="35.2405800">
<ele>260.029999</ele>
<time>2024-12-16T11:48:59.215Z</time>
</trkpt>
<trkpt lat="31.1255700" lon="35.2406100">
<ele>260.029999</ele>
<time>2024-12-16T11:48:59.215Z</time>
</trkpt>
<trkpt lat="31.1255300" lon="35.2406600">
<ele>259.869995</ele>
<time>2024-12-16T11:48:59.215Z</time>
</trkpt>
<trkpt lat="31.1255000" lon="35.2406900">
<ele>259.700012</ele>
<time>2024-12-16T11:48:59.215Z</time>
</trkpt>
<trkpt lat="31.1254700" lon="35.2407200">
<ele>259.510010</ele>
<time>2024-12-16T11:48:59.215Z</time>
</trkpt>
<trkpt lat="31.1254400" lon="35.2407400">
<ele>259.309998</ele>
<time>2024-12-16T11:48:59.215Z</time>
</trkpt>
<trkpt lat="31.1254100" lon="35.2407600">
<ele>259.089996</ele>
<time>2024-12-16T11:48:59.215Z</time>
</trkpt>
<trkpt lat="31.1253700" lon="35.2408000">
<ele>258.739990</ele>
<time>2024-12-16T11:48:59.215Z</time>
</trkpt>
<trkpt lat="31.1253400" lon="35.2408300">
<ele>258.459991</ele>
<time>2024-12-16T11:48:59.215Z</time>
</trkpt>
<trkpt lat="31.1253200" lon="35.2408600">
<ele>258.480011</ele>
<time>2024-12-16T11:48:59.215Z</time>
</trkpt>
<trkpt lat="31.1252900" lon="35.2408900">
<ele>258.490021</ele>
<time>2024-12-16T11:48:59.215Z</time>
</trkpt>
<trkpt lat="31.1252700" lon="35.2409200">
<ele>258.630005</ele>
<time>2024-12-16T11:48:59.215Z</time>
</trkpt>
<trkpt lat="31.1252400" lon="35.2409500">
<ele>258.799988</ele>
<time>2024-12-16T11:48:59.215Z</time>
</trkpt>
<trkpt lat="31.1252200" lon="35.2409800">
<ele>258.929993</ele>
<time>2024-12-16T11:48:59.215Z</time>
</trkpt>
<trkpt lat="31.1251900" lon="35.2410100">
<ele>258.989990</ele>
<time>2024-12-16T11:48:59.215Z</time>
</trkpt>
<trkpt lat="31.1251600" lon="35.2410400">
<ele>258.970001</ele>
<time>2024-12-16T11:48:59.215Z</time>
</trkpt>
<trkpt lat="31.1251300" lon="35.2410700">
<ele>258.880005</ele>
<time>2024-12-16T11:48:59.215Z</time>
</trkpt>
<trkpt lat="31.1251000" lon="35.2411100">
<ele>258.720001</ele>
<time>2024-12-16T11:48:59.215Z</time>
</trkpt>
<trkpt lat="31.1250600" lon="35.2411400">
<ele>258.640015</ele>
<time>2024-12-16T11:48:59.215Z</time>
</trkpt>
<trkpt lat="31.1250200" lon="35.2412000">
<ele>258.779999</ele>
<time>2024-12-16T11:48:59.215Z</time>
</trkpt>
<trkpt lat="31.1249800" lon="35.2412500">
<ele>259.320007</ele>
<time>2024-12-16T11:48:59.215Z</time>
</trkpt>
<trkpt lat="31.1249500" lon="35.2412900">
<ele>260.019989</ele>
<time>2024-12-16T11:48:59.215Z</time>
</trkpt>
<trkpt lat="31.1249200" lon="35.2413400">
<ele>260.660004</ele>
<time>2024-12-16T11:48:59.215Z</time>
</trkpt>
<trkpt lat="31.1248900" lon="35.2414000">
<ele>261.250000</ele>
<time>2024-12-16T11:48:59.215Z</time>
</trkpt>
<trkpt lat="31.1248700" lon="35.2414700">
<ele>261.850006</ele>
<time>2024-12-16T11:48:59.215Z</time>
</trkpt>
<trkpt lat="31.1248500" lon="35.2415200">
<ele>262.309998</ele>
<time>2024-12-16T11:48:59.215Z</time>
</trkpt>
<trkpt lat="31.1248300" lon="35.2415800">
<ele>262.790009</ele>
<time>2024-12-16T11:48:59.215Z</time>
</trkpt>
<trkpt lat="31.1248100" lon="35.2416600">
<ele>263.339996</ele>
<time>2024-12-16T11:48:59.215Z</time>
</trkpt>
<trkpt lat="31.1248000" lon="35.2417100">
<ele>263.529999</ele>
<time>2024-12-16T11:48:59.215Z</time>
</trkpt>
<trkpt lat="31.1247900" lon="35.2417600">
<ele>263.679993</ele>
<time>2024-12-16T11:48:59.215Z</time>
</trkpt>
<trkpt lat="31.1247800" lon="35.2418100">
<ele>263.799988</ele>
<time>2024-12-16T11:48:59.215Z</time>
</trkpt>
<trkpt lat="31.1247600" lon="35.2418700">
<ele>263.929993</ele>
<time>2024-12-16T11:48:59.215Z</time>
</trkpt>
<trkpt lat="31.1247400" lon="35.2419300">
<ele>263.990021</ele>
<time>2024-12-16T11:48:59.215Z</time>
</trkpt>
<trkpt lat="31.1247300" lon="35.2419700">
<ele>264.000000</ele>
<time>2024-12-16T11:48:59.215Z</time>
</trkpt>
<trkpt lat="31.1247200" lon="35.2420200">
<ele>264.000000</ele>
<time>2024-12-16T11:48:59.215Z</time>
</trkpt>
<trkpt lat="31.1247100" lon="35.2420600">
<ele>263.980011</ele>
<time>2024-12-16T11:48:59.215Z</time>
</trkpt>
<trkpt lat="31.1246900" lon="35.2421000">
<ele>263.940002</ele>
<time>2024-12-16T11:48:59.215Z</time>
</trkpt>
<trkpt lat="31.1246800" lon="35.2421300">
<ele>263.899994</ele>
<time>2024-12-16T11:48:59.215Z</time>
</trkpt>
<trkpt lat="31.1246600" lon="35.2421700">
<ele>263.820007</ele>
<time>2024-12-16T11:48:59.215Z</time>
</trkpt>
<trkpt lat="31.1246500" lon="35.2422200">
<ele>263.739990</ele>
<time>2024-12-16T11:48:59.215Z</time>
</trkpt>
<trkpt lat="31.1246200" lon="35.2422800">
<ele>263.559998</ele>
<time>2024-12-16T11:48:59.215Z</time>
</trkpt>
<trkpt lat="31.1246100" lon="35.2423200">
<ele>263.450012</ele>
<time>2024-12-16T11:48:59.215Z</time>
</trkpt>
<trkpt lat="31.1245900" lon="35.2424000">
<ele>263.220001</ele>
<time>2024-12-16T11:48:59.215Z</time>
</trkpt>
<trkpt lat="31.1245700" lon="35.2424600">
<ele>262.980011</ele>
<time>2024-12-16T11:48:59.215Z</time>
</trkpt>
<trkpt lat="31.1245500" lon="35.2425100">
<ele>262.720001</ele>
<time>2024-12-16T11:48:59.215Z</time>
</trkpt>
<trkpt lat="31.1245400" lon="35.2425500">
<ele>262.510010</ele>
<time>2024-12-16T11:48:59.215Z</time>
</trkpt>
<trkpt lat="31.1245200" lon="35.2426100">
<ele>262.149994</ele>
<time>2024-12-16T11:48:59.215Z</time>
</trkpt>
<trkpt lat="31.1245100" lon="35.2426600">
<ele>261.899994</ele>
<time>2024-12-16T11:48:59.215Z</time>
</trkpt>
<trkpt lat="31.1244800" lon="35.2427200">
<ele>261.459991</ele>
<time>2024-12-16T11:48:59.215Z</time>
</trkpt>
<trkpt lat="31.1244700" lon="35.2427600">
<ele>261.250000</ele>
<time>2024-12-16T11:48:59.215Z</time>
</trkpt>
<trkpt lat="31.1244600" lon="35.2428200">
<ele>260.950012</ele>
<time>2024-12-16T11:48:59.215Z</time>
</trkpt>
<trkpt lat="31.1244400" lon="35.2428500">
<ele>260.750000</ele>
<time>2024-12-16T11:48:59.215Z</time>
</trkpt>
<trkpt lat="31.1244300" lon="35.2428900">
<ele>260.610016</ele>
<time>2024-12-16T11:48:59.215Z</time>
</trkpt>
<trkpt lat="31.1244200" lon="35.2429200">
<ele>260.489990</ele>
<time>2024-12-16T11:48:59.215Z</time>
</trkpt>
<trkpt lat="31.1244000" lon="35.2429600">
<ele>260.289978</ele>
<time>2024-12-16T11:48:59.215Z</time>
</trkpt>
<trkpt lat="31.1243900" lon="35.2430100">
<ele>260.029999</ele>
<time>2024-12-16T11:48:59.215Z</time>
</trkpt>
<trkpt lat="31.1243700" lon="35.2430500">
<ele>259.760010</ele>
<time>2024-12-16T11:48:59.215Z</time>
</trkpt>
<trkpt lat="31.1243500" lon="35.2431100">
<ele>259.720001</ele>
<time>2024-12-16T11:48:59.215Z</time>
</trkpt>
<trkpt lat="31.1243300" lon="35.2431700">
<ele>259.660004</ele>
<time>2024-12-16T11:48:59.215Z</time>
</trkpt>
<trkpt lat="31.1243000" lon="35.2432200">
<ele>259.459991</ele>
<time>2024-12-16T11:48:59.215Z</time>
</trkpt>
<trkpt lat="31.1242800" lon="35.2432900">
<ele>259.250000</ele>
<time>2024-12-16T11:48:59.215Z</time>
</trkpt>
<trkpt lat="31.1242500" lon="35.2433500">
<ele>258.919983</ele>
<time>2024-12-16T11:48:59.215Z</time>
</trkpt>
<trkpt lat="31.1242400" lon="35.2434000">
<ele>258.859985</ele>
<time>2024-12-16T11:48:59.215Z</time>
</trkpt>
<trkpt lat="31.1242200" lon="35.2434600">
<ele>258.660004</ele>
<time>2024-12-16T11:48:59.215Z</time>
</trkpt>
<trkpt lat="31.1242100" lon="35.2435100">
<ele>258.570007</ele>
<time>2024-12-16T11:48:59.215Z</time>
</trkpt>
<trkpt lat="31.1241800" lon="35.2436200">
<ele>258.220001</ele>
<time>2024-12-16T11:48:59.215Z</time>
</trkpt>
<trkpt lat="31.1241600" lon="35.2436900">
<ele>258.250000</ele>
<time>2024-12-16T11:48:59.215Z</time>
</trkpt>
<trkpt lat="31.1241300" lon="35.2437600">
<ele>258.329987</ele>
<time>2024-12-16T11:48:59.215Z</time>
</trkpt>
<trkpt lat="31.1241100" lon="35.2438200">
<ele>258.389984</ele>
<time>2024-12-16T11:48:59.215Z</time>
</trkpt>
<trkpt lat="31.1240800" lon="35.2438900">
<ele>258.380005</ele>
<time>2024-12-16T11:48:59.215Z</time>
</trkpt>
<trkpt lat="31.1240800" lon="35.2439200">
<ele>258.449982</ele>
<time>2024-12-16T11:48:59.215Z</time>
</trkpt>
<trkpt lat="31.1241300" lon="35.2439400">
<ele>258.899994</ele>
<time>2024-12-16T11:48:59.215Z</time>
</trkpt>
<trkpt lat="31.1238300" lon="35.2448700">
<ele>256.339996</ele>
<time>2024-12-16T11:48:59.215Z</time>
</trkpt>
<trkpt lat="31.1237100" lon="35.2453500">
<ele>252.309998</ele>
<time>2024-12-16T11:48:59.215Z</time>
</trkpt>
<trkpt lat="31.1236200" lon="35.2464800">
<ele>244.400009</ele>
<time>2024-12-16T11:48:59.215Z</time>
</trkpt>
<trkpt lat="31.1235600" lon="35.2468900">
<ele>240.589996</ele>
<time>2024-12-16T11:48:59.215Z</time>
</trkpt>
<trkpt lat="31.1235200" lon="35.2470500">
<ele>238.869995</ele>
<time>2024-12-16T11:48:59.215Z</time>
</trkpt>
<trkpt lat="31.1235200" lon="35.2471700">
<ele>237.579987</ele>
<time>2024-12-16T11:48:59.215Z</time>
</trkpt>
<trkpt lat="31.1234600" lon="35.2475800">
<ele>234.210007</ele>
<time>2024-12-16T11:48:59.215Z</time>
</trkpt>
<trkpt lat="31.1232200" lon="35.2502100">
<ele>228.180008</ele>
<time>2024-12-16T11:48:59.215Z</time>
</trkpt>
<trkpt lat="31.1231200" lon="35.2509200">
<ele>227.229996</ele>
<time>2024-12-16T11:48:59.215Z</time>
</trkpt>
<trkpt lat="31.1228200" lon="35.2508400">
<ele>227.830002</ele>
<time>2024-12-16T11:48:59.215Z</time>
</trkpt>
<trkpt lat="31.1224400" lon="35.2508000">
<ele>226.879990</ele>
<time>2024-12-16T11:48:59.215Z</time>
</trkpt>
<trkpt lat="31.1223600" lon="35.2508200">
<ele>226.949997</ele>
<time>2024-12-16T11:48:59.215Z</time>
</trkpt>
<trkpt lat="31.1222500" lon="35.2508600">
<ele>226.810013</ele>
<time>2024-12-16T11:48:59.215Z</time>
</trkpt>
<trkpt lat="31.1221900" lon="35.2508200">
<ele>226.850006</ele>
<time>2024-12-16T11:48:59.215Z</time>
</trkpt>
<trkpt lat="31.1220300" lon="35.2507800">
<ele>226.380005</ele>
<time>2024-12-16T11:48:59.215Z</time>
</trkpt>
<trkpt lat="31.1213300" lon="35.2508200">
<ele>226.769989</ele>
<time>2024-12-16T11:48:59.215Z</time>
</trkpt>
<trkpt lat="31.1207100" lon="35.2507700">
<ele>230.300003</ele>
<time>2024-12-16T11:48:59.215Z</time>
</trkpt>
<trkpt lat="31.1199300" lon="35.2508000">
<ele>229.100006</ele>
<time>2024-12-16T11:48:59.215Z</time>
</trkpt>
<trkpt lat="31.1194700" lon="35.2507500">
<ele>229.939987</ele>
<time>2024-12-16T11:48:59.215Z</time>
</trkpt>
<trkpt lat="31.1188800" lon="35.2507500">
<ele>239.789993</ele>
<time>2024-12-16T11:48:59.215Z</time>
</trkpt>
<trkpt lat="31.1185700" lon="35.2507800">
<ele>242.830002</ele>
<time>2024-12-16T11:48:59.215Z</time>
</trkpt>
<trkpt lat="31.1180900" lon="35.2507400">
<ele>248.580002</ele>
<time>2024-12-16T11:48:59.215Z</time>
</trkpt>
<trkpt lat="31.1179300" lon="35.2507600">
<ele>247.729996</ele>
<time>2024-12-16T11:48:59.215Z</time>
</trkpt>
<trkpt lat="31.1177300" lon="35.2508300">
<ele>246.440002</ele>
<time>2024-12-16T11:48:59.215Z</time>
</trkpt>
<trkpt lat="31.1176100" lon="35.2509000">
<ele>245.720001</ele>
<time>2024-12-16T11:48:59.215Z</time>
</trkpt>
<trkpt lat="31.1172000" lon="35.2511900">
<ele>245.320007</ele>
<time>2024-12-16T11:48:59.215Z</time>
</trkpt>
<trkpt lat="31.1165800" lon="35.2517100">
<ele>249.940002</ele>
<time>2024-12-16T11:48:59.215Z</time>
</trkpt>
<trkpt lat="31.1160500" lon="35.2524700">
<ele>262.809998</ele>
<time>2024-12-16T11:48:59.215Z</time>
</trkpt>
<trkpt lat="31.1159200" lon="35.2526000">
<ele>265.799988</ele>
<time>2024-12-16T11:48:59.215Z</time>
</trkpt>
<trkpt lat="31.1158000" lon="35.2526600">
<ele>268.059998</ele>
<time>2024-12-16T11:48:59.215Z</time>
</trkpt>
<trkpt lat="31.1156400" lon="35.2527400">
<ele>270.649994</ele>
<time>2024-12-16T11:48:59.215Z</time>
</trkpt>
<trkpt lat="31.1151400" lon="35.2529800">
<ele>275.079987</ele>
<time>2024-12-16T11:48:59.215Z</time>
</trkpt>
<trkpt lat="31.1149200" lon="35.2529700">
<ele>276.490021</ele>
<time>2024-12-16T11:48:59.215Z</time>
</trkpt>
<trkpt lat="31.1143400" lon="35.2528400">
<ele>276.179993</ele>
<time>2024-12-16T11:48:59.215Z</time>
</trkpt>
<trkpt lat="31.1141400" lon="35.2528300">
<ele>275.109985</ele>
<time>2024-12-16T11:48:59.215Z</time>
</trkpt>
<trkpt lat="31.1140800" lon="35.2527900">
<ele>275.330017</ele>
<time>2024-12-16T11:48:59.215Z</time>
</trkpt>
<trkpt lat="31.1140500" lon="35.2522700">
<ele>270.059998</ele>
<time>2024-12-16T11:48:59.215Z</time>
</trkpt>
<trkpt lat="31.1140300" lon="35.2522100">
<ele>269.269989</ele>
<time>2024-12-16T11:48:59.215Z</time>
</trkpt>
<trkpt lat="31.1139800" lon="35.2521500">
<ele>268.550018</ele>
<time>2024-12-16T11:48:59.215Z</time>
</trkpt>
<trkpt lat="31.1139700" lon="35.2521500">
<ele>268.619995</ele>
<time>2024-12-16T11:48:59.215Z</time>
</trkpt>
<trkpt lat="31.1137400" lon="35.2522200">
<ele>269.980011</ele>
<time>2024-12-16T11:48:59.215Z</time>
</trkpt>
<trkpt lat="31.1135900" lon="35.2521200">
<ele>268.799988</ele>
<time>2024-12-16T11:48:59.215Z</time>
</trkpt>
<trkpt lat="31.1135200" lon="35.2521200">
<ele>267.239990</ele>
<time>2024-12-16T11:48:59.215Z</time>
</trkpt>
<trkpt lat="31.1133800" lon="35.2521800">
<ele>263.670013</ele>
<time>2024-12-16T11:48:59.215Z</time>
</trkpt>
<trkpt lat="31.1128900" lon="35.2522200">
<ele>253.010010</ele>
<time>2024-12-16T11:48:59.215Z</time>
</trkpt>
<trkpt lat="31.1126400" lon="35.2522900">
<ele>248.049988</ele>
<time>2024-12-16T11:48:59.215Z</time>
</trkpt>
<trkpt lat="31.1125200" lon="35.2522700">
<ele>244.300003</ele>
<time>2024-12-16T11:48:59.215Z</time>
</trkpt>
<trkpt lat="31.1120100" lon="35.2520400">
<ele>242.399994</ele>
<time>2024-12-16T11:48:59.215Z</time>
</trkpt>
<trkpt lat="31.1115400" lon="35.2516800">
<ele>239.970001</ele>
<time>2024-12-16T11:48:59.215Z</time>
</trkpt>
<trkpt lat="31.1115900" lon="35.2515900">
<ele>240.980011</ele>
<time>2024-12-16T11:48:59.215Z</time>
</trkpt>
<trkpt lat="31.1115600" lon="35.2515600">
<ele>241.450012</ele>
<time>2024-12-16T11:48:59.215Z</time>
</trkpt>
<trkpt lat="31.1115100" lon="35.2515300">
<ele>242.030014</ele>
<time>2024-12-16T11:48:59.215Z</time>
</trkpt>
<trkpt lat="31.1114700" lon="35.2515100">
<ele>242.490005</ele>
<time>2024-12-16T11:48:59.215Z</time>
</trkpt>
<trkpt lat="31.1114300" lon="35.2514800">
<ele>243.160004</ele>
<time>2024-12-16T11:48:59.215Z</time>
</trkpt>
<trkpt lat="31.1113900" lon="35.2514600">
<ele>243.709991</ele>
<time>2024-12-16T11:48:59.215Z</time>
</trkpt>
<trkpt lat="31.1113700" lon="35.2514400">
<ele>244.239990</ele>
<time>2024-12-16T11:48:59.215Z</time>
</trkpt>
<trkpt lat="31.1113400" lon="35.2514200">
<ele>244.749985</ele>
<time>2024-12-16T11:48:59.215Z</time>
</trkpt>
<trkpt lat="31.1113000" lon="35.2513900">
<ele>245.309998</ele>
<time>2024-12-16T11:48:59.215Z</time>
</trkpt>
<trkpt lat="31.1112600" lon="35.2513500">
<ele>245.629990</ele>
<time>2024-12-16T11:48:59.215Z</time>
</trkpt>
<trkpt lat="31.1112100" lon="35.2513100">
<ele>245.679993</ele>
<time>2024-12-16T11:48:59.215Z</time>
</trkpt>
<trkpt lat="31.1111800" lon="35.2512900">
<ele>245.569992</ele>
<time>2024-12-16T11:48:59.215Z</time>
</trkpt>
<trkpt lat="31.1111400" lon="35.2512600">
<ele>245.260010</ele>
<time>2024-12-16T11:48:59.215Z</time>
</trkpt>
<trkpt lat="31.1110800" lon="35.2512300">
<ele>244.869995</ele>
<time>2024-12-16T11:48:59.215Z</time>
</trkpt>
<trkpt lat="31.1110200" lon="35.2511800">
<ele>244.660004</ele>
<time>2024-12-16T11:48:59.215Z</time>
</trkpt>
<trkpt lat="31.1109800" lon="35.2511500">
<ele>244.620010</ele>
<time>2024-12-16T11:48:59.215Z</time>
</trkpt>
<trkpt lat="31.1109400" lon="35.2511100">
<ele>244.620010</ele>
<time>2024-12-16T11:48:59.215Z</time>
</trkpt>
<trkpt lat="31.1109000" lon="35.2510700">
<ele>244.980011</ele>
<time>2024-12-16T11:48:59.215Z</time>
</trkpt>
<trkpt lat="31.1108700" lon="35.2510300">
<ele>245.240005</ele>
<time>2024-12-16T11:48:59.215Z</time>
</trkpt>
<trkpt lat="31.1108500" lon="35.2510200">
<ele>245.309998</ele>
<time>2024-12-16T11:48:59.215Z</time>
</trkpt>
<trkpt lat="31.1108000" lon="35.2509900">
<ele>245.560013</ele>
<time>2024-12-16T11:48:59.215Z</time>
</trkpt>
<trkpt lat="31.1107600" lon="35.2509700">
<ele>245.770004</ele>
<time>2024-12-16T11:48:59.215Z</time>
</trkpt>
<trkpt lat="31.1107100" lon="35.2509300">
<ele>246.099991</ele>
<time>2024-12-16T11:48:59.215Z</time>
</trkpt>
<trkpt lat="31.1106700" lon="35.2509100">
<ele>246.310013</ele>
<time>2024-12-16T11:48:59.215Z</time>
</trkpt>
<trkpt lat="31.1106300" lon="35.2508900">
<ele>246.529999</ele>
<time>2024-12-16T11:48:59.215Z</time>
</trkpt>
<trkpt lat="31.1105800" lon="35.2508600">
<ele>246.820007</ele>
<time>2024-12-16T11:48:59.215Z</time>
</trkpt>
<trkpt lat="31.1105300" lon="35.2508500">
<ele>246.659988</ele>
<time>2024-12-16T11:48:59.215Z</time>
</trkpt>
<trkpt lat="31.1104900" lon="35.2508400">
<ele>246.269989</ele>
<time>2024-12-16T11:48:59.215Z</time>
</trkpt>
<trkpt lat="31.1104500" lon="35.2508200">
<ele>245.909988</ele>
<time>2024-12-16T11:48:59.215Z</time>
</trkpt>
<trkpt lat="31.1104200" lon="35.2507900">
<ele>245.759995</ele>
<time>2024-12-16T11:48:59.215Z</time>
</trkpt>
<trkpt lat="31.1103800" lon="35.2507600">
<ele>245.600006</ele>
<time>2024-12-16T11:48:59.215Z</time>
</trkpt>
<trkpt lat="31.1103400" lon="35.2507300">
<ele>245.540009</ele>
<time>2024-12-16T11:48:59.215Z</time>
</trkpt>
<trkpt lat="31.1103100" lon="35.2507000">
<ele>245.620010</ele>
<time>2024-12-16T11:48:59.215Z</time>
</trkpt>
<trkpt lat="31.1102800" lon="35.2506500">
<ele>245.990005</ele>
<time>2024-12-16T11:48:59.215Z</time>
</trkpt>
<trkpt lat="31.1102500" lon="35.2506100">
<ele>246.050003</ele>
<time>2024-12-16T11:48:59.215Z</time>
</trkpt>
<trkpt lat="31.1102100" lon="35.2505600">
<ele>245.979996</ele>
<time>2024-12-16T11:48:59.215Z</time>
</trkpt>
<trkpt lat="31.1101900" lon="35.2505400">
<ele>245.770004</ele>
<time>2024-12-16T11:48:59.215Z</time>
</trkpt>
<trkpt lat="31.1101600" lon="35.2505200">
<ele>245.410004</ele>
<time>2024-12-16T11:48:59.215Z</time>
</trkpt>
<trkpt lat="31.1101200" lon="35.2505200">
<ele>244.869995</ele>
<time>2024-12-16T11:48:59.215Z</time>
</trkpt>
<trkpt lat="31.1100900" lon="35.2505100">
<ele>244.519989</ele>
<time>2024-12-16T11:48:59.215Z</time>
</trkpt>
<trkpt lat="31.1100700" lon="35.2504800">
<ele>244.409988</ele>
<time>2024-12-16T11:48:59.215Z</time>
</trkpt>
<trkpt lat="31.1100500" lon="35.2504600">
<ele>244.279999</ele>
<time>2024-12-16T11:48:59.215Z</time>
</trkpt>
<trkpt lat="31.1100200" lon="35.2504300">
<ele>244.129990</ele>
<time>2024-12-16T11:48:59.215Z</time>
</trkpt>
<trkpt lat="31.1100000" lon="35.2504100">
<ele>244.050003</ele>
<time>2024-12-16T11:48:59.215Z</time>
</trkpt>
<trkpt lat="31.1099700" lon="35.2503800">
<ele>244.429993</ele>
<time>2024-12-16T11:48:59.215Z</time>
</trkpt>
<trkpt lat="31.1099500" lon="35.2503600">
<ele>244.729996</ele>
<time>2024-12-16T11:48:59.215Z</time>
</trkpt>
<trkpt lat="31.1099200" lon="35.2503400">
<ele>245.159988</ele>
<time>2024-12-16T11:48:59.215Z</time>
</trkpt>
<trkpt lat="31.1098700" lon="35.2503000">
<ele>246.089996</ele>
<time>2024-12-16T11:48:59.215Z</time>
</trkpt>
<trkpt lat="31.1098300" lon="35.2502800">
<ele>246.800003</ele>
<time>2024-12-16T11:48:59.215Z</time>
</trkpt>
<trkpt lat="31.1097900" lon="35.2502500">
<ele>247.520004</ele>
<time>2024-12-16T11:48:59.215Z</time>
</trkpt>
<trkpt lat="31.1097500" lon="35.2502100">
<ele>248.239990</ele>
<time>2024-12-16T11:48:59.215Z</time>
</trkpt>
<trkpt lat="31.1096900" lon="35.2501700">
<ele>248.680008</ele>
<time>2024-12-16T11:48:59.215Z</time>
</trkpt>
<trkpt lat="31.1096500" lon="35.2501500">
<ele>248.759995</ele>
<time>2024-12-16T11:48:59.215Z</time>
</trkpt>
<trkpt lat="31.1096200" lon="35.2501300">
<ele>248.920013</ele>
<time>2024-12-16T11:48:59.215Z</time>
</trkpt>
<trkpt lat="31.1095900" lon="35.2501000">
<ele>249.240005</ele>
<time>2024-12-16T11:48:59.215Z</time>
</trkpt>
<trkpt lat="31.1095500" lon="35.2500700">
<ele>249.650009</ele>
<time>2024-12-16T11:48:59.215Z</time>
</trkpt>
<trkpt lat="31.1095200" lon="35.2500600">
<ele>249.820007</ele>
<time>2024-12-16T11:48:59.215Z</time>
</trkpt>
<trkpt lat="31.1095000" lon="35.2500300">
<ele>250.319992</ele>
<time>2024-12-16T11:48:59.215Z</time>
</trkpt>
<trkpt lat="31.1094700" lon="35.2500100">
<ele>250.740005</ele>
<time>2024-12-16T11:48:59.215Z</time>
</trkpt>
<trkpt lat="31.1094100" lon="35.2499700">
<ele>250.939987</ele>
<time>2024-12-16T11:48:59.215Z</time>
</trkpt>
<trkpt lat="31.1093800" lon="35.2499400">
<ele>250.829987</ele>
<time>2024-12-16T11:48:59.215Z</time>
</trkpt>
<trkpt lat="31.1093500" lon="35.2499200">
<ele>250.650009</ele>
<time>2024-12-16T11:48:59.215Z</time>
</trkpt>
<trkpt lat="31.1092900" lon="35.2498500">
<ele>250.079987</ele>
<time>2024-12-16T11:48:59.215Z</time>
</trkpt>
<trkpt lat="31.1092600" lon="35.2498300">
<ele>249.729996</ele>
<time>2024-12-16T11:48:59.215Z</time>
</trkpt>
<trkpt lat="31.1092200" lon="35.2498000">
<ele>249.169998</ele>
<time>2024-12-16T11:48:59.215Z</time>
</trkpt>
<trkpt lat="31.1091600" lon="35.2497500">
<ele>248.059998</ele>
<time>2024-12-16T11:48:59.215Z</time>
</trkpt>
<trkpt lat="31.1091200" lon="35.2497200">
<ele>246.970001</ele>
<time>2024-12-16T11:48:59.215Z</time>
</trkpt>
<trkpt lat="31.1090800" lon="35.2496900">
<ele>245.779999</ele>
<time>2024-12-16T11:48:59.215Z</time>
</trkpt>
<trkpt lat="31.1090500" lon="35.2496700">
<ele>244.920013</ele>
<time>2024-12-16T11:48:59.215Z</time>
</trkpt>
<trkpt lat="31.1090100" lon="35.2496300">
<ele>243.619995</ele>
<time>2024-12-16T11:48:59.215Z</time>
</trkpt>
<trkpt lat="31.1089700" lon="35.2496100">
<ele>242.540009</ele>
<time>2024-12-16T11:48:59.215Z</time>
</trkpt>
<trkpt lat="31.1089400" lon="35.2495900">
<ele>241.680008</ele>
<time>2024-12-16T11:48:59.215Z</time>
</trkpt>
<trkpt lat="31.1089000" lon="35.2495600">
<ele>240.490005</ele>
<time>2024-12-16T11:48:59.215Z</time>
</trkpt>
<trkpt lat="31.1088600" lon="35.2495300">
<ele>239.789993</ele>
<time>2024-12-16T11:48:59.215Z</time>
</trkpt>
<trkpt lat="31.1088200" lon="35.2495100">
<ele>239.399994</ele>
<time>2024-12-16T11:48:59.215Z</time>
</trkpt>
<trkpt lat="31.1087300" lon="35.2494500">
<ele>238.479996</ele>
<time>2024-12-16T11:48:59.215Z</time>
</trkpt>
<trkpt lat="31.1086600" lon="35.2494100">
<ele>238.479996</ele>
<time>2024-12-16T11:48:59.215Z</time>
</trkpt>
<trkpt lat="31.1086100" lon="35.2493600">
<ele>238.940002</ele>
<time>2024-12-16T11:48:59.215Z</time>
</trkpt>
<trkpt lat="31.1085600" lon="35.2493300">
<ele>240.330002</ele>
<time>2024-12-16T11:48:59.215Z</time>
</trkpt>
<trkpt lat="31.1085200" lon="35.2493100">
<ele>241.280014</ele>
<time>2024-12-16T11:48:59.215Z</time>
</trkpt>
<trkpt lat="31.1084900" lon="35.2492700">
<ele>242.000000</ele>
<time>2024-12-16T11:48:59.215Z</time>
</trkpt>
<trkpt lat="31.1084100" lon="35.2492500">
<ele>243.359985</ele>
<time>2024-12-16T11:48:59.215Z</time>
</trkpt>
<trkpt lat="31.1083700" lon="35.2492300">
<ele>243.910004</ele>
<time>2024-12-16T11:48:59.215Z</time>
</trkpt>
<trkpt lat="31.1083300" lon="35.2492200">
<ele>244.440002</ele>
<time>2024-12-16T11:48:59.215Z</time>
</trkpt>
<trkpt lat="31.1082900" lon="35.2492000">
<ele>244.920013</ele>
<time>2024-12-16T11:48:59.215Z</time>
</trkpt>
<trkpt lat="31.1082600" lon="35.2491900">
<ele>245.289993</ele>
<time>2024-12-16T11:48:59.215Z</time>
</trkpt>
<trkpt lat="31.1082300" lon="35.2491700">
<ele>245.529999</ele>
<time>2024-12-16T11:48:59.215Z</time>
</trkpt>
<trkpt lat="31.1082000" lon="35.2491600">
<ele>245.860001</ele>
<time>2024-12-16T11:48:59.215Z</time>
</trkpt>
<trkpt lat="31.1081700" lon="35.2491400">
<ele>246.099991</ele>
<time>2024-12-16T11:48:59.215Z</time>
</trkpt>
<trkpt lat="31.1081300" lon="35.2491200">
<ele>246.470001</ele>
<time>2024-12-16T11:48:59.215Z</time>
</trkpt>
<trkpt lat="31.1080900" lon="35.2490800">
<ele>246.610001</ele>
<time>2024-12-16T11:48:59.215Z</time>
</trkpt>
<trkpt lat="31.1080500" lon="35.2490600">
<ele>246.959991</ele>
<time>2024-12-16T11:48:59.215Z</time>
</trkpt>
<trkpt lat="31.1080100" lon="35.2490300">
<ele>247.510010</ele>
<time>2024-12-16T11:48:59.215Z</time>
</trkpt>
<trkpt lat="31.1079800" lon="35.2490100">
<ele>247.970001</ele>
<time>2024-12-16T11:48:59.215Z</time>
</trkpt>
<trkpt lat="31.1079400" lon="35.2489800">
<ele>248.620010</ele>
<time>2024-12-16T11:48:59.215Z</time>
</trkpt>
<trkpt lat="31.1079000" lon="35.2489500">
<ele>249.330002</ele>
<time>2024-12-16T11:48:59.215Z</time>
</trkpt>
<trkpt lat="31.1078600" lon="35.2489300">
<ele>250.160004</ele>
<time>2024-12-16T11:48:59.215Z</time>
</trkpt>
<trkpt lat="31.1078400" lon="35.2489100">
<ele>250.539993</ele>
<time>2024-12-16T11:48:59.215Z</time>
</trkpt>
<trkpt lat="31.1078100" lon="35.2488800">
<ele>251.069992</ele>
<time>2024-12-16T11:48:59.215Z</time>
</trkpt>
<trkpt lat="31.1077900" lon="35.2488600">
<ele>251.290009</ele>
<time>2024-12-16T11:48:59.215Z</time>
</trkpt>
<trkpt lat="31.1077600" lon="35.2488400">
<ele>251.380005</ele>
<time>2024-12-16T11:48:59.215Z</time>
</trkpt>
<trkpt lat="31.1077300" lon="35.2488100">
<ele>251.129990</ele>
<time>2024-12-16T11:48:59.215Z</time>
</trkpt>
<trkpt lat="31.1077000" lon="35.2487800">
<ele>250.930008</ele>
<time>2024-12-16T11:48:59.215Z</time>
</trkpt>
<trkpt lat="31.1076700" lon="35.2487600">
<ele>250.889999</ele>
<time>2024-12-16T11:48:59.215Z</time>
</trkpt>
<trkpt lat="31.1076200" lon="35.2487300">
<ele>250.930008</ele>
<time>2024-12-16T11:48:59.215Z</time>
</trkpt>
<trkpt lat="31.1076000" lon="35.2487100">
<ele>250.889999</ele>
<time>2024-12-16T11:48:59.215Z</time>
</trkpt>
<trkpt lat="31.1075500" lon="35.2486800">
<ele>251.050003</ele>
<time>2024-12-16T11:48:59.215Z</time>
</trkpt>
<trkpt lat="31.1075300" lon="35.2486600">
<ele>251.069992</ele>
<time>2024-12-16T11:48:59.215Z</time>
</trkpt>
<trkpt lat="31.1075000" lon="35.2486500">
<ele>251.279999</ele>
<time>2024-12-16T11:48:59.215Z</time>
</trkpt>
<trkpt lat="31.1074800" lon="35.2486300">
<ele>251.510010</ele>
<time>2024-12-16T11:48:59.215Z</time>
</trkpt>
<trkpt lat="31.1074400" lon="35.2486100">
<ele>252.070007</ele>
<time>2024-12-16T11:48:59.215Z</time>
</trkpt>
<trkpt lat="31.1074000" lon="35.2485800">
<ele>252.540009</ele>
<time>2024-12-16T11:48:59.215Z</time>
</trkpt>
<trkpt lat="31.1073700" lon="35.2485400">
<ele>252.710007</ele>
<time>2024-12-16T11:48:59.215Z</time>
</trkpt>
<trkpt lat="31.1073400" lon="35.2485300">
<ele>253.130005</ele>
<time>2024-12-16T11:48:59.215Z</time>
</trkpt>
<trkpt lat="31.1073200" lon="35.2485100">
<ele>253.279999</ele>
<time>2024-12-16T11:48:59.215Z</time>
</trkpt>
<trkpt lat="31.1072700" lon="35.2484800">
<ele>253.809998</ele>
<time>2024-12-16T11:48:59.215Z</time>
</trkpt>
<trkpt lat="31.1072500" lon="35.2484700">
<ele>254.029999</ele>
<time>2024-12-16T11:48:59.215Z</time>
</trkpt>
<trkpt lat="31.1072000" lon="35.2484400">
<ele>254.259995</ele>
<time>2024-12-16T11:48:59.215Z</time>
</trkpt>
<trkpt lat="31.1071500" lon="35.2484200">
<ele>254.279999</ele>
<time>2024-12-16T11:48:59.215Z</time>
</trkpt>
<trkpt lat="31.1071000" lon="35.2483900">
<ele>254.139999</ele>
<time>2024-12-16T11:48:59.215Z</time>
</trkpt>
<trkpt lat="31.1070700" lon="35.2483700">
<ele>254.019989</ele>
<time>2024-12-16T11:48:59.215Z</time>
</trkpt>
<trkpt lat="31.1070400" lon="35.2483600">
<ele>254.010010</ele>
<time>2024-12-16T11:48:59.215Z</time>
</trkpt>
<trkpt lat="31.1070200" lon="35.2483400">
<ele>253.820007</ele>
<time>2024-12-16T11:48:59.215Z</time>
</trkpt>
<trkpt lat="31.1069800" lon="35.2483200">
<ele>253.880005</ele>
<time>2024-12-16T11:48:59.215Z</time>
</trkpt>
<trkpt lat="31.1069400" lon="35.2482900">
<ele>254.019989</ele>
<time>2024-12-16T11:48:59.215Z</time>
</trkpt>
<trkpt lat="31.1069100" lon="35.2482700">
<ele>254.120010</ele>
<time>2024-12-16T11:48:59.215Z</time>
</trkpt>
<trkpt lat="31.1068700" lon="35.2482400">
<ele>254.270004</ele>
<time>2024-12-16T11:48:59.215Z</time>
</trkpt>
<trkpt lat="31.1068300" lon="35.2482100">
<ele>254.410004</ele>
<time>2024-12-16T11:48:59.215Z</time>
</trkpt>
<trkpt lat="31.1068000" lon="35.2481900">
<ele>254.520004</ele>
<time>2024-12-16T11:48:59.215Z</time>
</trkpt>
<trkpt lat="31.1067600" lon="35.2481700">
<ele>254.659988</ele>
<time>2024-12-16T11:48:59.215Z</time>
</trkpt>
<trkpt lat="31.1067500" lon="35.2481600">
<ele>254.700012</ele>
<time>2024-12-16T11:48:59.215Z</time>
</trkpt>
<trkpt lat="31.1067600" lon="35.2481400">
<ele>254.659988</ele>
<time>2024-12-16T11:48:59.215Z</time>
</trkpt>
<trkpt lat="31.1065100" lon="35.2479700">
<ele>254.309998</ele>
<time>2024-12-16T11:48:59.215Z</time>
</trkpt>
<trkpt lat="31.1062100" lon="35.2477400">
<ele>252.850006</ele>
<time>2024-12-16T11:48:59.215Z</time>
</trkpt>
<trkpt lat="31.1060100" lon="35.2474400">
<ele>254.299988</ele>
<time>2024-12-16T11:48:59.215Z</time>
</trkpt>
<trkpt lat="31.1058200" lon="35.2474600">
<ele>255.559998</ele>
<time>2024-12-16T11:48:59.215Z</time>
</trkpt>
<trkpt lat="31.1052400" lon="35.2470700">
<ele>264.050018</ele>
<time>2024-12-16T11:48:59.215Z</time>
</trkpt>
<trkpt lat="31.1051500" lon="35.2470200">
<ele>263.589996</ele>
<time>2024-12-16T11:48:59.215Z</time>
</trkpt>
<trkpt lat="31.1050600" lon="35.2470100">
<ele>263.679993</ele>
<time>2024-12-16T11:48:59.215Z</time>
</trkpt>
<trkpt lat="31.1050000" lon="35.2470300">
<ele>264.459991</ele>
<time>2024-12-16T11:48:59.215Z</time>
</trkpt>
<trkpt lat="31.1049300" lon="35.2470800">
<ele>265.660004</ele>
<time>2024-12-16T11:48:59.215Z</time>
</trkpt>
<trkpt lat="31.1048700" lon="35.2471600">
<ele>267.480011</ele>
<time>2024-12-16T11:48:59.215Z</time>
</trkpt>
<trkpt lat="31.1048400" lon="35.2472400">
<ele>269.250000</ele>
<time>2024-12-16T11:48:59.215Z</time>
</trkpt>
<trkpt lat="31.1048000" lon="35.2473200">
<ele>270.980011</ele>
<time>2024-12-16T11:48:59.215Z</time>
</trkpt>
<trkpt lat="31.1047400" lon="35.2473600">
<ele>271.970001</ele>
<time>2024-12-16T11:48:59.215Z</time>
</trkpt>
<trkpt lat="31.1046300" lon="35.2473800">
<ele>272.160004</ele>
<time>2024-12-16T11:48:59.215Z</time>
</trkpt>
<trkpt lat="31.1045500" lon="35.2473800">
<ele>271.820007</ele>
<time>2024-12-16T11:48:59.215Z</time>
</trkpt>
<trkpt lat="31.1043700" lon="35.2473600">
<ele>270.459991</ele>
<time>2024-12-16T11:48:59.215Z</time>
</trkpt>
<trkpt lat="31.1041600" lon="35.2473000">
<ele>269.940002</ele>
<time>2024-12-16T11:48:59.215Z</time>
</trkpt>
<trkpt lat="31.1040000" lon="35.2472300">
<ele>272.029999</ele>
<time>2024-12-16T11:48:59.215Z</time>
</trkpt>
<trkpt lat="31.1038600" lon="35.2471900">
<ele>274.549988</ele>
<time>2024-12-16T11:48:59.215Z</time>
</trkpt>
<trkpt lat="31.1036000" lon="35.2471300">
<ele>280.070007</ele>
<time>2024-12-16T11:48:59.215Z</time>
</trkpt>
<trkpt lat="31.1034400" lon="35.2470600">
<ele>279.830017</ele>
<time>2024-12-16T11:48:59.215Z</time>
</trkpt>
<trkpt lat="31.1032700" lon="35.2469700">
<ele>279.369995</ele>
<time>2024-12-16T11:48:59.215Z</time>
</trkpt>
<trkpt lat="31.1031600" lon="35.2469600">
<ele>279.220001</ele>
<time>2024-12-16T11:48:59.215Z</time>
</trkpt>
<trkpt lat="31.1030600" lon="35.2469700">
<ele>279.369995</ele>
<time>2024-12-16T11:48:59.215Z</time>
</trkpt>
<trkpt lat="31.1029100" lon="35.2470000">
<ele>282.000000</ele>
<time>2024-12-16T11:48:59.215Z</time>
</trkpt>
<trkpt lat="31.1028500" lon="35.2470100">
<ele>283.209991</ele>
<time>2024-12-16T11:48:59.215Z</time>
</trkpt>
<trkpt lat="31.1026600" lon="35.2470200">
<ele>287.649994</ele>
<time>2024-12-16T11:48:59.215Z</time>
</trkpt>
<trkpt lat="31.1025700" lon="35.2470400">
<ele>290.389984</ele>
<time>2024-12-16T11:48:59.215Z</time>
</trkpt>
<trkpt lat="31.1023400" lon="35.2471200">
<ele>295.000000</ele>
<time>2024-12-16T11:48:59.215Z</time>
</trkpt>
<trkpt lat="31.1021700" lon="35.2471700">
<ele>296.399994</ele>
<time>2024-12-16T11:48:59.215Z</time>
</trkpt>
<trkpt lat="31.1018900" lon="35.2472000">
<ele>296.350006</ele>
<time>2024-12-16T11:48:59.215Z</time>
</trkpt>
<trkpt lat="31.1013200" lon="35.2472100">
<ele>297.579987</ele>
<time>2024-12-16T11:48:59.215Z</time>
</trkpt>
<trkpt lat="31.1011700" lon="35.2472300">
<ele>298.459991</ele>
<time>2024-12-16T11:48:59.215Z</time>
</trkpt>
<trkpt lat="31.1009000" lon="35.2473000">
<ele>300.250000</ele>
<time>2024-12-16T11:48:59.215Z</time>
</trkpt>
<trkpt lat="31.1007600" lon="35.2473700">
<ele>301.020020</ele>
<time>2024-12-16T11:48:59.215Z</time>
</trkpt>
<trkpt lat="31.1006500" lon="35.2474500">
<ele>301.420013</ele>
<time>2024-12-16T11:48:59.215Z</time>
</trkpt>
<trkpt lat="31.1004400" lon="35.2476300">
<ele>299.820007</ele>
<time>2024-12-16T11:48:59.215Z</time>
</trkpt>
<trkpt lat="31.1003600" lon="35.2476900">
<ele>298.519989</ele>
<time>2024-12-16T11:48:59.215Z</time>
</trkpt>
<trkpt lat="31.1002300" lon="35.2477500">
<ele>297.490021</ele>
<time>2024-12-16T11:48:59.215Z</time>
</trkpt>
<trkpt lat="31.1000200" lon="35.2478500">
<ele>298.559998</ele>
<time>2024-12-16T11:48:59.215Z</time>
</trkpt>
<trkpt lat="31.0999300" lon="35.2478700">
<ele>299.589996</ele>
<time>2024-12-16T11:48:59.215Z</time>
</trkpt>
<trkpt lat="31.0996100" lon="35.2479000">
<ele>302.649994</ele>
<time>2024-12-16T11:48:59.215Z</time>
</trkpt>
<trkpt lat="31.0992200" lon="35.2479300">
<ele>304.070007</ele>
<time>2024-12-16T11:48:59.215Z</time>
</trkpt>
<trkpt lat="31.0987400" lon="35.2479400">
<ele>310.809998</ele>
<time>2024-12-16T11:48:59.215Z</time>
</trkpt>
<trkpt lat="31.0983900" lon="35.2478700">
<ele>312.329987</ele>
<time>2024-12-16T11:48:59.215Z</time>
</trkpt>
<trkpt lat="31.0981900" lon="35.2478600">
<ele>307.079987</ele>
<time>2024-12-16T11:48:59.215Z</time>
</trkpt>
<trkpt lat="31.0981200" lon="35.2478700">
<ele>304.649994</ele>
<time>2024-12-16T11:48:59.215Z</time>
</trkpt>
<trkpt lat="31.0980600" lon="35.2478800">
<ele>302.630005</ele>
<time>2024-12-16T11:48:59.215Z</time>
</trkpt>
<trkpt lat="31.0979400" lon="35.2479200">
<ele>304.919983</ele>
<time>2024-12-16T11:48:59.215Z</time>
</trkpt>
<trkpt lat="31.0979200" lon="35.2479100">
<ele>305.110016</ele>
<time>2024-12-16T11:48:59.215Z</time>
</trkpt>
<trkpt lat="31.0979000" lon="35.2478700">
<ele>304.940002</ele>
<time>2024-12-16T11:48:59.215Z</time>
</trkpt>
<trkpt lat="31.0979100" lon="35.2477300">
<ele>303.959991</ele>
<time>2024-12-16T11:48:59.215Z</time>
</trkpt>
<trkpt lat="31.0979500" lon="35.2476100">
<ele>304.250000</ele>
<time>2024-12-16T11:48:59.215Z</time>
</trkpt>
<trkpt lat="31.0979500" lon="35.2475200">
<ele>304.980011</ele>
<time>2024-12-16T11:48:59.215Z</time>
</trkpt>
<trkpt lat="31.0979200" lon="35.2474000">
<ele>306.739990</ele>
<time>2024-12-16T11:48:59.215Z</time>
</trkpt>
<trkpt lat="31.0978600" lon="35.2471400">
<ele>310.299988</ele>
<time>2024-12-16T11:48:59.215Z</time>
</trkpt>
<trkpt lat="31.0978100" lon="35.2468900">
<ele>314.549988</ele>
<time>2024-12-16T11:48:59.215Z</time>
</trkpt>
<trkpt lat="31.0977900" lon="35.2467500">
<ele>316.710022</ele>
<time>2024-12-16T11:48:59.215Z</time>
</trkpt>
<trkpt lat="31.0977900" lon="35.2466200">
<ele>318.260010</ele>
<time>2024-12-16T11:48:59.215Z</time>
</trkpt>
<trkpt lat="31.0977200" lon="35.2461400">
<ele>319.609985</ele>
<time>2024-12-16T11:48:59.215Z</time>
</trkpt>
<trkpt lat="31.0976600" lon="35.2460200">
<ele>318.860016</ele>
<time>2024-12-16T11:48:59.215Z</time>
</trkpt>
<trkpt lat="31.0975700" lon="35.2459100">
<ele>319.039978</ele>
<time>2024-12-16T11:48:59.215Z</time>
</trkpt>
<trkpt lat="31.0974700" lon="35.2458200">
<ele>320.170013</ele>
<time>2024-12-16T11:48:59.215Z</time>
</trkpt>
<trkpt lat="31.0974100" lon="35.2457300">
<ele>321.059998</ele>
<time>2024-12-16T11:48:59.215Z</time>
</trkpt>
<trkpt lat="31.0973500" lon="35.2455800">
<ele>322.929993</ele>
<time>2024-12-16T11:48:59.215Z</time>
</trkpt>
<trkpt lat="31.0973700" lon="35.2453900">
<ele>323.109985</ele>
<time>2024-12-16T11:48:59.215Z</time>
</trkpt>
<trkpt lat="31.0973700" lon="35.2449600">
<ele>323.059998</ele>
<time>2024-12-16T11:48:59.215Z</time>
</trkpt>
<trkpt lat="31.0972300" lon="35.2435600">
<ele>333.859985</ele>
<time>2024-12-16T11:48:59.215Z</time>
</trkpt>
<trkpt lat="31.0971700" lon="35.2422700">
<ele>334.500000</ele>
<time>2024-12-16T11:48:59.215Z</time>
</trkpt>
<trkpt lat="31.0970400" lon="35.2416000">
<ele>338.989990</ele>
<time>2024-12-16T11:48:59.215Z</time>
</trkpt>
<trkpt lat="31.0969700" lon="35.2407000">
<ele>336.950012</ele>
<time>2024-12-16T11:48:59.215Z</time>
</trkpt>
<trkpt lat="31.0973000" lon="35.2394200">
<ele>340.699982</ele>
<time>2024-12-16T11:48:59.215Z</time>
</trkpt>
<trkpt lat="31.0972300" lon="35.2388100">
<ele>338.989990</ele>
<time>2024-12-16T11:48:59.215Z</time>
</trkpt>
<trkpt lat="31.0967900" lon="35.2379400">
<ele>329.309998</ele>
<time>2024-12-16T11:48:59.215Z</time>
</trkpt>
<trkpt lat="31.0965600" lon="35.2374300">
<ele>334.899994</ele>
<time>2024-12-16T11:48:59.215Z</time>
</trkpt>
<trkpt lat="31.0965300" lon="35.2374500">
<ele>335.300018</ele>
<time>2024-12-16T11:48:59.215Z</time>
</trkpt>
<trkpt lat="31.0965600" lon="35.2374300">
<ele>334.899994</ele>
<time>2024-12-16T11:48:59.215Z</time>
</trkpt>
<trkpt lat="31.0962200" lon="35.2366100">
<ele>333.710022</ele>
<time>2024-12-16T11:48:59.215Z</time>
</trkpt>
<trkpt lat="31.0958800" lon="35.2363700">
<ele>335.269989</ele>
<time>2024-12-16T11:48:59.215Z</time>
</trkpt>
<trkpt lat="31.0956500" lon="35.2358600">
<ele>340.109985</ele>
<time>2024-12-16T11:48:59.215Z</time>
</trkpt>
<trkpt lat="31.0954100" lon="35.2353600">
<ele>342.920013</ele>
<time>2024-12-16T11:48:59.215Z</time>
</trkpt>
<trkpt lat="31.0951800" lon="35.2348500">
<ele>346.709991</ele>
<time>2024-12-16T11:48:59.215Z</time>
</trkpt>
<trkpt lat="31.0949400" lon="35.2343500">
<ele>350.270020</ele>
<time>2024-12-16T11:48:59.215Z</time>
</trkpt>
<trkpt lat="31.0947100" lon="35.2338400">
<ele>350.039978</ele>
<time>2024-12-16T11:48:59.215Z</time>
</trkpt>
<trkpt lat="31.0942500" lon="35.2332500">
<ele>353.920013</ele>
<time>2024-12-16T11:48:59.215Z</time>
</trkpt>
<trkpt lat="31.0939400" lon="35.2328400">
<ele>351.510010</ele>
<time>2024-12-16T11:48:59.215Z</time>
</trkpt>
<trkpt lat="31.0936300" lon="35.2324400">
<ele>345.669983</ele>
<time>2024-12-16T11:48:59.215Z</time>
</trkpt>
<trkpt lat="31.0933300" lon="35.2320300">
<ele>344.679993</ele>
<time>2024-12-16T11:48:59.215Z</time>
</trkpt>
<trkpt lat="31.0930200" lon="35.2316200">
<ele>342.450012</ele>
<time>2024-12-16T11:48:59.215Z</time>
</trkpt>
<trkpt lat="31.0927100" lon="35.2312200">
<ele>336.620026</ele>
<time>2024-12-16T11:48:59.215Z</time>
</trkpt>
<trkpt lat="31.0924000" lon="35.2308100">
<ele>333.490021</ele>
<time>2024-12-16T11:48:59.215Z</time>
</trkpt>
<trkpt lat="31.0920900" lon="35.2304200">
<ele>328.820007</ele>
<time>2024-12-16T11:48:59.215Z</time>
</trkpt>
<trkpt lat="31.0917800" lon="35.2300400">
<ele>327.070007</ele>
<time>2024-12-16T11:48:59.215Z</time>
</trkpt>
<trkpt lat="31.0914600" lon="35.2296500">
<ele>331.260010</ele>
<time>2024-12-16T11:48:59.215Z</time>
</trkpt>
<trkpt lat="31.0911500" lon="35.2292600">
<ele>331.230011</ele>
<time>2024-12-16T11:48:59.215Z</time>
</trkpt>
<trkpt lat="31.0909900" lon="35.2290800">
<ele>334.990021</ele>
<time>2024-12-16T11:48:59.215Z</time>
</trkpt>
<trkpt lat="31.0907800" lon="35.2290000">
<ele>339.899994</ele>
<time>2024-12-16T11:48:59.215Z</time>
</trkpt>
<trkpt lat="31.0905500" lon="35.2290500">
<ele>345.919983</ele>
<time>2024-12-16T11:48:59.215Z</time>
</trkpt>
<trkpt lat="31.0902600" lon="35.2290200">
<ele>348.809998</ele>
<time>2024-12-16T11:48:59.215Z</time>
</trkpt>
<trkpt lat="31.0897200" lon="35.2288800">
<ele>336.910004</ele>
<time>2024-12-16T11:48:59.215Z</time>
</trkpt>
<trkpt lat="31.0891800" lon="35.2287400">
<ele>335.900024</ele>
<time>2024-12-16T11:48:59.215Z</time>
</trkpt>
<trkpt lat="31.0886000" lon="35.2285000">
<ele>332.720001</ele>
<time>2024-12-16T11:48:59.215Z</time>
</trkpt>
<trkpt lat="31.0879800" lon="35.2281200">
<ele>337.059998</ele>
<time>2024-12-16T11:48:59.215Z</time>
</trkpt>
<trkpt lat="31.0876300" lon="35.2276600">
<ele>335.810028</ele>
<time>2024-12-16T11:48:59.215Z</time>
</trkpt>
<trkpt lat="31.0871900" lon="35.2272300">
<ele>346.980011</ele>
<time>2024-12-16T11:48:59.215Z</time>
</trkpt>
<trkpt lat="31.0866800" lon="35.2269300">
<ele>339.190002</ele>
<time>2024-12-16T11:48:59.215Z</time>
</trkpt>
<trkpt lat="31.0860400" lon="35.2267600">
<ele>339.100006</ele>
<time>2024-12-16T11:48:59.215Z</time>
</trkpt>
<trkpt lat="31.0858600" lon="35.2268300">
<ele>341.139984</ele>
<time>2024-12-16T11:48:59.215Z</time>
</trkpt>
<trkpt lat="31.0856000" lon="35.2268900">
<ele>342.870026</ele>
<time>2024-12-16T11:48:59.215Z</time>
</trkpt>
<trkpt lat="31.0851300" lon="35.2270900">
<ele>343.739990</ele>
<time>2024-12-16T11:48:59.215Z</time>
</trkpt>
<trkpt lat="31.0846700" lon="35.2273000">
<ele>347.519989</ele>
<time>2024-12-16T11:48:59.215Z</time>
</trkpt>
<trkpt lat="31.0842000" lon="35.2275000">
<ele>346.479980</ele>
<time>2024-12-16T11:48:59.215Z</time>
</trkpt>
<trkpt lat="31.0838300" lon="35.2276100">
<ele>343.210022</ele>
<time>2024-12-16T11:48:59.215Z</time>
</trkpt>
<trkpt lat="31.0831300" lon="35.2277800">
<ele>343.720001</ele>
<time>2024-12-16T11:48:59.215Z</time>
</trkpt>
<trkpt lat="31.0819500" lon="35.2280700">
<ele>338.009979</ele>
<time>2024-12-16T11:48:59.215Z</time>
</trkpt>
<trkpt lat="31.0815200" lon="35.2281700">
<ele>341.649994</ele>
<time>2024-12-16T11:48:59.215Z</time>
</trkpt>
<trkpt lat="31.0817400" lon="35.2286800">
<ele>336.820007</ele>
<time>2024-12-16T11:48:59.215Z</time>
</trkpt>
<trkpt lat="31.0825400" lon="35.2304300">
<ele>346.779999</ele>
<time>2024-12-16T11:48:59.215Z</time>
</trkpt>
<trkpt lat="31.0826500" lon="35.2307000">
<ele>345.679993</ele>
<time>2024-12-16T11:48:59.215Z</time>
</trkpt>
<trkpt lat="31.0828900" lon="35.2312500">
<ele>345.390015</ele>
<time>2024-12-16T11:48:59.215Z</time>
</trkpt>
<trkpt lat="31.0838400" lon="35.2333400">
<ele>343.619995</ele>
<time>2024-12-16T11:48:59.215Z</time>
</trkpt>
<trkpt lat="31.0840600" lon="35.2339200">
<ele>342.589996</ele>
<time>2024-12-16T11:48:59.215Z</time>
</trkpt>
<trkpt lat="31.0847100" lon="35.2353700">
<ele>349.649994</ele>
<time>2024-12-16T11:48:59.215Z</time>
</trkpt>
<trkpt lat="31.0848700" lon="35.2357700">
<ele>350.059998</ele>
<time>2024-12-16T11:48:59.215Z</time>
</trkpt>
<trkpt lat="31.0849100" lon="35.2359100">
<ele>350.899994</ele>
<time>2024-12-16T11:48:59.215Z</time>
</trkpt>
<trkpt lat="31.0849300" lon="35.2360900">
<ele>352.339996</ele>
<time>2024-12-16T11:48:59.215Z</time>
</trkpt>
<trkpt lat="31.0849300" lon="35.2367800">
<ele>351.350006</ele>
<time>2024-12-16T11:48:59.215Z</time>
</trkpt>
<trkpt lat="31.0848900" lon="35.2371300">
<ele>351.209991</ele>
<time>2024-12-16T11:48:59.215Z</time>
</trkpt>
<trkpt lat="31.0848900" lon="35.2376400">
<ele>351.209991</ele>
<time>2024-12-16T11:48:59.215Z</time>
</trkpt>
<trkpt lat="31.0848600" lon="35.2380200">
<ele>353.179993</ele>
<time>2024-12-16T11:48:59.215Z</time>
</trkpt>
<trkpt lat="31.0848600" lon="35.2384700">
<ele>355.989990</ele>
<time>2024-12-16T11:48:59.215Z</time>
</trkpt>
<trkpt lat="31.0848200" lon="35.2387600">
<ele>357.080017</ele>
<time>2024-12-16T11:48:59.215Z</time>
</trkpt>
<trkpt lat="31.0848200" lon="35.2398900">
<ele>360.489990</ele>
<time>2024-12-16T11:48:59.215Z</time>
</trkpt>
<trkpt lat="31.0847800" lon="35.2401500">
<ele>360.210022</ele>
<time>2024-12-16T11:48:59.215Z</time>
</trkpt>
<trkpt lat="31.0847800" lon="35.2406000">
<ele>360.210022</ele>
<time>2024-12-16T11:48:59.215Z</time>
</trkpt>
<trkpt lat="31.0847500" lon="35.2409200">
<ele>360.470001</ele>
<time>2024-12-16T11:48:59.215Z</time>
</trkpt>
<trkpt lat="31.0847500" lon="35.2412000">
<ele>361.910004</ele>
<time>2024-12-16T11:48:59.215Z</time>
</trkpt>
<trkpt lat="31.0847100" lon="35.2416200">
<ele>365.459991</ele>
<time>2024-12-16T11:48:59.215Z</time>
</trkpt>
<trkpt lat="31.0847100" lon="35.2419100">
<ele>366.720001</ele>
<time>2024-12-16T11:48:59.215Z</time>
</trkpt>
<trkpt lat="31.0846800" lon="35.2421400">
<ele>367.100006</ele>
<time>2024-12-16T11:48:59.215Z</time>
</trkpt>
<trkpt lat="31.0846700" lon="35.2427600">
<ele>366.880005</ele>
<time>2024-12-16T11:48:59.215Z</time>
</trkpt>
<trkpt lat="31.0847100" lon="35.2431100">
<ele>366.529999</ele>
<time>2024-12-16T11:48:59.215Z</time>
</trkpt>
<trkpt lat="31.0847100" lon="35.2432800">
<ele>365.329987</ele>
<time>2024-12-16T11:48:59.215Z</time>
</trkpt>
<trkpt lat="31.0848200" lon="35.2438800">
<ele>362.350006</ele>
<time>2024-12-16T11:48:59.215Z</time>
</trkpt>
<trkpt lat="31.0849100" lon="35.2442800">
<ele>360.619995</ele>
<time>2024-12-16T11:48:59.215Z</time>
</trkpt>
<trkpt lat="31.0854000" lon="35.2467800">
<ele>336.329987</ele>
<time>2024-12-16T11:48:59.215Z</time>
</trkpt>
<trkpt lat="31.0855200" lon="35.2472200">
<ele>334.010010</ele>
<time>2024-12-16T11:48:59.215Z</time>
</trkpt>
<trkpt lat="31.0856800" lon="35.2477600">
<ele>332.529999</ele>
<time>2024-12-16T11:48:59.215Z</time>
</trkpt>
<trkpt lat="31.0857200" lon="35.2479300">
<ele>332.860016</ele>
<time>2024-12-16T11:48:59.215Z</time>
</trkpt>
<trkpt lat="31.0857800" lon="35.2484100">
<ele>335.029999</ele>
<time>2024-12-16T11:48:59.215Z</time>
</trkpt>
<trkpt lat="31.0857900" lon="35.2486000">
<ele>335.649994</ele>
<time>2024-12-16T11:48:59.215Z</time>
</trkpt>
<trkpt lat="31.0860100" lon="35.2497000">
<ele>333.910004</ele>
<time>2024-12-16T11:48:59.215Z</time>
</trkpt>
<trkpt lat="31.0860600" lon="35.2500100">
<ele>334.600006</ele>
<time>2024-12-16T11:48:59.215Z</time>
</trkpt>
<trkpt lat="31.0860500" lon="35.2501200">
<ele>334.130005</ele>
<time>2024-12-16T11:48:59.215Z</time>
</trkpt>
<trkpt lat="31.0859900" lon="35.2502900">
<ele>333.020020</ele>
<time>2024-12-16T11:48:59.215Z</time>
</trkpt>
<trkpt lat="31.0854700" lon="35.2513900">
<ele>325.690002</ele>
<time>2024-12-16T11:48:59.215Z</time>
</trkpt>
<trkpt lat="31.0852500" lon="35.2518600">
<ele>323.029999</ele>
<time>2024-12-16T11:48:59.215Z</time>
</trkpt>
<trkpt lat="31.0849000" lon="35.2524300">
<ele>321.119995</ele>
<time>2024-12-16T11:48:59.215Z</time>
</trkpt>
<trkpt lat="31.0848300" lon="35.2526400">
<ele>319.880005</ele>
<time>2024-12-16T11:48:59.215Z</time>
</trkpt>
<trkpt lat="31.0847900" lon="35.2528800">
<ele>319.470001</ele>
<time>2024-12-16T11:48:59.215Z</time>
</trkpt>
<trkpt lat="31.0847400" lon="35.2530100">
<ele>320.510010</ele>
<time>2024-12-16T11:48:59.215Z</time>
</trkpt>
<trkpt lat="31.0841200" lon="35.2544400">
<ele>322.690002</ele>
<time>2024-12-16T11:48:59.215Z</time>
</trkpt>
<trkpt lat="31.0836300" lon="35.2558300">
<ele>320.000000</ele>
<time>2024-12-16T11:48:59.215Z</time>
</trkpt>
<trkpt lat="31.0833900" lon="35.2567800">
<ele>321.320007</ele>
<time>2024-12-16T11:48:59.215Z</time>
</trkpt>
<trkpt lat="31.0831100" lon="35.2577600">
<ele>323.000000</ele>
<time>2024-12-16T11:48:59.215Z</time>
</trkpt>
<trkpt lat="31.0830100" lon="35.2585200">
<ele>320.669983</ele>
<time>2024-12-16T11:48:59.215Z</time>
</trkpt>
<trkpt lat="31.0829100" lon="35.2590400">
<ele>320.000000</ele>
<time>2024-12-16T11:48:59.215Z</time>
</trkpt>
<trkpt lat="31.0829000" lon="35.2598500">
<ele>324.040009</ele>
<time>2024-12-16T11:48:59.215Z</time>
</trkpt>
<trkpt lat="31.0826900" lon="35.2613300">
<ele>325.179993</ele>
<time>2024-12-16T11:48:59.215Z</time>
</trkpt>
<trkpt lat="31.0826500" lon="35.2618000">
<ele>328.199982</ele>
<time>2024-12-16T11:48:59.215Z</time>
</trkpt>
<trkpt lat="31.0825400" lon="35.2625800">
<ele>330.200012</ele>
<time>2024-12-16T11:48:59.215Z</time>
</trkpt>
<trkpt lat="31.0825400" lon="35.2627900">
<ele>329.239990</ele>
<time>2024-12-16T11:48:59.215Z</time>
</trkpt>
<trkpt lat="31.0824700" lon="35.2631600">
<ele>328.769989</ele>
<time>2024-12-16T11:48:59.215Z</time>
</trkpt>
<trkpt lat="31.0824200" lon="35.2633100">
<ele>328.639984</ele>
<time>2024-12-16T11:48:59.215Z</time>
</trkpt>
<trkpt lat="31.0823700" lon="35.2633800">
<ele>328.929993</ele>
<time>2024-12-16T11:48:59.215Z</time>
</trkpt>
<trkpt lat="31.0822100" lon="35.2635200">
<ele>330.440002</ele>
<time>2024-12-16T11:48:59.215Z</time>
</trkpt>
<trkpt lat="31.0812300" lon="35.2641700">
<ele>326.980011</ele>
<time>2024-12-16T11:48:59.215Z</time>
</trkpt>
<trkpt lat="31.0811200" lon="35.2642300">
<ele>326.540009</ele>
<time>2024-12-16T11:48:59.215Z</time>
</trkpt>
<trkpt lat="31.0808300" lon="35.2643300">
<ele>328.769989</ele>
<time>2024-12-16T11:48:59.215Z</time>
</trkpt>
<trkpt lat="31.0805600" lon="35.2644900">
<ele>330.809998</ele>
<time>2024-12-16T11:48:59.215Z</time>
</trkpt>
<trkpt lat="31.0803800" lon="35.2646500">
<ele>331.660004</ele>
<time>2024-12-16T11:48:59.215Z</time>
</trkpt>
<trkpt lat="31.0801800" lon="35.2649300">
<ele>331.769989</ele>
<time>2024-12-16T11:48:59.215Z</time>
</trkpt>
<trkpt lat="31.0801100" lon="35.2650000">
<ele>330.580017</ele>
<time>2024-12-16T11:48:59.215Z</time>
</trkpt>
<trkpt lat="31.0799900" lon="35.2650500">
<ele>328.989990</ele>
<time>2024-12-16T11:48:59.215Z</time>
</trkpt>
<trkpt lat="31.0797200" lon="35.2651000">
<ele>328.299988</ele>
<time>2024-12-16T11:48:59.215Z</time>
</trkpt>
<trkpt lat="31.0794200" lon="35.2652300">
<ele>330.979980</ele>
<time>2024-12-16T11:48:59.215Z</time>
</trkpt>
<trkpt lat="31.0791500" lon="35.2653900">
<ele>329.990021</ele>
<time>2024-12-16T11:48:59.215Z</time>
</trkpt>
<trkpt lat="31.0788600" lon="35.2655900">
<ele>329.619995</ele>
<time>2024-12-16T11:48:59.215Z</time>
</trkpt>
<trkpt lat="31.0783800" lon="35.2658600">
<ele>326.980011</ele>
<time>2024-12-16T11:48:59.215Z</time>
</trkpt>
<trkpt lat="31.0783100" lon="35.2659200">
<ele>326.390015</ele>
<time>2024-12-16T11:48:59.215Z</time>
</trkpt>
<trkpt lat="31.0782400" lon="35.2660100">
<ele>324.429993</ele>
<time>2024-12-16T11:48:59.215Z</time>
</trkpt>
<trkpt lat="31.0781000" lon="35.2663500">
<ele>319.729980</ele>
<time>2024-12-16T11:48:59.215Z</time>
</trkpt>
<trkpt lat="31.0780500" lon="35.2666500">
<ele>316.959991</ele>
<time>2024-12-16T11:48:59.215Z</time>
</trkpt>
<trkpt lat="31.0780500" lon="35.2668100">
<ele>317.369995</ele>
<time>2024-12-16T11:48:59.215Z</time>
</trkpt>
<trkpt lat="31.0780500" lon="35.2668100">
<ele>317.369995</ele>
<time>2024-12-16T11:48:59.215Z</time>
</trkpt>
<trkpt lat="31.0780500" lon="35.2669400">
<ele>317.839996</ele>
<time>2024-12-16T11:48:59.215Z</time>
</trkpt>
<trkpt lat="31.0780700" lon="35.2670100">
<ele>318.369995</ele>
<time>2024-12-16T11:48:59.215Z</time>
</trkpt>
<trkpt lat="31.0781000" lon="35.2671000">
<ele>318.860016</ele>
<time>2024-12-16T11:48:59.215Z</time>
</trkpt>
<trkpt lat="31.0782100" lon="35.2672700">
<ele>319.309998</ele>
<time>2024-12-16T11:48:59.215Z</time>
</trkpt>
<trkpt lat="31.0783100" lon="35.2673700">
<ele>319.339996</ele>
<time>2024-12-16T11:48:59.215Z</time>
</trkpt>
<trkpt lat="31.0795500" lon="35.2682200">
<ele>318.839996</ele>
<time>2024-12-16T11:48:59.215Z</time>
</trkpt>
<trkpt lat="31.0801800" lon="35.2683700">
<ele>314.309998</ele>
<time>2024-12-16T11:48:59.215Z</time>
</trkpt>
<trkpt lat="31.0804000" lon="35.2684700">
<ele>311.779999</ele>
<time>2024-12-16T11:48:59.215Z</time>
</trkpt>
<trkpt lat="31.0805200" lon="35.2685600">
<ele>311.290009</ele>
<time>2024-12-16T11:48:59.215Z</time>
</trkpt>
<trkpt lat="31.0806200" lon="35.2686900">
<ele>311.709991</ele>
<time>2024-12-16T11:48:59.215Z</time>
</trkpt>
<trkpt lat="31.0806900" lon="35.2688400">
<ele>313.100006</ele>
<time>2024-12-16T11:48:59.215Z</time>
</trkpt>
<trkpt lat="31.0807100" lon="35.2689400">
<ele>314.629974</ele>
<time>2024-12-16T11:48:59.215Z</time>
</trkpt>
<trkpt lat="31.0807200" lon="35.2690700">
<ele>316.750000</ele>
<time>2024-12-16T11:48:59.215Z</time>
</trkpt>
<trkpt lat="31.0807000" lon="35.2692100">
<ele>318.320007</ele>
<time>2024-12-16T11:48:59.215Z</time>
</trkpt>
<trkpt lat="31.0806400" lon="35.2693700">
<ele>317.960022</ele>
<time>2024-12-16T11:48:59.215Z</time>
</trkpt>
<trkpt lat="31.0805300" lon="35.2695400">
<ele>316.880005</ele>
<time>2024-12-16T11:48:59.215Z</time>
</trkpt>
<trkpt lat="31.0802400" lon="35.2698900">
<ele>313.760010</ele>
<time>2024-12-16T11:48:59.215Z</time>
</trkpt>
<trkpt lat="31.0801000" lon="35.2700900">
<ele>313.129974</ele>
<time>2024-12-16T11:48:59.215Z</time>
</trkpt>
<trkpt lat="31.0800400" lon="35.2702000">
<ele>312.940002</ele>
<time>2024-12-16T11:48:59.215Z</time>
</trkpt>
<trkpt lat="31.0799900" lon="35.2703400">
<ele>312.630005</ele>
<time>2024-12-16T11:48:59.215Z</time>
</trkpt>
<trkpt lat="31.0799600" lon="35.2704900">
<ele>311.660004</ele>
<time>2024-12-16T11:48:59.215Z</time>
</trkpt>
<trkpt lat="31.0799600" lon="35.2709800">
<ele>308.980011</ele>
<time>2024-12-16T11:48:59.215Z</time>
</trkpt>
<trkpt lat="31.0798900" lon="35.2714900">
<ele>307.220001</ele>
<time>2024-12-16T11:48:59.215Z</time>
</trkpt>
<trkpt lat="31.0798800" lon="35.2717100">
<ele>307.169983</ele>
<time>2024-12-16T11:48:59.215Z</time>
</trkpt>
<trkpt lat="31.0798100" lon="35.2720000">
<ele>309.250000</ele>
<time>2024-12-16T11:48:59.215Z</time>
</trkpt>
<trkpt lat="31.0797200" lon="35.2721400">
<ele>309.009979</ele>
<time>2024-12-16T11:48:59.215Z</time>
</trkpt>
<trkpt lat="31.0796200" lon="35.2722100">
<ele>309.720001</ele>
<time>2024-12-16T11:48:59.215Z</time>
</trkpt>
<trkpt lat="31.0792800" lon="35.2723700">
<ele>309.760010</ele>
<time>2024-12-16T11:48:59.215Z</time>
</trkpt>
<trkpt lat="31.0792000" lon="35.2724200">
<ele>309.860016</ele>
<time>2024-12-16T11:48:59.215Z</time>
</trkpt>
<trkpt lat="31.0791200" lon="35.2725400">
<ele>309.329987</ele>
<time>2024-12-16T11:48:59.215Z</time>
</trkpt>
<trkpt lat="31.0791000" lon="35.2728100">
<ele>308.570007</ele>
<time>2024-12-16T11:48:59.215Z</time>
</trkpt>
<trkpt lat="31.0791000" lon="35.2728800">
<ele>308.760010</ele>
<time>2024-12-16T11:48:59.215Z</time>
</trkpt>
<trkpt lat="31.0790800" lon="35.2728800">
<ele>308.880005</ele>
<time>2024-12-16T11:48:59.215Z</time>
</trkpt>
<trkpt lat="31.0791000" lon="35.2728800">
<ele>308.760010</ele>
<time>2024-12-16T11:48:59.215Z</time>
</trkpt>
<trkpt lat="31.0791000" lon="35.2731000">
<ele>309.559998</ele>
<time>2024-12-16T11:48:59.215Z</time>
</trkpt>
<trkpt lat="31.0791300" lon="35.2733800">
<ele>311.449982</ele>
<time>2024-12-16T11:48:59.215Z</time>
</trkpt>
<trkpt lat="31.0791700" lon="35.2735600">
<ele>312.579987</ele>
<time>2024-12-16T11:48:59.215Z</time>
</trkpt>
<trkpt lat="31.0793400" lon="35.2739800">
<ele>310.380005</ele>
<time>2024-12-16T11:48:59.215Z</time>
</trkpt>
<trkpt lat="31.0794200" lon="35.2741200">
<ele>310.089996</ele>
<time>2024-12-16T11:48:59.215Z</time>
</trkpt>
<trkpt lat="31.0795800" lon="35.2742900">
<ele>304.440002</ele>
<time>2024-12-16T11:48:59.215Z</time>
</trkpt>
<trkpt lat="31.0798100" lon="35.2744800">
<ele>298.649994</ele>
<time>2024-12-16T11:48:59.215Z</time>
</trkpt>
<trkpt lat="31.0799100" lon="35.2746000">
<ele>297.109985</ele>
<time>2024-12-16T11:48:59.215Z</time>
</trkpt>
<trkpt lat="31.0800200" lon="35.2747900">
<ele>295.260010</ele>
<time>2024-12-16T11:48:59.215Z</time>
</trkpt>
<trkpt lat="31.0800600" lon="35.2748900">
<ele>294.190002</ele>
<time>2024-12-16T11:48:59.215Z</time>
</trkpt>
<trkpt lat="31.0801100" lon="35.2751500">
<ele>292.670013</ele>
<time>2024-12-16T11:48:59.215Z</time>
</trkpt>
<trkpt lat="31.0801000" lon="35.2754100">
<ele>290.720001</ele>
<time>2024-12-16T11:48:59.215Z</time>
</trkpt>
<trkpt lat="31.0798500" lon="35.2762800">
<ele>288.369995</ele>
<time>2024-12-16T11:48:59.215Z</time>
</trkpt>
<trkpt lat="31.0797500" lon="35.2765300">
<ele>291.069977</ele>
<time>2024-12-16T11:48:59.215Z</time>
</trkpt>
<trkpt lat="31.0797100" lon="35.2766900">
<ele>293.420013</ele>
<time>2024-12-16T11:48:59.215Z</time>
</trkpt>
<trkpt lat="31.0797000" lon="35.2769600">
<ele>295.369995</ele>
<time>2024-12-16T11:48:59.215Z</time>
</trkpt>
<trkpt lat="31.0797100" lon="35.2771100">
<ele>295.750000</ele>
<time>2024-12-16T11:48:59.215Z</time>
</trkpt>
<trkpt lat="31.0797600" lon="35.2773300">
<ele>295.209991</ele>
<time>2024-12-16T11:48:59.215Z</time>
</trkpt>
<trkpt lat="31.0797500" lon="35.2774300">
<ele>295.349976</ele>
<time>2024-12-16T11:48:59.215Z</time>
</trkpt>
<trkpt lat="31.0797000" lon="35.2775900">
<ele>296.029999</ele>
<time>2024-12-16T11:48:59.215Z</time>
</trkpt>
<trkpt lat="31.0795700" lon="35.2777800">
<ele>296.549988</ele>
<time>2024-12-16T11:48:59.215Z</time>
</trkpt>
<trkpt lat="31.0793600" lon="35.2780500">
<ele>297.660004</ele>
<time>2024-12-16T11:48:59.215Z</time>
</trkpt>
<trkpt lat="31.0791500" lon="35.2782400">
<ele>295.649994</ele>
<time>2024-12-16T11:48:59.215Z</time>
</trkpt>
<trkpt lat="31.0789600" lon="35.2783400">
<ele>294.910004</ele>
<time>2024-12-16T11:48:59.215Z</time>
</trkpt>
<trkpt lat="31.0785900" lon="35.2784400">
<ele>297.369995</ele>
<time>2024-12-16T11:48:59.215Z</time>
</trkpt>
<trkpt lat="31.0784300" lon="35.2785400">
<ele>295.619995</ele>
<time>2024-12-16T11:48:59.215Z</time>
</trkpt>
<trkpt lat="31.0783600" lon="35.2786400">
<ele>295.170013</ele>
<time>2024-12-16T11:48:59.215Z</time>
</trkpt>
<trkpt lat="31.0782500" lon="35.2789100">
<ele>294.500000</ele>
<time>2024-12-16T11:48:59.215Z</time>
</trkpt>
<trkpt lat="31.0781000" lon="35.2794600">
<ele>296.200012</ele>
<time>2024-12-16T11:48:59.215Z</time>
</trkpt>
<trkpt lat="31.0780500" lon="35.2797600">
<ele>296.809998</ele>
<time>2024-12-16T11:48:59.215Z</time>
</trkpt>
<trkpt lat="31.0780300" lon="35.2800200">
<ele>295.739990</ele>
<time>2024-12-16T11:48:59.215Z</time>
</trkpt>
<trkpt lat="31.0779300" lon="35.2803900">
<ele>293.649994</ele>
<time>2024-12-16T11:48:59.215Z</time>
</trkpt>
<trkpt lat="31.0777000" lon="35.2811300">
<ele>294.779999</ele>
<time>2024-12-16T11:48:59.215Z</time>
</trkpt>
<trkpt lat="31.0776800" lon="35.2813500">
<ele>293.480011</ele>
<time>2024-12-16T11:48:59.215Z</time>
</trkpt>
<trkpt lat="31.0777000" lon="35.2814400">
<ele>292.759979</ele>
<time>2024-12-16T11:48:59.215Z</time>
</trkpt>
<trkpt lat="31.0777400" lon="35.2815100">
<ele>292.040009</ele>
<time>2024-12-16T11:48:59.215Z</time>
</trkpt>
<trkpt lat="31.0778300" lon="35.2816300">
<ele>290.529999</ele>
<time>2024-12-16T11:48:59.215Z</time>
</trkpt>
<trkpt lat="31.0780400" lon="35.2818100">
<ele>287.880005</ele>
<time>2024-12-16T11:48:59.215Z</time>
</trkpt>
<trkpt lat="31.0781700" lon="35.2818800">
<ele>286.639984</ele>
<time>2024-12-16T11:48:59.215Z</time>
</trkpt>
<trkpt lat="31.0785600" lon="35.2820600">
<ele>283.799988</ele>
<time>2024-12-16T11:48:59.215Z</time>
</trkpt>
<trkpt lat="31.0789900" lon="35.2823100">
<ele>288.699982</ele>
<time>2024-12-16T11:48:59.215Z</time>
</trkpt>
<trkpt lat="31.0796200" lon="35.2825400">
<ele>285.670013</ele>
<time>2024-12-16T11:48:59.215Z</time>
</trkpt>
<trkpt lat="31.0800100" lon="35.2827200">
<ele>278.169983</ele>
<time>2024-12-16T11:48:59.215Z</time>
</trkpt>
<trkpt lat="31.0804300" lon="35.2828400">
<ele>278.019989</ele>
<time>2024-12-16T11:48:59.215Z</time>
</trkpt>
<trkpt lat="31.0805000" lon="35.2828900">
<ele>278.239990</ele>
<time>2024-12-16T11:48:59.215Z</time>
</trkpt>
<trkpt lat="31.0805500" lon="35.2829400">
<ele>278.559998</ele>
<time>2024-12-16T11:48:59.215Z</time>
</trkpt>
<trkpt lat="31.0806100" lon="35.2830600">
<ele>279.410004</ele>
<time>2024-12-16T11:48:59.215Z</time>
</trkpt>
<trkpt lat="31.0807900" lon="35.2837100">
<ele>282.929993</ele>
<time>2024-12-16T11:48:59.215Z</time>
</trkpt>
<trkpt lat="31.0810000" lon="35.2842400">
<ele>274.959991</ele>
<time>2024-12-16T11:48:59.215Z</time>
</trkpt>
<trkpt lat="31.0810400" lon="35.2845100">
<ele>271.610016</ele>
<time>2024-12-16T11:48:59.215Z</time>
</trkpt>
<trkpt lat="31.0810500" lon="35.2847500">
<ele>270.079987</ele>
<time>2024-12-16T11:48:59.215Z</time>
</trkpt>
<trkpt lat="31.0810300" lon="35.2853000">
<ele>268.500000</ele>
<time>2024-12-16T11:48:59.215Z</time>
</trkpt>
<trkpt lat="31.0808700" lon="35.2866600">
<ele>265.519989</ele>
<time>2024-12-16T11:48:59.215Z</time>
</trkpt>
<trkpt lat="31.0808600" lon="35.2866600">
<ele>265.380005</ele>
<time>2024-12-16T11:48:59.215Z</time>
</trkpt>
<trkpt lat="31.0808700" lon="35.2866600">
<ele>265.519989</ele>
<time>2024-12-16T11:48:59.215Z</time>
</trkpt>
<trkpt lat="31.0808600" lon="35.2867300">
<ele>265.200012</ele>
<time>2024-12-16T11:48:59.215Z</time>
</trkpt>
<trkpt lat="31.0807400" lon="35.2879200">
<ele>259.470001</ele>
<time>2024-12-16T11:48:59.215Z</time>
</trkpt>
<trkpt lat="31.0807500" lon="35.2880300">
<ele>259.290009</ele>
<time>2024-12-16T11:48:59.215Z</time>
</trkpt>
<trkpt lat="31.0807800" lon="35.2881200">
<ele>259.049988</ele>
<time>2024-12-16T11:48:59.215Z</time>
</trkpt>
<trkpt lat="31.0809000" lon="35.2882600">
<ele>259.690002</ele>
<time>2024-12-16T11:48:59.215Z</time>
</trkpt>
<trkpt lat="31.0809300" lon="35.2883300">
<ele>259.149994</ele>
<time>2024-12-16T11:48:59.215Z</time>
</trkpt>
<trkpt lat="31.0810500" lon="35.2888300">
<ele>257.919983</ele>
<time>2024-12-16T11:48:59.215Z</time>
</trkpt>
<trkpt lat="31.0810400" lon="35.2889100">
<ele>256.839996</ele>
<time>2024-12-16T11:48:59.215Z</time>
</trkpt>
<trkpt lat="31.0809900" lon="35.2890000">
<ele>255.330002</ele>
<time>2024-12-16T11:48:59.215Z</time>
</trkpt>
<trkpt lat="31.0809300" lon="35.2890800">
<ele>253.360001</ele>
<time>2024-12-16T11:48:59.215Z</time>
</trkpt>
<trkpt lat="31.0806600" lon="35.2893400">
<ele>244.460007</ele>
<time>2024-12-16T11:48:59.215Z</time>
</trkpt>
<trkpt lat="31.0806200" lon="35.2894100">
<ele>242.389999</ele>
<time>2024-12-16T11:48:59.215Z</time>
</trkpt>
<trkpt lat="31.0805300" lon="35.2898500">
<ele>238.119995</ele>
<time>2024-12-16T11:48:59.215Z</time>
</trkpt>
<trkpt lat="31.0804800" lon="35.2904200">
<ele>235.500000</ele>
<time>2024-12-16T11:48:59.215Z</time>
</trkpt>
<trkpt lat="31.0804800" lon="35.2907200">
<ele>235.370010</ele>
<time>2024-12-16T11:48:59.215Z</time>
</trkpt>
<trkpt lat="31.0803700" lon="35.2915800">
<ele>233.220001</ele>
<time>2024-12-16T11:48:59.215Z</time>
</trkpt>
<trkpt lat="31.0803600" lon="35.2917400">
<ele>232.460007</ele>
<time>2024-12-16T11:48:59.215Z</time>
</trkpt>
<trkpt lat="31.0803200" lon="35.2922500">
<ele>225.839996</ele>
<time>2024-12-16T11:48:59.215Z</time>
</trkpt>
<trkpt lat="31.0803200" lon="35.2923600">
<ele>223.399994</ele>
<time>2024-12-16T11:48:59.215Z</time>
</trkpt>
<trkpt lat="31.0804100" lon="35.2927000">
<ele>217.009995</ele>
<time>2024-12-16T11:48:59.215Z</time>
</trkpt>
<trkpt lat="31.0804100" lon="35.2928200">
<ele>215.239990</ele>
<time>2024-12-16T11:48:59.215Z</time>
</trkpt>
<trkpt lat="31.0803100" lon="35.2932800">
<ele>212.929993</ele>
<time>2024-12-16T11:48:59.215Z</time>
</trkpt>
<trkpt lat="31.0803000" lon="35.2935600">
<ele>213.049988</ele>
<time>2024-12-16T11:48:59.215Z</time>
</trkpt>
<trkpt lat="31.0802300" lon="35.2938100">
<ele>212.080002</ele>
<time>2024-12-16T11:48:59.215Z</time>
</trkpt>
<trkpt lat="31.0802200" lon="35.2940400">
<ele>212.050003</ele>
<time>2024-12-16T11:48:59.215Z</time>
</trkpt>
<trkpt lat="31.0802400" lon="35.2942600">
<ele>211.690002</ele>
<time>2024-12-16T11:48:59.215Z</time>
</trkpt>
<trkpt lat="31.0801600" lon="35.2948100">
<ele>207.549988</ele>
<time>2024-12-16T11:48:59.215Z</time>
</trkpt>
<trkpt lat="31.0801700" lon="35.2949600">
<ele>207.310013</ele>
<time>2024-12-16T11:48:59.215Z</time>
</trkpt>
<trkpt lat="31.0801800" lon="35.2950400">
<ele>207.249985</ele>
<time>2024-12-16T11:48:59.215Z</time>
</trkpt>
<trkpt lat="31.0802500" lon="35.2952000">
<ele>207.220001</ele>
<time>2024-12-16T11:48:59.215Z</time>
</trkpt>
<trkpt lat="31.0803200" lon="35.2953500">
<ele>206.529999</ele>
<time>2024-12-16T11:48:59.215Z</time>
</trkpt>
<trkpt lat="31.0803200" lon="35.2954100">
<ele>205.630005</ele>
<time>2024-12-16T11:48:59.215Z</time>
</trkpt>
<trkpt lat="31.0802900" lon="35.2954900">
<ele>204.089996</ele>
<time>2024-12-16T11:48:59.215Z</time>
</trkpt>
<trkpt lat="31.0800400" lon="35.2958000">
<ele>198.349991</ele>
<time>2024-12-16T11:48:59.215Z</time>
</trkpt>
<trkpt lat="31.0800000" lon="35.2958800">
<ele>196.990005</ele>
<time>2024-12-16T11:48:59.215Z</time>
</trkpt>
<trkpt lat="31.0799600" lon="35.2960200">
<ele>195.320007</ele>
<time>2024-12-16T11:48:59.215Z</time>
</trkpt>
<trkpt lat="31.0799300" lon="35.2961500">
<ele>194.770004</ele>
<time>2024-12-16T11:48:59.215Z</time>
</trkpt>
<trkpt lat="31.0799100" lon="35.2965600">
<ele>195.360001</ele>
<time>2024-12-16T11:48:59.215Z</time>
</trkpt>
<trkpt lat="31.0799000" lon="35.2969600">
<ele>197.970001</ele>
<time>2024-12-16T11:48:59.215Z</time>
</trkpt>
<trkpt lat="31.0798700" lon="35.2972700">
<ele>200.279999</ele>
<time>2024-12-16T11:48:59.215Z</time>
</trkpt>
<trkpt lat="31.0797600" lon="35.2978900">
<ele>199.919998</ele>
<time>2024-12-16T11:48:59.215Z</time>
</trkpt>
<trkpt lat="31.0797400" lon="35.2980500">
<ele>199.699997</ele>
<time>2024-12-16T11:48:59.215Z</time>
</trkpt>
<trkpt lat="31.0797900" lon="35.2983400">
<ele>199.800003</ele>
<time>2024-12-16T11:48:59.215Z</time>
</trkpt>
<trkpt lat="31.0799200" lon="35.2987900">
<ele>200.750000</ele>
<time>2024-12-16T11:48:59.215Z</time>
</trkpt>
<trkpt lat="31.0800300" lon="35.2990700">
<ele>198.500000</ele>
<time>2024-12-16T11:48:59.215Z</time>
</trkpt>
<trkpt lat="31.0800500" lon="35.2991900">
<ele>196.780014</ele>
<time>2024-12-16T11:48:59.215Z</time>
</trkpt>
<trkpt lat="31.0800000" lon="35.2993400">
<ele>195.500000</ele>
<time>2024-12-16T11:48:59.215Z</time>
</trkpt>
<trkpt lat="31.0799500" lon="35.2994500">
<ele>194.839996</ele>
<time>2024-12-16T11:48:59.215Z</time>
</trkpt>
<trkpt lat="31.0797700" lon="35.2996900">
<ele>196.220001</ele>
<time>2024-12-16T11:48:59.215Z</time>
</trkpt>
<trkpt lat="31.0796900" lon="35.2998400">
<ele>196.739990</ele>
<time>2024-12-16T11:48:59.215Z</time>
</trkpt>
<trkpt lat="31.0796200" lon="35.3000500">
<ele>196.869995</ele>
<time>2024-12-16T11:48:59.215Z</time>
</trkpt>
<trkpt lat="31.0795800" lon="35.3003100">
<ele>198.049988</ele>
<time>2024-12-16T11:48:59.215Z</time>
</trkpt>
<trkpt lat="31.0795500" lon="35.3007200">
<ele>198.130005</ele>
<time>2024-12-16T11:48:59.215Z</time>
</trkpt>
<trkpt lat="31.0795900" lon="35.3016200">
<ele>196.430008</ele>
<time>2024-12-16T11:48:59.215Z</time>
</trkpt>
<trkpt lat="31.0795900" lon="35.3023500">
<ele>196.950012</ele>
<time>2024-12-16T11:48:59.215Z</time>
</trkpt>
<trkpt lat="31.0796600" lon="35.3027400">
<ele>194.729996</ele>
<time>2024-12-16T11:48:59.215Z</time>
</trkpt>
<trkpt lat="31.0797400" lon="35.3029100">
<ele>193.300003</ele>
<time>2024-12-16T11:48:59.215Z</time>
</trkpt>
<trkpt lat="31.0798200" lon="35.3030200">
<ele>191.770004</ele>
<time>2024-12-16T11:48:59.215Z</time>
</trkpt>
<trkpt lat="31.0799800" lon="35.3031000">
<ele>189.250000</ele>
<time>2024-12-16T11:48:59.215Z</time>
</trkpt>
<trkpt lat="31.0802000" lon="35.3031500">
<ele>188.049988</ele>
<time>2024-12-16T11:48:59.215Z</time>
</trkpt>
<trkpt lat="31.0806300" lon="35.3031600">
<ele>183.250000</ele>
<time>2024-12-16T11:48:59.215Z</time>
</trkpt>
<trkpt lat="31.0807400" lon="35.3031700">
<ele>180.589996</ele>
<time>2024-12-16T11:48:59.215Z</time>
</trkpt>
<trkpt lat="31.0808300" lon="35.3032100">
<ele>178.750000</ele>
<time>2024-12-16T11:48:59.215Z</time>
</trkpt>
<trkpt lat="31.0809000" lon="35.3032600">
<ele>176.740005</ele>
<time>2024-12-16T11:48:59.215Z</time>
</trkpt>
<trkpt lat="31.0810300" lon="35.3034000">
<ele>173.570007</ele>
<time>2024-12-16T11:48:59.215Z</time>
</trkpt>
<trkpt lat="31.0811500" lon="35.3035800">
<ele>171.160004</ele>
<time>2024-12-16T11:48:59.215Z</time>
</trkpt>
<trkpt lat="31.0812200" lon="35.3037100">
<ele>168.970001</ele>
<time>2024-12-16T11:48:59.215Z</time>
</trkpt>
<trkpt lat="31.0812200" lon="35.3037100">
<ele>168.970001</ele>
<time>2024-12-16T11:48:59.215Z</time>
</trkpt>
<trkpt lat="31.0812200" lon="35.3037100">
<ele>168.970001</ele>
<time>2024-12-16T11:48:59.215Z</time>
</trkpt>
<trkpt lat="31.0812400" lon="35.3037600">
<ele>168.389999</ele>
<time>2024-12-16T11:48:59.215Z</time>
</trkpt>
<trkpt lat="31.0812800" lon="35.3039200">
<ele>168.039993</ele>
<time>2024-12-16T11:48:59.215Z</time>
</trkpt>
<trkpt lat="31.0813200" lon="35.3046100">
<ele>174.849991</ele>
<time>2024-12-16T11:48:59.215Z</time>
</trkpt>
<trkpt lat="31.0813100" lon="35.3048800">
<ele>171.310013</ele>
<time>2024-12-16T11:48:59.215Z</time>
</trkpt>
<trkpt lat="31.0811900" lon="35.3052900">
<ele>164.160004</ele>
<time>2024-12-16T11:48:59.215Z</time>
</trkpt>
<trkpt lat="31.0811400" lon="35.3056700">
<ele>159.970001</ele>
<time>2024-12-16T11:48:59.215Z</time>
</trkpt>
<trkpt lat="31.0811800" lon="35.3059400">
<ele>157.339996</ele>
<time>2024-12-16T11:48:59.215Z</time>
</trkpt>
<trkpt lat="31.0812900" lon="35.3063100">
<ele>155.779999</ele>
<time>2024-12-16T11:48:59.215Z</time>
</trkpt>
<trkpt lat="31.0813400" lon="35.3066400">
<ele>155.819992</ele>
<time>2024-12-16T11:48:59.215Z</time>
</trkpt>
<trkpt lat="31.0812900" lon="35.3078600">
<ele>148.419998</ele>
<time>2024-12-16T11:48:59.215Z</time>
</trkpt>
<trkpt lat="31.0813000" lon="35.3082500">
<ele>145.330002</ele>
<time>2024-12-16T11:48:59.215Z</time>
</trkpt>
<trkpt lat="31.0812100" lon="35.3090400">
<ele>143.169998</ele>
<time>2024-12-16T11:48:59.215Z</time>
</trkpt>
<trkpt lat="31.0812100" lon="35.3093100">
<ele>142.709991</ele>
<time>2024-12-16T11:48:59.215Z</time>
</trkpt>
<trkpt lat="31.0812300" lon="35.3094400">
<ele>142.860001</ele>
<time>2024-12-16T11:48:59.215Z</time>
</trkpt>
<trkpt lat="31.0812600" lon="35.3095200">
<ele>142.949997</ele>
<time>2024-12-16T11:48:59.215Z</time>
</trkpt>
<trkpt lat="31.0814100" lon="35.3098000">
<ele>144.389999</ele>
<time>2024-12-16T11:48:59.215Z</time>
</trkpt>
<trkpt lat="31.0815400" lon="35.3101100">
<ele>145.399994</ele>
<time>2024-12-16T11:48:59.215Z</time>
</trkpt>
<trkpt lat="31.0816400" lon="35.3104000">
<ele>146.400009</ele>
<time>2024-12-16T11:48:59.215Z</time>
</trkpt>
<trkpt lat="31.0817000" lon="35.3106900">
<ele>145.729996</ele>
<time>2024-12-16T11:48:59.215Z</time>
</trkpt>
<trkpt lat="31.0816900" lon="35.3108500">
<ele>144.570007</ele>
<time>2024-12-16T11:48:59.215Z</time>
</trkpt>
<trkpt lat="31.0816700" lon="35.3109800">
<ele>143.389999</ele>
<time>2024-12-16T11:48:59.215Z</time>
</trkpt>
<trkpt lat="31.0814700" lon="35.3118000">
<ele>132.910004</ele>
<time>2024-12-16T11:48:59.215Z</time>
</trkpt>
<trkpt lat="31.0812200" lon="35.3126700">
<ele>123.750000</ele>
<time>2024-12-16T11:48:59.215Z</time>
</trkpt>
<trkpt lat="31.0811400" lon="35.3130200">
<ele>120.619995</ele>
<time>2024-12-16T11:48:59.215Z</time>
</trkpt>
<trkpt lat="31.0810300" lon="35.3133000">
<ele>117.989998</ele>
<time>2024-12-16T11:48:59.215Z</time>
</trkpt>
<trkpt lat="31.0806800" lon="35.3140300">
<ele>118.769997</ele>
<time>2024-12-16T11:48:59.215Z</time>
</trkpt>
<trkpt lat="31.0803200" lon="35.3149500">
<ele>109.930000</ele>
<time>2024-12-16T11:48:59.215Z</time>
</trkpt>
<trkpt lat="31.0801500" lon="35.3155800">
<ele>104.589996</ele>
<time>2024-12-16T11:48:59.215Z</time>
</trkpt>
<trkpt lat="31.0801300" lon="35.3157300">
<ele>102.269997</ele>
<time>2024-12-16T11:48:59.215Z</time>
</trkpt>
<trkpt lat="31.0801300" lon="35.3158900">
<ele>99.750008</ele>
<time>2024-12-16T11:48:59.215Z</time>
</trkpt>
<trkpt lat="31.0801500" lon="35.3160400">
<ele>96.919998</ele>
<time>2024-12-16T11:48:59.215Z</time>
</trkpt>
<trkpt lat="31.0804400" lon="35.3166300">
<ele>88.330002</ele>
<time>2024-12-16T11:48:59.215Z</time>
</trkpt>
<trkpt lat="31.0805900" lon="35.3170500">
<ele>84.779999</ele>
<time>2024-12-16T11:48:59.215Z</time>
</trkpt>
<trkpt lat="31.0806000" lon="35.3171400">
<ele>83.839996</ele>
<time>2024-12-16T11:48:59.215Z</time>
</trkpt>
<trkpt lat="31.0805800" lon="35.3173000">
<ele>82.489998</ele>
<time>2024-12-16T11:48:59.215Z</time>
</trkpt>
<trkpt lat="31.0804500" lon="35.3178300">
<ele>79.480003</ele>
<time>2024-12-16T11:48:59.215Z</time>
</trkpt>
<trkpt lat="31.0802900" lon="35.3181900">
<ele>73.629997</ele>
<time>2024-12-16T11:48:59.215Z</time>
</trkpt>
<trkpt lat="31.0798300" lon="35.3189000">
<ele>73.930000</ele>
<time>2024-12-16T11:48:59.215Z</time>
</trkpt>
<trkpt lat="31.0796400" lon="35.3191500">
<ele>73.599998</ele>
<time>2024-12-16T11:48:59.215Z</time>
</trkpt>
<trkpt lat="31.0794600" lon="35.3195000">
<ele>67.270004</ele>
<time>2024-12-16T11:48:59.215Z</time>
</trkpt>
<trkpt lat="31.0793000" lon="35.3196800">
<ele>63.489998</ele>
<time>2024-12-16T11:48:59.215Z</time>
</trkpt>
<trkpt lat="31.0788700" lon="35.3200800">
<ele>58.090000</ele>
<time>2024-12-16T11:48:59.215Z</time>
</trkpt>
<trkpt lat="31.0788300" lon="35.3202200">
<ele>57.639999</ele>
<time>2024-12-16T11:48:59.215Z</time>
</trkpt>
<trkpt lat="31.0787700" lon="35.3205400">
<ele>56.660004</ele>
<time>2024-12-16T11:48:59.215Z</time>
</trkpt>
<trkpt lat="31.0787200" lon="35.3206900">
<ele>55.129997</ele>
<time>2024-12-16T11:48:59.215Z</time>
</trkpt>
<trkpt lat="31.0781900" lon="35.3219800">
<ele>52.620003</ele>
<time>2024-12-16T11:48:59.215Z</time>
</trkpt>
<trkpt lat="31.0780300" lon="35.3223500">
<ele>52.959999</ele>
<time>2024-12-16T11:48:59.215Z</time>
</trkpt>
<trkpt lat="31.0779600" lon="35.3224700">
<ele>51.040001</ele>
<time>2024-12-16T11:48:59.215Z</time>
</trkpt>
<trkpt lat="31.0777700" lon="35.3227100">
<ele>47.489998</ele>
<time>2024-12-16T11:48:59.215Z</time>
</trkpt>
<trkpt lat="31.0777100" lon="35.3228300">
<ele>47.779999</ele>
<time>2024-12-16T11:48:59.215Z</time>
</trkpt>
<trkpt lat="31.0776600" lon="35.3230800">
<ele>51.820000</ele>
<time>2024-12-16T11:48:59.215Z</time>
</trkpt>
<trkpt lat="31.0776400" lon="35.3237300">
<ele>53.240002</ele>
<time>2024-12-16T11:48:59.215Z</time>
</trkpt>
<trkpt lat="31.0776300" lon="35.3238400">
<ele>53.250000</ele>
<time>2024-12-16T11:48:59.215Z</time>
</trkpt>
<trkpt lat="31.0775800" lon="35.3239700">
<ele>52.730000</ele>
<time>2024-12-16T11:48:59.215Z</time>
</trkpt>
<trkpt lat="31.0775000" lon="35.3240700">
<ele>51.650002</ele>
<time>2024-12-16T11:48:59.215Z</time>
</trkpt>
<trkpt lat="31.0773000" lon="35.3242100">
<ele>46.779999</ele>
<time>2024-12-16T11:48:59.215Z</time>
</trkpt>
<trkpt lat="31.0769500" lon="35.3243600">
<ele>43.250004</ele>
<time>2024-12-16T11:48:59.215Z</time>
</trkpt>
<trkpt lat="31.0766000" lon="35.3245400">
<ele>41.599998</ele>
<time>2024-12-16T11:48:59.215Z</time>
</trkpt>
<trkpt lat="31.0765100" lon="35.3245700">
<ele>40.169998</ele>
<time>2024-12-16T11:48:59.215Z</time>
</trkpt>
<trkpt lat="31.0763800" lon="35.3245800">
<ele>37.750000</ele>
<time>2024-12-16T11:48:59.215Z</time>
</trkpt>
<trkpt lat="31.0760900" lon="35.3245600">
<ele>31.110001</ele>
<time>2024-12-16T11:48:59.215Z</time>
</trkpt>
<trkpt lat="31.0760200" lon="35.3245800">
<ele>28.969999</ele>
<time>2024-12-16T11:48:59.215Z</time>
</trkpt>
<trkpt lat="31.0759500" lon="35.3246300">
<ele>27.680000</ele>
<time>2024-12-16T11:48:59.215Z</time>
</trkpt>
<trkpt lat="31.0759100" lon="35.3246900">
<ele>27.859999</ele>
<time>2024-12-16T11:48:59.215Z</time>
</trkpt>
<trkpt lat="31.0758800" lon="35.3247900">
<ele>27.920000</ele>
<time>2024-12-16T11:48:59.215Z</time>
</trkpt>
<trkpt lat="31.0758800" lon="35.3249700">
<ele>28.570000</ele>
<time>2024-12-16T11:48:59.215Z</time>
</trkpt>
<trkpt lat="31.0758400" lon="35.3250900">
<ele>28.500000</ele>
<time>2024-12-16T11:48:59.215Z</time>
</trkpt>
<trkpt lat="31.0757200" lon="35.3252800">
<ele>25.689999</ele>
<time>2024-12-16T11:48:59.215Z</time>
</trkpt>
<trkpt lat="31.0755200" lon="35.3256800">
<ele>18.830000</ele>
<time>2024-12-16T11:48:59.215Z</time>
</trkpt>
<trkpt lat="31.0754400" lon="35.3257900">
<ele>16.070000</ele>
<time>2024-12-16T11:48:59.215Z</time>
</trkpt>
<trkpt lat="31.0753300" lon="35.3259000">
<ele>13.419999</ele>
<time>2024-12-16T11:48:59.215Z</time>
</trkpt>
<trkpt lat="31.0752300" lon="35.3259600">
<ele>11.450000</ele>
<time>2024-12-16T11:48:59.215Z</time>
</trkpt>
<trkpt lat="31.0749700" lon="35.3260400">
<ele>5.830000</ele>
<time>2024-12-16T11:48:59.215Z</time>
</trkpt>
<trkpt lat="31.0748100" lon="35.3261100">
<ele>1.160000</ele>
<time>2024-12-16T11:48:59.215Z</time>
</trkpt>
<trkpt lat="31.0747300" lon="35.3261700">
<ele>-0.890000</ele>
<time>2024-12-16T11:48:59.215Z</time>
</trkpt>
<trkpt lat="31.0746600" lon="35.3262400">
<ele>-1.580000</ele>
<time>2024-12-16T11:48:59.215Z</time>
</trkpt>
<trkpt lat="31.0741100" lon="35.3269100">
<ele>-10.760000</ele>
<time>2024-12-16T11:48:59.215Z</time>
</trkpt>
<trkpt lat="31.0740400" lon="35.3270300">
<ele>-11.980000</ele>
<time>2024-12-16T11:48:59.215Z</time>
</trkpt>
<trkpt lat="31.0740100" lon="35.3271100">
<ele>-12.880000</ele>
<time>2024-12-16T11:48:59.215Z</time>
</trkpt>
<trkpt lat="31.0740000" lon="35.3272200">
<ele>-13.780000</ele>
<time>2024-12-16T11:48:59.215Z</time>
</trkpt>
<trkpt lat="31.0739900" lon="35.3277900">
<ele>-17.870001</ele>
<time>2024-12-16T11:48:59.215Z</time>
</trkpt>
<trkpt lat="31.0739600" lon="35.3278600">
<ele>-19.299999</ele>
<time>2024-12-16T11:48:59.215Z</time>
</trkpt>
<trkpt lat="31.0739200" lon="35.3278900">
<ele>-19.950001</ele>
<time>2024-12-16T11:48:59.215Z</time>
</trkpt>
<trkpt lat="31.0738600" lon="35.3279100">
<ele>-21.049999</ele>
<time>2024-12-16T11:48:59.215Z</time>
</trkpt>
<trkpt lat="31.0737900" lon="35.3279100">
<ele>-22.690001</ele>
<time>2024-12-16T11:48:59.215Z</time>
</trkpt>
<trkpt lat="31.0736900" lon="35.3278800">
<ele>-24.400000</ele>
<time>2024-12-16T11:48:59.215Z</time>
</trkpt>
<trkpt lat="31.0733400" lon="35.3276500">
<ele>-31.430000</ele>
<time>2024-12-16T11:48:59.215Z</time>
</trkpt>
<trkpt lat="31.0732500" lon="35.3275400">
<ele>-31.760000</ele>
<time>2024-12-16T11:48:59.215Z</time>
</trkpt>
<trkpt lat="31.0731200" lon="35.3273300">
<ele>-34.010002</ele>
<time>2024-12-16T11:48:59.215Z</time>
</trkpt>
<trkpt lat="31.0730300" lon="35.3272400">
<ele>-36.260002</ele>
<time>2024-12-16T11:48:59.215Z</time>
</trkpt>
<trkpt lat="31.0729200" lon="35.3271700">
<ele>-38.419998</ele>
<time>2024-12-16T11:48:59.215Z</time>
</trkpt>
<trkpt lat="31.0728600" lon="35.3271600">
<ele>-39.329998</ele>
<time>2024-12-16T11:48:59.215Z</time>
</trkpt>
<trkpt lat="31.0727900" lon="35.3272200">
<ele>-39.840000</ele>
<time>2024-12-16T11:48:59.215Z</time>
</trkpt>
<trkpt lat="31.0727700" lon="35.3273100">
<ele>-40.949997</ele>
<time>2024-12-16T11:48:59.215Z</time>
</trkpt>
<trkpt lat="31.0727900" lon="35.3273900">
<ele>-40.930000</ele>
<time>2024-12-16T11:48:59.215Z</time>
</trkpt>
<trkpt lat="31.0729000" lon="35.3278000">
<ele>-46.549999</ele>
<time>2024-12-16T11:48:59.215Z</time>
</trkpt>
<trkpt lat="31.0729800" lon="35.3279200">
<ele>-49.099998</ele>
<time>2024-12-16T11:48:59.215Z</time>
</trkpt>
<trkpt lat="31.0731000" lon="35.3280100">
<ele>-49.209999</ele>
<time>2024-12-16T11:48:59.215Z</time>
</trkpt>
<trkpt lat="31.0731800" lon="35.3281100">
<ele>-51.009998</ele>
<time>2024-12-16T11:48:59.215Z</time>
</trkpt>
<trkpt lat="31.0733100" lon="35.3283200">
<ele>-57.200001</ele>
<time>2024-12-16T11:48:59.215Z</time>
</trkpt>
<trkpt lat="31.0734900" lon="35.3285500">
<ele>-56.440002</ele>
<time>2024-12-16T11:48:59.215Z</time>
</trkpt>
<trkpt lat="31.0735800" lon="35.3287500">
<ele>-58.340000</ele>
<time>2024-12-16T11:48:59.215Z</time>
</trkpt>
<trkpt lat="31.0736000" lon="35.3288300">
<ele>-59.759998</ele>
<time>2024-12-16T11:48:59.215Z</time>
</trkpt>
<trkpt lat="31.0735900" lon="35.3288800">
<ele>-61.579998</ele>
<time>2024-12-16T11:48:59.215Z</time>
</trkpt>
<trkpt lat="31.0735500" lon="35.3289400">
<ele>-65.099998</ele>
<time>2024-12-16T11:48:59.215Z</time>
</trkpt>
<trkpt lat="31.0734900" lon="35.3289700">
<ele>-68.209999</ele>
<time>2024-12-16T11:48:59.215Z</time>
</trkpt>
<trkpt lat="31.0734200" lon="35.3289700">
<ele>-70.680000</ele>
<time>2024-12-16T11:48:59.215Z</time>
</trkpt>
<trkpt lat="31.0733500" lon="35.3289500">
<ele>-72.709999</ele>
<time>2024-12-16T11:48:59.215Z</time>
</trkpt>
<trkpt lat="31.0732500" lon="35.3288900">
<ele>-73.230003</ele>
<time>2024-12-16T11:48:59.215Z</time>
</trkpt>
<trkpt lat="31.0729100" lon="35.3285900">
<ele>-74.760002</ele>
<time>2024-12-16T11:48:59.215Z</time>
</trkpt>
<trkpt lat="31.0728500" lon="35.3285600">
<ele>-75.689995</ele>
<time>2024-12-16T11:48:59.215Z</time>
</trkpt>
<trkpt lat="31.0727800" lon="35.3285500">
<ele>-77.180000</ele>
<time>2024-12-16T11:48:59.215Z</time>
</trkpt>
<trkpt lat="31.0727200" lon="35.3285800">
<ele>-78.910004</ele>
<time>2024-12-16T11:48:59.215Z</time>
</trkpt>
<trkpt lat="31.0726800" lon="35.3286300">
<ele>-80.790001</ele>
<time>2024-12-16T11:48:59.215Z</time>
</trkpt>
<trkpt lat="31.0725900" lon="35.3288600">
<ele>-86.469994</ele>
<time>2024-12-16T11:48:59.215Z</time>
</trkpt>
<trkpt lat="31.0725200" lon="35.3290000">
<ele>-89.040001</ele>
<time>2024-12-16T11:48:59.215Z</time>
</trkpt>
<trkpt lat="31.0724000" lon="35.3293500">
<ele>-94.970001</ele>
<time>2024-12-16T11:48:59.215Z</time>
</trkpt>
<trkpt lat="31.0723300" lon="35.3294400">
<ele>-96.320000</ele>
<time>2024-12-16T11:48:59.215Z</time>
</trkpt>
<trkpt lat="31.0722500" lon="35.3294700">
<ele>-97.070000</ele>
<time>2024-12-16T11:48:59.215Z</time>
</trkpt>
<trkpt lat="31.0721300" lon="35.3294600">
<ele>-99.529999</ele>
<time>2024-12-16T11:48:59.215Z</time>
</trkpt>
<trkpt lat="31.0718000" lon="35.3293400">
<ele>-108.680000</ele>
<time>2024-12-16T11:48:59.215Z</time>
</trkpt>
<trkpt lat="31.0717600" lon="35.3293700">
<ele>-110.480003</ele>
<time>2024-12-16T11:48:59.215Z</time>
</trkpt>
<trkpt lat="31.0717400" lon="35.3294800">
<ele>-112.880005</ele>
<time>2024-12-16T11:48:59.215Z</time>
</trkpt>
<trkpt lat="31.0724900" lon="35.3297600">
<ele>-104.089996</ele>
<time>2024-12-16T11:48:59.215Z</time>
</trkpt>
<trkpt lat="31.0727300" lon="35.3299600">
<ele>-107.570000</ele>
<time>2024-12-16T11:48:59.215Z</time>
</trkpt>
<trkpt lat="31.0729800" lon="35.3302300">
<ele>-109.350006</ele>
<time>2024-12-16T11:48:59.215Z</time>
</trkpt>
<trkpt lat="31.0730700" lon="35.3302600">
<ele>-108.849998</ele>
<time>2024-12-16T11:48:59.215Z</time>
</trkpt>
<trkpt lat="31.0731500" lon="35.3302500">
<ele>-109.279999</ele>
<time>2024-12-16T11:48:59.215Z</time>
</trkpt>
<trkpt lat="31.0734500" lon="35.3301100">
<ele>-106.480003</ele>
<time>2024-12-16T11:48:59.215Z</time>
</trkpt>
<trkpt lat="31.0735900" lon="35.3300700">
<ele>-103.389999</ele>
<time>2024-12-16T11:48:59.215Z</time>
</trkpt>
<trkpt lat="31.0736900" lon="35.3300700">
<ele>-99.739998</ele>
<time>2024-12-16T11:48:59.215Z</time>
</trkpt>
<trkpt lat="31.0737400" lon="35.3301000">
<ele>-98.000000</ele>
<time>2024-12-16T11:48:59.215Z</time>
</trkpt>
<trkpt lat="31.0737700" lon="35.3301500">
<ele>-97.250000</ele>
<time>2024-12-16T11:48:59.215Z</time>
</trkpt>
<trkpt lat="31.0737800" lon="35.3302000">
<ele>-97.320007</ele>
<time>2024-12-16T11:48:59.215Z</time>
</trkpt>
<trkpt lat="31.0737900" lon="35.3302800">
<ele>-97.650002</ele>
<time>2024-12-16T11:48:59.215Z</time>
</trkpt>
<trkpt lat="31.0737700" lon="35.3304500">
<ele>-100.690002</ele>
<time>2024-12-16T11:48:59.215Z</time>
</trkpt>
<trkpt lat="31.0737300" lon="35.3305900">
<ele>-104.980003</ele>
<time>2024-12-16T11:48:59.215Z</time>
</trkpt>
<trkpt lat="31.0736400" lon="35.3307400">
<ele>-113.330002</ele>
<time>2024-12-16T11:48:59.215Z</time>
</trkpt>
<trkpt lat="31.0735900" lon="35.3308700">
<ele>-118.149994</ele>
<time>2024-12-16T11:48:59.215Z</time>
</trkpt>
<trkpt lat="31.0735800" lon="35.3309500">
<ele>-120.279999</ele>
<time>2024-12-16T11:48:59.215Z</time>
</trkpt>
<trkpt lat="31.0735900" lon="35.3311100">
<ele>-124.199997</ele>
<time>2024-12-16T11:48:59.215Z</time>
</trkpt>
<trkpt lat="31.0736200" lon="35.3312200">
<ele>-127.299995</ele>
<time>2024-12-16T11:48:59.215Z</time>
</trkpt>
<trkpt lat="31.0736900" lon="35.3313600">
<ele>-130.300003</ele>
<time>2024-12-16T11:48:59.215Z</time>
</trkpt>
<trkpt lat="31.0738700" lon="35.3315800">
<ele>-133.600006</ele>
<time>2024-12-16T11:48:59.215Z</time>
</trkpt>
<trkpt lat="31.0739800" lon="35.3319200">
<ele>-139.199997</ele>
<time>2024-12-16T11:48:59.215Z</time>
</trkpt>
<trkpt lat="31.0740700" lon="35.3320300">
<ele>-140.259995</ele>
<time>2024-12-16T11:48:59.215Z</time>
</trkpt>
<trkpt lat="31.0741000" lon="35.3321000">
<ele>-141.080002</ele>
<time>2024-12-16T11:48:59.215Z</time>
</trkpt>
<trkpt lat="31.0741000" lon="35.3321600">
<ele>-141.789993</ele>
<time>2024-12-16T11:48:59.215Z</time>
</trkpt>
<trkpt lat="31.0740700" lon="35.3322300">
<ele>-142.330002</ele>
<time>2024-12-16T11:48:59.215Z</time>
</trkpt>
<trkpt lat="31.0740100" lon="35.3322800">
<ele>-142.080002</ele>
<time>2024-12-16T11:48:59.215Z</time>
</trkpt>
<trkpt lat="31.0739300" lon="35.3323100">
<ele>-141.610001</ele>
<time>2024-12-16T11:48:59.215Z</time>
</trkpt>
<trkpt lat="31.0738500" lon="35.3323100">
<ele>-141.919998</ele>
<time>2024-12-16T11:48:59.215Z</time>
</trkpt>
<trkpt lat="31.0733600" lon="35.3321200">
<ele>-145.769989</ele>
<time>2024-12-16T11:48:59.215Z</time>
</trkpt>
<trkpt lat="31.0732400" lon="35.3320900">
<ele>-147.760010</ele>
<time>2024-12-16T11:48:59.215Z</time>
</trkpt>
<trkpt lat="31.0731200" lon="35.3321100">
<ele>-150.850006</ele>
<time>2024-12-16T11:48:59.215Z</time>
</trkpt>
<trkpt lat="31.0730700" lon="35.3321600">
<ele>-152.750000</ele>
<time>2024-12-16T11:48:59.215Z</time>
</trkpt>
<trkpt lat="31.0730400" lon="35.3322400">
<ele>-154.589996</ele>
<time>2024-12-16T11:48:59.215Z</time>
</trkpt>
<trkpt lat="31.0730400" lon="35.3325100">
<ele>-158.449997</ele>
<time>2024-12-16T11:48:59.215Z</time>
</trkpt>
<trkpt lat="31.0729400" lon="35.3329000">
<ele>-166.109985</ele>
<time>2024-12-16T11:48:59.215Z</time>
</trkpt>
<trkpt lat="31.0729300" lon="35.3330500">
<ele>-168.899994</ele>
<time>2024-12-16T11:48:59.215Z</time>
</trkpt>
<trkpt lat="31.0729900" lon="35.3332100">
<ele>-171.089996</ele>
<time>2024-12-16T11:48:59.215Z</time>
</trkpt>
<trkpt lat="31.0731000" lon="35.3333700">
<ele>-172.750000</ele>
<time>2024-12-16T11:48:59.215Z</time>
</trkpt>
<trkpt lat="31.0732500" lon="35.3336500">
<ele>-172.339996</ele>
<time>2024-12-16T11:48:59.215Z</time>
</trkpt>
<trkpt lat="31.0732500" lon="35.3337400">
<ele>-171.489990</ele>
<time>2024-12-16T11:48:59.215Z</time>
</trkpt>
<trkpt lat="31.0732200" lon="35.3338100">
<ele>-170.580002</ele>
<time>2024-12-16T11:48:59.215Z</time>
</trkpt>
<trkpt lat="31.0730800" lon="35.3339400">
<ele>-167.179993</ele>
<time>2024-12-16T11:48:59.215Z</time>
</trkpt>
<trkpt lat="31.0727100" lon="35.3342400">
<ele>-159.119995</ele>
<time>2024-12-16T11:48:59.215Z</time>
</trkpt>
<trkpt lat="31.0725900" lon="35.3343600">
<ele>-156.370010</ele>
<time>2024-12-16T11:48:59.215Z</time>
</trkpt>
<trkpt lat="31.0724300" lon="35.3345700">
<ele>-154.699997</ele>
<time>2024-12-16T11:48:59.215Z</time>
</trkpt>
<trkpt lat="31.0720900" lon="35.3349300">
<ele>-157.050003</ele>
<time>2024-12-16T11:48:59.215Z</time>
</trkpt>
<trkpt lat="31.0719100" lon="35.3350500">
<ele>-159.330002</ele>
<time>2024-12-16T11:48:59.215Z</time>
</trkpt>
<trkpt lat="31.0718000" lon="35.3351200">
<ele>-159.889999</ele>
<time>2024-12-16T11:48:59.215Z</time>
</trkpt>
<trkpt lat="31.0715900" lon="35.3351900">
<ele>-162.040009</ele>
<time>2024-12-16T11:48:59.215Z</time>
</trkpt>
<trkpt lat="31.0715300" lon="35.3351900">
<ele>-162.690002</ele>
<time>2024-12-16T11:48:59.215Z</time>
</trkpt>
<trkpt lat="31.0713900" lon="35.3351700">
<ele>-164.699997</ele>
<time>2024-12-16T11:48:59.215Z</time>
</trkpt>
<trkpt lat="31.0711200" lon="35.3350800">
<ele>-167.260010</ele>
<time>2024-12-16T11:48:59.215Z</time>
</trkpt>
<trkpt lat="31.0711100" lon="35.3351300">
<ele>-166.199997</ele>
<time>2024-12-16T11:48:59.215Z</time>
</trkpt>
<trkpt lat="31.0711200" lon="35.3350800">
<ele>-167.260010</ele>
<time>2024-12-16T11:48:59.215Z</time>
</trkpt>
<trkpt lat="31.0710700" lon="35.3350600">
<ele>-168.029999</ele>
<time>2024-12-16T11:48:59.215Z</time>
</trkpt>
<trkpt lat="31.0709800" lon="35.3350400">
<ele>-169.149994</ele>
<time>2024-12-16T11:48:59.215Z</time>
</trkpt>
<trkpt lat="31.0708900" lon="35.3350600">
<ele>-169.470016</ele>
<time>2024-12-16T11:48:59.215Z</time>
</trkpt>
<trkpt lat="31.0707300" lon="35.3351300">
<ele>-169.210007</ele>
<time>2024-12-16T11:48:59.215Z</time>
</trkpt>
<trkpt lat="31.0706300" lon="35.3352100">
<ele>-168.509995</ele>
<time>2024-12-16T11:48:59.215Z</time>
</trkpt>
<trkpt lat="31.0705500" lon="35.3353500">
<ele>-167.229996</ele>
<time>2024-12-16T11:48:59.215Z</time>
</trkpt>
<trkpt lat="31.0705200" lon="35.3354500">
<ele>-166.220001</ele>
<time>2024-12-16T11:48:59.215Z</time>
</trkpt>
<trkpt lat="31.0704500" lon="35.3358700">
<ele>-163.040009</ele>
<time>2024-12-16T11:48:59.215Z</time>
</trkpt>
<trkpt lat="31.0704200" lon="35.3359500">
<ele>-163.049988</ele>
<time>2024-12-16T11:48:59.215Z</time>
</trkpt>
<trkpt lat="31.0701600" lon="35.3363100">
<ele>-166.259995</ele>
<time>2024-12-16T11:48:59.215Z</time>
</trkpt>
<trkpt lat="31.0700800" lon="35.3364700">
<ele>-168.610001</ele>
<time>2024-12-16T11:48:59.215Z</time>
</trkpt>
<trkpt lat="31.0700600" lon="35.3365500">
<ele>-169.210007</ele>
<time>2024-12-16T11:48:59.215Z</time>
</trkpt>
<trkpt lat="31.0700800" lon="35.3366200">
<ele>-169.230011</ele>
<time>2024-12-16T11:48:59.215Z</time>
</trkpt>
<trkpt lat="31.0701400" lon="35.3366800">
<ele>-169.040009</ele>
<time>2024-12-16T11:48:59.215Z</time>
</trkpt>
<trkpt lat="31.0702300" lon="35.3366900">
<ele>-168.480011</ele>
<time>2024-12-16T11:48:59.215Z</time>
</trkpt>
<trkpt lat="31.0704500" lon="35.3366400">
<ele>-165.879990</ele>
<time>2024-12-16T11:48:59.215Z</time>
</trkpt>
<trkpt lat="31.0705000" lon="35.3366500">
<ele>-165.460007</ele>
<time>2024-12-16T11:48:59.215Z</time>
</trkpt>
<trkpt lat="31.0705500" lon="35.3366900">
<ele>-165.720001</ele>
<time>2024-12-16T11:48:59.215Z</time>
</trkpt>
<trkpt lat="31.0705800" lon="35.3367700">
<ele>-167.900009</ele>
<time>2024-12-16T11:48:59.215Z</time>
</trkpt>
<trkpt lat="31.0705600" lon="35.3368500">
<ele>-170.279999</ele>
<time>2024-12-16T11:48:59.215Z</time>
</trkpt>
<trkpt lat="31.0705200" lon="35.3369100">
<ele>-171.719986</ele>
<time>2024-12-16T11:48:59.215Z</time>
</trkpt>
<trkpt lat="31.0702400" lon="35.3372000">
<ele>-174.350006</ele>
<time>2024-12-16T11:48:59.215Z</time>
</trkpt>
<trkpt lat="31.0701200" lon="35.3373000">
<ele>-175.740005</ele>
<time>2024-12-16T11:48:59.215Z</time>
</trkpt>
<trkpt lat="31.0693700" lon="35.3377900">
<ele>-182.590012</ele>
<time>2024-12-16T11:48:59.215Z</time>
</trkpt>
<trkpt lat="31.0691200" lon="35.3379300">
<ele>-184.360001</ele>
<time>2024-12-16T11:48:59.215Z</time>
</trkpt>
<trkpt lat="31.0685800" lon="35.3381700">
<ele>-191.270004</ele>
<time>2024-12-16T11:48:59.215Z</time>
</trkpt>
<trkpt lat="31.0683200" lon="35.3382500">
<ele>-195.509995</ele>
<time>2024-12-16T11:48:59.215Z</time>
</trkpt>
<trkpt lat="31.0681900" lon="35.3383000">
<ele>-196.849991</ele>
<time>2024-12-16T11:48:59.215Z</time>
</trkpt>
<trkpt lat="31.0681200" lon="35.3383400">
<ele>-197.669998</ele>
<time>2024-12-16T11:48:59.215Z</time>
</trkpt>
<trkpt lat="31.0681200" lon="35.3383400">
<ele>-197.669998</ele>
<time>2024-12-16T11:48:59.215Z</time>
</trkpt>
<trkpt lat="31.0680900" lon="35.3383800">
<ele>-198.800003</ele>
<time>2024-12-16T11:48:59.215Z</time>
</trkpt>
<trkpt lat="31.0681000" lon="35.3384100">
<ele>-199.350006</ele>
<time>2024-12-16T11:48:59.215Z</time>
</trkpt>
<trkpt lat="31.0681700" lon="35.3384800">
<ele>-199.569992</ele>
<time>2024-12-16T11:48:59.215Z</time>
</trkpt>
<trkpt lat="31.0686400" lon="35.3387900">
<ele>-202.399994</ele>
<time>2024-12-16T11:48:59.215Z</time>
</trkpt>
<trkpt lat="31.0689300" lon="35.3389000">
<ele>-210.389999</ele>
<time>2024-12-16T11:48:59.215Z</time>
</trkpt>
<trkpt lat="31.0691700" lon="35.3389300">
<ele>-216.539993</ele>
<time>2024-12-16T11:48:59.215Z</time>
</trkpt>
<trkpt lat="31.0693500" lon="35.3388900">
<ele>-218.339996</ele>
<time>2024-12-16T11:48:59.215Z</time>
</trkpt>
<trkpt lat="31.0698200" lon="35.3387100">
<ele>-229.250000</ele>
<time>2024-12-16T11:48:59.215Z</time>
</trkpt>
<trkpt lat="31.0701900" lon="35.3385100">
<ele>-226.699997</ele>
<time>2024-12-16T11:48:59.215Z</time>
</trkpt>
<trkpt lat="31.0703800" lon="35.3384100">
<ele>-226.660004</ele>
<time>2024-12-16T11:48:59.215Z</time>
</trkpt>
<trkpt lat="31.0706200" lon="35.3383800">
<ele>-228.959991</ele>
<time>2024-12-16T11:48:59.215Z</time>
</trkpt>
<trkpt lat="31.0710000" lon="35.3382100">
<ele>-231.269989</ele>
<time>2024-12-16T11:48:59.215Z</time>
</trkpt>
<trkpt lat="31.0711600" lon="35.3381700">
<ele>-231.059998</ele>
<time>2024-12-16T11:48:59.215Z</time>
</trkpt>
<trkpt lat="31.0714400" lon="35.3382000">
<ele>-227.470001</ele>
<time>2024-12-16T11:48:59.215Z</time>
</trkpt>
<trkpt lat="31.0715400" lon="35.3382500">
<ele>-227.190002</ele>
<time>2024-12-16T11:48:59.215Z</time>
</trkpt>
<trkpt lat="31.0716800" lon="35.3382900">
<ele>-226.069992</ele>
<time>2024-12-16T11:48:59.215Z</time>
</trkpt>
<trkpt lat="31.0718400" lon="35.3383900">
<ele>-225.539993</ele>
<time>2024-12-16T11:48:59.215Z</time>
</trkpt>
<trkpt lat="31.0723700" lon="35.3386300">
<ele>-226.330002</ele>
<time>2024-12-16T11:48:59.215Z</time>
</trkpt>
<trkpt lat="31.0725300" lon="35.3387400">
<ele>-228.439987</ele>
<time>2024-12-16T11:48:59.215Z</time>
</trkpt>
<trkpt lat="31.0725500" lon="35.3387800">
<ele>-228.930008</ele>
<time>2024-12-16T11:48:59.215Z</time>
</trkpt>
<trkpt lat="31.0726700" lon="35.3389400">
<ele>-231.130005</ele>
<time>2024-12-16T11:48:59.215Z</time>
</trkpt>
<trkpt lat="31.0727100" lon="35.3390500">
<ele>-232.650009</ele>
<time>2024-12-16T11:48:59.215Z</time>
</trkpt>
<trkpt lat="31.0727300" lon="35.3391700">
<ele>-234.349991</ele>
<time>2024-12-16T11:48:59.215Z</time>
</trkpt>
<trkpt lat="31.0727200" lon="35.3393000">
<ele>-235.609985</ele>
<time>2024-12-16T11:48:59.215Z</time>
</trkpt>
<trkpt lat="31.0726800" lon="35.3394200">
<ele>-236.330002</ele>
<time>2024-12-16T11:48:59.215Z</time>
</trkpt>
<trkpt lat="31.0725800" lon="35.3395400">
<ele>-235.600006</ele>
<time>2024-12-16T11:48:59.215Z</time>
</trkpt>
<trkpt lat="31.0724900" lon="35.3396000">
<ele>-234.560013</ele>
<time>2024-12-16T11:48:59.215Z</time>
</trkpt>
<trkpt lat="31.0724100" lon="35.3396800">
<ele>-234.850006</ele>
<time>2024-12-16T11:48:59.215Z</time>
</trkpt>
<trkpt lat="31.0721000" lon="35.3399100">
<ele>-235.200012</ele>
<time>2024-12-16T11:48:59.215Z</time>
</trkpt>
<trkpt lat="31.0718600" lon="35.3401200">
<ele>-236.559998</ele>
<time>2024-12-16T11:48:59.215Z</time>
</trkpt>
<trkpt lat="31.0718300" lon="35.3402100">
<ele>-237.069992</ele>
<time>2024-12-16T11:48:59.215Z</time>
</trkpt>
<trkpt lat="31.0718600" lon="35.3403100">
<ele>-237.570007</ele>
<time>2024-12-16T11:48:59.215Z</time>
</trkpt>
<trkpt lat="31.0719300" lon="35.3403300">
<ele>-237.440002</ele>
<time>2024-12-16T11:48:59.215Z</time>
</trkpt>
<trkpt lat="31.0720300" lon="35.3403400">
<ele>-235.880005</ele>
<time>2024-12-16T11:48:59.215Z</time>
</trkpt>
<trkpt lat="31.0723300" lon="35.3402200">
<ele>-233.779999</ele>
<time>2024-12-16T11:48:59.215Z</time>
</trkpt>
<trkpt lat="31.0729300" lon="35.3400700">
<ele>-240.839996</ele>
<time>2024-12-16T11:48:59.215Z</time>
</trkpt>
<trkpt lat="31.0730700" lon="35.3400800">
<ele>-241.669998</ele>
<time>2024-12-16T11:48:59.215Z</time>
</trkpt>
<trkpt lat="31.0732700" lon="35.3401700">
<ele>-241.089996</ele>
<time>2024-12-16T11:48:59.215Z</time>
</trkpt>
<trkpt lat="31.0733500" lon="35.3401700">
<ele>-241.339996</ele>
<time>2024-12-16T11:48:59.215Z</time>
</trkpt>
<trkpt lat="31.0734500" lon="35.3401400">
<ele>-243.309998</ele>
<time>2024-12-16T11:48:59.215Z</time>
</trkpt>
<trkpt lat="31.0735100" lon="35.3401000">
<ele>-244.409988</ele>
<time>2024-12-16T11:48:59.215Z</time>
</trkpt>
<trkpt lat="31.0737700" lon="35.3398700">
<ele>-246.480011</ele>
<time>2024-12-16T11:48:59.215Z</time>
</trkpt>
<trkpt lat="31.0739000" lon="35.3398100">
<ele>-247.230011</ele>
<time>2024-12-16T11:48:59.215Z</time>
</trkpt>
<trkpt lat="31.0741800" lon="35.3396200">
<ele>-244.210007</ele>
<time>2024-12-16T11:48:59.215Z</time>
</trkpt>
<trkpt lat="31.0743300" lon="35.3395000">
<ele>-242.569992</ele>
<time>2024-12-16T11:48:59.215Z</time>
</trkpt>
<trkpt lat="31.0744600" lon="35.3394200">
<ele>-241.360001</ele>
<time>2024-12-16T11:48:59.215Z</time>
</trkpt>
<trkpt lat="31.0745400" lon="35.3393400">
<ele>-243.509995</ele>
<time>2024-12-16T11:48:59.215Z</time>
</trkpt>
<trkpt lat="31.0746800" lon="35.3393000">
<ele>-247.700012</ele>
<time>2024-12-16T11:48:59.215Z</time>
</trkpt>
<trkpt lat="31.0747500" lon="35.3393300">
<ele>-248.680008</ele>
<time>2024-12-16T11:48:59.215Z</time>
</trkpt>
<trkpt lat="31.0747900" lon="35.3393900">
<ele>-248.119995</ele>
<time>2024-12-16T11:48:59.215Z</time>
</trkpt>
<trkpt lat="31.0748400" lon="35.3396300">
<ele>-244.429993</ele>
<time>2024-12-16T11:48:59.215Z</time>
</trkpt>
<trkpt lat="31.0748500" lon="35.3398700">
<ele>-240.340012</ele>
<time>2024-12-16T11:48:59.215Z</time>
</trkpt>
<trkpt lat="31.0747600" lon="35.3400900">
<ele>-239.440002</ele>
<time>2024-12-16T11:48:59.215Z</time>
</trkpt>
<trkpt lat="31.0747100" lon="35.3403100">
<ele>-243.659988</ele>
<time>2024-12-16T11:48:59.215Z</time>
</trkpt>
<trkpt lat="31.0746800" lon="35.3404100">
<ele>-245.490005</ele>
<time>2024-12-16T11:48:59.215Z</time>
</trkpt>
<trkpt lat="31.0745600" lon="35.3405700">
<ele>-250.059998</ele>
<time>2024-12-16T11:48:59.215Z</time>
</trkpt>
<trkpt lat="31.0744900" lon="35.3406400">
<ele>-251.599991</ele>
<time>2024-12-16T11:48:59.215Z</time>
</trkpt>
<trkpt lat="31.0742200" lon="35.3407600">
<ele>-254.690002</ele>
<time>2024-12-16T11:48:59.215Z</time>
</trkpt>
<trkpt lat="31.0739100" lon="35.3409400">
<ele>-252.869995</ele>
<time>2024-12-16T11:48:59.215Z</time>
</trkpt>
<trkpt lat="31.0735700" lon="35.3412400">
<ele>-252.529999</ele>
<time>2024-12-16T11:48:59.215Z</time>
</trkpt>
<trkpt lat="31.0735400" lon="35.3413500">
<ele>-254.019989</ele>
<time>2024-12-16T11:48:59.215Z</time>
</trkpt>
<trkpt lat="31.0735400" lon="35.3415300">
<ele>-255.790009</ele>
<time>2024-12-16T11:48:59.215Z</time>
</trkpt>
<trkpt lat="31.0735300" lon="35.3415900">
<ele>-256.450012</ele>
<time>2024-12-16T11:48:59.215Z</time>
</trkpt>
<trkpt lat="31.0735200" lon="35.3417000">
<ele>-257.630005</ele>
<time>2024-12-16T11:48:59.215Z</time>
</trkpt>
<trkpt lat="31.0734700" lon="35.3418700">
<ele>-259.860016</ele>
<time>2024-12-16T11:48:59.215Z</time>
</trkpt>
<trkpt lat="31.0734400" lon="35.3419600">
<ele>-260.970001</ele>
<time>2024-12-16T11:48:59.215Z</time>
</trkpt>
<trkpt lat="31.0733400" lon="35.3422000">
<ele>-264.639984</ele>
<time>2024-12-16T11:48:59.215Z</time>
</trkpt>
<trkpt lat="31.0732800" lon="35.3424400">
<ele>-265.339996</ele>
<time>2024-12-16T11:48:59.215Z</time>
</trkpt>
<trkpt lat="31.0732100" lon="35.3425800">
<ele>-265.729980</ele>
<time>2024-12-16T11:48:59.215Z</time>
</trkpt>
<trkpt lat="31.0725400" lon="35.3437700">
<ele>-261.399994</ele>
<time>2024-12-16T11:48:59.215Z</time>
</trkpt>
<trkpt lat="31.0724600" lon="35.3438800">
<ele>-261.200012</ele>
<time>2024-12-16T11:48:59.215Z</time>
</trkpt>
<trkpt lat="31.0722000" lon="35.3441600">
<ele>-260.950012</ele>
<time>2024-12-16T11:48:59.215Z</time>
</trkpt>
<trkpt lat="31.0719300" lon="35.3443900">
<ele>-258.500000</ele>
<time>2024-12-16T11:48:59.215Z</time>
</trkpt>
<trkpt lat="31.0718600" lon="35.3445100">
<ele>-258.750000</ele>
<time>2024-12-16T11:48:59.215Z</time>
</trkpt>
<trkpt lat="31.0717200" lon="35.3448800">
<ele>-261.910004</ele>
<time>2024-12-16T11:48:59.215Z</time>
</trkpt>
<trkpt lat="31.0716100" lon="35.3452600">
<ele>-264.959991</ele>
<time>2024-12-16T11:48:59.215Z</time>
</trkpt>
<trkpt lat="31.0715900" lon="35.3453800">
<ele>-265.380005</ele>
<time>2024-12-16T11:48:59.215Z</time>
</trkpt>
<trkpt lat="31.0715900" lon="35.3454200">
<ele>-265.380005</ele>
<time>2024-12-16T11:48:59.215Z</time>
</trkpt>
<trkpt lat="31.0715900" lon="35.3458400">
<ele>-264.829987</ele>
<time>2024-12-16T11:48:59.215Z</time>
</trkpt>
<trkpt lat="31.0715700" lon="35.3462100">
<ele>-265.040009</ele>
<time>2024-12-16T11:48:59.215Z</time>
</trkpt>
<trkpt lat="31.0715300" lon="35.3464700">
<ele>-264.890015</ele>
<time>2024-12-16T11:48:59.215Z</time>
</trkpt>
<trkpt lat="31.0713600" lon="35.3472300">
<ele>-260.279999</ele>
<time>2024-12-16T11:48:59.215Z</time>
</trkpt>
<trkpt lat="31.0713500" lon="35.3474400">
<ele>-259.529999</ele>
<time>2024-12-16T11:48:59.215Z</time>
</trkpt>
<trkpt lat="31.0713500" lon="35.3476200">
<ele>-258.790009</ele>
<time>2024-12-16T11:48:59.215Z</time>
</trkpt>
<trkpt lat="31.0714000" lon="35.3479800">
<ele>-257.299988</ele>
<time>2024-12-16T11:48:59.215Z</time>
</trkpt>
<trkpt lat="31.0715200" lon="35.3487300">
<ele>-257.750000</ele>
<time>2024-12-16T11:48:59.215Z</time>
</trkpt>
<trkpt lat="31.0715600" lon="35.3489900">
<ele>-258.080017</ele>
<time>2024-12-16T11:48:59.215Z</time>
</trkpt>
<trkpt lat="31.0715900" lon="35.3493500">
<ele>-259.500000</ele>
<time>2024-12-16T11:48:59.215Z</time>
</trkpt>
<trkpt lat="31.0715900" lon="35.3496400">
<ele>-261.299988</ele>
<time>2024-12-16T11:48:59.215Z</time>
</trkpt>
<trkpt lat="31.0715600" lon="35.3499200">
<ele>-262.010010</ele>
<time>2024-12-16T11:48:59.215Z</time>
</trkpt>
<trkpt lat="31.0715000" lon="35.3501500">
<ele>-262.450012</ele>
<time>2024-12-16T11:48:59.215Z</time>
</trkpt>
<trkpt lat="31.0711300" lon="35.3513400">
<ele>-263.959991</ele>
<time>2024-12-16T11:48:59.215Z</time>
</trkpt>
<trkpt lat="31.0708600" lon="35.3521200">
<ele>-265.820007</ele>
<time>2024-12-16T11:48:59.215Z</time>
</trkpt>
<trkpt lat="31.0706300" lon="35.3527100">
<ele>-265.179993</ele>
<time>2024-12-16T11:48:59.215Z</time>
</trkpt>
<trkpt lat="31.0705800" lon="35.3528900">
<ele>-264.809998</ele>
<time>2024-12-16T11:48:59.215Z</time>
</trkpt>
<trkpt lat="31.0705500" lon="35.3530800">
<ele>-263.959991</ele>
<time>2024-12-16T11:48:59.215Z</time>
</trkpt>
<trkpt lat="31.0705400" lon="35.3531400">
<ele>-263.839996</ele>
<time>2024-12-16T11:48:59.215Z</time>
</trkpt>
<trkpt lat="31.0709800" lon="35.3533100">
<ele>-267.580017</ele>
<time>2024-12-16T11:48:59.215Z</time>
</trkpt>
<trkpt lat="31.0710800" lon="35.3533200">
<ele>-268.630005</ele>
<time>2024-12-16T11:48:59.215Z</time>
</trkpt>
<trkpt lat="31.0710800" lon="35.3533400">
<ele>-268.670013</ele>
<time>2024-12-16T11:48:59.215Z</time>
</trkpt>
<trkpt lat="31.0710800" lon="35.3533200">
<ele>-268.630005</ele>
<time>2024-12-16T11:48:59.215Z</time>
</trkpt>
<trkpt lat="31.0712500" lon="35.3533300">
<ele>-268.480011</ele>
<time>2024-12-16T11:48:59.215Z</time>
</trkpt>
<trkpt lat="31.0715700" lon="35.3533900">
<ele>-267.070007</ele>
<time>2024-12-16T11:48:59.215Z</time>
</trkpt>
<trkpt lat="31.0717700" lon="35.3533900">
<ele>-266.130005</ele>
<time>2024-12-16T11:48:59.215Z</time>
</trkpt>
<trkpt lat="31.0719900" lon="35.3533500">
<ele>-264.850006</ele>
<time>2024-12-16T11:48:59.215Z</time>
</trkpt>
<trkpt lat="31.0723000" lon="35.3532400">
<ele>-263.200012</ele>
<time>2024-12-16T11:48:59.215Z</time>
</trkpt>
<trkpt lat="31.0724700" lon="35.3531600">
<ele>-262.149994</ele>
<time>2024-12-16T11:48:59.215Z</time>
</trkpt>
<trkpt lat="31.0725200" lon="35.3531500">
<ele>-261.980011</ele>
<time>2024-12-16T11:48:59.215Z</time>
</trkpt>
<trkpt lat="31.0729100" lon="35.3529800">
<ele>-261.720001</ele>
<time>2024-12-16T11:48:59.215Z</time>
</trkpt>
<trkpt lat="31.0732900" lon="35.3528700">
<ele>-261.440002</ele>
<time>2024-12-16T11:48:59.215Z</time>
</trkpt>
<trkpt lat="31.0734900" lon="35.3527900">
<ele>-261.940002</ele>
<time>2024-12-16T11:48:59.215Z</time>
</trkpt>
<trkpt lat="31.0737200" lon="35.3527400">
<ele>-262.029999</ele>
<time>2024-12-16T11:48:59.215Z</time>
</trkpt>
<trkpt lat="31.0739900" lon="35.3526500">
<ele>-261.899994</ele>
<time>2024-12-16T11:48:59.215Z</time>
</trkpt>
<trkpt lat="31.0741800" lon="35.3525700">
<ele>-262.190002</ele>
<time>2024-12-16T11:48:59.215Z</time>
</trkpt>
<trkpt lat="31.0746500" lon="35.3523600">
<ele>-260.390015</ele>
<time>2024-12-16T11:48:59.215Z</time>
</trkpt>
<trkpt lat="31.0747000" lon="35.3523600">
<ele>-260.119995</ele>
<time>2024-12-16T11:48:59.215Z</time>
</trkpt>
<trkpt lat="31.0750400" lon="35.3522100">
<ele>-262.300018</ele>
<time>2024-12-16T11:48:59.215Z</time>
</trkpt>
<trkpt lat="31.0750900" lon="35.3522000">
<ele>-262.570007</ele>
<time>2024-12-16T11:48:59.215Z</time>
</trkpt>
<trkpt lat="31.0752100" lon="35.3521500">
<ele>-263.209991</ele>
<time>2024-12-16T11:48:59.215Z</time>
</trkpt>
<trkpt lat="31.0753800" lon="35.3521000">
<ele>-262.700012</ele>
<time>2024-12-16T11:48:59.215Z</time>
</trkpt>
<trkpt lat="31.0756300" lon="35.3519800">
<ele>-262.440002</ele>
<time>2024-12-16T11:48:59.215Z</time>
</trkpt>
<trkpt lat="31.0757200" lon="35.3519500">
<ele>-263.179993</ele>
<time>2024-12-16T11:48:59.215Z</time>
</trkpt>
<trkpt lat="31.0762000" lon="35.3519500">
<ele>-263.369995</ele>
<time>2024-12-16T11:48:59.215Z</time>
</trkpt>
<trkpt lat="31.0765700" lon="35.3518900">
<ele>-262.500000</ele>
<time>2024-12-16T11:48:59.215Z</time>
</trkpt>
<trkpt lat="31.0769500" lon="35.3518600">
<ele>-259.700012</ele>
<time>2024-12-16T11:48:59.215Z</time>
</trkpt>
<trkpt lat="31.0770200" lon="35.3518400">
<ele>-259.619995</ele>
<time>2024-12-16T11:48:59.215Z</time>
</trkpt>
<trkpt lat="31.0771900" lon="35.3518400">
<ele>-259.619995</ele>
<time>2024-12-16T11:48:59.215Z</time>
</trkpt>
<trkpt lat="31.0771900" lon="35.3518800">
<ele>-259.770020</ele>
<time>2024-12-16T11:48:59.215Z</time>
</trkpt>
<trkpt lat="31.0771900" lon="35.3518400">
<ele>-259.619995</ele>
<time>2024-12-16T11:48:59.215Z</time>
</trkpt>
<trkpt lat="31.0772100" lon="35.3518400">
<ele>-259.619995</ele>
<time>2024-12-16T11:48:59.215Z</time>
</trkpt>
<trkpt lat="31.0777600" lon="35.3517700">
<ele>-261.480011</ele>
<time>2024-12-16T11:48:59.215Z</time>
</trkpt>
<trkpt lat="31.0780900" lon="35.3516900">
<ele>-262.920013</ele>
<time>2024-12-16T11:48:59.215Z</time>
</trkpt>
<trkpt lat="31.0782600" lon="35.3516800">
<ele>-262.949982</ele>
<time>2024-12-16T11:48:59.215Z</time>
</trkpt>
<trkpt lat="31.0783300" lon="35.3516700">
<ele>-262.989990</ele>
<time>2024-12-16T11:48:59.215Z</time>
</trkpt>
<trkpt lat="31.0788400" lon="35.3515800">
<ele>-259.609985</ele>
<time>2024-12-16T11:48:59.215Z</time>
</trkpt>
<trkpt lat="31.0791600" lon="35.3515300">
<ele>-261.459991</ele>
<time>2024-12-16T11:48:59.215Z</time>
</trkpt>
<trkpt lat="31.0793200" lon="35.3514900">
<ele>-261.440002</ele>
<time>2024-12-16T11:48:59.215Z</time>
</trkpt>
<trkpt lat="31.0793700" lon="35.3514600">
<ele>-261.559998</ele>
<time>2024-12-16T11:48:59.215Z</time>
</trkpt>
<trkpt lat="31.0799100" lon="35.3511900">
<ele>-265.760010</ele>
<time>2024-12-16T11:48:59.215Z</time>
</trkpt>
<trkpt lat="31.0800400" lon="35.3511100">
<ele>-265.869995</ele>
<time>2024-12-16T11:48:59.215Z</time>
</trkpt>
<trkpt lat="31.0801500" lon="35.3510500">
<ele>-268.339996</ele>
<time>2024-12-16T11:48:59.215Z</time>
</trkpt>
<trkpt lat="31.0802100" lon="35.3510300">
<ele>-269.609985</ele>
<time>2024-12-16T11:48:59.215Z</time>
</trkpt>
<trkpt lat="31.0803500" lon="35.3510000">
<ele>-272.140015</ele>
<time>2024-12-16T11:48:59.215Z</time>
</trkpt>
<trkpt lat="31.0806700" lon="35.3511600">
<ele>-275.470001</ele>
<time>2024-12-16T11:48:59.215Z</time>
</trkpt>
<trkpt lat="31.0807900" lon="35.3512200">
<ele>-275.899994</ele>
<time>2024-12-16T11:48:59.215Z</time>
</trkpt>
<trkpt lat="31.0809300" lon="35.3512400">
<ele>-274.649994</ele>
<time>2024-12-16T11:48:59.215Z</time>
</trkpt>
<trkpt lat="31.0809800" lon="35.3512700">
<ele>-273.820007</ele>
<time>2024-12-16T11:48:59.215Z</time>
</trkpt>
<trkpt lat="31.0810900" lon="35.3514100">
<ele>-272.230011</ele>
<time>2024-12-16T11:48:59.215Z</time>
</trkpt>
<trkpt lat="31.0811800" lon="35.3515900">
<ele>-272.179993</ele>
<time>2024-12-16T11:48:59.215Z</time>
</trkpt>
<trkpt lat="31.0812700" lon="35.3517200">
<ele>-272.929993</ele>
<time>2024-12-16T11:48:59.215Z</time>
</trkpt>
<trkpt lat="31.0814400" lon="35.3518800">
<ele>-274.289978</ele>
<time>2024-12-16T11:48:59.215Z</time>
</trkpt>
<trkpt lat="31.0816000" lon="35.3520000">
<ele>-277.240021</ele>
<time>2024-12-16T11:48:59.215Z</time>
</trkpt>
<trkpt lat="31.0816400" lon="35.3520400">
<ele>-277.959991</ele>
<time>2024-12-16T11:48:59.215Z</time>
</trkpt>
<trkpt lat="31.0817200" lon="35.3521300">
<ele>-279.570007</ele>
<time>2024-12-16T11:48:59.215Z</time>
</trkpt>
<trkpt lat="31.0818000" lon="35.3521600">
<ele>-281.230011</ele>
<time>2024-12-16T11:48:59.215Z</time>
</trkpt>
<trkpt lat="31.0819200" lon="35.3520800">
<ele>-282.089996</ele>
<time>2024-12-16T11:48:59.215Z</time>
</trkpt>
<trkpt lat="31.0819600" lon="35.3520800">
<ele>-282.470001</ele>
<time>2024-12-16T11:48:59.215Z</time>
</trkpt>
<trkpt lat="31.0820000" lon="35.3521200">
<ele>-283.179993</ele>
<time>2024-12-16T11:48:59.215Z</time>
</trkpt>
<trkpt lat="31.0821200" lon="35.3524200">
<ele>-285.720001</ele>
<time>2024-12-16T11:48:59.215Z</time>
</trkpt>
<trkpt lat="31.0821400" lon="35.3524500">
<ele>-286.029999</ele>
<time>2024-12-16T11:48:59.215Z</time>
</trkpt>
<trkpt lat="31.0822800" lon="35.3525100">
<ele>-286.100006</ele>
<time>2024-12-16T11:48:59.215Z</time>
</trkpt>
<trkpt lat="31.0823300" lon="35.3526000">
<ele>-284.730011</ele>
<time>2024-12-16T11:48:59.215Z</time>
</trkpt>
<trkpt lat="31.0824100" lon="35.3527900">
<ele>-282.220001</ele>
<time>2024-12-16T11:48:59.215Z</time>
</trkpt>
<trkpt lat="31.0824600" lon="35.3528700">
<ele>-281.339996</ele>
<time>2024-12-16T11:48:59.215Z</time>
</trkpt>
<trkpt lat="31.0826200" lon="35.3529800">
<ele>-279.470001</ele>
<time>2024-12-16T11:48:59.215Z</time>
</trkpt>
<trkpt lat="31.0827000" lon="35.3531600">
<ele>-279.279999</ele>
<time>2024-12-16T11:48:59.215Z</time>
</trkpt>
<trkpt lat="31.0826200" lon="35.3532600">
<ele>-279.919983</ele>
<time>2024-12-16T11:48:59.215Z</time>
</trkpt>
<trkpt lat="31.0827000" lon="35.3533100">
<ele>-279.899994</ele>
<time>2024-12-16T11:48:59.215Z</time>
</trkpt>
<trkpt lat="31.0827800" lon="35.3532800">
<ele>-279.600006</ele>
<time>2024-12-16T11:48:59.215Z</time>
</trkpt>
<trkpt lat="31.0828600" lon="35.3533300">
<ele>-279.380005</ele>
<time>2024-12-16T11:48:59.215Z</time>
</trkpt>
<trkpt lat="31.0827700" lon="35.3534800">
<ele>-281.000000</ele>
<time>2024-12-16T11:48:59.215Z</time>
</trkpt>
<trkpt lat="31.0828100" lon="35.3535400">
<ele>-281.429993</ele>
<time>2024-12-16T11:48:59.215Z</time>
</trkpt>
<trkpt lat="31.0828800" lon="35.3536100">
<ele>-281.990021</ele>
<time>2024-12-16T11:48:59.215Z</time>
</trkpt>
<trkpt lat="31.0829400" lon="35.3535100">
<ele>-280.850006</ele>
<time>2024-12-16T11:48:59.215Z</time>
</trkpt>
<trkpt lat="31.0830100" lon="35.3535200">
<ele>-280.799988</ele>
<time>2024-12-16T11:48:59.215Z</time>
</trkpt>
<trkpt lat="31.0829900" lon="35.3536300">
<ele>-282.140015</ele>
<time>2024-12-16T11:48:59.215Z</time>
</trkpt>
<trkpt lat="31.0830000" lon="35.3537600">
<ele>-283.179993</ele>
<time>2024-12-16T11:48:59.215Z</time>
</trkpt>
<trkpt lat="31.0830700" lon="35.3538200">
<ele>-284.110016</ele>
<time>2024-12-16T11:48:59.215Z</time>
</trkpt>
<trkpt lat="31.0832000" lon="35.3539700">
<ele>-283.020020</ele>
<time>2024-12-16T11:48:59.215Z</time>
</trkpt>
<trkpt lat="31.0833700" lon="35.3541000">
<ele>-282.140015</ele>
<time>2024-12-16T11:48:59.215Z</time>
</trkpt>
<trkpt lat="31.0834600" lon="35.3542400">
<ele>-282.989990</ele>
<time>2024-12-16T11:48:59.215Z</time>
</trkpt>
<trkpt lat="31.0836000" lon="35.3543600">
<ele>-285.869995</ele>
<time>2024-12-16T11:48:59.215Z</time>
</trkpt>
<trkpt lat="31.0838600" lon="35.3546600">
<ele>-288.850006</ele>
<time>2024-12-16T11:48:59.215Z</time>
</trkpt>
<trkpt lat="31.0838900" lon="35.3547700">
<ele>-290.140015</ele>
<time>2024-12-16T11:48:59.215Z</time>
</trkpt>
<trkpt lat="31.0838800" lon="35.3549600">
<ele>-290.769989</ele>
<time>2024-12-16T11:48:59.215Z</time>
</trkpt>
<trkpt lat="31.0839000" lon="35.3550900">
<ele>-288.580017</ele>
<time>2024-12-16T11:48:59.215Z</time>
</trkpt>
<trkpt lat="31.0839700" lon="35.3553200">
<ele>-284.290009</ele>
<time>2024-12-16T11:48:59.215Z</time>
</trkpt>
<trkpt lat="31.0840300" lon="35.3554000">
<ele>-284.220001</ele>
<time>2024-12-16T11:48:59.215Z</time>
</trkpt>
<trkpt lat="31.0841400" lon="35.3554900">
<ele>-285.649994</ele>
<time>2024-12-16T11:48:59.215Z</time>
</trkpt>
<trkpt lat="31.0844000" lon="35.3556400">
<ele>-290.550018</ele>
<time>2024-12-16T11:48:59.215Z</time>
</trkpt>
<trkpt lat="31.0847000" lon="35.3559600">
<ele>-289.660004</ele>
<time>2024-12-16T11:48:59.215Z</time>
</trkpt>
<trkpt lat="31.0847000" lon="35.3559600">
<ele>-289.660004</ele>
<time>2024-12-16T11:48:59.215Z</time>
</trkpt>
<trkpt lat="31.0844000" lon="35.3556400">
<ele>-290.550018</ele>
<time>2024-12-16T11:48:59.215Z</time>
</trkpt>
<trkpt lat="31.0841400" lon="35.3554900">
<ele>-285.649994</ele>
<time>2024-12-16T11:48:59.215Z</time>
</trkpt>
<trkpt lat="31.0840300" lon="35.3554000">
<ele>-284.220001</ele>
<time>2024-12-16T11:48:59.215Z</time>
</trkpt>
<trkpt lat="31.0839700" lon="35.3553200">
<ele>-284.290009</ele>
<time>2024-12-16T11:48:59.215Z</time>
</trkpt>
<trkpt lat="31.0839600" lon="35.3552900">
<ele>-284.589996</ele>
<time>2024-12-16T11:48:59.215Z</time>
</trkpt>
<trkpt lat="31.0839600" lon="35.3552900">
<ele>-284.589996</ele>
<time>2024-12-16T11:48:59.215Z</time>
</trkpt>
<trkpt lat="31.0839000" lon="35.3550900">
<ele>-288.580017</ele>
<time>2024-12-16T11:48:59.215Z</time>
</trkpt>
<trkpt lat="31.0838800" lon="35.3549600">
<ele>-290.769989</ele>
<time>2024-12-16T11:48:59.215Z</time>
</trkpt>
<trkpt lat="31.0838900" lon="35.3547700">
<ele>-290.140015</ele>
<time>2024-12-16T11:48:59.215Z</time>
</trkpt>
<trkpt lat="31.0838600" lon="35.3546600">
<ele>-288.850006</ele>
<time>2024-12-16T11:48:59.215Z</time>
</trkpt>
<trkpt lat="31.0836000" lon="35.3543600">
<ele>-285.869995</ele>
<time>2024-12-16T11:48:59.215Z</time>
</trkpt>
<trkpt lat="31.0834600" lon="35.3542400">
<ele>-282.989990</ele>
<time>2024-12-16T11:48:59.215Z</time>
</trkpt>
<trkpt lat="31.0833700" lon="35.3541000">
<ele>-282.140015</ele>
<time>2024-12-16T11:48:59.215Z</time>
</trkpt>
<trkpt lat="31.0832000" lon="35.3539700">
<ele>-283.020020</ele>
<time>2024-12-16T11:48:59.215Z</time>
</trkpt>
<trkpt lat="31.0830700" lon="35.3538200">
<ele>-284.110016</ele>
<time>2024-12-16T11:48:59.215Z</time>
</trkpt>
<trkpt lat="31.0830000" lon="35.3537600">
<ele>-283.179993</ele>
<time>2024-12-16T11:48:59.215Z</time>
</trkpt>
<trkpt lat="31.0829900" lon="35.3536300">
<ele>-282.140015</ele>
<time>2024-12-16T11:48:59.215Z</time>
</trkpt>
<trkpt lat="31.0830100" lon="35.3535200">
<ele>-280.799988</ele>
<time>2024-12-16T11:48:59.215Z</time>
</trkpt>
<trkpt lat="31.0829400" lon="35.3535100">
<ele>-280.850006</ele>
<time>2024-12-16T11:48:59.215Z</time>
</trkpt>
<trkpt lat="31.0828800" lon="35.3536100">
<ele>-281.990021</ele>
<time>2024-12-16T11:48:59.215Z</time>
</trkpt>
<trkpt lat="31.0828100" lon="35.3535400">
<ele>-281.429993</ele>
<time>2024-12-16T11:48:59.215Z</time>
</trkpt>
<trkpt lat="31.0827700" lon="35.3534800">
<ele>-281.000000</ele>
<time>2024-12-16T11:48:59.215Z</time>
</trkpt>
<trkpt lat="31.0828600" lon="35.3533300">
<ele>-279.380005</ele>
<time>2024-12-16T11:48:59.215Z</time>
</trkpt>
<trkpt lat="31.0827800" lon="35.3532800">
<ele>-279.600006</ele>
<time>2024-12-16T11:48:59.215Z</time>
</trkpt>
<trkpt lat="31.0827000" lon="35.3533100">
<ele>-279.899994</ele>
<time>2024-12-16T11:48:59.215Z</time>
</trkpt>
<trkpt lat="31.0826200" lon="35.3532600">
<ele>-279.919983</ele>
<time>2024-12-16T11:48:59.215Z</time>
</trkpt>
<trkpt lat="31.0827000" lon="35.3531600">
<ele>-279.279999</ele>
<time>2024-12-16T11:48:59.215Z</time>
</trkpt>
<trkpt lat="31.0826200" lon="35.3529800">
<ele>-279.470001</ele>
<time>2024-12-16T11:48:59.215Z</time>
</trkpt>
<trkpt lat="31.0824600" lon="35.3528700">
<ele>-281.339996</ele>
<time>2024-12-16T11:48:59.215Z</time>
</trkpt>
<trkpt lat="31.0824100" lon="35.3527900">
<ele>-282.220001</ele>
<time>2024-12-16T11:48:59.215Z</time>
</trkpt>
<trkpt lat="31.0823300" lon="35.3526000">
<ele>-284.730011</ele>
<time>2024-12-16T11:48:59.215Z</time>
</trkpt>
<trkpt lat="31.0822800" lon="35.3525100">
<ele>-286.100006</ele>
<time>2024-12-16T11:48:59.215Z</time>
</trkpt>
<trkpt lat="31.0821400" lon="35.3524500">
<ele>-286.029999</ele>
<time>2024-12-16T11:48:59.215Z</time>
</trkpt>
<trkpt lat="31.0821200" lon="35.3524200">
<ele>-285.720001</ele>
<time>2024-12-16T11:48:59.215Z</time>
</trkpt>
<trkpt lat="31.0820000" lon="35.3521200">
<ele>-283.179993</ele>
<time>2024-12-16T11:48:59.215Z</time>
</trkpt>
<trkpt lat="31.0819600" lon="35.3520800">
<ele>-282.470001</ele>
<time>2024-12-16T11:48:59.215Z</time>
</trkpt>
<trkpt lat="31.0819200" lon="35.3520800">
<ele>-282.089996</ele>
<time>2024-12-16T11:48:59.215Z</time>
</trkpt>
<trkpt lat="31.0818000" lon="35.3521600">
<ele>-281.230011</ele>
<time>2024-12-16T11:48:59.215Z</time>
</trkpt>
<trkpt lat="31.0817200" lon="35.3521300">
<ele>-279.570007</ele>
<time>2024-12-16T11:48:59.215Z</time>
</trkpt>
<trkpt lat="31.0816600" lon="35.3520600">
<ele>-278.320007</ele>
<time>2024-12-16T11:48:59.215Z</time>
</trkpt>
<trkpt lat="31.0816000" lon="35.3520000">
<ele>-277.240021</ele>
<time>2024-12-16T11:48:59.215Z</time>
</trkpt>
<trkpt lat="31.0814400" lon="35.3518800">
<ele>-274.289978</ele>
<time>2024-12-16T11:48:59.215Z</time>
</trkpt>
<trkpt lat="31.0812700" lon="35.3517200">
<ele>-272.929993</ele>
<time>2024-12-16T11:48:59.215Z</time>
</trkpt>
<trkpt lat="31.0811800" lon="35.3515900">
<ele>-272.179993</ele>
<time>2024-12-16T11:48:59.215Z</time>
</trkpt>
<trkpt lat="31.0810900" lon="35.3514100">
<ele>-272.230011</ele>
<time>2024-12-16T11:48:59.215Z</time>
</trkpt>
<trkpt lat="31.0809800" lon="35.3512700">
<ele>-273.820007</ele>
<time>2024-12-16T11:48:59.215Z</time>
</trkpt>
<trkpt lat="31.0809300" lon="35.3512400">
<ele>-274.649994</ele>
<time>2024-12-16T11:48:59.215Z</time>
</trkpt>
<trkpt lat="31.0807900" lon="35.3512200">
<ele>-275.899994</ele>
<time>2024-12-16T11:48:59.215Z</time>
</trkpt>
<trkpt lat="31.0806700" lon="35.3511600">
<ele>-275.470001</ele>
<time>2024-12-16T11:48:59.215Z</time>
</trkpt>
<trkpt lat="31.0803500" lon="35.3510000">
<ele>-272.140015</ele>
<time>2024-12-16T11:48:59.215Z</time>
</trkpt>
<trkpt lat="31.0802100" lon="35.3510300">
<ele>-269.609985</ele>
<time>2024-12-16T11:48:59.215Z</time>
</trkpt>
<trkpt lat="31.0801500" lon="35.3510500">
<ele>-268.339996</ele>
<time>2024-12-16T11:48:59.215Z</time>
</trkpt>
<trkpt lat="31.0800400" lon="35.3511100">
<ele>-265.869995</ele>
<time>2024-12-16T11:48:59.215Z</time>
</trkpt>
<trkpt lat="31.0799100" lon="35.3511900">
<ele>-265.760010</ele>
<time>2024-12-16T11:48:59.215Z</time>
</trkpt>
<trkpt lat="31.0793700" lon="35.3514600">
<ele>-261.559998</ele>
<time>2024-12-16T11:48:59.215Z</time>
</trkpt>
<trkpt lat="31.0793200" lon="35.3514900">
<ele>-261.440002</ele>
<time>2024-12-16T11:48:59.215Z</time>
</trkpt>
<trkpt lat="31.0791600" lon="35.3515300">
<ele>-261.459991</ele>
<time>2024-12-16T11:48:59.215Z</time>
</trkpt>
<trkpt lat="31.0788400" lon="35.3515800">
<ele>-259.609985</ele>
<time>2024-12-16T11:48:59.215Z</time>
</trkpt>
<trkpt lat="31.0783300" lon="35.3516700">
<ele>-262.989990</ele>
<time>2024-12-16T11:48:59.215Z</time>
</trkpt>
<trkpt lat="31.0783100" lon="35.3520000">
<ele>-262.420013</ele>
<time>2024-12-16T11:48:59.215Z</time>
</trkpt>
<trkpt lat="31.0783100" lon="35.3522100">
<ele>-263.990021</ele>
<time>2024-12-16T11:48:59.215Z</time>
</trkpt>
<trkpt lat="31.0783800" lon="35.3528900">
<ele>-265.640015</ele>
<time>2024-12-16T11:48:59.215Z</time>
</trkpt>
<trkpt lat="31.0783800" lon="35.3531700">
<ele>-267.309998</ele>
<time>2024-12-16T11:48:59.215Z</time>
</trkpt>
<trkpt lat="31.0784000" lon="35.3531700">
<ele>-267.269989</ele>
<time>2024-12-16T11:48:59.215Z</time>
</trkpt>
<trkpt lat="31.0783800" lon="35.3531700">
<ele>-267.309998</ele>
<time>2024-12-16T11:48:59.215Z</time>
</trkpt>
<trkpt lat="31.0783900" lon="35.3540700">
<ele>-271.649994</ele>
<time>2024-12-16T11:48:59.215Z</time>
</trkpt>
<trkpt lat="31.0784800" lon="35.3548500">
<ele>-271.959991</ele>
<time>2024-12-16T11:48:59.215Z</time>
</trkpt>
<trkpt lat="31.0784900" lon="35.3552900">
<ele>-270.850006</ele>
<time>2024-12-16T11:48:59.215Z</time>
</trkpt>
<trkpt lat="31.0785500" lon="35.3557100">
<ele>-271.089996</ele>
<time>2024-12-16T11:48:59.215Z</time>
</trkpt>
<trkpt lat="31.0785200" lon="35.3558900">
<ele>-271.809998</ele>
<time>2024-12-16T11:48:59.215Z</time>
</trkpt>
<trkpt lat="31.0783000" lon="35.3567600">
<ele>-271.079987</ele>
<time>2024-12-16T11:48:59.215Z</time>
</trkpt>
<trkpt lat="31.0781400" lon="35.3572700">
<ele>-273.839996</ele>
<time>2024-12-16T11:48:59.215Z</time>
</trkpt>
<trkpt lat="31.0779700" lon="35.3577200">
<ele>-274.820007</ele>
<time>2024-12-16T11:48:59.215Z</time>
</trkpt>
<trkpt lat="31.0778500" lon="35.3580600">
<ele>-273.250000</ele>
<time>2024-12-16T11:48:59.215Z</time>
</trkpt>
<trkpt lat="31.0775400" lon="35.3591600">
<ele>-270.549988</ele>
<time>2024-12-16T11:48:59.215Z</time>
</trkpt>
<trkpt lat="31.0772200" lon="35.3599200">
<ele>-274.990021</ele>
<time>2024-12-16T11:48:59.215Z</time>
</trkpt>
<trkpt lat="31.0771600" lon="35.3601000">
<ele>-274.699982</ele>
<time>2024-12-16T11:48:59.215Z</time>
</trkpt>
<trkpt lat="31.0771500" lon="35.3603300">
<ele>-274.619995</ele>
<time>2024-12-16T11:48:59.215Z</time>
</trkpt>
<trkpt lat="31.0772500" lon="35.3609100">
<ele>-275.769989</ele>
<time>2024-12-16T11:48:59.215Z</time>
</trkpt>
<trkpt lat="31.0772600" lon="35.3612600">
<ele>-276.929993</ele>
<time>2024-12-16T11:48:59.215Z</time>
</trkpt>
<trkpt lat="31.0774000" lon="35.3619200">
<ele>-276.299988</ele>
<time>2024-12-16T11:48:59.215Z</time>
</trkpt>
<trkpt lat="31.0774900" lon="35.3622700">
<ele>-275.850006</ele>
<time>2024-12-16T11:48:59.215Z</time>
</trkpt>
<trkpt lat="31.0776200" lon="35.3625900">
<ele>-273.949982</ele>
<time>2024-12-16T11:48:59.215Z</time>
</trkpt>
<trkpt lat="31.0777500" lon="35.3629100">
<ele>-274.000000</ele>
<time>2024-12-16T11:48:59.215Z</time>
</trkpt>
<trkpt lat="31.0778800" lon="35.3634000">
<ele>-274.000000</ele>
<time>2024-12-16T11:48:59.215Z</time>
</trkpt>
<trkpt lat="31.0782400" lon="35.3645600">
<ele>-272.529999</ele>
<time>2024-12-16T11:48:59.215Z</time>
</trkpt>
<trkpt lat="31.0784900" lon="35.3654400">
<ele>-274.970001</ele>
<time>2024-12-16T11:48:59.215Z</time>
</trkpt>
<trkpt lat="31.0787700" lon="35.3665200">
<ele>-273.269989</ele>
<time>2024-12-16T11:48:59.215Z</time>
</trkpt>
<trkpt lat="31.0788100" lon="35.3667600">
<ele>-273.380005</ele>
<time>2024-12-16T11:48:59.215Z</time>
</trkpt>
<trkpt lat="31.0788400" lon="35.3669100">
<ele>-272.950012</ele>
<time>2024-12-16T11:48:59.215Z</time>
</trkpt>
<trkpt lat="31.0789200" lon="35.3674700">
<ele>-275.330017</ele>
<time>2024-12-16T11:48:59.215Z</time>
</trkpt>
<trkpt lat="31.0790200" lon="35.3680700">
<ele>-274.480011</ele>
<time>2024-12-16T11:48:59.215Z</time>
</trkpt>
<trkpt lat="31.0791200" lon="35.3686600">
<ele>-270.500000</ele>
<time>2024-12-16T11:48:59.215Z</time>
</trkpt>
<trkpt lat="31.0792200" lon="35.3692600">
<ele>-268.869995</ele>
<time>2024-12-16T11:48:59.215Z</time>
</trkpt>
<trkpt lat="31.0793600" lon="35.3698200">
<ele>-266.260010</ele>
<time>2024-12-16T11:48:59.215Z</time>
</trkpt>
<trkpt lat="31.0795000" lon="35.3703700">
<ele>-266.000000</ele>
<time>2024-12-16T11:48:59.215Z</time>
</trkpt>
<trkpt lat="31.0796600" lon="35.3708800">
<ele>-267.350006</ele>
<time>2024-12-16T11:48:59.215Z</time>
</trkpt>
<trkpt lat="31.0798200" lon="35.3713800">
<ele>-267.110016</ele>
<time>2024-12-16T11:48:59.215Z</time>
</trkpt>
<trkpt lat="31.0799200" lon="35.3719100">
<ele>-265.619995</ele>
<time>2024-12-16T11:48:59.215Z</time>
</trkpt>
<trkpt lat="31.0800300" lon="35.3724500">
<ele>-265.429993</ele>
<time>2024-12-16T11:48:59.215Z</time>
</trkpt>
<trkpt lat="31.0801300" lon="35.3729800">
<ele>-264.529999</ele>
<time>2024-12-16T11:48:59.215Z</time>
</trkpt>
<trkpt lat="31.0802400" lon="35.3735100">
<ele>-263.929993</ele>
<time>2024-12-16T11:48:59.215Z</time>
</trkpt>
<trkpt lat="31.0803400" lon="35.3740400">
<ele>-264.380005</ele>
<time>2024-12-16T11:48:59.215Z</time>
</trkpt>
<trkpt lat="31.0804500" lon="35.3745800">
<ele>-259.640015</ele>
<time>2024-12-16T11:48:59.215Z</time>
</trkpt>
<trkpt lat="31.0805500" lon="35.3751100">
<ele>-255.440002</ele>
<time>2024-12-16T11:48:59.215Z</time>
</trkpt>
<trkpt lat="31.0806000" lon="35.3758100">
<ele>-259.850006</ele>
<time>2024-12-16T11:48:59.215Z</time>
</trkpt>
<trkpt lat="31.0806100" lon="35.3761400">
<ele>-259.350006</ele>
<time>2024-12-16T11:48:59.215Z</time>
</trkpt>
<trkpt lat="31.0806100" lon="35.3761300">
<ele>-259.369995</ele>
<time>2024-12-16T11:48:59.215Z</time>
</trkpt>
<trkpt lat="31.0806100" lon="35.3761400">
<ele>-259.350006</ele>
<time>2024-12-16T11:48:59.215Z</time>
</trkpt>
<trkpt lat="31.0806100" lon="35.3764400">
<ele>-258.600006</ele>
<time>2024-12-16T11:48:59.215Z</time>
</trkpt>
<trkpt lat="31.0806100" lon="35.3764400">
<ele>-258.600006</ele>
<time>2024-12-16T11:48:59.215Z</time>
</trkpt>
<trkpt lat="31.0806100" lon="35.3767000">
<ele>-256.779999</ele>
<time>2024-12-16T11:48:59.215Z</time>
</trkpt>
<trkpt lat="31.0806500" lon="35.3770400">
<ele>-257.119995</ele>
<time>2024-12-16T11:48:59.215Z</time>
</trkpt>
<trkpt lat="31.0808300" lon="35.3776300">
<ele>-256.110016</ele>
<time>2024-12-16T11:48:59.215Z</time>
</trkpt>
<trkpt lat="31.0808600" lon="35.3778500">
<ele>-254.570007</ele>
<time>2024-12-16T11:48:59.215Z</time>
</trkpt>
<trkpt lat="31.0808400" lon="35.3781000">
<ele>-253.659988</ele>
<time>2024-12-16T11:48:59.215Z</time>
</trkpt>
<trkpt lat="31.0807600" lon="35.3785100">
<ele>-251.720001</ele>
<time>2024-12-16T11:48:59.215Z</time>
</trkpt>
<trkpt lat="31.0807600" lon="35.3788300">
<ele>-246.160004</ele>
<time>2024-12-16T11:48:59.215Z</time>
</trkpt>
<trkpt lat="31.0807900" lon="35.3789700">
<ele>-243.460007</ele>
<time>2024-12-16T11:48:59.215Z</time>
</trkpt>
<trkpt lat="31.0809500" lon="35.3792200">
<ele>-241.040009</ele>
<time>2024-12-16T11:48:59.215Z</time>
</trkpt>
<trkpt lat="31.0812400" lon="35.3795500">
<ele>-239.899994</ele>
<time>2024-12-16T11:48:59.215Z</time>
</trkpt>
<trkpt lat="31.0814600" lon="35.3797700">
<ele>-237.400009</ele>
<time>2024-12-16T11:48:59.215Z</time>
</trkpt>
<trkpt lat="31.0818000" lon="35.3800100">
<ele>-233.919998</ele>
<time>2024-12-16T11:48:59.215Z</time>
</trkpt>
<trkpt lat="31.0819000" lon="35.3801300">
<ele>-231.009995</ele>
<time>2024-12-16T11:48:59.215Z</time>
</trkpt>
<trkpt lat="31.0819300" lon="35.3802300">
<ele>-229.590012</ele>
<time>2024-12-16T11:48:59.215Z</time>
</trkpt>
<trkpt lat="31.0819300" lon="35.3804400">
<ele>-226.690002</ele>
<time>2024-12-16T11:48:59.215Z</time>
</trkpt>
<trkpt lat="31.0819000" lon="35.3805800">
<ele>-224.660004</ele>
<time>2024-12-16T11:48:59.215Z</time>
</trkpt>
<trkpt lat="31.0817500" lon="35.3808400">
<ele>-221.639999</ele>
<time>2024-12-16T11:48:59.215Z</time>
</trkpt>
<trkpt lat="31.0817400" lon="35.3809700">
<ele>-220.620010</ele>
<time>2024-12-16T11:48:59.215Z</time>
</trkpt>
<trkpt lat="31.0817700" lon="35.3811100">
<ele>-219.270004</ele>
<time>2024-12-16T11:48:59.215Z</time>
</trkpt>
<trkpt lat="31.0818200" lon="35.3812000">
<ele>-218.220001</ele>
<time>2024-12-16T11:48:59.215Z</time>
</trkpt>
<trkpt lat="31.0818500" lon="35.3812100">
<ele>-217.849991</ele>
<time>2024-12-16T11:48:59.215Z</time>
</trkpt>
<trkpt lat="31.0819000" lon="35.3812400">
<ele>-217.080002</ele>
<time>2024-12-16T11:48:59.215Z</time>
</trkpt>
<trkpt lat="31.0821000" lon="35.3812700">
<ele>-215.160004</ele>
<time>2024-12-16T11:48:59.215Z</time>
</trkpt>
<trkpt lat="31.0821700" lon="35.3813300">
<ele>-214.010010</ele>
<time>2024-12-16T11:48:59.215Z</time>
</trkpt>
<trkpt lat="31.0826300" lon="35.3819700">
<ele>-202.020004</ele>
<time>2024-12-16T11:48:59.215Z</time>
</trkpt>
<trkpt lat="31.0827100" lon="35.3821100">
<ele>-201.340012</ele>
<time>2024-12-16T11:48:59.215Z</time>
</trkpt>
<trkpt lat="31.0828100" lon="35.3823800">
<ele>-200.699997</ele>
<time>2024-12-16T11:48:59.215Z</time>
</trkpt>
<trkpt lat="31.0828200" lon="35.3824400">
<ele>-200.580002</ele>
<time>2024-12-16T11:48:59.215Z</time>
</trkpt>
<trkpt lat="31.0828000" lon="35.3827800">
<ele>-200.669998</ele>
<time>2024-12-16T11:48:59.215Z</time>
</trkpt>
<trkpt lat="31.0828000" lon="35.3830100">
<ele>-199.979996</ele>
<time>2024-12-16T11:48:59.215Z</time>
</trkpt>
<trkpt lat="31.0828300" lon="35.3831300">
<ele>-198.819992</ele>
<time>2024-12-16T11:48:59.215Z</time>
</trkpt>
<trkpt lat="31.0828500" lon="35.3833700">
<ele>-195.860001</ele>
<time>2024-12-16T11:48:59.215Z</time>
</trkpt>
<trkpt lat="31.0828000" lon="35.3835700">
<ele>-192.070007</ele>
<time>2024-12-16T11:48:59.215Z</time>
</trkpt>
<trkpt lat="31.0827600" lon="35.3838800">
<ele>-189.070007</ele>
<time>2024-12-16T11:48:59.215Z</time>
</trkpt>
<trkpt lat="31.0827800" lon="35.3841500">
<ele>-188.080002</ele>
<time>2024-12-16T11:48:59.215Z</time>
</trkpt>
<trkpt lat="31.0827800" lon="35.3845300">
<ele>-189.319992</ele>
<time>2024-12-16T11:48:59.215Z</time>
</trkpt>
<trkpt lat="31.0827800" lon="35.3845700">
<ele>-189.460007</ele>
<time>2024-12-16T11:48:59.215Z</time>
</trkpt>
<trkpt lat="31.0827600" lon="35.3846400">
<ele>-189.699997</ele>
<time>2024-12-16T11:48:59.215Z</time>
</trkpt>
<trkpt lat="31.0827200" lon="35.3847000">
<ele>-189.919998</ele>
<time>2024-12-16T11:48:59.215Z</time>
</trkpt>
<trkpt lat="31.0826600" lon="35.3847000">
<ele>-189.919998</ele>
<time>2024-12-16T11:48:59.215Z</time>
</trkpt>
<trkpt lat="31.0826000" lon="35.3846600">
<ele>-189.780014</ele>
<time>2024-12-16T11:48:59.215Z</time>
</trkpt>
<trkpt lat="31.0824500" lon="35.3844700">
<ele>-189.079987</ele>
<time>2024-12-16T11:48:59.215Z</time>
</trkpt>
<trkpt lat="31.0823400" lon="35.3843600">
<ele>-189.000000</ele>
<time>2024-12-16T11:48:59.215Z</time>
</trkpt>
<trkpt lat="31.0820300" lon="35.3841500">
<ele>-189.729996</ele>
<time>2024-12-16T11:48:59.215Z</time>
</trkpt>
<trkpt lat="31.0818600" lon="35.3839600">
<ele>-189.849991</ele>
<time>2024-12-16T11:48:59.215Z</time>
</trkpt>
<trkpt lat="31.0816600" lon="35.3837600">
<ele>-188.949997</ele>
<time>2024-12-16T11:48:59.215Z</time>
</trkpt>
<trkpt lat="31.0811800" lon="35.3835200">
<ele>-182.990005</ele>
<time>2024-12-16T11:48:59.215Z</time>
</trkpt>
<trkpt lat="31.0811300" lon="35.3835200">
<ele>-182.269989</ele>
<time>2024-12-16T11:48:59.215Z</time>
</trkpt>
<trkpt lat="31.0810100" lon="35.3835800">
<ele>-180.220001</ele>
<time>2024-12-16T11:48:59.215Z</time>
</trkpt>
<trkpt lat="31.0809700" lon="35.3836300">
<ele>-179.590012</ele>
<time>2024-12-16T11:48:59.215Z</time>
</trkpt>
<trkpt lat="31.0807700" lon="35.3837600">
<ele>-176.940002</ele>
<time>2024-12-16T11:48:59.215Z</time>
</trkpt>
<trkpt lat="31.0803600" lon="35.3839700">
<ele>-172.820007</ele>
<time>2024-12-16T11:48:59.215Z</time>
</trkpt>
<trkpt lat="31.0801900" lon="35.3840400">
<ele>-171.770004</ele>
<time>2024-12-16T11:48:59.215Z</time>
</trkpt>
<trkpt lat="31.0800600" lon="35.3841200">
<ele>-171.950012</ele>
<time>2024-12-16T11:48:59.215Z</time>
</trkpt>
<trkpt lat="31.0794800" lon="35.3846800">
<ele>-174.110001</ele>
<time>2024-12-16T11:48:59.215Z</time>
</trkpt>
<trkpt lat="31.0794300" lon="35.3847100">
<ele>-174.200012</ele>
<time>2024-12-16T11:48:59.215Z</time>
</trkpt>
<trkpt lat="31.0793400" lon="35.3847700">
<ele>-175.339996</ele>
<time>2024-12-16T11:48:59.215Z</time>
</trkpt>
<trkpt lat="31.0785100" lon="35.3850500">
<ele>-177.660004</ele>
<time>2024-12-16T11:48:59.215Z</time>
</trkpt>
<trkpt lat="31.0782900" lon="35.3851500">
<ele>-178.780014</ele>
<time>2024-12-16T11:48:59.215Z</time>
</trkpt>
<trkpt lat="31.0781300" lon="35.3852400">
<ele>-180.129990</ele>
<time>2024-12-16T11:48:59.215Z</time>
</trkpt>
<trkpt lat="31.0776800" lon="35.3855800">
<ele>-179.820007</ele>
<time>2024-12-16T11:48:59.215Z</time>
</trkpt>
<trkpt lat="31.0775600" lon="35.3856500">
<ele>-180.009995</ele>
<time>2024-12-16T11:48:59.215Z</time>
</trkpt>
<trkpt lat="31.0774000" lon="35.3857300">
<ele>-181.499985</ele>
<time>2024-12-16T11:48:59.215Z</time>
</trkpt>
<trkpt lat="31.0769800" lon="35.3858700">
<ele>-179.919998</ele>
<time>2024-12-16T11:48:59.215Z</time>
</trkpt>
<trkpt lat="31.0767800" lon="35.3859500">
<ele>-177.819992</ele>
<time>2024-12-16T11:48:59.215Z</time>
</trkpt>
<trkpt lat="31.0766600" lon="35.3859900">
<ele>-176.640015</ele>
<time>2024-12-16T11:48:59.215Z</time>
</trkpt>
<trkpt lat="31.0765300" lon="35.3860800">
<ele>-178.750000</ele>
<time>2024-12-16T11:48:59.215Z</time>
</trkpt>
<trkpt lat="31.0764100" lon="35.3862100">
<ele>-182.199997</ele>
<time>2024-12-16T11:48:59.215Z</time>
</trkpt>
<trkpt lat="31.0762600" lon="35.3862900">
<ele>-184.169998</ele>
<time>2024-12-16T11:48:59.215Z</time>
</trkpt>
<trkpt lat="31.0764100" lon="35.3862100">
<ele>-182.199997</ele>
<time>2024-12-16T11:48:59.215Z</time>
</trkpt>
<trkpt lat="31.0765300" lon="35.3860800">
<ele>-178.750000</ele>
<time>2024-12-16T11:48:59.215Z</time>
</trkpt>
<trkpt lat="31.0766600" lon="35.3859900">
<ele>-176.640015</ele>
<time>2024-12-16T11:48:59.215Z</time>
</trkpt>
<trkpt lat="31.0767800" lon="35.3859500">
<ele>-177.819992</ele>
<time>2024-12-16T11:48:59.215Z</time>
</trkpt>
<trkpt lat="31.0769800" lon="35.3858700">
<ele>-179.919998</ele>
<time>2024-12-16T11:48:59.215Z</time>
</trkpt>
<trkpt lat="31.0774000" lon="35.3857300">
<ele>-181.499985</ele>
<time>2024-12-16T11:48:59.215Z</time>
</trkpt>
<trkpt lat="31.0775600" lon="35.3856500">
<ele>-180.009995</ele>
<time>2024-12-16T11:48:59.215Z</time>
</trkpt>
<trkpt lat="31.0776800" lon="35.3855800">
<ele>-179.820007</ele>
<time>2024-12-16T11:48:59.215Z</time>
</trkpt>
<trkpt lat="31.0781300" lon="35.3852400">
<ele>-180.129990</ele>
<time>2024-12-16T11:48:59.215Z</time>
</trkpt>
<trkpt lat="31.0782900" lon="35.3851500">
<ele>-178.780014</ele>
<time>2024-12-16T11:48:59.215Z</time>
</trkpt>
<trkpt lat="31.0785100" lon="35.3850500">
<ele>-177.660004</ele>
<time>2024-12-16T11:48:59.215Z</time>
</trkpt>
<trkpt lat="31.0793400" lon="35.3847700">
<ele>-175.339996</ele>
<time>2024-12-16T11:48:59.215Z</time>
</trkpt>
<trkpt lat="31.0794300" lon="35.3847100">
<ele>-174.200012</ele>
<time>2024-12-16T11:48:59.215Z</time>
</trkpt>
<trkpt lat="31.0794800" lon="35.3846800">
<ele>-174.110001</ele>
<time>2024-12-16T11:48:59.215Z</time>
</trkpt>
<trkpt lat="31.0800600" lon="35.3841200">
<ele>-171.950012</ele>
<time>2024-12-16T11:48:59.215Z</time>
</trkpt>
<trkpt lat="31.0801900" lon="35.3840400">
<ele>-171.770004</ele>
<time>2024-12-16T11:48:59.215Z</time>
</trkpt>
<trkpt lat="31.0803600" lon="35.3839700">
<ele>-172.820007</ele>
<time>2024-12-16T11:48:59.215Z</time>
</trkpt>
<trkpt lat="31.0807700" lon="35.3837600">
<ele>-176.940002</ele>
<time>2024-12-16T11:48:59.215Z</time>
</trkpt>
<trkpt lat="31.0809700" lon="35.3836300">
<ele>-179.590012</ele>
<time>2024-12-16T11:48:59.215Z</time>
</trkpt>
<trkpt lat="31.0810100" lon="35.3835800">
<ele>-180.220001</ele>
<time>2024-12-16T11:48:59.215Z</time>
</trkpt>
<trkpt lat="31.0811300" lon="35.3835200">
<ele>-182.269989</ele>
<time>2024-12-16T11:48:59.215Z</time>
</trkpt>
<trkpt lat="31.0811800" lon="35.3835200">
<ele>-182.990005</ele>
<time>2024-12-16T11:48:59.215Z</time>
</trkpt>
<trkpt lat="31.0816600" lon="35.3837600">
<ele>-188.949997</ele>
<time>2024-12-16T11:48:59.215Z</time>
</trkpt>
<trkpt lat="31.0818600" lon="35.3839600">
<ele>-189.849991</ele>
<time>2024-12-16T11:48:59.215Z</time>
</trkpt>
<trkpt lat="31.0820300" lon="35.3841500">
<ele>-189.729996</ele>
<time>2024-12-16T11:48:59.215Z</time>
</trkpt>
<trkpt lat="31.0823400" lon="35.3843600">
<ele>-189.000000</ele>
<time>2024-12-16T11:48:59.215Z</time>
</trkpt>
<trkpt lat="31.0824500" lon="35.3844700">
<ele>-189.079987</ele>
<time>2024-12-16T11:48:59.215Z</time>
</trkpt>
<trkpt lat="31.0826000" lon="35.3846600">
<ele>-189.780014</ele>
<time>2024-12-16T11:48:59.215Z</time>
</trkpt>
<trkpt lat="31.0826600" lon="35.3847000">
<ele>-189.919998</ele>
<time>2024-12-16T11:48:59.215Z</time>
</trkpt>
<trkpt lat="31.0827200" lon="35.3847000">
<ele>-189.919998</ele>
<time>2024-12-16T11:48:59.215Z</time>
</trkpt>
<trkpt lat="31.0827600" lon="35.3846400">
<ele>-189.699997</ele>
<time>2024-12-16T11:48:59.215Z</time>
</trkpt>
<trkpt lat="31.0827800" lon="35.3845700">
<ele>-189.460007</ele>
<time>2024-12-16T11:48:59.215Z</time>
</trkpt>
<trkpt lat="31.0827800" lon="35.3845300">
<ele>-189.319992</ele>
<time>2024-12-16T11:48:59.215Z</time>
</trkpt>
<trkpt lat="31.0827800" lon="35.3841500">
<ele>-188.080002</ele>
<time>2024-12-16T11:48:59.215Z</time>
</trkpt>
<trkpt lat="31.0827600" lon="35.3838800">
<ele>-189.070007</ele>
<time>2024-12-16T11:48:59.215Z</time>
</trkpt>
<trkpt lat="31.0828000" lon="35.3835700">
<ele>-192.070007</ele>
<time>2024-12-16T11:48:59.215Z</time>
</trkpt>
<trkpt lat="31.0828500" lon="35.3833700">
<ele>-195.860001</ele>
<time>2024-12-16T11:48:59.215Z</time>
</trkpt>
<trkpt lat="31.0828300" lon="35.3831300">
<ele>-198.819992</ele>
<time>2024-12-16T11:48:59.215Z</time>
</trkpt>
<trkpt lat="31.0828000" lon="35.3830100">
<ele>-199.979996</ele>
<time>2024-12-16T11:48:59.215Z</time>
</trkpt>
<trkpt lat="31.0828000" lon="35.3827800">
<ele>-200.669998</ele>
<time>2024-12-16T11:48:59.215Z</time>
</trkpt>
<trkpt lat="31.0828200" lon="35.3824400">
<ele>-200.580002</ele>
<time>2024-12-16T11:48:59.215Z</time>
</trkpt>
<trkpt lat="31.0828100" lon="35.3823800">
<ele>-200.699997</ele>
<time>2024-12-16T11:48:59.215Z</time>
</trkpt>
<trkpt lat="31.0827100" lon="35.3821100">
<ele>-201.340012</ele>
<time>2024-12-16T11:48:59.215Z</time>
</trkpt>
<trkpt lat="31.0826300" lon="35.3819700">
<ele>-202.020004</ele>
<time>2024-12-16T11:48:59.215Z</time>
</trkpt>
<trkpt lat="31.0821700" lon="35.3813300">
<ele>-214.010010</ele>
<time>2024-12-16T11:48:59.215Z</time>
</trkpt>
<trkpt lat="31.0821000" lon="35.3812700">
<ele>-215.160004</ele>
<time>2024-12-16T11:48:59.215Z</time>
</trkpt>
<trkpt lat="31.0819000" lon="35.3812400">
<ele>-217.080002</ele>
<time>2024-12-16T11:48:59.215Z</time>
</trkpt>
<trkpt lat="31.0818500" lon="35.3812100">
<ele>-217.849991</ele>
<time>2024-12-16T11:48:59.215Z</time>
</trkpt>
<trkpt lat="31.0818200" lon="35.3812000">
<ele>-218.220001</ele>
<time>2024-12-16T11:48:59.215Z</time>
</trkpt>
<trkpt lat="31.0817700" lon="35.3811100">
<ele>-219.270004</ele>
<time>2024-12-16T11:48:59.215Z</time>
</trkpt>
<trkpt lat="31.0817400" lon="35.3809700">
<ele>-220.620010</ele>
<time>2024-12-16T11:48:59.215Z</time>
</trkpt>
<trkpt lat="31.0817500" lon="35.3808400">
<ele>-221.639999</ele>
<time>2024-12-16T11:48:59.215Z</time>
</trkpt>
<trkpt lat="31.0819000" lon="35.3805800">
<ele>-224.660004</ele>
<time>2024-12-16T11:48:59.215Z</time>
</trkpt>
<trkpt lat="31.0819300" lon="35.3804400">
<ele>-226.690002</ele>
<time>2024-12-16T11:48:59.215Z</time>
</trkpt>
<trkpt lat="31.0819300" lon="35.3802300">
<ele>-229.590012</ele>
<time>2024-12-16T11:48:59.215Z</time>
</trkpt>
<trkpt lat="31.0819000" lon="35.3801300">
<ele>-231.009995</ele>
<time>2024-12-16T11:48:59.215Z</time>
</trkpt>
<trkpt lat="31.0818000" lon="35.3800100">
<ele>-233.919998</ele>
<time>2024-12-16T11:48:59.215Z</time>
</trkpt>
<trkpt lat="31.0814600" lon="35.3797700">
<ele>-237.400009</ele>
<time>2024-12-16T11:48:59.215Z</time>
</trkpt>
<trkpt lat="31.0812400" lon="35.3795500">
<ele>-239.899994</ele>
<time>2024-12-16T11:48:59.215Z</time>
</trkpt>
<trkpt lat="31.0809500" lon="35.3792200">
<ele>-241.040009</ele>
<time>2024-12-16T11:48:59.215Z</time>
</trkpt>
<trkpt lat="31.0807900" lon="35.3789700">
<ele>-243.460007</ele>
<time>2024-12-16T11:48:59.215Z</time>
</trkpt>
<trkpt lat="31.0807600" lon="35.3788300">
<ele>-246.160004</ele>
<time>2024-12-16T11:48:59.215Z</time>
</trkpt>
<trkpt lat="31.0807600" lon="35.3785100">
<ele>-251.720001</ele>
<time>2024-12-16T11:48:59.215Z</time>
</trkpt>
<trkpt lat="31.0808400" lon="35.3781000">
<ele>-253.659988</ele>
<time>2024-12-16T11:48:59.215Z</time>
</trkpt>
<trkpt lat="31.0808600" lon="35.3778500">
<ele>-254.570007</ele>
<time>2024-12-16T11:48:59.215Z</time>
</trkpt>
<trkpt lat="31.0808300" lon="35.3776300">
<ele>-256.110016</ele>
<time>2024-12-16T11:48:59.215Z</time>
</trkpt>
<trkpt lat="31.0806500" lon="35.3770400">
<ele>-257.119995</ele>
<time>2024-12-16T11:48:59.215Z</time>
</trkpt>
<trkpt lat="31.0806100" lon="35.3767000">
<ele>-256.779999</ele>
<time>2024-12-16T11:48:59.215Z</time>
</trkpt>
<trkpt lat="31.0808500" lon="35.3768600">
<ele>-255.380005</ele>
<time>2024-12-16T11:48:59.215Z</time>
</trkpt>
<trkpt lat="31.0808500" lon="35.3768600">
<ele>-255.380005</ele>
<time>2024-12-16T11:48:59.215Z</time>
</trkpt>
<trkpt lat="31.0808500" lon="35.3768600">
<ele>-255.380005</ele>
<time>2024-12-16T11:48:59.215Z</time>
</trkpt>
<trkpt lat="31.0808900" lon="35.3768800">
<ele>-255.479996</ele>
<time>2024-12-16T11:48:59.215Z</time>
</trkpt>
<trkpt lat="31.0809700" lon="35.3769300">
<ele>-255.570007</ele>
<time>2024-12-16T11:48:59.215Z</time>
</trkpt>
<trkpt lat="31.0812500" lon="35.3771800">
<ele>-256.500000</ele>
<time>2024-12-16T11:48:59.215Z</time>
</trkpt>
<trkpt lat="31.0815200" lon="35.3774900">
<ele>-252.169998</ele>
<time>2024-12-16T11:48:59.215Z</time>
</trkpt>
<trkpt lat="31.0818900" lon="35.3780000">
<ele>-249.809998</ele>
<time>2024-12-16T11:48:59.215Z</time>
</trkpt>
<trkpt lat="31.0820500" lon="35.3781700">
<ele>-249.399994</ele>
<time>2024-12-16T11:48:59.215Z</time>
</trkpt>
<trkpt lat="31.0829700" lon="35.3788600">
<ele>-246.319992</ele>
<time>2024-12-16T11:48:59.215Z</time>
</trkpt>
<trkpt lat="31.0832500" lon="35.3790100">
<ele>-247.050003</ele>
<time>2024-12-16T11:48:59.215Z</time>
</trkpt>
<trkpt lat="31.0834200" lon="35.3790800">
<ele>-246.639999</ele>
<time>2024-12-16T11:48:59.215Z</time>
</trkpt>
<trkpt lat="31.0843300" lon="35.3793000">
<ele>-243.470001</ele>
<time>2024-12-16T11:48:59.215Z</time>
</trkpt>
<trkpt lat="31.0847500" lon="35.3794400">
<ele>-240.800003</ele>
<time>2024-12-16T11:48:59.215Z</time>
</trkpt>
<trkpt lat="31.0850000" lon="35.3795600">
<ele>-238.580002</ele>
<time>2024-12-16T11:48:59.215Z</time>
</trkpt>
<trkpt lat="31.0850600" lon="35.3795700">
<ele>-238.759995</ele>
<time>2024-12-16T11:48:59.215Z</time>
</trkpt>
<trkpt lat="31.0853100" lon="35.3796800">
<ele>-239.370010</ele>
<time>2024-12-16T11:48:59.215Z</time>
</trkpt>
<trkpt lat="31.0855700" lon="35.3797200">
<ele>-240.949997</ele>
<time>2024-12-16T11:48:59.215Z</time>
</trkpt>
<trkpt lat="31.0862900" lon="35.3797200">
<ele>-241.430008</ele>
<time>2024-12-16T11:48:59.215Z</time>
</trkpt>
<trkpt lat="31.0864000" lon="35.3797500">
<ele>-239.330002</ele>
<time>2024-12-16T11:48:59.215Z</time>
</trkpt>
<trkpt lat="31.0865900" lon="35.3798500">
<ele>-236.460007</ele>
<time>2024-12-16T11:48:59.215Z</time>
</trkpt>
<trkpt lat="31.0867800" lon="35.3799100">
<ele>-235.430008</ele>
<time>2024-12-16T11:48:59.215Z</time>
</trkpt>
<trkpt lat="31.0873200" lon="35.3799200">
<ele>-238.679993</ele>
<time>2024-12-16T11:48:59.215Z</time>
</trkpt>
<trkpt lat="31.0876000" lon="35.3799600">
<ele>-239.669998</ele>
<time>2024-12-16T11:48:59.215Z</time>
</trkpt>
<trkpt lat="31.0881100" lon="35.3801600">
<ele>-232.360001</ele>
<time>2024-12-16T11:48:59.215Z</time>
</trkpt>
<trkpt lat="31.0883500" lon="35.3802400">
<ele>-228.940002</ele>
<time>2024-12-16T11:48:59.215Z</time>
</trkpt>
<trkpt lat="31.0886400" lon="35.3802800">
<ele>-228.070007</ele>
<time>2024-12-16T11:48:59.215Z</time>
</trkpt>
<trkpt lat="31.0889000" lon="35.3802800">
<ele>-228.940002</ele>
<time>2024-12-16T11:48:59.215Z</time>
</trkpt>
<trkpt lat="31.0902800" lon="35.3801700">
<ele>-233.740005</ele>
<time>2024-12-16T11:48:59.215Z</time>
</trkpt>
<trkpt lat="31.0903300" lon="35.3801600">
<ele>-232.930008</ele>
<time>2024-12-16T11:48:59.215Z</time>
</trkpt>
<trkpt lat="31.0903300" lon="35.3801600">
<ele>-232.930008</ele>
<time>2024-12-16T11:48:59.215Z</time>
</trkpt>
<trkpt lat="31.0914200" lon="35.3798800">
<ele>-231.860001</ele>
<time>2024-12-16T11:48:59.215Z</time>
</trkpt>
<trkpt lat="31.0915800" lon="35.3797800">
<ele>-232.580002</ele>
<time>2024-12-16T11:48:59.215Z</time>
</trkpt>
<trkpt lat="31.0918700" lon="35.3795300">
<ele>-235.339996</ele>
<time>2024-12-16T11:48:59.215Z</time>
</trkpt>
<trkpt lat="31.0920300" lon="35.3794400">
<ele>-236.029999</ele>
<time>2024-12-16T11:48:59.215Z</time>
</trkpt>
<trkpt lat="31.0922000" lon="35.3793600">
<ele>-237.139999</ele>
<time>2024-12-16T11:48:59.215Z</time>
</trkpt>
<trkpt lat="31.0923900" lon="35.3793200">
<ele>-236.250000</ele>
<time>2024-12-16T11:48:59.215Z</time>
</trkpt>
<trkpt lat="31.0925100" lon="35.3793100">
<ele>-235.200012</ele>
<time>2024-12-16T11:48:59.215Z</time>
</trkpt>
<trkpt lat="31.0927400" lon="35.3792700">
<ele>-230.960007</ele>
<time>2024-12-16T11:48:59.215Z</time>
</trkpt>
<trkpt lat="31.0930300" lon="35.3791800">
<ele>-227.390015</ele>
<time>2024-12-16T11:48:59.215Z</time>
</trkpt>
<trkpt lat="31.0933900" lon="35.3790000">
<ele>-233.529999</ele>
<time>2024-12-16T11:48:59.215Z</time>
</trkpt>
<trkpt lat="31.0937500" lon="35.3788500">
<ele>-239.350006</ele>
<time>2024-12-16T11:48:59.215Z</time>
</trkpt>
<trkpt lat="31.0943600" lon="35.3787400">
<ele>-243.509995</ele>
<time>2024-12-16T11:48:59.215Z</time>
</trkpt>
<trkpt lat="31.0947700" lon="35.3785200">
<ele>-246.070007</ele>
<time>2024-12-16T11:48:59.215Z</time>
</trkpt>
<trkpt lat="31.0953000" lon="35.3784000">
<ele>-248.960007</ele>
<time>2024-12-16T11:48:59.215Z</time>
</trkpt>
<trkpt lat="31.0956100" lon="35.3782600">
<ele>-247.309998</ele>
<time>2024-12-16T11:48:59.215Z</time>
</trkpt>
<trkpt lat="31.0958700" lon="35.3781900">
<ele>-247.449997</ele>
<time>2024-12-16T11:48:59.215Z</time>
</trkpt>
<trkpt lat="31.0962000" lon="35.3780300">
<ele>-248.790009</ele>
<time>2024-12-16T11:48:59.215Z</time>
</trkpt>
<trkpt lat="31.0963400" lon="35.3779400">
<ele>-250.139999</ele>
<time>2024-12-16T11:48:59.215Z</time>
</trkpt>
<trkpt lat="31.0967900" lon="35.3775200">
<ele>-254.870010</ele>
<time>2024-12-16T11:48:59.215Z</time>
</trkpt>
<trkpt lat="31.0968600" lon="35.3774600">
<ele>-255.040009</ele>
<time>2024-12-16T11:48:59.215Z</time>
</trkpt>
<trkpt lat="31.0969800" lon="35.3774000">
<ele>-254.910004</ele>
<time>2024-12-16T11:48:59.215Z</time>
</trkpt>
<trkpt lat="31.0970600" lon="35.3773800">
<ele>-254.639999</ele>
<time>2024-12-16T11:48:59.215Z</time>
</trkpt>
<trkpt lat="31.0971500" lon="35.3773800">
<ele>-254.360016</ele>
<time>2024-12-16T11:48:59.215Z</time>
</trkpt>
<trkpt lat="31.0976900" lon="35.3776100">
<ele>-256.139984</ele>
<time>2024-12-16T11:48:59.215Z</time>
</trkpt>
<trkpt lat="31.0980000" lon="35.3777000">
<ele>-254.760010</ele>
<time>2024-12-16T11:48:59.215Z</time>
</trkpt>
<trkpt lat="31.0981400" lon="35.3777200">
<ele>-254.110001</ele>
<time>2024-12-16T11:48:59.215Z</time>
</trkpt>
<trkpt lat="31.0983100" lon="35.3776400">
<ele>-254.080002</ele>
<time>2024-12-16T11:48:59.215Z</time>
</trkpt>
<trkpt lat="31.0984900" lon="35.3773800">
<ele>-257.779999</ele>
<time>2024-12-16T11:48:59.215Z</time>
</trkpt>
<trkpt lat="31.0986600" lon="35.3772900">
<ele>-260.750000</ele>
<time>2024-12-16T11:48:59.215Z</time>
</trkpt>
<trkpt lat="31.0988000" lon="35.3772900">
<ele>-261.380005</ele>
<time>2024-12-16T11:48:59.215Z</time>
</trkpt>
<trkpt lat="31.0989400" lon="35.3773400">
<ele>-260.619995</ele>
<time>2024-12-16T11:48:59.215Z</time>
</trkpt>
<trkpt lat="31.0990600" lon="35.3773400">
<ele>-260.000000</ele>
<time>2024-12-16T11:48:59.215Z</time>
</trkpt>
<trkpt lat="31.0991200" lon="35.3773300">
<ele>-259.910004</ele>
<time>2024-12-16T11:48:59.215Z</time>
</trkpt>
<trkpt lat="31.0992400" lon="35.3772800">
<ele>-260.649994</ele>
<time>2024-12-16T11:48:59.215Z</time>
</trkpt>
<trkpt lat="31.0993200" lon="35.3772100">
<ele>-261.489990</ele>
<time>2024-12-16T11:48:59.215Z</time>
</trkpt>
<trkpt lat="31.0993600" lon="35.3771400">
<ele>-261.600006</ele>
<time>2024-12-16T11:48:59.215Z</time>
</trkpt>
<trkpt lat="31.0993700" lon="35.3769700">
<ele>-262.179993</ele>
<time>2024-12-16T11:48:59.215Z</time>
</trkpt>
<trkpt lat="31.0993500" lon="35.3768700">
<ele>-262.160004</ele>
<time>2024-12-16T11:48:59.215Z</time>
</trkpt>
<trkpt lat="31.0994000" lon="35.3767800">
<ele>-261.660004</ele>
<time>2024-12-16T11:48:59.215Z</time>
</trkpt>
<trkpt lat="31.0994500" lon="35.3767600">
<ele>-261.339996</ele>
<time>2024-12-16T11:48:59.215Z</time>
</trkpt>
<trkpt lat="31.0995000" lon="35.3767600">
<ele>-261.399994</ele>
<time>2024-12-16T11:48:59.215Z</time>
</trkpt>
<trkpt lat="31.0997200" lon="35.3768600">
<ele>-261.309998</ele>
<time>2024-12-16T11:48:59.215Z</time>
</trkpt>
<trkpt lat="31.0997700" lon="35.3768500">
<ele>-261.000000</ele>
<time>2024-12-16T11:48:59.215Z</time>
</trkpt>
<trkpt lat="31.0998100" lon="35.3768100">
<ele>-260.850006</ele>
<time>2024-12-16T11:48:59.215Z</time>
</trkpt>
<trkpt lat="31.0998300" lon="35.3767800">
<ele>-260.820007</ele>
<time>2024-12-16T11:48:59.215Z</time>
</trkpt>
<trkpt lat="31.0998300" lon="35.3766100">
<ele>-261.709991</ele>
<time>2024-12-16T11:48:59.215Z</time>
</trkpt>
<trkpt lat="31.0998100" lon="35.3765500">
<ele>-262.339996</ele>
<time>2024-12-16T11:48:59.215Z</time>
</trkpt>
<trkpt lat="31.0998200" lon="35.3764000">
<ele>-263.549988</ele>
<time>2024-12-16T11:48:59.215Z</time>
</trkpt>
<trkpt lat="31.0998400" lon="35.3763500">
<ele>-263.450012</ele>
<time>2024-12-16T11:48:59.215Z</time>
</trkpt>
<trkpt lat="31.0999000" lon="35.3762700">
<ele>-263.450012</ele>
<time>2024-12-16T11:48:59.215Z</time>
</trkpt>
<trkpt lat="31.1001100" lon="35.3761800">
<ele>-265.589996</ele>
<time>2024-12-16T11:48:59.215Z</time>
</trkpt>
<trkpt lat="31.1003200" lon="35.3760500">
<ele>-268.119995</ele>
<time>2024-12-16T11:48:59.215Z</time>
</trkpt>
<trkpt lat="31.1004900" lon="35.3760100">
<ele>-269.440002</ele>
<time>2024-12-16T11:48:59.215Z</time>
</trkpt>
<trkpt lat="31.1005800" lon="35.3760000">
<ele>-270.040009</ele>
<time>2024-12-16T11:48:59.215Z</time>
</trkpt>
<trkpt lat="31.1006300" lon="35.3759700">
<ele>-270.139984</ele>
<time>2024-12-16T11:48:59.215Z</time>
</trkpt>
<trkpt lat="31.1006500" lon="35.3759400">
<ele>-270.209991</ele>
<time>2024-12-16T11:48:59.215Z</time>
</trkpt>
<trkpt lat="31.1006700" lon="35.3758800">
<ele>-270.339996</ele>
<time>2024-12-16T11:48:59.215Z</time>
</trkpt>
<trkpt lat="31.1006600" lon="35.3757800">
<ele>-270.260010</ele>
<time>2024-12-16T11:48:59.215Z</time>
</trkpt>
<trkpt lat="31.1007300" lon="35.3752800">
<ele>-268.639984</ele>
<time>2024-12-16T11:48:59.215Z</time>
</trkpt>
<trkpt lat="31.1007600" lon="35.3752300">
<ele>-268.389984</ele>
<time>2024-12-16T11:48:59.215Z</time>
</trkpt>
<trkpt lat="31.1007900" lon="35.3752100">
<ele>-268.359985</ele>
<time>2024-12-16T11:48:59.215Z</time>
</trkpt>
<trkpt lat="31.1008400" lon="35.3752100">
<ele>-268.559998</ele>
<time>2024-12-16T11:48:59.215Z</time>
</trkpt>
<trkpt lat="31.1009000" lon="35.3752800">
<ele>-269.490021</ele>
<time>2024-12-16T11:48:59.215Z</time>
</trkpt>
<trkpt lat="31.1009900" lon="35.3754900">
<ele>-270.790009</ele>
<time>2024-12-16T11:48:59.215Z</time>
</trkpt>
<trkpt lat="31.1011100" lon="35.3757200">
<ele>-270.410004</ele>
<time>2024-12-16T11:48:59.215Z</time>
</trkpt>
<trkpt lat="31.1012000" lon="35.3759700">
<ele>-267.229980</ele>
<time>2024-12-16T11:48:59.215Z</time>
</trkpt>
<trkpt lat="31.1012700" lon="35.3760900">
<ele>-264.630005</ele>
<time>2024-12-16T11:48:59.215Z</time>
</trkpt>
<trkpt lat="31.1013900" lon="35.3761500">
<ele>-262.579987</ele>
<time>2024-12-16T11:48:59.215Z</time>
</trkpt>
<trkpt lat="31.1015700" lon="35.3761500">
<ele>-263.139984</ele>
<time>2024-12-16T11:48:59.215Z</time>
</trkpt>
<trkpt lat="31.1018000" lon="35.3759900">
<ele>-265.910004</ele>
<time>2024-12-16T11:48:59.215Z</time>
</trkpt>
<trkpt lat="31.1019000" lon="35.3758500">
<ele>-268.649994</ele>
<time>2024-12-16T11:48:59.215Z</time>
</trkpt>
<trkpt lat="31.1020700" lon="35.3757100">
<ele>-269.220001</ele>
<time>2024-12-16T11:48:59.215Z</time>
</trkpt>
<trkpt lat="31.1021800" lon="35.3754200">
<ele>-270.359985</ele>
<time>2024-12-16T11:48:59.215Z</time>
</trkpt>
<trkpt lat="31.1022000" lon="35.3753200">
<ele>-270.809998</ele>
<time>2024-12-16T11:48:59.215Z</time>
</trkpt>
<trkpt lat="31.1022500" lon="35.3752300">
<ele>-271.510010</ele>
<time>2024-12-16T11:48:59.215Z</time>
</trkpt>
<trkpt lat="31.1022900" lon="35.3750700">
<ele>-273.690002</ele>
<time>2024-12-16T11:48:59.215Z</time>
</trkpt>
<trkpt lat="31.1022900" lon="35.3749600">
<ele>-275.039978</ele>
<time>2024-12-16T11:48:59.215Z</time>
</trkpt>
<trkpt lat="31.1023100" lon="35.3749200">
<ele>-275.260010</ele>
<time>2024-12-16T11:48:59.215Z</time>
</trkpt>
<trkpt lat="31.1025800" lon="35.3747700">
<ele>-274.839996</ele>
<time>2024-12-16T11:48:59.215Z</time>
</trkpt>
<trkpt lat="31.1026300" lon="35.3746800">
<ele>-274.279999</ele>
<time>2024-12-16T11:48:59.215Z</time>
</trkpt>
<trkpt lat="31.1026400" lon="35.3745200">
<ele>-273.040009</ele>
<time>2024-12-16T11:48:59.215Z</time>
</trkpt>
<trkpt lat="31.1026800" lon="35.3744800">
<ele>-272.570007</ele>
<time>2024-12-16T11:48:59.215Z</time>
</trkpt>
<trkpt lat="31.1027700" lon="35.3745000">
<ele>-272.239990</ele>
<time>2024-12-16T11:48:59.215Z</time>
</trkpt>
<trkpt lat="31.1029100" lon="35.3746400">
<ele>-272.230011</ele>
<time>2024-12-16T11:48:59.215Z</time>
</trkpt>
<trkpt lat="31.1029700" lon="35.3746800">
<ele>-272.160004</ele>
<time>2024-12-16T11:48:59.215Z</time>
</trkpt>
<trkpt lat="31.1032300" lon="35.3747400">
<ele>-273.220001</ele>
<time>2024-12-16T11:48:59.215Z</time>
</trkpt>
<trkpt lat="31.1033200" lon="35.3747800">
<ele>-273.709991</ele>
<time>2024-12-16T11:48:59.215Z</time>
</trkpt>
<trkpt lat="31.1033700" lon="35.3747900">
<ele>-273.720001</ele>
<time>2024-12-16T11:48:59.215Z</time>
</trkpt>
<trkpt lat="31.1035700" lon="35.3748900">
<ele>-272.880005</ele>
<time>2024-12-16T11:48:59.215Z</time>
</trkpt>
<trkpt lat="31.1037400" lon="35.3749400">
<ele>-271.600006</ele>
<time>2024-12-16T11:48:59.215Z</time>
</trkpt>
<trkpt lat="31.1038700" lon="35.3748900">
<ele>-271.299988</ele>
<time>2024-12-16T11:48:59.215Z</time>
</trkpt>
<trkpt lat="31.1039400" lon="35.3747000">
<ele>-273.209991</ele>
<time>2024-12-16T11:48:59.215Z</time>
</trkpt>
<trkpt lat="31.1039900" lon="35.3743300">
<ele>-276.100006</ele>
<time>2024-12-16T11:48:59.215Z</time>
</trkpt>
<trkpt lat="31.1040300" lon="35.3742800">
<ele>-276.170013</ele>
<time>2024-12-16T11:48:59.215Z</time>
</trkpt>
<trkpt lat="31.1041100" lon="35.3742300">
<ele>-275.950012</ele>
<time>2024-12-16T11:48:59.215Z</time>
</trkpt>
<trkpt lat="31.1042900" lon="35.3743100">
<ele>-274.980011</ele>
<time>2024-12-16T11:48:59.215Z</time>
</trkpt>
<trkpt lat="31.1045200" lon="35.3745100">
<ele>-273.279999</ele>
<time>2024-12-16T11:48:59.215Z</time>
</trkpt>
<trkpt lat="31.1046300" lon="35.3745300">
<ele>-272.119995</ele>
<time>2024-12-16T11:48:59.215Z</time>
</trkpt>
<trkpt lat="31.1046700" lon="35.3744900">
<ele>-272.559998</ele>
<time>2024-12-16T11:48:59.215Z</time>
</trkpt>
<trkpt lat="31.1046700" lon="35.3744500">
<ele>-273.279999</ele>
<time>2024-12-16T11:48:59.215Z</time>
</trkpt>
<trkpt lat="31.1046200" lon="35.3742700">
<ele>-274.930023</ele>
<time>2024-12-16T11:48:59.215Z</time>
</trkpt>
<trkpt lat="31.1046500" lon="35.3742200">
<ele>-275.309998</ele>
<time>2024-12-16T11:48:59.215Z</time>
</trkpt>
<trkpt lat="31.1046800" lon="35.3742100">
<ele>-275.449982</ele>
<time>2024-12-16T11:48:59.215Z</time>
</trkpt>
<trkpt lat="31.1047300" lon="35.3742200">
<ele>-275.449982</ele>
<time>2024-12-16T11:48:59.215Z</time>
</trkpt>
<trkpt lat="31.1049300" lon="35.3743300">
<ele>-274.540009</ele>
<time>2024-12-16T11:48:59.215Z</time>
</trkpt>
<trkpt lat="31.1050400" lon="35.3743300">
<ele>-275.320007</ele>
<time>2024-12-16T11:48:59.215Z</time>
</trkpt>
<trkpt lat="31.1051100" lon="35.3742800">
<ele>-277.489990</ele>
<time>2024-12-16T11:48:59.215Z</time>
</trkpt>
<trkpt lat="31.1051900" lon="35.3740200">
<ele>-282.290009</ele>
<time>2024-12-16T11:48:59.215Z</time>
</trkpt>
<trkpt lat="31.1052500" lon="35.3739800">
<ele>-283.500000</ele>
<time>2024-12-16T11:48:59.215Z</time>
</trkpt>
<trkpt lat="31.1052800" lon="35.3739700">
<ele>-284.010010</ele>
<time>2024-12-16T11:48:59.215Z</time>
</trkpt>
<trkpt lat="31.1053400" lon="35.3739900">
<ele>-284.369995</ele>
<time>2024-12-16T11:48:59.215Z</time>
</trkpt>
<trkpt lat="31.1056000" lon="35.3742200">
<ele>-284.329987</ele>
<time>2024-12-16T11:48:59.215Z</time>
</trkpt>
<trkpt lat="31.1056500" lon="35.3742200">
<ele>-284.869995</ele>
<time>2024-12-16T11:48:59.215Z</time>
</trkpt>
<trkpt lat="31.1057000" lon="35.3742000">
<ele>-285.839996</ele>
<time>2024-12-16T11:48:59.215Z</time>
</trkpt>
<trkpt lat="31.1057200" lon="35.3741500">
<ele>-286.910004</ele>
<time>2024-12-16T11:48:59.215Z</time>
</trkpt>
<trkpt lat="31.1056700" lon="35.3739700">
<ele>-287.529999</ele>
<time>2024-12-16T11:48:59.215Z</time>
</trkpt>
<trkpt lat="31.1056700" lon="35.3739100">
<ele>-287.920013</ele>
<time>2024-12-16T11:48:59.215Z</time>
</trkpt>
<trkpt lat="31.1057000" lon="35.3738600">
<ele>-288.750000</ele>
<time>2024-12-16T11:48:59.215Z</time>
</trkpt>
<trkpt lat="31.1057400" lon="35.3738300">
<ele>-289.529999</ele>
<time>2024-12-16T11:48:59.215Z</time>
</trkpt>
<trkpt lat="31.1057800" lon="35.3738400">
<ele>-290.140015</ele>
<time>2024-12-16T11:48:59.215Z</time>
</trkpt>
<trkpt lat="31.1058200" lon="35.3738900">
<ele>-290.750000</ele>
<time>2024-12-16T11:48:59.215Z</time>
</trkpt>
<trkpt lat="31.1059100" lon="35.3742200">
<ele>-287.119995</ele>
<time>2024-12-16T11:48:59.215Z</time>
</trkpt>
<trkpt lat="31.1059900" lon="35.3743100">
<ele>-285.470001</ele>
<time>2024-12-16T11:48:59.215Z</time>
</trkpt>
<trkpt lat="31.1060600" lon="35.3743300">
<ele>-285.289978</ele>
<time>2024-12-16T11:48:59.215Z</time>
</trkpt>
<trkpt lat="31.1061100" lon="35.3743100">
<ele>-285.899994</ele>
<time>2024-12-16T11:48:59.215Z</time>
</trkpt>
<trkpt lat="31.1061400" lon="35.3741900">
<ele>-288.600006</ele>
<time>2024-12-16T11:48:59.215Z</time>
</trkpt>
<trkpt lat="31.1059500" lon="35.3737500">
<ele>-291.419983</ele>
<time>2024-12-16T11:48:59.215Z</time>
</trkpt>
<trkpt lat="31.1059500" lon="35.3736800">
<ele>-291.419983</ele>
<time>2024-12-16T11:48:59.215Z</time>
</trkpt>
<trkpt lat="31.1059700" lon="35.3736300">
<ele>-291.489990</ele>
<time>2024-12-16T11:48:59.215Z</time>
</trkpt>
<trkpt lat="31.1060000" lon="35.3736100">
<ele>-291.580017</ele>
<time>2024-12-16T11:48:59.215Z</time>
</trkpt>
<trkpt lat="31.1060600" lon="35.3736100">
<ele>-291.799988</ele>
<time>2024-12-16T11:48:59.215Z</time>
</trkpt>
<trkpt lat="31.1063400" lon="35.3737900">
<ele>-291.119995</ele>
<time>2024-12-16T11:48:59.215Z</time>
</trkpt>
<trkpt lat="31.1063600" lon="35.3737900">
<ele>-291.040009</ele>
<time>2024-12-16T11:48:59.215Z</time>
</trkpt>
<trkpt lat="31.1063600" lon="35.3738100">
<ele>-291.240021</ele>
<time>2024-12-16T11:48:59.215Z</time>
</trkpt>
<trkpt lat="31.1063600" lon="35.3738100">
<ele>-291.240021</ele>
<time>2024-12-16T11:48:59.215Z</time>
</trkpt>
<trkpt lat="31.1063800" lon="35.3738200">
<ele>-291.279999</ele>
<time>2024-12-16T11:48:59.215Z</time>
</trkpt>
<trkpt lat="31.1064500" lon="35.3738300">
<ele>-290.440002</ele>
<time>2024-12-16T11:48:59.215Z</time>
</trkpt>
<trkpt lat="31.1065100" lon="35.3738400">
<ele>-289.649994</ele>
<time>2024-12-16T11:48:59.215Z</time>
</trkpt>
<trkpt lat="31.1065800" lon="35.3738600">
<ele>-288.860016</ele>
<time>2024-12-16T11:48:59.215Z</time>
</trkpt>
<trkpt lat="31.1066400" lon="35.3738800">
<ele>-288.260010</ele>
<time>2024-12-16T11:48:59.215Z</time>
</trkpt>
<trkpt lat="31.1066900" lon="35.3739100">
<ele>-288.070007</ele>
<time>2024-12-16T11:48:59.215Z</time>
</trkpt>
<trkpt lat="31.1067400" lon="35.3739500">
<ele>-288.190002</ele>
<time>2024-12-16T11:48:59.215Z</time>
</trkpt>
<trkpt lat="31.1067700" lon="35.3740000">
<ele>-288.600006</ele>
<time>2024-12-16T11:48:59.215Z</time>
</trkpt>
<trkpt lat="31.1067900" lon="35.3740600">
<ele>-289.229980</ele>
<time>2024-12-16T11:48:59.215Z</time>
</trkpt>
<trkpt lat="31.1068100" lon="35.3741200">
<ele>-289.890015</ele>
<time>2024-12-16T11:48:59.215Z</time>
</trkpt>
<trkpt lat="31.1068300" lon="35.3741900">
<ele>-290.210022</ele>
<time>2024-12-16T11:48:59.215Z</time>
</trkpt>
<trkpt lat="31.1068600" lon="35.3742500">
<ele>-289.610016</ele>
<time>2024-12-16T11:48:59.215Z</time>
</trkpt>
<trkpt lat="31.1069000" lon="35.3742900">
<ele>-289.200012</ele>
<time>2024-12-16T11:48:59.215Z</time>
</trkpt>
<trkpt lat="31.1069400" lon="35.3743400">
<ele>-288.759979</ele>
<time>2024-12-16T11:48:59.215Z</time>
</trkpt>
<trkpt lat="31.1069900" lon="35.3743600">
<ele>-288.869995</ele>
<time>2024-12-16T11:48:59.215Z</time>
</trkpt>
<trkpt lat="31.1070400" lon="35.3743700">
<ele>-289.059998</ele>
<time>2024-12-16T11:48:59.215Z</time>
</trkpt>
<trkpt lat="31.1070800" lon="35.3743700">
<ele>-289.290009</ele>
<time>2024-12-16T11:48:59.215Z</time>
</trkpt>
<trkpt lat="31.1071200" lon="35.3743600">
<ele>-289.619995</ele>
<time>2024-12-16T11:48:59.215Z</time>
</trkpt>
<trkpt lat="31.1071500" lon="35.3743400">
<ele>-290.049988</ele>
<time>2024-12-16T11:48:59.215Z</time>
</trkpt>
<trkpt lat="31.1071800" lon="35.3742900">
<ele>-290.899994</ele>
<time>2024-12-16T11:48:59.215Z</time>
</trkpt>
<trkpt lat="31.1072000" lon="35.3742200">
<ele>-292.019989</ele>
<time>2024-12-16T11:48:59.215Z</time>
</trkpt>
<trkpt lat="31.1072300" lon="35.3741500">
<ele>-292.850006</ele>
<time>2024-12-16T11:48:59.215Z</time>
</trkpt>
<trkpt lat="31.1072600" lon="35.3740900">
<ele>-292.380005</ele>
<time>2024-12-16T11:48:59.215Z</time>
</trkpt>
<trkpt lat="31.1073000" lon="35.3740300">
<ele>-292.079987</ele>
<time>2024-12-16T11:48:59.215Z</time>
</trkpt>
<trkpt lat="31.1073500" lon="35.3740000">
<ele>-292.209991</ele>
<time>2024-12-16T11:48:59.215Z</time>
</trkpt>
<trkpt lat="31.1074100" lon="35.3740000">
<ele>-292.690002</ele>
<time>2024-12-16T11:48:59.215Z</time>
</trkpt>
<trkpt lat="31.1074700" lon="35.3740000">
<ele>-293.160004</ele>
<time>2024-12-16T11:48:59.215Z</time>
</trkpt>
<trkpt lat="31.1075200" lon="35.3740000">
<ele>-293.369995</ele>
<time>2024-12-16T11:48:59.215Z</time>
</trkpt>
<trkpt lat="31.1075700" lon="35.3740100">
<ele>-293.330017</ele>
<time>2024-12-16T11:48:59.215Z</time>
</trkpt>
<trkpt lat="31.1076100" lon="35.3740100">
<ele>-293.260010</ele>
<time>2024-12-16T11:48:59.215Z</time>
</trkpt>
<trkpt lat="31.1076500" lon="35.3739900">
<ele>-293.169983</ele>
<time>2024-12-16T11:48:59.215Z</time>
</trkpt>
<trkpt lat="31.1076800" lon="35.3739600">
<ele>-293.089996</ele>
<time>2024-12-16T11:48:59.215Z</time>
</trkpt>
<trkpt lat="31.1077200" lon="35.3739300">
<ele>-293.029999</ele>
<time>2024-12-16T11:48:59.215Z</time>
</trkpt>
<trkpt lat="31.1077700" lon="35.3739300">
<ele>-293.000000</ele>
<time>2024-12-16T11:48:59.215Z</time>
</trkpt>
<trkpt lat="31.1078000" lon="35.3739300">
<ele>-292.989990</ele>
<time>2024-12-16T11:48:59.215Z</time>
</trkpt>
<trkpt lat="31.1078400" lon="35.3739900">
<ele>-292.920013</ele>
<time>2024-12-16T11:48:59.215Z</time>
</trkpt>
<trkpt lat="31.1078400" lon="35.3740400">
<ele>-292.880005</ele>
<time>2024-12-16T11:48:59.215Z</time>
</trkpt>
<trkpt lat="31.1078500" lon="35.3741000">
<ele>-292.800018</ele>
<time>2024-12-16T11:48:59.215Z</time>
</trkpt>
<trkpt lat="31.1078600" lon="35.3741500">
<ele>-292.720001</ele>
<time>2024-12-16T11:48:59.215Z</time>
</trkpt>
<trkpt lat="31.1078700" lon="35.3741800">
<ele>-292.330017</ele>
<time>2024-12-16T11:48:59.215Z</time>
</trkpt>
<trkpt lat="31.1079200" lon="35.3741900">
<ele>-291.899994</ele>
<time>2024-12-16T11:48:59.215Z</time>
</trkpt>
<trkpt lat="31.1079300" lon="35.3741100">
<ele>-292.559998</ele>
<time>2024-12-16T11:48:59.215Z</time>
</trkpt>
<trkpt lat="31.1079400" lon="35.3740500">
<ele>-292.660004</ele>
<time>2024-12-16T11:48:59.215Z</time>
</trkpt>
<trkpt lat="31.1079400" lon="35.3739900">
<ele>-292.790009</ele>
<time>2024-12-16T11:48:59.215Z</time>
</trkpt>
<trkpt lat="31.1079600" lon="35.3739400">
<ele>-292.880005</ele>
<time>2024-12-16T11:48:59.215Z</time>
</trkpt>
<trkpt lat="31.1080000" lon="35.3739000">
<ele>-292.970001</ele>
<time>2024-12-16T11:48:59.215Z</time>
</trkpt>
<trkpt lat="31.1080800" lon="35.3738400">
<ele>-292.529999</ele>
<time>2024-12-16T11:48:59.215Z</time>
</trkpt>
<trkpt lat="31.1081100" lon="35.3737900">
<ele>-292.209991</ele>
<time>2024-12-16T11:48:59.215Z</time>
</trkpt>
<trkpt lat="31.1081600" lon="35.3737700">
<ele>-292.359985</ele>
<time>2024-12-16T11:48:59.215Z</time>
</trkpt>
<trkpt lat="31.1082000" lon="35.3737800">
<ele>-292.639984</ele>
<time>2024-12-16T11:48:59.215Z</time>
</trkpt>
<trkpt lat="31.1082300" lon="35.3738000">
<ele>-292.839996</ele>
<time>2024-12-16T11:48:59.215Z</time>
</trkpt>
<trkpt lat="31.1082500" lon="35.3738400">
<ele>-292.959991</ele>
<time>2024-12-16T11:48:59.215Z</time>
</trkpt>
<trkpt lat="31.1082800" lon="35.3738800">
<ele>-293.010010</ele>
<time>2024-12-16T11:48:59.215Z</time>
</trkpt>
<trkpt lat="31.1083300" lon="35.3738900">
<ele>-292.980011</ele>
<time>2024-12-16T11:48:59.215Z</time>
</trkpt>
<trkpt lat="31.1083700" lon="35.3738900">
<ele>-292.579987</ele>
<time>2024-12-16T11:48:59.215Z</time>
</trkpt>
<trkpt lat="31.1084000" lon="35.3738800">
<ele>-292.339996</ele>
<time>2024-12-16T11:48:59.215Z</time>
</trkpt>
<trkpt lat="31.1084300" lon="35.3738300">
<ele>-292.460022</ele>
<time>2024-12-16T11:48:59.215Z</time>
</trkpt>
<trkpt lat="31.1084500" lon="35.3737700">
<ele>-292.889984</ele>
<time>2024-12-16T11:48:59.215Z</time>
</trkpt>
<trkpt lat="31.1084900" lon="35.3737200">
<ele>-293.290009</ele>
<time>2024-12-16T11:48:59.215Z</time>
</trkpt>
<trkpt lat="31.1085400" lon="35.3736900">
<ele>-293.610016</ele>
<time>2024-12-16T11:48:59.215Z</time>
</trkpt>
<trkpt lat="31.1085900" lon="35.3736800">
<ele>-293.760010</ele>
<time>2024-12-16T11:48:59.215Z</time>
</trkpt>
<trkpt lat="31.1086400" lon="35.3736800">
<ele>-294.250000</ele>
<time>2024-12-16T11:48:59.215Z</time>
</trkpt>
<trkpt lat="31.1086700" lon="35.3737100">
<ele>-294.199982</ele>
<time>2024-12-16T11:48:59.215Z</time>
</trkpt>
<trkpt lat="31.1086900" lon="35.3737600">
<ele>-293.589996</ele>
<time>2024-12-16T11:48:59.215Z</time>
</trkpt>
<trkpt lat="31.1087100" lon="35.3738200">
<ele>-292.750000</ele>
<time>2024-12-16T11:48:59.215Z</time>
</trkpt>
<trkpt lat="31.1087700" lon="35.3738300">
<ele>-293.470001</ele>
<time>2024-12-16T11:48:59.215Z</time>
</trkpt>
<trkpt lat="31.1088200" lon="35.3738200">
<ele>-294.429993</ele>
<time>2024-12-16T11:48:59.215Z</time>
</trkpt>
<trkpt lat="31.1088500" lon="35.3737500">
<ele>-296.369995</ele>
<time>2024-12-16T11:48:59.215Z</time>
</trkpt>
<trkpt lat="31.1088600" lon="35.3737000">
<ele>-297.589996</ele>
<time>2024-12-16T11:48:59.215Z</time>
</trkpt>
<trkpt lat="31.1088700" lon="35.3736600">
<ele>-298.619995</ele>
<time>2024-12-16T11:48:59.215Z</time>
</trkpt>
<trkpt lat="31.1088900" lon="35.3736400">
<ele>-299.380005</ele>
<time>2024-12-16T11:48:59.215Z</time>
</trkpt>
<trkpt lat="31.1089300" lon="35.3736400">
<ele>-299.660004</ele>
<time>2024-12-16T11:48:59.215Z</time>
</trkpt>
<trkpt lat="31.1089600" lon="35.3736500">
<ele>-299.639984</ele>
<time>2024-12-16T11:48:59.215Z</time>
</trkpt>
<trkpt lat="31.1090400" lon="35.3736700">
<ele>-299.699982</ele>
<time>2024-12-16T11:48:59.215Z</time>
</trkpt>
<trkpt lat="31.1091000" lon="35.3736800">
<ele>-299.839996</ele>
<time>2024-12-16T11:48:59.215Z</time>
</trkpt>
<trkpt lat="31.1091500" lon="35.3736800">
<ele>-300.160004</ele>
<time>2024-12-16T11:48:59.215Z</time>
</trkpt>
<trkpt lat="31.1091800" lon="35.3736800">
<ele>-300.200012</ele>
<time>2024-12-16T11:48:59.215Z</time>
</trkpt>
<trkpt lat="31.1092000" lon="35.3736300">
<ele>-301.399994</ele>
<time>2024-12-16T11:48:59.215Z</time>
</trkpt>
<trkpt lat="31.1092100" lon="35.3735500">
<ele>-301.579987</ele>
<time>2024-12-16T11:48:59.215Z</time>
</trkpt>
<trkpt lat="31.1092300" lon="35.3735300">
<ele>-301.519989</ele>
<time>2024-12-16T11:48:59.215Z</time>
</trkpt>
<trkpt lat="31.1092600" lon="35.3735200">
<ele>-301.559998</ele>
<time>2024-12-16T11:48:59.215Z</time>
</trkpt>
<trkpt lat="31.1093000" lon="35.3735300">
<ele>-301.640015</ele>
<time>2024-12-16T11:48:59.215Z</time>
</trkpt>
<trkpt lat="31.1093500" lon="35.3736000">
<ele>-301.389984</ele>
<time>2024-12-16T11:48:59.215Z</time>
</trkpt>
<trkpt lat="31.1093900" lon="35.3736700">
<ele>-299.540009</ele>
<time>2024-12-16T11:48:59.215Z</time>
</trkpt>
<trkpt lat="31.1094400" lon="35.3737200">
<ele>-297.890015</ele>
<time>2024-12-16T11:48:59.215Z</time>
</trkpt>
<trkpt lat="31.1095000" lon="35.3737400">
<ele>-297.410004</ele>
<time>2024-12-16T11:48:59.215Z</time>
</trkpt>
<trkpt lat="31.1095700" lon="35.3737500">
<ele>-297.230011</ele>
<time>2024-12-16T11:48:59.215Z</time>
</trkpt>
<trkpt lat="31.1096300" lon="35.3737500">
<ele>-297.329987</ele>
<time>2024-12-16T11:48:59.215Z</time>
</trkpt>
<trkpt lat="31.1096600" lon="35.3737500">
<ele>-297.389984</ele>
<time>2024-12-16T11:48:59.215Z</time>
</trkpt>
<trkpt lat="31.1096600" lon="35.3737100">
<ele>-298.880005</ele>
<time>2024-12-16T11:48:59.215Z</time>
</trkpt>
<trkpt lat="31.1096700" lon="35.3736400">
<ele>-301.540009</ele>
<time>2024-12-16T11:48:59.215Z</time>
</trkpt>
<trkpt lat="31.1097000" lon="35.3736100">
<ele>-302.860016</ele>
<time>2024-12-16T11:48:59.215Z</time>
</trkpt>
<trkpt lat="31.1097600" lon="35.3735700">
<ele>-302.990021</ele>
<time>2024-12-16T11:48:59.215Z</time>
</trkpt>
<trkpt lat="31.1098100" lon="35.3735400">
<ele>-302.769989</ele>
<time>2024-12-16T11:48:59.215Z</time>
</trkpt>
<trkpt lat="31.1098300" lon="35.3735000">
<ele>-303.279999</ele>
<time>2024-12-16T11:48:59.215Z</time>
</trkpt>
<trkpt lat="31.1098300" lon="35.3734300">
<ele>-304.679993</ele>
<time>2024-12-16T11:48:59.215Z</time>
</trkpt>
<trkpt lat="31.1098000" lon="35.3734100">
<ele>-305.309998</ele>
<time>2024-12-16T11:48:59.215Z</time>
</trkpt>
<trkpt lat="31.1097700" lon="35.3733900">
<ele>-305.869995</ele>
<time>2024-12-16T11:48:59.215Z</time>
</trkpt>
<trkpt lat="31.1097300" lon="35.3733800">
<ele>-306.279999</ele>
<time>2024-12-16T11:48:59.215Z</time>
</trkpt>
<trkpt lat="31.1097200" lon="35.3733500">
<ele>-306.739990</ele>
<time>2024-12-16T11:48:59.215Z</time>
</trkpt>
<trkpt lat="31.1097100" lon="35.3732800">
<ele>-305.949982</ele>
<time>2024-12-16T11:48:59.215Z</time>
</trkpt>
<trkpt lat="31.1097300" lon="35.3732300">
<ele>-305.119995</ele>
<time>2024-12-16T11:48:59.215Z</time>
</trkpt>
<trkpt lat="31.1097600" lon="35.3732200">
<ele>-304.880005</ele>
<time>2024-12-16T11:48:59.215Z</time>
</trkpt>
<trkpt lat="31.1098100" lon="35.3732200">
<ele>-304.769989</ele>
<time>2024-12-16T11:48:59.215Z</time>
</trkpt>
<trkpt lat="31.1098400" lon="35.3732300">
<ele>-304.869995</ele>
<time>2024-12-16T11:48:59.215Z</time>
</trkpt>
<trkpt lat="31.1098800" lon="35.3732500">
<ele>-305.100006</ele>
<time>2024-12-16T11:48:59.215Z</time>
</trkpt>
<trkpt lat="31.1099200" lon="35.3732700">
<ele>-305.309998</ele>
<time>2024-12-16T11:48:59.215Z</time>
</trkpt>
<trkpt lat="31.1099500" lon="35.3733100">
<ele>-305.830017</ele>
<time>2024-12-16T11:48:59.215Z</time>
</trkpt>
<trkpt lat="31.1099900" lon="35.3733400">
<ele>-305.850006</ele>
<time>2024-12-16T11:48:59.215Z</time>
</trkpt>
<trkpt lat="31.1100500" lon="35.3733700">
<ele>-305.110016</ele>
<time>2024-12-16T11:48:59.215Z</time>
</trkpt>
<trkpt lat="31.1101200" lon="35.3733900">
<ele>-304.980011</ele>
<time>2024-12-16T11:48:59.215Z</time>
</trkpt>
<trkpt lat="31.1101700" lon="35.3733900">
<ele>-305.239990</ele>
<time>2024-12-16T11:48:59.215Z</time>
</trkpt>
<trkpt lat="31.1102100" lon="35.3733800">
<ele>-305.549988</ele>
<time>2024-12-16T11:48:59.215Z</time>
</trkpt>
<trkpt lat="31.1102300" lon="35.3733300">
<ele>-305.959991</ele>
<time>2024-12-16T11:48:59.215Z</time>
</trkpt>
<trkpt lat="31.1102300" lon="35.3732900">
<ele>-305.510010</ele>
<time>2024-12-16T11:48:59.215Z</time>
</trkpt>
<trkpt lat="31.1102200" lon="35.3732600">
<ele>-305.149994</ele>
<time>2024-12-16T11:48:59.215Z</time>
</trkpt>
<trkpt lat="31.1102000" lon="35.3732300">
<ele>-304.779999</ele>
<time>2024-12-16T11:48:59.215Z</time>
</trkpt>
<trkpt lat="31.1101900" lon="35.3731700">
<ele>-304.049988</ele>
<time>2024-12-16T11:48:59.215Z</time>
</trkpt>
<trkpt lat="31.1101900" lon="35.3731400">
<ele>-303.690002</ele>
<time>2024-12-16T11:48:59.215Z</time>
</trkpt>
<trkpt lat="31.1102400" lon="35.3731200">
<ele>-303.589996</ele>
<time>2024-12-16T11:48:59.215Z</time>
</trkpt>
<trkpt lat="31.1102900" lon="35.3731400">
<ele>-303.970001</ele>
<time>2024-12-16T11:48:59.215Z</time>
</trkpt>
<trkpt lat="31.1103100" lon="35.3731700">
<ele>-304.399994</ele>
<time>2024-12-16T11:48:59.215Z</time>
</trkpt>
<trkpt lat="31.1103500" lon="35.3732000">
<ele>-304.960022</ele>
<time>2024-12-16T11:48:59.215Z</time>
</trkpt>
<trkpt lat="31.1103900" lon="35.3732400">
<ele>-305.660004</ele>
<time>2024-12-16T11:48:59.215Z</time>
</trkpt>
<trkpt lat="31.1104400" lon="35.3732700">
<ele>-306.350006</ele>
<time>2024-12-16T11:48:59.215Z</time>
</trkpt>
<trkpt lat="31.1104800" lon="35.3732900">
<ele>-306.869995</ele>
<time>2024-12-16T11:48:59.215Z</time>
</trkpt>
<trkpt lat="31.1105600" lon="35.3733200">
<ele>-307.809998</ele>
<time>2024-12-16T11:48:59.215Z</time>
</trkpt>
<trkpt lat="31.1106100" lon="35.3733500">
<ele>-307.940002</ele>
<time>2024-12-16T11:48:59.215Z</time>
</trkpt>
<trkpt lat="31.1106600" lon="35.3733600">
<ele>-307.899994</ele>
<time>2024-12-16T11:48:59.215Z</time>
</trkpt>
<trkpt lat="31.1107000" lon="35.3733800">
<ele>-307.829987</ele>
<time>2024-12-16T11:48:59.215Z</time>
</trkpt>
<trkpt lat="31.1107600" lon="35.3733800">
<ele>-307.829987</ele>
<time>2024-12-16T11:48:59.215Z</time>
</trkpt>
<trkpt lat="31.1108100" lon="35.3733900">
<ele>-307.799988</ele>
<time>2024-12-16T11:48:59.215Z</time>
</trkpt>
<trkpt lat="31.1108600" lon="35.3733900">
<ele>-307.200012</ele>
<time>2024-12-16T11:48:59.215Z</time>
</trkpt>
<trkpt lat="31.1109200" lon="35.3733900">
<ele>-305.859985</ele>
<time>2024-12-16T11:48:59.215Z</time>
</trkpt>
<trkpt lat="31.1110100" lon="35.3733800">
<ele>-303.910004</ele>
<time>2024-12-16T11:48:59.215Z</time>
</trkpt>
<trkpt lat="31.1110700" lon="35.3733800">
<ele>-302.580017</ele>
<time>2024-12-16T11:48:59.215Z</time>
</trkpt>
<trkpt lat="31.1111300" lon="35.3733700">
<ele>-301.320007</ele>
<time>2024-12-16T11:48:59.215Z</time>
</trkpt>
<trkpt lat="31.1111900" lon="35.3733700">
<ele>-299.989990</ele>
<time>2024-12-16T11:48:59.215Z</time>
</trkpt>
<trkpt lat="31.1112500" lon="35.3733600">
<ele>-298.760010</ele>
<time>2024-12-16T11:48:59.215Z</time>
</trkpt>
<trkpt lat="31.1113000" lon="35.3733400">
<ele>-297.859985</ele>
<time>2024-12-16T11:48:59.215Z</time>
</trkpt>
<trkpt lat="31.1113500" lon="35.3733200">
<ele>-297.089996</ele>
<time>2024-12-16T11:48:59.215Z</time>
</trkpt>
<trkpt lat="31.1114000" lon="35.3732800">
<ele>-297.480011</ele>
<time>2024-12-16T11:48:59.215Z</time>
</trkpt>
<trkpt lat="31.1114300" lon="35.3732300">
<ele>-299.339996</ele>
<time>2024-12-16T11:48:59.215Z</time>
</trkpt>
<trkpt lat="31.1114600" lon="35.3731900">
<ele>-300.869995</ele>
<time>2024-12-16T11:48:59.215Z</time>
</trkpt>
<trkpt lat="31.1114900" lon="35.3731400">
<ele>-302.440002</ele>
<time>2024-12-16T11:48:59.215Z</time>
</trkpt>
<trkpt lat="31.1115200" lon="35.3731000">
<ele>-303.699982</ele>
<time>2024-12-16T11:48:59.215Z</time>
</trkpt>
<trkpt lat="31.1115400" lon="35.3730700">
<ele>-304.519989</ele>
<time>2024-12-16T11:48:59.215Z</time>
</trkpt>
<trkpt lat="31.1115700" lon="35.3730600">
<ele>-305.209991</ele>
<time>2024-12-16T11:48:59.215Z</time>
</trkpt>
<trkpt lat="31.1116000" lon="35.3730600">
<ele>-305.750000</ele>
<time>2024-12-16T11:48:59.215Z</time>
</trkpt>
<trkpt lat="31.1116300" lon="35.3730700">
<ele>-306.209991</ele>
<time>2024-12-16T11:48:59.215Z</time>
</trkpt>
<trkpt lat="31.1116700" lon="35.3731200">
<ele>-306.580017</ele>
<time>2024-12-16T11:48:59.215Z</time>
</trkpt>
<trkpt lat="31.1117000" lon="35.3731500">
<ele>-306.800018</ele>
<time>2024-12-16T11:48:59.215Z</time>
</trkpt>
<trkpt lat="31.1117300" lon="35.3731600">
<ele>-307.190002</ele>
<time>2024-12-16T11:48:59.215Z</time>
</trkpt>
<trkpt lat="31.1117700" lon="35.3731700">
<ele>-307.750000</ele>
<time>2024-12-16T11:48:59.215Z</time>
</trkpt>
<trkpt lat="31.1118100" lon="35.3731800">
<ele>-308.350006</ele>
<time>2024-12-16T11:48:59.215Z</time>
</trkpt>
<trkpt lat="31.1118700" lon="35.3731900">
<ele>-309.290009</ele>
<time>2024-12-16T11:48:59.215Z</time>
</trkpt>
<trkpt lat="31.1119100" lon="35.3732200">
<ele>-310.000000</ele>
<time>2024-12-16T11:48:59.215Z</time>
</trkpt>
<trkpt lat="31.1119700" lon="35.3732300">
<ele>-310.709991</ele>
<time>2024-12-16T11:48:59.215Z</time>
</trkpt>
<trkpt lat="31.1120300" lon="35.3732400">
<ele>-310.970001</ele>
<time>2024-12-16T11:48:59.215Z</time>
</trkpt>
<trkpt lat="31.1120800" lon="35.3732500">
<ele>-311.239990</ele>
<time>2024-12-16T11:48:59.215Z</time>
</trkpt>
<trkpt lat="31.1121200" lon="35.3732600">
<ele>-311.500000</ele>
<time>2024-12-16T11:48:59.215Z</time>
</trkpt>
<trkpt lat="31.1121900" lon="35.3732600">
<ele>-311.799988</ele>
<time>2024-12-16T11:48:59.215Z</time>
</trkpt>
<trkpt lat="31.1122300" lon="35.3732700">
<ele>-312.080017</ele>
<time>2024-12-16T11:48:59.215Z</time>
</trkpt>
<trkpt lat="31.1122600" lon="35.3732900">
<ele>-312.350006</ele>
<time>2024-12-16T11:48:59.215Z</time>
</trkpt>
<trkpt lat="31.1122900" lon="35.3733300">
<ele>-312.950012</ele>
<time>2024-12-16T11:48:59.215Z</time>
</trkpt>
<trkpt lat="31.1123000" lon="35.3733900">
<ele>-312.000000</ele>
<time>2024-12-16T11:48:59.215Z</time>
</trkpt>
<trkpt lat="31.1123200" lon="35.3734300">
<ele>-311.399994</ele>
<time>2024-12-16T11:48:59.215Z</time>
</trkpt>
<trkpt lat="31.1123400" lon="35.3734900">
<ele>-310.569977</ele>
<time>2024-12-16T11:48:59.215Z</time>
</trkpt>
<trkpt lat="31.1123600" lon="35.3735100">
<ele>-310.450012</ele>
<time>2024-12-16T11:48:59.215Z</time>
</trkpt>
<trkpt lat="31.1124200" lon="35.3735200">
<ele>-310.880005</ele>
<time>2024-12-16T11:48:59.215Z</time>
</trkpt>
<trkpt lat="31.1124500" lon="35.3735200">
<ele>-311.169983</ele>
<time>2024-12-16T11:48:59.215Z</time>
</trkpt>
<trkpt lat="31.1124800" lon="35.3735100">
<ele>-311.540009</ele>
<time>2024-12-16T11:48:59.215Z</time>
</trkpt>
<trkpt lat="31.1125000" lon="35.3734700">
<ele>-312.020020</ele>
<time>2024-12-16T11:48:59.215Z</time>
</trkpt>
<trkpt lat="31.1125300" lon="35.3734500">
<ele>-311.959991</ele>
<time>2024-12-16T11:48:59.215Z</time>
</trkpt>
<trkpt lat="31.1125600" lon="35.3734300">
<ele>-311.940002</ele>
<time>2024-12-16T11:48:59.215Z</time>
</trkpt>
<trkpt lat="31.1126000" lon="35.3734200">
<ele>-311.789978</ele>
<time>2024-12-16T11:48:59.215Z</time>
</trkpt>
<trkpt lat="31.1126300" lon="35.3734100">
<ele>-311.720001</ele>
<time>2024-12-16T11:48:59.215Z</time>
</trkpt>
<trkpt lat="31.1126800" lon="35.3733900">
<ele>-311.680023</ele>
<time>2024-12-16T11:48:59.215Z</time>
</trkpt>
<trkpt lat="31.1127200" lon="35.3733600">
<ele>-311.859985</ele>
<time>2024-12-16T11:48:59.215Z</time>
</trkpt>
<trkpt lat="31.1127700" lon="35.3733200">
<ele>-311.649994</ele>
<time>2024-12-16T11:48:59.215Z</time>
</trkpt>
<trkpt lat="31.1128300" lon="35.3732800">
<ele>-310.500000</ele>
<time>2024-12-16T11:48:59.215Z</time>
</trkpt>
<trkpt lat="31.1128800" lon="35.3732400">
<ele>-309.440002</ele>
<time>2024-12-16T11:48:59.215Z</time>
</trkpt>
<trkpt lat="31.1129200" lon="35.3732000">
<ele>-308.410004</ele>
<time>2024-12-16T11:48:59.215Z</time>
</trkpt>
<trkpt lat="31.1129800" lon="35.3731600">
<ele>-307.459991</ele>
<time>2024-12-16T11:48:59.215Z</time>
</trkpt>
<trkpt lat="31.1130500" lon="35.3731500">
<ele>-307.369995</ele>
<time>2024-12-16T11:48:59.215Z</time>
</trkpt>
<trkpt lat="31.1131300" lon="35.3731500">
<ele>-308.540009</ele>
<time>2024-12-16T11:48:59.215Z</time>
</trkpt>
<trkpt lat="31.1131600" lon="35.3731500">
<ele>-309.000000</ele>
<time>2024-12-16T11:48:59.215Z</time>
</trkpt>
<trkpt lat="31.1131900" lon="35.3732400">
<ele>-311.429993</ele>
<time>2024-12-16T11:48:59.215Z</time>
</trkpt>
<trkpt lat="31.1132100" lon="35.3732900">
<ele>-312.750000</ele>
<time>2024-12-16T11:48:59.215Z</time>
</trkpt>
<trkpt lat="31.1132500" lon="35.3733500">
<ele>-313.670013</ele>
<time>2024-12-16T11:48:59.215Z</time>
</trkpt>
<trkpt lat="31.1132900" lon="35.3733900">
<ele>-312.999969</ele>
<time>2024-12-16T11:48:59.215Z</time>
</trkpt>
<trkpt lat="31.1133500" lon="35.3734200">
<ele>-312.579987</ele>
<time>2024-12-16T11:48:59.215Z</time>
</trkpt>
<trkpt lat="31.1134000" lon="35.3734300">
<ele>-312.539978</ele>
<time>2024-12-16T11:48:59.215Z</time>
</trkpt>
<trkpt lat="31.1134600" lon="35.3734300">
<ele>-312.829987</ele>
<time>2024-12-16T11:48:59.215Z</time>
</trkpt>
<trkpt lat="31.1134900" lon="35.3733600">
<ele>-314.850006</ele>
<time>2024-12-16T11:48:59.215Z</time>
</trkpt>
<trkpt lat="31.1135000" lon="35.3732900">
<ele>-314.910004</ele>
<time>2024-12-16T11:48:59.215Z</time>
</trkpt>
<trkpt lat="31.1135000" lon="35.3732500">
<ele>-314.280029</ele>
<time>2024-12-16T11:48:59.215Z</time>
</trkpt>
<trkpt lat="31.1135100" lon="35.3732100">
<ele>-313.699982</ele>
<time>2024-12-16T11:48:59.215Z</time>
</trkpt>
<trkpt lat="31.1135400" lon="35.3731900">
<ele>-313.550018</ele>
<time>2024-12-16T11:48:59.215Z</time>
</trkpt>
<trkpt lat="31.1135800" lon="35.3731800">
<ele>-313.619995</ele>
<time>2024-12-16T11:48:59.215Z</time>
</trkpt>
<trkpt lat="31.1136000" lon="35.3731200">
<ele>-312.860016</ele>
<time>2024-12-16T11:48:59.215Z</time>
</trkpt>
<trkpt lat="31.1135900" lon="35.3730700">
<ele>-312.059998</ele>
<time>2024-12-16T11:48:59.215Z</time>
</trkpt>
<trkpt lat="31.1135800" lon="35.3730300">
<ele>-311.200012</ele>
<time>2024-12-16T11:48:59.215Z</time>
</trkpt>
<trkpt lat="31.1135700" lon="35.3729900">
<ele>-310.220001</ele>
<time>2024-12-16T11:48:59.215Z</time>
</trkpt>
<trkpt lat="31.1135700" lon="35.3729500">
<ele>-309.309998</ele>
<time>2024-12-16T11:48:59.215Z</time>
</trkpt>
<trkpt lat="31.1136000" lon="35.3729200">
<ele>-308.950012</ele>
<time>2024-12-16T11:48:59.215Z</time>
</trkpt>
<trkpt lat="31.1136500" lon="35.3729200">
<ele>-309.419983</ele>
<time>2024-12-16T11:48:59.215Z</time>
</trkpt>
<trkpt lat="31.1137100" lon="35.3729300">
<ele>-310.160004</ele>
<time>2024-12-16T11:48:59.215Z</time>
</trkpt>
<trkpt lat="31.1137500" lon="35.3729600">
<ele>-311.109985</ele>
<time>2024-12-16T11:48:59.215Z</time>
</trkpt>
<trkpt lat="31.1138100" lon="35.3730000">
<ele>-312.380005</ele>
<time>2024-12-16T11:48:59.215Z</time>
</trkpt>
<trkpt lat="31.1138600" lon="35.3730400">
<ele>-313.510010</ele>
<time>2024-12-16T11:48:59.215Z</time>
</trkpt>
<trkpt lat="31.1139100" lon="35.3730900">
<ele>-314.440002</ele>
<time>2024-12-16T11:48:59.215Z</time>
</trkpt>
<trkpt lat="31.1139800" lon="35.3731700">
<ele>-315.269989</ele>
<time>2024-12-16T11:48:59.215Z</time>
</trkpt>
<trkpt lat="31.1140300" lon="35.3732200">
<ele>-315.510010</ele>
<time>2024-12-16T11:48:59.215Z</time>
</trkpt>
<trkpt lat="31.1140700" lon="35.3732600">
<ele>-315.510010</ele>
<time>2024-12-16T11:48:59.215Z</time>
</trkpt>
<trkpt lat="31.1141000" lon="35.3733000">
<ele>-315.359985</ele>
<time>2024-12-16T11:48:59.215Z</time>
</trkpt>
<trkpt lat="31.1141300" lon="35.3733100">
<ele>-315.260010</ele>
<time>2024-12-16T11:48:59.215Z</time>
</trkpt>
<trkpt lat="31.1141800" lon="35.3733100">
<ele>-315.130005</ele>
<time>2024-12-16T11:48:59.215Z</time>
</trkpt>
<trkpt lat="31.1142100" lon="35.3733100">
<ele>-315.050018</ele>
<time>2024-12-16T11:48:59.215Z</time>
</trkpt>
<trkpt lat="31.1142600" lon="35.3732500">
<ele>-315.569977</ele>
<time>2024-12-16T11:48:59.215Z</time>
</trkpt>
<trkpt lat="31.1142800" lon="35.3732100">
<ele>-316.019989</ele>
<time>2024-12-16T11:48:59.215Z</time>
</trkpt>
<trkpt lat="31.1143300" lon="35.3731900">
<ele>-316.350006</ele>
<time>2024-12-16T11:48:59.215Z</time>
</trkpt>
<trkpt lat="31.1143700" lon="35.3731800">
<ele>-316.580017</ele>
<time>2024-12-16T11:48:59.215Z</time>
</trkpt>
<trkpt lat="31.1144100" lon="35.3731800">
<ele>-316.679993</ele>
<time>2024-12-16T11:48:59.215Z</time>
</trkpt>
<trkpt lat="31.1144700" lon="35.3731800">
<ele>-316.700012</ele>
<time>2024-12-16T11:48:59.215Z</time>
</trkpt>
<trkpt lat="31.1145200" lon="35.3731900">
<ele>-316.429993</ele>
<time>2024-12-16T11:48:59.215Z</time>
</trkpt>
<trkpt lat="31.1145600" lon="35.3732000">
<ele>-316.220001</ele>
<time>2024-12-16T11:48:59.215Z</time>
</trkpt>
<trkpt lat="31.1146000" lon="35.3732100">
<ele>-316.029999</ele>
<time>2024-12-16T11:48:59.215Z</time>
</trkpt>
<trkpt lat="31.1146300" lon="35.3732200">
<ele>-315.890015</ele>
<time>2024-12-16T11:48:59.215Z</time>
</trkpt>
<trkpt lat="31.1146700" lon="35.3732400">
<ele>-315.669983</ele>
<time>2024-12-16T11:48:59.215Z</time>
</trkpt>
<trkpt lat="31.1147100" lon="35.3732500">
<ele>-315.600006</ele>
<time>2024-12-16T11:48:59.215Z</time>
</trkpt>
<trkpt lat="31.1147500" lon="35.3732600">
<ele>-315.650024</ele>
<time>2024-12-16T11:48:59.215Z</time>
</trkpt>
<trkpt lat="31.1147900" lon="35.3732600">
<ele>-315.820007</ele>
<time>2024-12-16T11:48:59.215Z</time>
</trkpt>
<trkpt lat="31.1148600" lon="35.3732600">
<ele>-316.129974</ele>
<time>2024-12-16T11:48:59.215Z</time>
</trkpt>
<trkpt lat="31.1149100" lon="35.3732600">
<ele>-316.339996</ele>
<time>2024-12-16T11:48:59.215Z</time>
</trkpt>
<trkpt lat="31.1149700" lon="35.3732400">
<ele>-316.559998</ele>
<time>2024-12-16T11:48:59.215Z</time>
</trkpt>
<trkpt lat="31.1150400" lon="35.3731900">
<ele>-316.710022</ele>
<time>2024-12-16T11:48:59.215Z</time>
</trkpt>
<trkpt lat="31.1151000" lon="35.3731500">
<ele>-317.170013</ele>
<time>2024-12-16T11:48:59.215Z</time>
</trkpt>
<trkpt lat="31.1151500" lon="35.3731100">
<ele>-317.830017</ele>
<time>2024-12-16T11:48:59.215Z</time>
</trkpt>
<trkpt lat="31.1152000" lon="35.3730700">
<ele>-318.739990</ele>
<time>2024-12-16T11:48:59.215Z</time>
</trkpt>
<trkpt lat="31.1152500" lon="35.3730400">
<ele>-319.419983</ele>
<time>2024-12-16T11:48:59.215Z</time>
</trkpt>
<trkpt lat="31.1153000" lon="35.3730100">
<ele>-319.570007</ele>
<time>2024-12-16T11:48:59.215Z</time>
</trkpt>
<trkpt lat="31.1153500" lon="35.3730000">
<ele>-319.660004</ele>
<time>2024-12-16T11:48:59.215Z</time>
</trkpt>
<trkpt lat="31.1154000" lon="35.3729900">
<ele>-319.809998</ele>
<time>2024-12-16T11:48:59.215Z</time>
</trkpt>
<trkpt lat="31.1154500" lon="35.3730000">
<ele>-320.019989</ele>
<time>2024-12-16T11:48:59.215Z</time>
</trkpt>
<trkpt lat="31.1154700" lon="35.3730100">
<ele>-320.079987</ele>
<time>2024-12-16T11:48:59.215Z</time>
</trkpt>
<trkpt lat="31.1154800" lon="35.3730500">
<ele>-320.010010</ele>
<time>2024-12-16T11:48:59.215Z</time>
</trkpt>
<trkpt lat="31.1154800" lon="35.3731000">
<ele>-319.360016</ele>
<time>2024-12-16T11:48:59.215Z</time>
</trkpt>
<trkpt lat="31.1154900" lon="35.3731300">
<ele>-318.929993</ele>
<time>2024-12-16T11:48:59.215Z</time>
</trkpt>
<trkpt lat="31.1155000" lon="35.3731700">
<ele>-318.349976</ele>
<time>2024-12-16T11:48:59.215Z</time>
</trkpt>
<trkpt lat="31.1155400" lon="35.3731700">
<ele>-318.349976</ele>
<time>2024-12-16T11:48:59.215Z</time>
</trkpt>
<trkpt lat="31.1155700" lon="35.3731700">
<ele>-318.290009</ele>
<time>2024-12-16T11:48:59.215Z</time>
</trkpt>
<trkpt lat="31.1156400" lon="35.3731400">
<ele>-318.359985</ele>
<time>2024-12-16T11:48:59.215Z</time>
</trkpt>
<trkpt lat="31.1156800" lon="35.3731300">
<ele>-318.269989</ele>
<time>2024-12-16T11:48:59.215Z</time>
</trkpt>
<trkpt lat="31.1157500" lon="35.3731100">
<ele>-318.090027</ele>
<time>2024-12-16T11:48:59.215Z</time>
</trkpt>
<trkpt lat="31.1157800" lon="35.3730800">
<ele>-318.170013</ele>
<time>2024-12-16T11:48:59.215Z</time>
</trkpt>
<trkpt lat="31.1158100" lon="35.3730000">
<ele>-318.019989</ele>
<time>2024-12-16T11:48:59.215Z</time>
</trkpt>
<trkpt lat="31.1158300" lon="35.3729500">
<ele>-317.660004</ele>
<time>2024-12-16T11:48:59.215Z</time>
</trkpt>
<trkpt lat="31.1158500" lon="35.3728800">
<ele>-317.339996</ele>
<time>2024-12-16T11:48:59.215Z</time>
</trkpt>
<trkpt lat="31.1158600" lon="35.3728200">
<ele>-317.190002</ele>
<time>2024-12-16T11:48:59.215Z</time>
</trkpt>
<trkpt lat="31.1158700" lon="35.3727400">
<ele>-317.470001</ele>
<time>2024-12-16T11:48:59.215Z</time>
</trkpt>
<trkpt lat="31.1158900" lon="35.3726700">
<ele>-318.049988</ele>
<time>2024-12-16T11:48:59.215Z</time>
</trkpt>
<trkpt lat="31.1159100" lon="35.3726100">
<ele>-318.420013</ele>
<time>2024-12-16T11:48:59.215Z</time>
</trkpt>
<trkpt lat="31.1159500" lon="35.3725400">
<ele>-318.550018</ele>
<time>2024-12-16T11:48:59.215Z</time>
</trkpt>
<trkpt lat="31.1160000" lon="35.3725100">
<ele>-318.179993</ele>
<time>2024-12-16T11:48:59.215Z</time>
</trkpt>
<trkpt lat="31.1160500" lon="35.3725000">
<ele>-317.660004</ele>
<time>2024-12-16T11:48:59.215Z</time>
</trkpt>
<trkpt lat="31.1161100" lon="35.3725000">
<ele>-317.010010</ele>
<time>2024-12-16T11:48:59.215Z</time>
</trkpt>
<trkpt lat="31.1161600" lon="35.3725000">
<ele>-317.179993</ele>
<time>2024-12-16T11:48:59.215Z</time>
</trkpt>
<trkpt lat="31.1162200" lon="35.3725000">
<ele>-317.390015</ele>
<time>2024-12-16T11:48:59.215Z</time>
</trkpt>
<trkpt lat="31.1162700" lon="35.3724900">
<ele>-317.700012</ele>
<time>2024-12-16T11:48:59.215Z</time>
</trkpt>
<trkpt lat="31.1163300" lon="35.3724900">
<ele>-317.960022</ele>
<time>2024-12-16T11:48:59.215Z</time>
</trkpt>
<trkpt lat="31.1163900" lon="35.3724700">
<ele>-318.640015</ele>
<time>2024-12-16T11:48:59.215Z</time>
</trkpt>
<trkpt lat="31.1164400" lon="35.3724500">
<ele>-318.839996</ele>
<time>2024-12-16T11:48:59.215Z</time>
</trkpt>
<trkpt lat="31.1164800" lon="35.3724100">
<ele>-319.710022</ele>
<time>2024-12-16T11:48:59.215Z</time>
</trkpt>
<trkpt lat="31.1165200" lon="35.3723600">
<ele>-321.029999</ele>
<time>2024-12-16T11:48:59.215Z</time>
</trkpt>
<trkpt lat="31.1165700" lon="35.3723100">
<ele>-322.580017</ele>
<time>2024-12-16T11:48:59.215Z</time>
</trkpt>
<trkpt lat="31.1166100" lon="35.3722500">
<ele>-324.670013</ele>
<time>2024-12-16T11:48:59.215Z</time>
</trkpt>
<trkpt lat="31.1166500" lon="35.3722000">
<ele>-326.569977</ele>
<time>2024-12-16T11:48:59.215Z</time>
</trkpt>
<trkpt lat="31.1167000" lon="35.3721400">
<ele>-329.279999</ele>
<time>2024-12-16T11:48:59.215Z</time>
</trkpt>
<trkpt lat="31.1167500" lon="35.3720900">
<ele>-331.660004</ele>
<time>2024-12-16T11:48:59.215Z</time>
</trkpt>
<trkpt lat="31.1168000" lon="35.3720400">
<ele>-333.840027</ele>
<time>2024-12-16T11:48:59.215Z</time>
</trkpt>
<trkpt lat="31.1168500" lon="35.3720000">
<ele>-335.579987</ele>
<time>2024-12-16T11:48:59.215Z</time>
</trkpt>
<trkpt lat="31.1169100" lon="35.3719700">
<ele>-337.040009</ele>
<time>2024-12-16T11:48:59.215Z</time>
</trkpt>
<trkpt lat="31.1169600" lon="35.3719400">
<ele>-338.009979</ele>
<time>2024-12-16T11:48:59.215Z</time>
</trkpt>
<trkpt lat="31.1170200" lon="35.3719000">
<ele>-338.369995</ele>
<time>2024-12-16T11:48:59.215Z</time>
</trkpt>
<trkpt lat="31.1170600" lon="35.3718600">
<ele>-338.800018</ele>
<time>2024-12-16T11:48:59.215Z</time>
</trkpt>
<trkpt lat="31.1171100" lon="35.3718200">
<ele>-339.199982</ele>
<time>2024-12-16T11:48:59.215Z</time>
</trkpt>
<trkpt lat="31.1171500" lon="35.3717800">
<ele>-339.629974</ele>
<time>2024-12-16T11:48:59.215Z</time>
</trkpt>
<trkpt lat="31.1172000" lon="35.3717300">
<ele>-340.170013</ele>
<time>2024-12-16T11:48:59.215Z</time>
</trkpt>
<trkpt lat="31.1172500" lon="35.3716900">
<ele>-340.600006</ele>
<time>2024-12-16T11:48:59.215Z</time>
</trkpt>
<trkpt lat="31.1172900" lon="35.3716600">
<ele>-340.770020</ele>
<time>2024-12-16T11:48:59.215Z</time>
</trkpt>
<trkpt lat="31.1173200" lon="35.3716400">
<ele>-340.679993</ele>
<time>2024-12-16T11:48:59.215Z</time>
</trkpt>
<trkpt lat="31.1173500" lon="35.3716400">
<ele>-340.550018</ele>
<time>2024-12-16T11:48:59.215Z</time>
</trkpt>
<trkpt lat="31.1173800" lon="35.3716400">
<ele>-340.420013</ele>
<time>2024-12-16T11:48:59.215Z</time>
</trkpt>
<trkpt lat="31.1174100" lon="35.3716400">
<ele>-340.290009</ele>
<time>2024-12-16T11:48:59.215Z</time>
</trkpt>
<trkpt lat="31.1174300" lon="35.3716700">
<ele>-340.239990</ele>
<time>2024-12-16T11:48:59.215Z</time>
</trkpt>
<trkpt lat="31.1174500" lon="35.3717100">
<ele>-340.070007</ele>
<time>2024-12-16T11:48:59.215Z</time>
</trkpt>
<trkpt lat="31.1174600" lon="35.3717400">
<ele>-339.989990</ele>
<time>2024-12-16T11:48:59.215Z</time>
</trkpt>
<trkpt lat="31.1174700" lon="35.3717800">
<ele>-339.929993</ele>
<time>2024-12-16T11:48:59.215Z</time>
</trkpt>
<trkpt lat="31.1174800" lon="35.3718100">
<ele>-339.920013</ele>
<time>2024-12-16T11:48:59.215Z</time>
</trkpt>
<trkpt lat="31.1175100" lon="35.3718300">
<ele>-340.019989</ele>
<time>2024-12-16T11:48:59.215Z</time>
</trkpt>
<trkpt lat="31.1175400" lon="35.3718500">
<ele>-340.139984</ele>
<time>2024-12-16T11:48:59.215Z</time>
</trkpt>
<trkpt lat="31.1175700" lon="35.3718700">
<ele>-340.350006</ele>
<time>2024-12-16T11:48:59.215Z</time>
</trkpt>
<trkpt lat="31.1176000" lon="35.3718900">
<ele>-340.659973</ele>
<time>2024-12-16T11:48:59.215Z</time>
</trkpt>
<trkpt lat="31.1176300" lon="35.3719200">
<ele>-341.160004</ele>
<time>2024-12-16T11:48:59.215Z</time>
</trkpt>
<trkpt lat="31.1176700" lon="35.3719300">
<ele>-341.649994</ele>
<time>2024-12-16T11:48:59.215Z</time>
</trkpt>
<trkpt lat="31.1177100" lon="35.3719400">
<ele>-342.199982</ele>
<time>2024-12-16T11:48:59.215Z</time>
</trkpt>
<trkpt lat="31.1177500" lon="35.3719600">
<ele>-342.579987</ele>
<time>2024-12-16T11:48:59.215Z</time>
</trkpt>
<trkpt lat="31.1178100" lon="35.3719800">
<ele>-341.800018</ele>
<time>2024-12-16T11:48:59.215Z</time>
</trkpt>
<trkpt lat="31.1178700" lon="35.3720100">
<ele>-340.090027</ele>
<time>2024-12-16T11:48:59.215Z</time>
</trkpt>
<trkpt lat="31.1179200" lon="35.3720300">
<ele>-338.880005</ele>
<time>2024-12-16T11:48:59.215Z</time>
</trkpt>
<trkpt lat="31.1179700" lon="35.3720600">
<ele>-337.959991</ele>
<time>2024-12-16T11:48:59.215Z</time>
</trkpt>
<trkpt lat="31.1180400" lon="35.3720900">
<ele>-336.920013</ele>
<time>2024-12-16T11:48:59.215Z</time>
</trkpt>
<trkpt lat="31.1180900" lon="35.3721200">
<ele>-336.629974</ele>
<time>2024-12-16T11:48:59.215Z</time>
</trkpt>
<trkpt lat="31.1181300" lon="35.3721500">
<ele>-336.500031</ele>
<time>2024-12-16T11:48:59.215Z</time>
</trkpt>
<trkpt lat="31.1181800" lon="35.3721800">
<ele>-336.140015</ele>
<time>2024-12-16T11:48:59.215Z</time>
</trkpt>
<trkpt lat="31.1182200" lon="35.3722100">
<ele>-335.869995</ele>
<time>2024-12-16T11:48:59.215Z</time>
</trkpt>
<trkpt lat="31.1182800" lon="35.3722500">
<ele>-334.959991</ele>
<time>2024-12-16T11:48:59.215Z</time>
</trkpt>
<trkpt lat="31.1183300" lon="35.3722900">
<ele>-334.290009</ele>
<time>2024-12-16T11:48:59.215Z</time>
</trkpt>
<trkpt lat="31.1183600" lon="35.3723200">
<ele>-334.640015</ele>
<time>2024-12-16T11:48:59.215Z</time>
</trkpt>
<trkpt lat="31.1184000" lon="35.3723600">
<ele>-335.219971</ele>
<time>2024-12-16T11:48:59.215Z</time>
</trkpt>
<trkpt lat="31.1184400" lon="35.3724000">
<ele>-335.790009</ele>
<time>2024-12-16T11:48:59.215Z</time>
</trkpt>
<trkpt lat="31.1184800" lon="35.3724300">
<ele>-336.329987</ele>
<time>2024-12-16T11:48:59.215Z</time>
</trkpt>
<trkpt lat="31.1185200" lon="35.3724700">
<ele>-336.910004</ele>
<time>2024-12-16T11:48:59.215Z</time>
</trkpt>
<trkpt lat="31.1185600" lon="35.3725000">
<ele>-337.449982</ele>
<time>2024-12-16T11:48:59.215Z</time>
</trkpt>
<trkpt lat="31.1186000" lon="35.3725300">
<ele>-337.760010</ele>
<time>2024-12-16T11:48:59.215Z</time>
</trkpt>
<trkpt lat="31.1186400" lon="35.3725700">
<ele>-338.169983</ele>
<time>2024-12-16T11:48:59.215Z</time>
</trkpt>
<trkpt lat="31.1186800" lon="35.3726100">
<ele>-338.890015</ele>
<time>2024-12-16T11:48:59.215Z</time>
</trkpt>
<trkpt lat="31.1187200" lon="35.3726400">
<ele>-339.859985</ele>
<time>2024-12-16T11:48:59.215Z</time>
</trkpt>
<trkpt lat="31.1187600" lon="35.3726800">
<ele>-341.200012</ele>
<time>2024-12-16T11:48:59.215Z</time>
</trkpt>
<trkpt lat="31.1188000" lon="35.3727200">
<ele>-342.879974</ele>
<time>2024-12-16T11:48:59.215Z</time>
</trkpt>
<trkpt lat="31.1188500" lon="35.3727500">
<ele>-345.010010</ele>
<time>2024-12-16T11:48:59.215Z</time>
</trkpt>
<trkpt lat="31.1188900" lon="35.3727900">
<ele>-346.900024</ele>
<time>2024-12-16T11:48:59.215Z</time>
</trkpt>
<trkpt lat="31.1189300" lon="35.3728300">
<ele>-346.380005</ele>
<time>2024-12-16T11:48:59.215Z</time>
</trkpt>
<trkpt lat="31.1189700" lon="35.3728700">
<ele>-345.950012</ele>
<time>2024-12-16T11:48:59.215Z</time>
</trkpt>
<trkpt lat="31.1190100" lon="35.3729100">
<ele>-345.589996</ele>
<time>2024-12-16T11:48:59.215Z</time>
</trkpt>
<trkpt lat="31.1190500" lon="35.3729500">
<ele>-345.319977</ele>
<time>2024-12-16T11:48:59.215Z</time>
</trkpt>
<trkpt lat="31.1191000" lon="35.3729900">
<ele>-345.109985</ele>
<time>2024-12-16T11:48:59.215Z</time>
</trkpt>
<trkpt lat="31.1191400" lon="35.3730200">
<ele>-345.019989</ele>
<time>2024-12-16T11:48:59.215Z</time>
</trkpt>
<trkpt lat="31.1191800" lon="35.3730600">
<ele>-345.160004</ele>
<time>2024-12-16T11:48:59.215Z</time>
</trkpt>
<trkpt lat="31.1192200" lon="35.3730900">
<ele>-345.720001</ele>
<time>2024-12-16T11:48:59.215Z</time>
</trkpt>
<trkpt lat="31.1192600" lon="35.3731200">
<ele>-346.320007</ele>
<time>2024-12-16T11:48:59.215Z</time>
</trkpt>
<trkpt lat="31.1193100" lon="35.3731600">
<ele>-347.119995</ele>
<time>2024-12-16T11:48:59.215Z</time>
</trkpt>
<trkpt lat="31.1193500" lon="35.3731900">
<ele>-347.779999</ele>
<time>2024-12-16T11:48:59.215Z</time>
</trkpt>
<trkpt lat="31.1193900" lon="35.3732300">
<ele>-348.539978</ele>
<time>2024-12-16T11:48:59.215Z</time>
</trkpt>
<trkpt lat="31.1194300" lon="35.3732700">
<ele>-349.349976</ele>
<time>2024-12-16T11:48:59.215Z</time>
</trkpt>
<trkpt lat="31.1194800" lon="35.3733000">
<ele>-349.420013</ele>
<time>2024-12-16T11:48:59.215Z</time>
</trkpt>
<trkpt lat="31.1195200" lon="35.3733400">
<ele>-349.040009</ele>
<time>2024-12-16T11:48:59.215Z</time>
</trkpt>
<trkpt lat="31.1195600" lon="35.3733800">
<ele>-347.859985</ele>
<time>2024-12-16T11:48:59.215Z</time>
</trkpt>
<trkpt lat="31.1196000" lon="35.3734200">
<ele>-346.829987</ele>
<time>2024-12-16T11:48:59.215Z</time>
</trkpt>
<trkpt lat="31.1196400" lon="35.3734500">
<ele>-346.130005</ele>
<time>2024-12-16T11:48:59.215Z</time>
</trkpt>
<trkpt lat="31.1196400" lon="35.3734500">
<ele>-346.130005</ele>
<time>2024-12-16T11:48:59.215Z</time>
</trkpt>
<trkpt lat="31.1196200" lon="35.3734700">
<ele>-345.899994</ele>
<time>2024-12-16T11:48:59.215Z</time>
</trkpt>
<trkpt lat="31.1196400" lon="35.3734900">
<ele>-345.530029</ele>
<time>2024-12-16T11:48:59.215Z</time>
</trkpt>
<trkpt lat="31.1197700" lon="35.3736500">
<ele>-343.399994</ele>
<time>2024-12-16T11:48:59.215Z</time>
</trkpt>
<trkpt lat="31.1199300" lon="35.3738100">
<ele>-342.559998</ele>
<time>2024-12-16T11:48:59.215Z</time>
</trkpt>
<trkpt lat="31.1200400" lon="35.3738800">
<ele>-343.309998</ele>
<time>2024-12-16T11:48:59.215Z</time>
</trkpt>
<trkpt lat="31.1203000" lon="35.3739800">
<ele>-343.359985</ele>
<time>2024-12-16T11:48:59.215Z</time>
</trkpt>
<trkpt lat="31.1203000" lon="35.3739800">
<ele>-343.359985</ele>
<time>2024-12-16T11:48:59.215Z</time>
</trkpt>
<trkpt lat="31.1208800" lon="35.3742100">
<ele>-343.300018</ele>
<time>2024-12-16T11:48:59.215Z</time>
</trkpt>
<trkpt lat="31.1217500" lon="35.3742700">
<ele>-345.180023</ele>
<time>2024-12-16T11:48:59.215Z</time>
</trkpt>
<trkpt lat="31.1221300" lon="35.3742100">
<ele>-349.649994</ele>
<time>2024-12-16T11:48:59.215Z</time>
</trkpt>
<trkpt lat="31.1222800" lon="35.3741400">
<ele>-351.459991</ele>
<time>2024-12-16T11:48:59.215Z</time>
</trkpt>
<trkpt lat="31.1225600" lon="35.3739400">
<ele>-355.500000</ele>
<time>2024-12-16T11:48:59.215Z</time>
</trkpt>
<trkpt lat="31.1227100" lon="35.3738300">
<ele>-357.200012</ele>
<time>2024-12-16T11:48:59.215Z</time>
</trkpt>
<trkpt lat="31.1228300" lon="35.3737700">
<ele>-357.519989</ele>
<time>2024-12-16T11:48:59.215Z</time>
</trkpt>
<trkpt lat="31.1228400" lon="35.3737700">
<ele>-357.399994</ele>
<time>2024-12-16T11:48:59.215Z</time>
</trkpt>
<trkpt lat="31.1228400" lon="35.3737700">
<ele>-357.399994</ele>
<time>2024-12-16T11:48:59.215Z</time>
</trkpt>
<trkpt lat="31.1228300" lon="35.3737700">
<ele>-357.519989</ele>
<time>2024-12-16T11:48:59.215Z</time>
</trkpt>
<trkpt lat="31.1229000" lon="35.3737200">
<ele>-357.359985</ele>
<time>2024-12-16T11:48:59.215Z</time>
</trkpt>
<trkpt lat="31.1231400" lon="35.3734800">
<ele>-354.779968</ele>
<time>2024-12-16T11:48:59.215Z</time>
</trkpt>
<trkpt lat="31.1232700" lon="35.3733300">
<ele>-352.930023</ele>
<time>2024-12-16T11:48:59.215Z</time>
</trkpt>
<trkpt lat="31.1233600" lon="35.3732700">
<ele>-352.380005</ele>
<time>2024-12-16T11:48:59.215Z</time>
</trkpt>
<trkpt lat="31.1234400" lon="35.3732400">
<ele>-352.420013</ele>
<time>2024-12-16T11:48:59.215Z</time>
</trkpt>
<trkpt lat="31.1235800" lon="35.3732300">
<ele>-352.190002</ele>
<time>2024-12-16T11:48:59.215Z</time>
</trkpt>
<trkpt lat="31.1237400" lon="35.3732100">
<ele>-353.929993</ele>
<time>2024-12-16T11:48:59.215Z</time>
</trkpt>
<trkpt lat="31.1239300" lon="35.3732300">
<ele>-355.910004</ele>
<time>2024-12-16T11:48:59.215Z</time>
</trkpt>
<trkpt lat="31.1241500" lon="35.3732400">
<ele>-358.160004</ele>
<time>2024-12-16T11:48:59.215Z</time>
</trkpt>
<trkpt lat="31.1247200" lon="35.3731900">
<ele>-356.539978</ele>
<time>2024-12-16T11:48:59.215Z</time>
</trkpt>
<trkpt lat="31.1252900" lon="35.3732700">
<ele>-362.170013</ele>
<time>2024-12-16T11:48:59.215Z</time>
</trkpt>
<trkpt lat="31.1255900" lon="35.3733800">
<ele>-360.290009</ele>
<time>2024-12-16T11:48:59.215Z</time>
</trkpt>
<trkpt lat="31.1257600" lon="35.3734800">
<ele>-358.110016</ele>
<time>2024-12-16T11:48:59.215Z</time>
</trkpt>
<trkpt lat="31.1260000" lon="35.3735800">
<ele>-356.069977</ele>
<time>2024-12-16T11:48:59.215Z</time>
</trkpt>
<trkpt lat="31.1260600" lon="35.3736500">
<ele>-355.259979</ele>
<time>2024-12-16T11:48:59.215Z</time>
</trkpt>
<trkpt lat="31.1260900" lon="35.3737300">
<ele>-354.210022</ele>
<time>2024-12-16T11:48:59.215Z</time>
</trkpt>
<trkpt lat="31.1261700" lon="35.3737700">
<ele>-354.260010</ele>
<time>2024-12-16T11:48:59.215Z</time>
</trkpt>
<trkpt lat="31.1262900" lon="35.3737500">
<ele>-355.609985</ele>
<time>2024-12-16T11:48:59.215Z</time>
</trkpt>
<trkpt lat="31.1263500" lon="35.3737900">
<ele>-355.700012</ele>
<time>2024-12-16T11:48:59.215Z</time>
</trkpt>
<trkpt lat="31.1264500" lon="35.3739400">
<ele>-355.590027</ele>
<time>2024-12-16T11:48:59.215Z</time>
</trkpt>
<trkpt lat="31.1265300" lon="35.3740100">
<ele>-356.449982</ele>
<time>2024-12-16T11:48:59.215Z</time>
</trkpt>
<trkpt lat="31.1266300" lon="35.3740700">
<ele>-357.949982</ele>
<time>2024-12-16T11:48:59.215Z</time>
</trkpt>
<trkpt lat="31.1270100" lon="35.3742100">
<ele>-362.529968</ele>
<time>2024-12-16T11:48:59.215Z</time>
</trkpt>
<trkpt lat="31.1271200" lon="35.3742600">
<ele>-361.989990</ele>
<time>2024-12-16T11:48:59.215Z</time>
</trkpt>
<trkpt lat="31.1271200" lon="35.3742600">
<ele>-361.989990</ele>
<time>2024-12-16T11:48:59.215Z</time>
</trkpt>
<trkpt lat="31.1272900" lon="35.3743400">
<ele>-360.340027</ele>
<time>2024-12-16T11:48:59.215Z</time>
</trkpt>
<trkpt lat="31.1274900" lon="35.3744000">
<ele>-356.929993</ele>
<time>2024-12-16T11:48:59.215Z</time>
</trkpt>
<trkpt lat="31.1279000" lon="35.3745000">
<ele>-356.730011</ele>
<time>2024-12-16T11:48:59.215Z</time>
</trkpt>
<trkpt lat="31.1283800" lon="35.3746300">
<ele>-356.000000</ele>
<time>2024-12-16T11:48:59.215Z</time>
</trkpt>
<trkpt lat="31.1287100" lon="35.3747200">
<ele>-356.299988</ele>
<time>2024-12-16T11:48:59.215Z</time>
</trkpt>
<trkpt lat="31.1289900" lon="35.3747200">
<ele>-354.699982</ele>
<time>2024-12-16T11:48:59.215Z</time>
</trkpt>
<trkpt lat="31.1295500" lon="35.3746500">
<ele>-356.520020</ele>
<time>2024-12-16T11:48:59.215Z</time>
</trkpt>
<trkpt lat="31.1297800" lon="35.3746400">
<ele>-354.720001</ele>
<time>2024-12-16T11:48:59.215Z</time>
</trkpt>
<trkpt lat="31.1299600" lon="35.3746400">
<ele>-353.610016</ele>
<time>2024-12-16T11:48:59.215Z</time>
</trkpt>
<trkpt lat="31.1300900" lon="35.3746400">
<ele>-353.500000</ele>
<time>2024-12-16T11:48:59.215Z</time>
</trkpt>
<trkpt lat="31.1303800" lon="35.3747100">
<ele>-351.480011</ele>
<time>2024-12-16T11:48:59.215Z</time>
</trkpt>
<trkpt lat="31.1307100" lon="35.3747800">
<ele>-350.859985</ele>
<time>2024-12-16T11:48:59.215Z</time>
</trkpt>
<trkpt lat="31.1309500" lon="35.3749500">
<ele>-353.069977</ele>
<time>2024-12-16T11:48:59.215Z</time>
</trkpt>
<trkpt lat="31.1312600" lon="35.3749700">
<ele>-362.050018</ele>
<time>2024-12-16T11:48:59.215Z</time>
</trkpt>
<trkpt lat="31.1313300" lon="35.3749700">
<ele>-363.290009</ele>
<time>2024-12-16T11:48:59.215Z</time>
</trkpt>
<trkpt lat="31.1313300" lon="35.3749600">
<ele>-363.399994</ele>
<time>2024-12-16T11:48:59.215Z</time>
</trkpt>
<trkpt lat="31.1313300" lon="35.3749600">
<ele>-363.399994</ele>
<time>2024-12-16T11:48:59.215Z</time>
</trkpt>
<trkpt lat="31.1313300" lon="35.3749700">
<ele>-363.290009</ele>
<time>2024-12-16T11:48:59.215Z</time>
</trkpt>
<trkpt lat="31.1314700" lon="35.3749700">
<ele>-363.250000</ele>
<time>2024-12-16T11:48:59.215Z</time>
</trkpt>
<trkpt lat="31.1316600" lon="35.3750100">
<ele>-359.740021</ele>
<time>2024-12-16T11:48:59.215Z</time>
</trkpt>
<trkpt lat="31.1318200" lon="35.3749800">
<ele>-357.990021</ele>
<time>2024-12-16T11:48:59.215Z</time>
</trkpt>
<trkpt lat="31.1320900" lon="35.3750500">
<ele>-347.639984</ele>
<time>2024-12-16T11:48:59.215Z</time>
</trkpt>
<trkpt lat="31.1324200" lon="35.3748100">
<ele>-351.760010</ele>
<time>2024-12-16T11:48:59.215Z</time>
</trkpt>
<trkpt lat="31.1325300" lon="35.3747500">
<ele>-352.259979</ele>
<time>2024-12-16T11:48:59.215Z</time>
</trkpt>
<trkpt lat="31.1326000" lon="35.3747000">
<ele>-354.300018</ele>
<time>2024-12-16T11:48:59.215Z</time>
</trkpt>
<trkpt lat="31.1327500" lon="35.3745400">
<ele>-361.250000</ele>
<time>2024-12-16T11:48:59.215Z</time>
</trkpt>
<trkpt lat="31.1328300" lon="35.3745000">
<ele>-363.089996</ele>
<time>2024-12-16T11:48:59.215Z</time>
</trkpt>
<trkpt lat="31.1330000" lon="35.3744700">
<ele>-363.630005</ele>
<time>2024-12-16T11:48:59.215Z</time>
</trkpt>
<trkpt lat="31.1331400" lon="35.3744200">
<ele>-364.179993</ele>
<time>2024-12-16T11:48:59.215Z</time>
</trkpt>
<trkpt lat="31.1333700" lon="35.3743000">
<ele>-364.110016</ele>
<time>2024-12-16T11:48:59.215Z</time>
</trkpt>
<trkpt lat="31.1334400" lon="35.3742800">
<ele>-364.410004</ele>
<time>2024-12-16T11:48:59.215Z</time>
</trkpt>
<trkpt lat="31.1337700" lon="35.3742700">
<ele>-363.819977</ele>
<time>2024-12-16T11:48:59.215Z</time>
</trkpt>
<trkpt lat="31.1338800" lon="35.3742500">
<ele>-363.649994</ele>
<time>2024-12-16T11:48:59.215Z</time>
</trkpt>
<trkpt lat="31.1339900" lon="35.3741900">
<ele>-362.750000</ele>
<time>2024-12-16T11:48:59.215Z</time>
</trkpt>
<trkpt lat="31.1341300" lon="35.3740200">
<ele>-365.059998</ele>
<time>2024-12-16T11:48:59.215Z</time>
</trkpt>
<trkpt lat="31.1342700" lon="35.3739000">
<ele>-367.839996</ele>
<time>2024-12-16T11:48:59.215Z</time>
</trkpt>
<trkpt lat="31.1345900" lon="35.3737400">
<ele>-368.589996</ele>
<time>2024-12-16T11:48:59.215Z</time>
</trkpt>
<trkpt lat="31.1349300" lon="35.3736300">
<ele>-367.879974</ele>
<time>2024-12-16T11:48:59.215Z</time>
</trkpt>
<trkpt lat="31.1353800" lon="35.3734300">
<ele>-372.350006</ele>
<time>2024-12-16T11:48:59.215Z</time>
</trkpt>
<trkpt lat="31.1354900" lon="35.3734100">
<ele>-372.899994</ele>
<time>2024-12-16T11:48:59.215Z</time>
</trkpt>
<trkpt lat="31.1356300" lon="35.3734400">
<ele>-372.580017</ele>
<time>2024-12-16T11:48:59.215Z</time>
</trkpt>
<trkpt lat="31.1357100" lon="35.3735200">
<ele>-371.430023</ele>
<time>2024-12-16T11:48:59.215Z</time>
</trkpt>
<trkpt lat="31.1357300" lon="35.3735700">
<ele>-370.820007</ele>
<time>2024-12-16T11:48:59.215Z</time>
</trkpt>
<trkpt lat="31.1357400" lon="35.3736800">
<ele>-369.429993</ele>
<time>2024-12-16T11:48:59.215Z</time>
</trkpt>
<trkpt lat="31.1357700" lon="35.3737700">
<ele>-368.250000</ele>
<time>2024-12-16T11:48:59.215Z</time>
</trkpt>
<trkpt lat="31.1357700" lon="35.3737700">
<ele>-368.250000</ele>
<time>2024-12-16T11:48:59.215Z</time>
</trkpt>
<trkpt lat="31.1358400" lon="35.3738100">
<ele>-367.839996</ele>
<time>2024-12-16T11:48:59.215Z</time>
</trkpt>
<trkpt lat="31.1360600" lon="35.3738400">
<ele>-367.239990</ele>
<time>2024-12-16T11:48:59.215Z</time>
</trkpt>
<trkpt lat="31.1361600" lon="35.3738300">
<ele>-368.050018</ele>
<time>2024-12-16T11:48:59.215Z</time>
</trkpt>
<trkpt lat="31.1365000" lon="35.3737400">
<ele>-374.640015</ele>
<time>2024-12-16T11:48:59.215Z</time>
</trkpt>
<trkpt lat="31.1366000" lon="35.3737400">
<ele>-377.019989</ele>
<time>2024-12-16T11:48:59.215Z</time>
</trkpt>
<trkpt lat="31.1368100" lon="35.3738100">
<ele>-380.360016</ele>
<time>2024-12-16T11:48:59.215Z</time>
</trkpt>
<trkpt lat="31.1369100" lon="35.3739800">
<ele>-379.190002</ele>
<time>2024-12-16T11:48:59.215Z</time>
</trkpt>
<trkpt lat="31.1369700" lon="35.3741700">
<ele>-377.250000</ele>
<time>2024-12-16T11:48:59.215Z</time>
</trkpt>
<trkpt lat="31.1369700" lon="35.3741600">
<ele>-377.369995</ele>
<time>2024-12-16T11:48:59.215Z</time>
</trkpt>
<trkpt lat="31.1369700" lon="35.3741600">
<ele>-377.369995</ele>
<time>2024-12-16T11:48:59.215Z</time>
</trkpt>
<trkpt lat="31.1369700" lon="35.3741700">
<ele>-377.250000</ele>
<time>2024-12-16T11:48:59.215Z</time>
</trkpt>
<trkpt lat="31.1369800" lon="35.3742200">
<ele>-376.929993</ele>
<time>2024-12-16T11:48:59.215Z</time>
</trkpt>
<trkpt lat="31.1371100" lon="35.3743700">
<ele>-376.019989</ele>
<time>2024-12-16T11:48:59.215Z</time>
</trkpt>
<trkpt lat="31.1371900" lon="35.3745100">
<ele>-374.680023</ele>
<time>2024-12-16T11:48:59.215Z</time>
</trkpt>
<trkpt lat="31.1373300" lon="35.3749200">
<ele>-376.359985</ele>
<time>2024-12-16T11:48:59.215Z</time>
</trkpt>
<trkpt lat="31.1374200" lon="35.3750800">
<ele>-378.750031</ele>
<time>2024-12-16T11:48:59.215Z</time>
</trkpt>
<trkpt lat="31.1377500" lon="35.3755500">
<ele>-381.899994</ele>
<time>2024-12-16T11:48:59.215Z</time>
</trkpt>
<trkpt lat="31.1378500" lon="35.3756400">
<ele>-381.230011</ele>
<time>2024-12-16T11:48:59.215Z</time>
</trkpt>
<trkpt lat="31.1379800" lon="35.3757100">
<ele>-380.079987</ele>
<time>2024-12-16T11:48:59.215Z</time>
</trkpt>
<trkpt lat="31.1380500" lon="35.3757300">
<ele>-379.510010</ele>
<time>2024-12-16T11:48:59.215Z</time>
</trkpt>
<trkpt lat="31.1382100" lon="35.3757200">
<ele>-379.630005</ele>
<time>2024-12-16T11:48:59.215Z</time>
</trkpt>
<trkpt lat="31.1383600" lon="35.3756400">
<ele>-380.970001</ele>
<time>2024-12-16T11:48:59.215Z</time>
</trkpt>
<trkpt lat="31.1383900" lon="35.3755900">
<ele>-381.779999</ele>
<time>2024-12-16T11:48:59.215Z</time>
</trkpt>
<trkpt lat="31.1385700" lon="35.3754500">
<ele>-382.909973</ele>
<time>2024-12-16T11:48:59.215Z</time>
</trkpt>
<trkpt lat="31.1388300" lon="35.3753500">
<ele>-382.420013</ele>
<time>2024-12-16T11:48:59.215Z</time>
</trkpt>
<trkpt lat="31.1390300" lon="35.3753800">
<ele>-384.209991</ele>
<time>2024-12-16T11:48:59.215Z</time>
</trkpt>
<trkpt lat="31.1394400" lon="35.3756200">
<ele>-390.699982</ele>
<time>2024-12-16T11:48:59.215Z</time>
</trkpt>
<trkpt lat="31.1396500" lon="35.3759600">
<ele>-391.139984</ele>
<time>2024-12-16T11:48:59.215Z</time>
</trkpt>
<trkpt lat="31.1397600" lon="35.3760800">
<ele>-391.489990</ele>
<time>2024-12-16T11:48:59.215Z</time>
</trkpt>
<trkpt lat="31.1397600" lon="35.3760800">
<ele>-391.489990</ele>
<time>2024-12-16T11:48:59.215Z</time>
</trkpt>
<trkpt lat="31.1399400" lon="35.3762700">
<ele>-393.229980</ele>
<time>2024-12-16T11:48:59.215Z</time>
</trkpt>
<trkpt lat="31.1401900" lon="35.3764800">
<ele>-393.789978</ele>
<time>2024-12-16T11:48:59.215Z</time>
</trkpt>
<trkpt lat="31.1405900" lon="35.3765400">
<ele>-393.880005</ele>
<time>2024-12-16T11:48:59.215Z</time>
</trkpt>
<trkpt lat="31.1407000" lon="35.3768400">
<ele>-393.479980</ele>
<time>2024-12-16T11:48:59.215Z</time>
</trkpt>
<trkpt lat="31.1407100" lon="35.3768300">
<ele>-393.439972</ele>
<time>2024-12-16T11:48:59.215Z</time>
</trkpt>
<trkpt lat="31.1407100" lon="35.3768300">
<ele>-393.439972</ele>
<time>2024-12-16T11:48:59.215Z</time>
</trkpt>
<trkpt lat="31.1407000" lon="35.3768400">
<ele>-393.479980</ele>
<time>2024-12-16T11:48:59.215Z</time>
</trkpt>
<trkpt lat="31.1407200" lon="35.3768900">
<ele>-393.410004</ele>
<time>2024-12-16T11:48:59.215Z</time>
</trkpt>
<trkpt lat="31.1410600" lon="35.3776100">
<ele>-392.579987</ele>
<time>2024-12-16T11:48:59.215Z</time>
</trkpt>
<trkpt lat="31.1411500" lon="35.3779100">
<ele>-392.450012</ele>
<time>2024-12-16T11:48:59.215Z</time>
</trkpt>
<trkpt lat="31.1411600" lon="35.3779700">
<ele>-392.250000</ele>
<time>2024-12-16T11:48:59.215Z</time>
</trkpt>
<trkpt lat="31.1413300" lon="35.3785700">
<ele>-392.879974</ele>
<time>2024-12-16T11:48:59.215Z</time>
</trkpt>
<trkpt lat="31.1413700" lon="35.3786600">
<ele>-393.000000</ele>
<time>2024-12-16T11:48:59.215Z</time>
</trkpt>
<trkpt lat="31.1414500" lon="35.3790000">
<ele>-392.869995</ele>
<time>2024-12-16T11:48:59.215Z</time>
</trkpt>
<trkpt lat="31.1415200" lon="35.3791500">
<ele>-392.969971</ele>
<time>2024-12-16T11:48:59.215Z</time>
</trkpt>
<trkpt lat="31.1415500" lon="35.3792000">
<ele>-393.000000</ele>
<time>2024-12-16T11:48:59.215Z</time>
</trkpt>
<trkpt lat="31.1415500" lon="35.3792000">
<ele>-393.000000</ele>
<time>2024-12-16T11:48:59.215Z</time>
</trkpt>
<trkpt lat="31.1416100" lon="35.3792800">
<ele>-393.000000</ele>
<time>2024-12-16T11:48:59.215Z</time>
</trkpt>
<trkpt lat="31.1417500" lon="35.3793900">
<ele>-393.900024</ele>
<time>2024-12-16T11:48:59.215Z</time>
</trkpt>
<trkpt lat="31.1419600" lon="35.3795900">
<ele>-394.399994</ele>
<time>2024-12-16T11:48:59.215Z</time>
</trkpt>
<trkpt lat="31.1420000" lon="35.3796200">
<ele>-393.980011</ele>
<time>2024-12-16T11:48:59.215Z</time>
</trkpt>
<trkpt lat="31.1422400" lon="35.3799400">
<ele>-391.200012</ele>
<time>2024-12-16T11:48:59.215Z</time>
</trkpt>
<trkpt lat="31.1423400" lon="35.3800500">
<ele>-390.669983</ele>
<time>2024-12-16T11:48:59.215Z</time>
</trkpt>
<trkpt lat="31.1424200" lon="35.3800900">
<ele>-390.209991</ele>
<time>2024-12-16T11:48:59.215Z</time>
</trkpt>
<trkpt lat="31.1437300" lon="35.3786600">
<ele>-391.509979</ele>
<time>2024-12-16T11:48:59.215Z</time>
</trkpt>
<trkpt lat="31.1437500" lon="35.3786800">
<ele>-391.250031</ele>
<time>2024-12-16T11:48:59.215Z</time>
</trkpt>
<trkpt lat="31.1437500" lon="35.3786800">
<ele>-391.250031</ele>
<time>2024-12-16T11:48:59.215Z</time>
</trkpt>
<trkpt lat="31.1437300" lon="35.3786600">
<ele>-391.509979</ele>
<time>2024-12-16T11:48:59.215Z</time>
</trkpt>
<trkpt lat="31.1440900" lon="35.3782600">
<ele>-390.880005</ele>
<time>2024-12-16T11:48:59.215Z</time>
</trkpt>
<trkpt lat="31.1444500" lon="35.3778700">
<ele>-390.970001</ele>
<time>2024-12-16T11:48:59.215Z</time>
</trkpt>
<trkpt lat="31.1448200" lon="35.3774700">
<ele>-390.900024</ele>
<time>2024-12-16T11:48:59.215Z</time>
</trkpt>
<trkpt lat="31.1451800" lon="35.3770800">
<ele>-392.860016</ele>
<time>2024-12-16T11:48:59.215Z</time>
</trkpt>
<trkpt lat="31.1455400" lon="35.3766800">
<ele>-392.010010</ele>
<time>2024-12-16T11:48:59.215Z</time>
</trkpt>
<trkpt lat="31.1455400" lon="35.3766800">
<ele>-392.010010</ele>
<time>2024-12-16T11:48:59.215Z</time>
</trkpt>
<trkpt lat="31.1455500" lon="35.3760900">
<ele>-391.930023</ele>
<time>2024-12-16T11:48:59.215Z</time>
</trkpt>
<trkpt lat="31.1455500" lon="35.3755100">
<ele>-391.200012</ele>
<time>2024-12-16T11:48:59.215Z</time>
</trkpt>
<trkpt lat="31.1455600" lon="35.3749200">
<ele>-393.080017</ele>
<time>2024-12-16T11:48:59.215Z</time>
</trkpt>
<trkpt lat="31.1455700" lon="35.3749200">
<ele>-393.250000</ele>
<time>2024-12-16T11:48:59.215Z</time>
</trkpt>
<trkpt lat="31.1455700" lon="35.3749200">
<ele>-393.250000</ele>
<time>2024-12-16T11:48:59.215Z</time>
</trkpt>
<trkpt lat="31.1455700" lon="35.3748800">
<ele>-393.239990</ele>
<time>2024-12-16T11:48:59.215Z</time>
</trkpt>
<trkpt lat="31.1455700" lon="35.3748300">
<ele>-393.229980</ele>
<time>2024-12-16T11:48:59.215Z</time>
</trkpt>
<trkpt lat="31.1455700" lon="35.3747600">
<ele>-393.220032</ele>
<time>2024-12-16T11:48:59.215Z</time>
</trkpt>
<trkpt lat="31.1455700" lon="35.3747200">
<ele>-393.200012</ele>
<time>2024-12-16T11:48:59.215Z</time>
</trkpt>
<trkpt lat="31.1455700" lon="35.3746600">
<ele>-392.979980</ele>
<time>2024-12-16T11:48:59.215Z</time>
</trkpt>
<trkpt lat="31.1455700" lon="35.3746100">
<ele>-392.799988</ele>
<time>2024-12-16T11:48:59.215Z</time>
</trkpt>
<trkpt lat="31.1455800" lon="35.3745500">
<ele>-392.730011</ele>
<time>2024-12-16T11:48:59.215Z</time>
</trkpt>
<trkpt lat="31.1455800" lon="35.3745000">
<ele>-392.549988</ele>
<time>2024-12-16T11:48:59.215Z</time>
</trkpt>
<trkpt lat="31.1455800" lon="35.3744500">
<ele>-392.369995</ele>
<time>2024-12-16T11:48:59.215Z</time>
</trkpt>
<trkpt lat="31.1455800" lon="35.3743900">
<ele>-392.169983</ele>
<time>2024-12-16T11:48:59.215Z</time>
</trkpt>
<trkpt lat="31.1455800" lon="35.3743200">
<ele>-391.939972</ele>
<time>2024-12-16T11:48:59.215Z</time>
</trkpt>
<trkpt lat="31.1455800" lon="35.3742700">
<ele>-391.779999</ele>
<time>2024-12-16T11:48:59.215Z</time>
</trkpt>
<trkpt lat="31.1455800" lon="35.3742100">
<ele>-391.580017</ele>
<time>2024-12-16T11:48:59.215Z</time>
</trkpt>
<trkpt lat="31.1455900" lon="35.3741600">
<ele>-391.619995</ele>
<time>2024-12-16T11:48:59.215Z</time>
</trkpt>
<trkpt lat="31.1455900" lon="35.3741100">
<ele>-391.619995</ele>
<time>2024-12-16T11:48:59.215Z</time>
</trkpt>
<trkpt lat="31.1455900" lon="35.3740700">
<ele>-391.619995</ele>
<time>2024-12-16T11:48:59.215Z</time>
</trkpt>
<trkpt lat="31.1455900" lon="35.3740000">
<ele>-391.619995</ele>
<time>2024-12-16T11:48:59.215Z</time>
</trkpt>
<trkpt lat="31.1455900" lon="35.3739500">
<ele>-391.619995</ele>
<time>2024-12-16T11:48:59.215Z</time>
</trkpt>
<trkpt lat="31.1455900" lon="35.3739100">
<ele>-391.619995</ele>
<time>2024-12-16T11:48:59.215Z</time>
</trkpt>
<trkpt lat="31.1455900" lon="35.3738700">
<ele>-391.619995</ele>
<time>2024-12-16T11:48:59.215Z</time>
</trkpt>
<trkpt lat="31.1455900" lon="35.3737900">
<ele>-391.619995</ele>
<time>2024-12-16T11:48:59.215Z</time>
</trkpt>
<trkpt lat="31.1455900" lon="35.3737500">
<ele>-391.619995</ele>
<time>2024-12-16T11:48:59.215Z</time>
</trkpt>
<trkpt lat="31.1455900" lon="35.3737100">
<ele>-391.619995</ele>
<time>2024-12-16T11:48:59.215Z</time>
</trkpt>
<trkpt lat="31.1455900" lon="35.3736700">
<ele>-391.619995</ele>
<time>2024-12-16T11:48:59.215Z</time>
</trkpt>
<trkpt lat="31.1456000" lon="35.3736200">
<ele>-391.800018</ele>
<time>2024-12-16T11:48:59.215Z</time>
</trkpt>
<trkpt lat="31.1456000" lon="35.3735800">
<ele>-391.890015</ele>
<time>2024-12-16T11:48:59.215Z</time>
</trkpt>
<trkpt lat="31.1456000" lon="35.3735300">
<ele>-392.050018</ele>
<time>2024-12-16T11:48:59.215Z</time>
</trkpt>
<trkpt lat="31.1456000" lon="35.3734900">
<ele>-392.169983</ele>
<time>2024-12-16T11:48:59.215Z</time>
</trkpt>
<trkpt lat="31.1456000" lon="35.3734400">
<ele>-392.320007</ele>
<time>2024-12-16T11:48:59.215Z</time>
</trkpt>
<trkpt lat="31.1456000" lon="35.3734100">
<ele>-392.409973</ele>
<time>2024-12-16T11:48:59.215Z</time>
</trkpt>
<trkpt lat="31.1456100" lon="35.3733600">
<ele>-392.709991</ele>
<time>2024-12-16T11:48:59.215Z</time>
</trkpt>
<trkpt lat="31.1456100" lon="35.3733200">
<ele>-392.820007</ele>
<time>2024-12-16T11:48:59.215Z</time>
</trkpt>
<trkpt lat="31.1456100" lon="35.3732400">
<ele>-393.050018</ele>
<time>2024-12-16T11:48:59.215Z</time>
</trkpt>
<trkpt lat="31.1456100" lon="35.3731900">
<ele>-393.200012</ele>
<time>2024-12-16T11:48:59.215Z</time>
</trkpt>
<trkpt lat="31.1456100" lon="35.3731500">
<ele>-393.309998</ele>
<time>2024-12-16T11:48:59.215Z</time>
</trkpt>
<trkpt lat="31.1456100" lon="35.3731100">
<ele>-393.430023</ele>
<time>2024-12-16T11:48:59.215Z</time>
</trkpt>
<trkpt lat="31.1456200" lon="35.3730500">
<ele>-393.709991</ele>
<time>2024-12-16T11:48:59.215Z</time>
</trkpt>
<trkpt lat="31.1456200" lon="35.3730000">
<ele>-393.789978</ele>
<time>2024-12-16T11:48:59.215Z</time>
</trkpt>
<trkpt lat="31.1456200" lon="35.3729400">
<ele>-393.890015</ele>
<time>2024-12-16T11:48:59.215Z</time>
</trkpt>
<trkpt lat="31.1456200" lon="35.3728900">
<ele>-393.970001</ele>
<time>2024-12-16T11:48:59.215Z</time>
</trkpt>
<trkpt lat="31.1456200" lon="35.3728500">
<ele>-394.039978</ele>
<time>2024-12-16T11:48:59.215Z</time>
</trkpt>
<trkpt lat="31.1456200" lon="35.3728000">
<ele>-394.120026</ele>
<time>2024-12-16T11:48:59.215Z</time>
</trkpt>
<trkpt lat="31.1456200" lon="35.3727400">
<ele>-394.129974</ele>
<time>2024-12-16T11:48:59.215Z</time>
</trkpt>
<trkpt lat="31.1456200" lon="35.3727000">
<ele>-394.100006</ele>
<time>2024-12-16T11:48:59.215Z</time>
</trkpt>
<trkpt lat="31.1456200" lon="35.3726600">
<ele>-394.059998</ele>
<time>2024-12-16T11:48:59.215Z</time>
</trkpt>
<trkpt lat="31.1456200" lon="35.3726000">
<ele>-394.010010</ele>
<time>2024-12-16T11:48:59.215Z</time>
</trkpt>
<trkpt lat="31.1456200" lon="35.3725700">
<ele>-393.990021</ele>
<time>2024-12-16T11:48:59.215Z</time>
</trkpt>
<trkpt lat="31.1456300" lon="35.3725000">
<ele>-394.070007</ele>
<time>2024-12-16T11:48:59.215Z</time>
</trkpt>
<trkpt lat="31.1456300" lon="35.3724500">
<ele>-393.760010</ele>
<time>2024-12-16T11:48:59.215Z</time>
</trkpt>
<trkpt lat="31.1456300" lon="35.3724000">
<ele>-393.449982</ele>
<time>2024-12-16T11:48:59.215Z</time>
</trkpt>
<trkpt lat="31.1456300" lon="35.3723500">
<ele>-393.139984</ele>
<time>2024-12-16T11:48:59.215Z</time>
</trkpt>
<trkpt lat="31.1456300" lon="35.3723000">
<ele>-392.820007</ele>
<time>2024-12-16T11:48:59.215Z</time>
</trkpt>
<trkpt lat="31.1456300" lon="35.3722500">
<ele>-392.510010</ele>
<time>2024-12-16T11:48:59.215Z</time>
</trkpt>
<trkpt lat="31.1456300" lon="35.3722000">
<ele>-392.260010</ele>
<time>2024-12-16T11:48:59.215Z</time>
</trkpt>
<trkpt lat="31.1456200" lon="35.3721300">
<ele>-391.829987</ele>
<time>2024-12-16T11:48:59.215Z</time>
</trkpt>
<trkpt lat="31.1456200" lon="35.3720800">
<ele>-391.649994</ele>
<time>2024-12-16T11:48:59.215Z</time>
</trkpt>
<trkpt lat="31.1456200" lon="35.3720400">
<ele>-391.500000</ele>
<time>2024-12-16T11:48:59.215Z</time>
</trkpt>
<trkpt lat="31.1456200" lon="35.3719800">
<ele>-391.290009</ele>
<time>2024-12-16T11:48:59.215Z</time>
</trkpt>
<trkpt lat="31.1456200" lon="35.3719300">
<ele>-391.190002</ele>
<time>2024-12-16T11:48:59.215Z</time>
</trkpt>
<trkpt lat="31.1456200" lon="35.3718800">
<ele>-391.279999</ele>
<time>2024-12-16T11:48:59.215Z</time>
</trkpt>
<trkpt lat="31.1456300" lon="35.3718400">
<ele>-391.509979</ele>
<time>2024-12-16T11:48:59.215Z</time>
</trkpt>
<trkpt lat="31.1456300" lon="35.3717900">
<ele>-391.599976</ele>
<time>2024-12-16T11:48:59.215Z</time>
</trkpt>
<trkpt lat="31.1456300" lon="35.3717400">
<ele>-391.680023</ele>
<time>2024-12-16T11:48:59.215Z</time>
</trkpt>
<trkpt lat="31.1456300" lon="35.3716900">
<ele>-391.769989</ele>
<time>2024-12-16T11:48:59.215Z</time>
</trkpt>
<trkpt lat="31.1456300" lon="35.3716500">
<ele>-391.790009</ele>
<time>2024-12-16T11:48:59.215Z</time>
</trkpt>
<trkpt lat="31.1456300" lon="35.3715900">
<ele>-391.729980</ele>
<time>2024-12-16T11:48:59.215Z</time>
</trkpt>
<trkpt lat="31.1456300" lon="35.3715400">
<ele>-391.680023</ele>
<time>2024-12-16T11:48:59.215Z</time>
</trkpt>
<trkpt lat="31.1456300" lon="35.3715000">
<ele>-391.639984</ele>
<time>2024-12-16T11:48:59.215Z</time>
</trkpt>
<trkpt lat="31.1456300" lon="35.3714600">
<ele>-391.599976</ele>
<time>2024-12-16T11:48:59.215Z</time>
</trkpt>
<trkpt lat="31.1456300" lon="35.3714100">
<ele>-391.559998</ele>
<time>2024-12-16T11:48:59.215Z</time>
</trkpt>
<trkpt lat="31.1456300" lon="35.3713600">
<ele>-391.559998</ele>
<time>2024-12-16T11:48:59.215Z</time>
</trkpt>
<trkpt lat="31.1456300" lon="35.3713200">
<ele>-391.580017</ele>
<time>2024-12-16T11:48:59.215Z</time>
</trkpt>
<trkpt lat="31.1456300" lon="35.3712800">
<ele>-391.609985</ele>
<time>2024-12-16T11:48:59.215Z</time>
</trkpt>
<trkpt lat="31.1456300" lon="35.3712100">
<ele>-391.660004</ele>
<time>2024-12-16T11:48:59.215Z</time>
</trkpt>
<trkpt lat="31.1456300" lon="35.3711600">
<ele>-391.700012</ele>
<time>2024-12-16T11:48:59.215Z</time>
</trkpt>
<trkpt lat="31.1456300" lon="35.3711100">
<ele>-391.729980</ele>
<time>2024-12-16T11:48:59.215Z</time>
</trkpt>
<trkpt lat="31.1456400" lon="35.3710600">
<ele>-391.460022</ele>
<time>2024-12-16T11:48:59.215Z</time>
</trkpt>
<trkpt lat="31.1456400" lon="35.3710000">
<ele>-391.169983</ele>
<time>2024-12-16T11:48:59.215Z</time>
</trkpt>
<trkpt lat="31.1456400" lon="35.3709500">
<ele>-390.940002</ele>
<time>2024-12-16T11:48:59.215Z</time>
</trkpt>
<trkpt lat="31.1456400" lon="35.3709000">
<ele>-390.699982</ele>
<time>2024-12-16T11:48:59.215Z</time>
</trkpt>
<trkpt lat="31.1456500" lon="35.3708400">
<ele>-390.350006</ele>
<time>2024-12-16T11:48:59.215Z</time>
</trkpt>
<trkpt lat="31.1456500" lon="35.3707800">
<ele>-390.059998</ele>
<time>2024-12-16T11:48:59.215Z</time>
</trkpt>
<trkpt lat="31.1456500" lon="35.3707400">
<ele>-389.869995</ele>
<time>2024-12-16T11:48:59.215Z</time>
</trkpt>
<trkpt lat="31.1456500" lon="35.3706900">
<ele>-389.629974</ele>
<time>2024-12-16T11:48:59.215Z</time>
</trkpt>
<trkpt lat="31.1456500" lon="35.3706300">
<ele>-389.339996</ele>
<time>2024-12-16T11:48:59.215Z</time>
</trkpt>
<trkpt lat="31.1456500" lon="35.3705800">
<ele>-389.100006</ele>
<time>2024-12-16T11:48:59.215Z</time>
</trkpt>
<trkpt lat="31.1456500" lon="35.3705300">
<ele>-389.039978</ele>
<time>2024-12-16T11:48:59.215Z</time>
</trkpt>
<trkpt lat="31.1456600" lon="35.3704900">
<ele>-389.020020</ele>
<time>2024-12-16T11:48:59.215Z</time>
</trkpt>
<trkpt lat="31.1456600" lon="35.3704300">
<ele>-389.150024</ele>
<time>2024-12-16T11:48:59.215Z</time>
</trkpt>
<trkpt lat="31.1456600" lon="35.3703800">
<ele>-389.270020</ele>
<time>2024-12-16T11:48:59.215Z</time>
</trkpt>
<trkpt lat="31.1456600" lon="35.3703300">
<ele>-389.380005</ele>
<time>2024-12-16T11:48:59.215Z</time>
</trkpt>
<trkpt lat="31.1456600" lon="35.3702800">
<ele>-389.490021</ele>
<time>2024-12-16T11:48:59.215Z</time>
</trkpt>
<trkpt lat="31.1456700" lon="35.3702100">
<ele>-389.309998</ele>
<time>2024-12-16T11:48:59.215Z</time>
</trkpt>
<trkpt lat="31.1456700" lon="35.3701600">
<ele>-389.280029</ele>
<time>2024-12-16T11:48:59.215Z</time>
</trkpt>
<trkpt lat="31.1456800" lon="35.3701200">
<ele>-389.150024</ele>
<time>2024-12-16T11:48:59.215Z</time>
</trkpt>
<trkpt lat="31.1456800" lon="35.3700700">
<ele>-389.130005</ele>
<time>2024-12-16T11:48:59.215Z</time>
</trkpt>
<trkpt lat="31.1456800" lon="35.3700200">
<ele>-389.110016</ele>
<time>2024-12-16T11:48:59.215Z</time>
</trkpt>
<trkpt lat="31.1456900" lon="35.3699700">
<ele>-388.920013</ele>
<time>2024-12-16T11:48:59.215Z</time>
</trkpt>
<trkpt lat="31.1456900" lon="35.3699100">
<ele>-388.699982</ele>
<time>2024-12-16T11:48:59.215Z</time>
</trkpt>
<trkpt lat="31.1457000" lon="35.3698500">
<ele>-388.440002</ele>
<time>2024-12-16T11:48:59.215Z</time>
</trkpt>
<trkpt lat="31.1457100" lon="35.3698100">
<ele>-388.279999</ele>
<time>2024-12-16T11:48:59.215Z</time>
</trkpt>
<trkpt lat="31.1457200" lon="35.3697700">
<ele>-388.139984</ele>
<time>2024-12-16T11:48:59.215Z</time>
</trkpt>
<trkpt lat="31.1457400" lon="35.3697200">
<ele>-388.009979</ele>
<time>2024-12-16T11:48:59.215Z</time>
</trkpt>
<trkpt lat="31.1457600" lon="35.3696900">
<ele>-388.089996</ele>
<time>2024-12-16T11:48:59.215Z</time>
</trkpt>
<trkpt lat="31.1457800" lon="35.3696600">
<ele>-388.179993</ele>
<time>2024-12-16T11:48:59.215Z</time>
</trkpt>
<trkpt lat="31.1458000" lon="35.3696300">
<ele>-388.290009</ele>
<time>2024-12-16T11:48:59.215Z</time>
</trkpt>
<trkpt lat="31.1458400" lon="35.3696000">
<ele>-388.460022</ele>
<time>2024-12-16T11:48:59.215Z</time>
</trkpt>
<trkpt lat="31.1458800" lon="35.3695900">
<ele>-388.640015</ele>
<time>2024-12-16T11:48:59.215Z</time>
</trkpt>
<trkpt lat="31.1459200" lon="35.3696000">
<ele>-388.750000</ele>
<time>2024-12-16T11:48:59.215Z</time>
</trkpt>
<trkpt lat="31.1459600" lon="35.3696000">
<ele>-388.899994</ele>
<time>2024-12-16T11:48:59.215Z</time>
</trkpt>
<trkpt lat="31.1460000" lon="35.3696200">
<ele>-388.970001</ele>
<time>2024-12-16T11:48:59.215Z</time>
</trkpt>
<trkpt lat="31.1460300" lon="35.3696400">
<ele>-389.000000</ele>
<time>2024-12-16T11:48:59.215Z</time>
</trkpt>
<trkpt lat="31.1460600" lon="35.3696600">
<ele>-389.039978</ele>
<time>2024-12-16T11:48:59.215Z</time>
</trkpt>
<trkpt lat="31.1460900" lon="35.3696900">
<ele>-389.039978</ele>
<time>2024-12-16T11:48:59.215Z</time>
</trkpt>
<trkpt lat="31.1461200" lon="35.3697100">
<ele>-389.010010</ele>
<time>2024-12-16T11:48:59.215Z</time>
</trkpt>
<trkpt lat="31.1461600" lon="35.3697400">
<ele>-388.699982</ele>
<time>2024-12-16T11:48:59.215Z</time>
</trkpt>
<trkpt lat="31.1461900" lon="35.3697700">
<ele>-388.369995</ele>
<time>2024-12-16T11:48:59.215Z</time>
</trkpt>
<trkpt lat="31.1462200" lon="35.3698000">
<ele>-388.049988</ele>
<time>2024-12-16T11:48:59.215Z</time>
</trkpt>
<trkpt lat="31.1462900" lon="35.3698300">
<ele>-387.579987</ele>
<time>2024-12-16T11:48:59.215Z</time>
</trkpt>
<trkpt lat="31.1463300" lon="35.3698400">
<ele>-387.359985</ele>
<time>2024-12-16T11:48:59.215Z</time>
</trkpt>
<trkpt lat="31.1463700" lon="35.3698400">
<ele>-387.220001</ele>
<time>2024-12-16T11:48:59.215Z</time>
</trkpt>
<trkpt lat="31.1464000" lon="35.3698500">
<ele>-387.059998</ele>
<time>2024-12-16T11:48:59.215Z</time>
</trkpt>
<trkpt lat="31.1464400" lon="35.3698400">
<ele>-387.019989</ele>
<time>2024-12-16T11:48:59.215Z</time>
</trkpt>
<trkpt lat="31.1464900" lon="35.3698400">
<ele>-386.889984</ele>
<time>2024-12-16T11:48:59.215Z</time>
</trkpt>
<trkpt lat="31.1465400" lon="35.3698400">
<ele>-386.759979</ele>
<time>2024-12-16T11:48:59.215Z</time>
</trkpt>
<trkpt lat="31.1465800" lon="35.3698400">
<ele>-386.649994</ele>
<time>2024-12-16T11:48:59.215Z</time>
</trkpt>
<trkpt lat="31.1466200" lon="35.3698300">
<ele>-386.529999</ele>
<time>2024-12-16T11:48:59.215Z</time>
</trkpt>
<trkpt lat="31.1466500" lon="35.3698300">
<ele>-386.440002</ele>
<time>2024-12-16T11:48:59.215Z</time>
</trkpt>
<trkpt lat="31.1466900" lon="35.3698200">
<ele>-386.769989</ele>
<time>2024-12-16T11:48:59.215Z</time>
</trkpt>
<trkpt lat="31.1467200" lon="35.3698100">
<ele>-387.290009</ele>
<time>2024-12-16T11:48:59.215Z</time>
</trkpt>
<trkpt lat="31.1467800" lon="35.3698000">
<ele>-388.389984</ele>
<time>2024-12-16T11:48:59.215Z</time>
</trkpt>
<trkpt lat="31.1468400" lon="35.3697800">
<ele>-389.559998</ele>
<time>2024-12-16T11:48:59.215Z</time>
</trkpt>
<trkpt lat="31.1468700" lon="35.3697700">
<ele>-390.190002</ele>
<time>2024-12-16T11:48:59.215Z</time>
</trkpt>
<trkpt lat="31.1469100" lon="35.3697600">
<ele>-391.029999</ele>
<time>2024-12-16T11:48:59.215Z</time>
</trkpt>
<trkpt lat="31.1469500" lon="35.3697500">
<ele>-391.899994</ele>
<time>2024-12-16T11:48:59.215Z</time>
</trkpt>
<trkpt lat="31.1469800" lon="35.3697400">
<ele>-392.519989</ele>
<time>2024-12-16T11:48:59.215Z</time>
</trkpt>
<trkpt lat="31.1470300" lon="35.3697200">
<ele>-393.540009</ele>
<time>2024-12-16T11:48:59.215Z</time>
</trkpt>
<trkpt lat="31.1470700" lon="35.3697100">
<ele>-394.259979</ele>
<time>2024-12-16T11:48:59.215Z</time>
</trkpt>
<trkpt lat="31.1471300" lon="35.3697000">
<ele>-395.309998</ele>
<time>2024-12-16T11:48:59.215Z</time>
</trkpt>
<trkpt lat="31.1471900" lon="35.3696900">
<ele>-396.330017</ele>
<time>2024-12-16T11:48:59.215Z</time>
</trkpt>
<trkpt lat="31.1472200" lon="35.3696900">
<ele>-396.850006</ele>
<time>2024-12-16T11:48:59.215Z</time>
</trkpt>
<trkpt lat="31.1472600" lon="35.3696900">
<ele>-396.630005</ele>
<time>2024-12-16T11:48:59.215Z</time>
</trkpt>
<trkpt lat="31.1473000" lon="35.3696900">
<ele>-396.359985</ele>
<time>2024-12-16T11:48:59.215Z</time>
</trkpt>
<trkpt lat="31.1473600" lon="35.3696900">
<ele>-395.950012</ele>
<time>2024-12-16T11:48:59.215Z</time>
</trkpt>
<trkpt lat="31.1473900" lon="35.3697000">
<ele>-395.759979</ele>
<time>2024-12-16T11:48:59.215Z</time>
</trkpt>
<trkpt lat="31.1474200" lon="35.3697100">
<ele>-395.559998</ele>
<time>2024-12-16T11:48:59.215Z</time>
</trkpt>
<trkpt lat="31.1474500" lon="35.3697200">
<ele>-395.360016</ele>
<time>2024-12-16T11:48:59.215Z</time>
</trkpt>
<trkpt lat="31.1474900" lon="35.3697400">
<ele>-395.190002</ele>
<time>2024-12-16T11:48:59.215Z</time>
</trkpt>
<trkpt lat="31.1475200" lon="35.3697500">
<ele>-395.040009</ele>
<time>2024-12-16T11:48:59.215Z</time>
</trkpt>
<trkpt lat="31.1475500" lon="35.3697700">
<ele>-394.920013</ele>
<time>2024-12-16T11:48:59.215Z</time>
</trkpt>
<trkpt lat="31.1475800" lon="35.3697900">
<ele>-394.769989</ele>
<time>2024-12-16T11:48:59.215Z</time>
</trkpt>
<trkpt lat="31.1476200" lon="35.3698000">
<ele>-394.450012</ele>
<time>2024-12-16T11:48:59.215Z</time>
</trkpt>
<trkpt lat="31.1476700" lon="35.3698100">
<ele>-394.020020</ele>
<time>2024-12-16T11:48:59.215Z</time>
</trkpt>
<trkpt lat="31.1476700" lon="35.3698100">
<ele>-394.020020</ele>
<time>2024-12-16T11:48:59.215Z</time>
</trkpt>
<trkpt lat="31.1476700" lon="35.3698100">
<ele>-394.020020</ele>
<time>2024-12-16T11:48:59.215Z</time>
</trkpt>
<trkpt lat="31.1476500" lon="35.3699200">
<ele>-394.580017</ele>
<time>2024-12-16T11:48:59.215Z</time>
</trkpt>
<trkpt lat="31.1476900" lon="35.3698500">
<ele>-393.919983</ele>
<time>2024-12-16T11:48:59.215Z</time>
</trkpt>
<trkpt lat="31.1478000" lon="35.3697900">
<ele>-392.899994</ele>
<time>2024-12-16T11:48:59.215Z</time>
</trkpt>
<trkpt lat="31.1479700" lon="35.3697500">
<ele>-391.819977</ele>
<time>2024-12-16T11:48:59.215Z</time>
</trkpt>
<trkpt lat="31.1480400" lon="35.3697500">
<ele>-391.399994</ele>
<time>2024-12-16T11:48:59.215Z</time>
</trkpt>
<trkpt lat="31.1480700" lon="35.3697600">
<ele>-391.339996</ele>
<time>2024-12-16T11:48:59.215Z</time>
</trkpt>
</trkseg>
</trk>
</gpx>
